# Wetter Temperatur Luftdruck Luftfeuchtigkeit Sichtweite Windgeschwindigkeit Windrichtung Zeit
1 Clouds -1 1015 86 10000 2.1 160 20:56 17.10.2019
2 Clouds -1 1015 86 10000 2.1 160 20:38 17.10.2019
3 Clouds -1 1015 92 10000 4.1 120 20:18 17.10.2019
4 Clouds -1 1015 92 10000 3.1 120 19:42 17.10.2019
5 Clouds -1 1015 92 10000 3.1 120 19:42 17.10.2019
6 Clouds -1 1016 92 10000 2.6 110 19:21 17.10.2019
7 Clouds -1 1016 92 10000 2.6 110 18:59 17.10.2019
8 Snow -1 1016 92 10000 2.6 100 18:39 17.10.2019
9 Snow -1 1016 92 5000 2.6 80 18:21 17.10.2019
10 Clouds -1 1016 86 10000 2.1 80 17:55 17.10.2019
11 Clouds -1 1016 86 10000 2.1 80 17:55 17.10.2019
12 Clouds -1 1016 86 10000 2.1 80 17:36 17.10.2019
13 Clouds -1 1016 92 10000 2.1 70 17:18 17.10.2019
14 Clouds -1 1017 92 10000 1.5 50 16:41 17.10.2019
15 Clouds -1 1017 86 10000 2.1 80 16:19 17.10.2019
16 Clouds -1 1017 86 10000 2.1 80 16:19 17.10.2019
17 Clouds -1 1017 86 10000 2.1 80 15:57 17.10.2019
18 Clouds -1 1017 86 10000 2.6 110 15:39 17.10.2019
19 Clouds -1 1017 86 10000 2.1 110 15:20 17.10.2019
20 Clouds -1 1017 86 10000 2.1 110 15:20 17.10.2019
21 Clouds -1 1017 86 10000 2.1 110 14:57 17.10.2019
22 Snow -1 1017 92 10000 2.1 110 14:38 17.10.2019
23 Rain 0 1017 75 10000 2.6 100 14:20 17.10.2019
24 Clouds 0 1018 75 10000 1 90 13:41 17.10.2019
25 Clouds 0 1018 75 10000 1.5 90 13:21 17.10.2019
26 Clouds 0 1018 75 10000 1.5 90 12:58 17.10.2019
27 Clouds 0 1018 75 10000 2.6 110 12:38 17.10.2019
28 Clouds 0 1018 77 10000 2.6 90 12:19 17.10.2019
29 Clouds -1 1018 86 10000 3.1 110 11:55 17.10.2019
30 Clouds -1 1018 86 10000 3.1 110 11:55 17.10.2019
31 Clouds -1 1018 86 10000 3.1 110 11:55 17.10.2019
32 Clouds -1 1018 86 10000 3.1 110 11:55 17.10.2019
33 Clouds -1 1018 86 10000 3.1 110 11:37 17.10.2019
34 Clouds -1 1018 86 10000 2.1 100 11:18 17.10.2019
35 Clouds -1 1018 92 10000 2.1 80 10:41 17.10.2019
36 Clouds -1 1018 92 10000 2.6 70 10:19 17.10.2019
37 -273 0 0 0 0 0 09:56 17.10.2019
38 Clouds -1 1018 92 10000 2.6 70 09:56 17.10.2019
39 Clouds -1 1018 92 10000 2.1 70 09:38 17.10.2019
40 Clouds -1 1018 92 10000 2.1 70 09:19 17.10.2019
41 Clouds -1 1018 92 10000 1.5 70 08:48 17.10.2019
42 Clouds -1 1018 92 10000 1.5 70 08:27 17.10.2019
43 Clouds -1 1018 92 10000 1.5 20 07:59 17.10.2019
44 -273 0 0 0 0 0 07:41 17.10.2019
45 Clouds -1 1018 92 10000 1.5 40 07:41 17.10.2019
46 Clouds -1 1018 92 10000 1.5 30 07:21 17.10.2019
47 Clouds -1 1018 92 10000 1.5 30 07:21 17.10.2019
48 Snow -1 1018 92 10000 1.5 50 06:43 17.10.2019
49 Snow -1 1018 92 10000 1.5 360 06:24 17.10.2019
50 Snow -1 1018 92 10000 1.5 360 05:59 17.10.2019
51 Snow -1 1018 92 10000 1.5 30 05:35 17.10.2019
52 Clouds -1 1018 92 10000 1 0 04:58 17.10.2019
53 Clouds -1 1018 92 10000 1.5 360 04:31 17.10.2019
54 Clouds -1 1018 92 10000 2.1 360 03:45 17.10.2019
55 Clouds -1 1018 92 10000 2.1 340 01:56 17.10.2019
56 Clouds -1 1018 92 10000 2.1 340 01:56 17.10.2019
57 Clouds -1 1018 92 10000 2.1 350 00:42 17.10.2019
58 Clouds -1 1018 92 10000 2.6 360 00:20 17.10.2019
59 Clouds -1 1018 92 10000 2.6 340 23:42 16.10.2019
60 Clouds -1 1018 92 10000 2.1 340 23:22 16.10.2019
61 Clouds -1 1018 92 10000 2.1 340 22:58 16.10.2019
62 Snow -1 1018 92 10000 2.6 340 22:38 16.10.2019
63 Snow -1 1018 100 10000 2.6 350 22:20 16.10.2019
64 Snow -1 1018 100 10000 2.6 350 21:58 16.10.2019
65 Clouds -1 1018 100 10000 2.1 360 21:38 16.10.2019
66 Clouds -1 1018 100 10000 2.6 0 21:20 16.10.2019
67 Clouds -1 1018 100 10000 2.6 0 20:59 16.10.2019
68 Clouds -1 1018 100 10000 2.6 0 20:59 16.10.2019
69 Clouds 0 1018 94 10000 2.1 350 20:41 16.10.2019
70 Clouds 0 1018 94 10000 2.6 360 20:22 16.10.2019
71 Clouds 0 1018 94 10000 2.6 360 19:59 16.10.2019
72 Clouds 0 1018 94 10000 2.6 350 19:40 16.10.2019
73 Clouds 0 1018 94 10000 2.6 350 19:21 16.10.2019
74 Clouds 0 1018 94 10000 2.6 340 18:56 16.10.2019
75 Clouds 0 1018 94 10000 2.6 340 18:56 16.10.2019
76 Clouds 0 1018 94 10000 2.6 340 18:37 16.10.2019
77 Clouds 0 1018 92 10000 1.5 310 18:18 16.10.2019
78 Clouds 0 1018 92 10000 1.5 310 18:18 16.10.2019
79 Clouds 0 1018 92 10000 2.1 350 17:54 16.10.2019
80 Clouds 0 1018 92 10000 2.1 350 17:36 16.10.2019
81 Clouds 0 1018 92 10000 1.5 330 17:18 16.10.2019
82 Clouds 0 1018 92 10000 1 0 16:43 16.10.2019
83 Clouds 0 1017 92 10000 1.5 20 16:22 16.10.2019
84 Clouds 0 1017 92 10000 1.5 20 15:58 16.10.2019
85 Clouds 0 1018 92 10000 1.5 320 15:39 16.10.2019
86 Rain 1 1018 83 10000 2.1 310 15:19 16.10.2019
87 Rain 1 1018 83 10000 2.1 310 14:58 16.10.2019
88 Rain 1 1018 83 10000 2.1 310 14:39 16.10.2019
89 Rain 1 1018 80 10000 2.1 330 14:19 16.10.2019
90 Rain 1 1018 80 10000 2.1 330 13:57 16.10.2019
91 Clouds 1 1018 80 10000 1.5 360 13:38 16.10.2019
92 Clouds 1 1018 80 10000 1.5 360 13:38 16.10.2019
93 Clouds 1 1018 80 10000 1.5 330 13:20 16.10.2019
94 Clouds 0 1018 80 10000 1.5 330 12:42 16.10.2019
95 Rain 0 1018 87 6000 1.5 330 12:19 16.10.2019
96 -273 0 0 0 0 0 11:45 16.10.2019
97 Rain 0 1018 87 3000 2.1 330 11:19 16.10.2019
98 Mist 0 1018 87 1500 2.1 330 10:55 16.10.2019
99 Mist 0 1018 87 1500 2.1 330 10:36 16.10.2019
100 Snow 0 1018 87 1500 2.1 330 10:18 16.10.2019
101 Snow 0 1018 83 1200 1.5 320 09:40 16.10.2019
102 Drizzle 0 1017 94 500 0.5 20 09:21 16.10.2019
103 Fog 0 1017 94 800 0.5 0 08:46 16.10.2019
104 Fog 0 1017 94 800 0.5 0 08:26 16.10.2019
105 Fog 0 1017 94 350 0.5 0 07:58 16.10.2019
106 Fog 0 1017 94 200 0.5 0 07:40 16.10.2019
107 Fog 0 1017 94 300 0.5 60 07:21 16.10.2019
108 Fog 0 1017 94 500 0.5 0 06:46 16.10.2019
109 Fog 0 1017 94 500 0.5 0 06:27 16.10.2019
110 Fog 0 1017 97 750 2.1 150 04:24 16.10.2019
111 Clouds 0 1017 98 2300 1.5 110 02:50 16.10.2019
112 Clouds 0 1017 98 2700 2.1 170 01:20 16.10.2019
113 Clouds 0 1017 98 2700 2.1 170 00:58 16.10.2019
114 Snow 1 1017 98 1900 2.1 140 00:39 16.10.2019
115 Mist 1 1017 97 2300 2.6 150 23:42 15.10.2019
116 Clouds 1 1017 97 10000 2.6 160 23:23 15.10.2019
117 Clouds 1 1017 97 10000 2.6 160 22:59 15.10.2019
118 Rain 1 1017 97 10000 2.6 150 22:40 15.10.2019
119 Rain 1 1017 97 10000 3.1 170 22:21 15.10.2019
120 Rain 1 1017 97 10000 3.1 170 21:57 15.10.2019
121 Rain 1 1017 97 10000 3.6 160 21:39 15.10.2019
122 Snow 1 1017 95 10000 3.6 150 21:20 15.10.2019
123 Snow 1 1017 95 10000 3.6 150 21:20 15.10.2019
124 Snow 1 1017 95 10000 3.6 150 20:58 15.10.2019
125 Rain 1 1017 95 10000 3.1 150 20:40 15.10.2019
126 Clouds 1 1017 95 10000 3.1 150 20:21 15.10.2019
127 Clouds 1 1017 95 10000 3.1 150 19:59 15.10.2019
128 Clouds 0 1017 95 10000 3.6 160 19:41 15.10.2019
129 Clouds 0 1018 95 10000 3.1 140 19:20 15.10.2019
130 Snow 0 1018 95 10000 3.1 130 18:55 15.10.2019
131 Snow 0 1018 95 10000 3.1 130 18:55 15.10.2019
132 Snow 0 1018 95 10000 3.1 130 18:37 15.10.2019
133 Clouds 0 1018 90 10000 3.1 130 18:19 15.10.2019
134 -273 0 0 0 0 0 17:42 15.10.2019
135 -273 0 0 0 0 0 17:41 15.10.2019
136 Clouds 0 1018 90 10000 3.1 140 17:41 15.10.2019
137 Clouds 0 1018 90 10000 3.1 150 17:20 15.10.2019
138 Clouds 0 1018 90 10000 3.1 150 17:20 15.10.2019
139 Clouds 0 1018 90 10000 3.1 150 16:58 15.10.2019
140 Clear 0 1018 90 10000 2.1 170 16:39 15.10.2019
141 Clear 0 1018 90 10000 2.1 180 16:20 15.10.2019
142 Clear 1 1018 74 10000 3.1 180 15:55 15.10.2019
143 Clear 1 1018 74 10000 3.1 180 15:55 15.10.2019
144 Clear 1 1018 74 10000 3.1 180 15:36 15.10.2019
145 Clear 1 1018 74 10000 3.1 190 15:18 15.10.2019
146 Clear 1 1018 74 10000 2.6 200 14:38 15.10.2019
147 Clouds 1 1018 69 10000 2.6 210 14:20 15.10.2019
148 Clouds 1 1018 69 10000 2.6 210 14:20 15.10.2019
149 Clouds 1 1018 69 10000 2.6 210 13:58 15.10.2019
150 Clouds 0 1018 73 10000 3.1 200 13:40 15.10.2019
151 Clouds 0 1017 73 10000 2.6 200 13:19 15.10.2019
152 Clouds 0 1017 73 10000 2.1 200 12:44 15.10.2019
153 Clouds -1 1017 92 10000 2.1 210 12:22 15.10.2019
154 Clouds -1 1017 92 10000 2.1 210 11:57 15.10.2019
155 Clouds -1 1017 92 10000 2.1 210 11:38 15.10.2019
156 Clouds -2 1017 100 10000 1.5 200 11:19 15.10.2019
157 Clouds -2 1017 92 10000 1.5 240 10:45 15.10.2019
158 Clouds -3 1017 100 10000 2.1 230 10:22 15.10.2019
159 Clouds -3 1017 100 10000 2.1 230 09:58 15.10.2019
160 Clouds -3 1016 92 10000 2.6 230 09:39 15.10.2019
161 Clouds -3 1016 92 10000 2.6 230 09:20 15.10.2019
162 Clouds -3 1016 92 10000 2.6 230 08:56 15.10.2019
163 Clouds -3 1015 92 10000 2.1 240 08:37 15.10.2019
164 Clouds -3 1015 92 10000 2.1 220 08:18 15.10.2019
165 Clouds -3 1015 100 10000 3.1 230 07:41 15.10.2019
166 Fog -2 1015 100 3000 2.6 230 07:21 15.10.2019
167 Mist -1 1014 92 3000 3.1 240 06:47 15.10.2019
168 Clouds -1 1014 100 10000 2.1 250 06:29 15.10.2019
169 Clouds -1 1014 100 10000 2.1 230 05:48 15.10.2019
170 Clouds -1 1014 100 10000 2.1 230 05:29 15.10.2019
171 Clouds 0 1014 94 2100 2.1 230 04:39 15.10.2019
172 Clouds 0 1013 94 1900 1.5 250 03:38 15.10.2019
173 Snow 0 1012 94 1000 1.5 250 02:51 15.10.2019
174 Snow 0 1012 94 1100 1 0 01:49 15.10.2019
175 Snow 0 1012 94 4300 1 0 01:22 15.10.2019
176 Snow 0 1012 94 1300 1 0 00:50 15.10.2019
177 Fog 0 1011 94 900 1 0 00:22 15.10.2019
178 Fog 0 1011 94 650 1 0 23:45 14.10.2019
179 Clouds 0 1011 94 1000 1 0 23:21 14.10.2019
180 Clouds 0 1011 94 1000 1 0 22:59 14.10.2019
181 Fog 0 1011 94 1200 1 0 22:38 14.10.2019
182 Fog 0 1010 94 900 1 0 22:19 14.10.2019
183 Fog 0 1010 94 900 1 0 21:56 14.10.2019
184 Mist 0 1010 94 2400 0.5 0 21:37 14.10.2019
185 Clouds 0 1010 96 6000 0.5 0 21:19 14.10.2019
186 Rain 0 1010 94 3100 1 0 20:55 14.10.2019
187 Rain 0 1010 94 3100 1 0 20:55 14.10.2019
188 Rain 0 1010 94 3100 1 0 20:54 14.10.2019
189 -273 0 0 0 0 0 20:54 14.10.2019
190 Rain 0 1010 94 3100 1 0 20:36 14.10.2019
191 Rain 0 1010 94 3100 1 0 20:36 14.10.2019
192 Fog 0 1009 94 1500 1.5 310 20:18 14.10.2019
193 Mist 0 1009 94 2200 1.5 320 19:41 14.10.2019
194 Mist 0 1009 94 2200 1.5 320 19:41 14.10.2019
195 Mist 0 1009 94 3700 1.5 310 19:23 14.10.2019
196 Mist 0 1009 94 3700 1.5 310 19:23 14.10.2019
197 Mist 0 1009 94 3700 1.5 310 18:58 14.10.2019
198 Mist 0 1009 94 4400 1.5 320 18:39 14.10.2019
199 Rain 0 1008 97 6000 2.1 330 18:19 14.10.2019
200 Rain 0 1008 97 6000 2.1 330 17:57 14.10.2019
201 Rain 0 1008 97 6000 2.1 330 17:57 14.10.2019
202 Rain 0 1008 97 6000 2.1 330 17:38 14.10.2019
203 Rain 0 1008 97 6000 2.1 330 17:38 14.10.2019
204 Snow 0 1008 97 4300 2.1 320 17:19 14.10.2019
205 Rain 0 1008 97 6000 2.6 320 16:43 14.10.2019
206 Rain 1 1007 97 10000 2.1 320 16:21 14.10.2019
207 Snow 1 1007 97 10000 2.1 310 15:42 14.10.2019
208 Clouds 1 1007 96 10000 2.1 310 15:23 14.10.2019
209 Clouds 1 1007 96 10000 2.1 310 14:57 14.10.2019
210 Clouds 1 1007 96 10000 2.1 300 14:39 14.10.2019
211 Snow 1 1007 96 10000 1.5 280 14:19 14.10.2019
212 Snow 1 1007 96 10000 1.5 280 14:19 14.10.2019
213 Clouds 0 1007 96 10000 1.5 290 13:43 14.10.2019
214 Fog 0 1007 97 10000 1.5 290 13:21 14.10.2019
215 Fog 0 1007 97 10000 1.5 290 12:55 14.10.2019
216 Fog 0 1007 97 10000 1.5 290 12:55 14.10.2019
217 Fog 0 1007 97 10000 1.5 290 12:36 14.10.2019
218 Fog 0 1007 95 5000 1.5 310 12:18 14.10.2019
219 Clouds 0 1006 95 10000 1 0 11:44 14.10.2019
220 Clouds 0 1006 95 10000 1 0 11:24 14.10.2019
221 Clouds 0 1006 95 10000 1 0 10:55 14.10.2019
222 Snow 0 1006 95 10000 1.5 310 10:37 14.10.2019
223 Snow 0 1006 95 10000 2.1 310 10:18 14.10.2019
224 Snow 0 1006 95 5000 2.6 300 09:41 14.10.2019
225 Snow 0 1006 95 5000 2.6 300 09:41 14.10.2019
226 Snow 0 1005 96 3000 1.5 290 09:20 14.10.2019
227 Snow 0 1005 96 2000 1.5 300 08:49 14.10.2019
228 Snow 0 1005 96 1900 2.1 300 08:23 14.10.2019
229 Snow 0 1005 96 1500 2.1 300 07:47 14.10.2019
230 Snow 0 1005 96 1800 1.5 280 07:24 14.10.2019
231 Snow 0 1005 96 2800 1.5 280 06:57 14.10.2019
232 Snow 0 1005 96 2800 1.5 280 06:28 14.10.2019
233 Snow 0 1005 98 10000 1.5 280 05:55 14.10.2019
234 Snow 0 1005 98 5000 1.5 290 04:59 14.10.2019
235 Snow 0 1005 98 10000 2.1 290 03:49 14.10.2019
236 Fog 0 1004 97 2000 1.5 280 03:22 14.10.2019
237 Snow 0 1004 97 800 2.1 250 01:56 14.10.2019
238 Clouds 0 1004 94 550 2.1 240 01:18 14.10.2019
239 Fog 0 1004 94 550 1.5 250 00:40 14.10.2019
240 Fog 0 1004 97 500 1.5 240 00:18 14.10.2019
241 -273 0 0 0 0 0 23:40 13.10.2019
242 Clouds 0 1003 97 750 2.1 250 23:19 13.10.2019
243 Clouds 0 1003 97 750 2.1 250 22:54 13.10.2019
244 Clouds 0 1003 97 750 2.1 250 22:36 13.10.2019
245 Clouds 0 1003 97 1200 2.6 240 22:18 13.10.2019
246 Clouds 0 1003 97 1200 2.6 240 22:18 13.10.2019
247 Clouds 0 1003 97 1400 2.6 230 21:55 13.10.2019
248 Clouds 0 1003 97 1400 2.6 230 21:36 13.10.2019
249 Clouds 0 1003 98 2100 2.6 230 21:18 13.10.2019
250 Clouds 0 1003 98 2100 2.6 230 21:18 13.10.2019
251 Clouds 0 1002 98 3900 2.1 230 20:55 13.10.2019
252 Clouds 0 1002 98 3900 2.1 230 20:36 13.10.2019
253 Snow 0 1002 98 9000 2.6 230 20:18 13.10.2019
254 Clouds 0 1002 98 9000 2.1 230 19:54 13.10.2019
255 Clouds 0 1002 98 9000 2.1 230 19:36 13.10.2019
256 Clouds 0 1002 98 10000 1.5 240 19:18 13.10.2019
257 Snow 0 1002 98 10000 1.5 230 18:39 13.10.2019
258 Rain 0 1002 95 10000 1 0 18:20 13.10.2019
259 Rain 0 1002 95 10000 1 0 17:59 13.10.2019
260 Clouds 0 1001 95 10000 1.5 240 17:40 13.10.2019
261 Clouds 0 1001 95 10000 1 240 17:22 13.10.2019
262 Clouds 0 1001 95 10000 1 240 17:22 13.10.2019
263 Clouds 0 1001 95 10000 1 0 16:43 13.10.2019
264 Snow 0 1001 95 10000 1.5 280 16:19 13.10.2019
265 Snow 0 1001 95 10000 1.5 280 15:57 13.10.2019
266 Rain 1 1000 95 7000 1 0 15:39 13.10.2019
267 Snow 1 1000 86 10000 1.5 300 15:20 13.10.2019
268 Snow 1 1000 86 10000 1.5 300 14:57 13.10.2019
269 Snow 0 1000 86 9000 1.5 270 14:39 13.10.2019
270 Snow 0 1000 86 5000 1.5 300 14:20 13.10.2019
271 Rain 1 999 86 10000 1.5 290 13:43 13.10.2019
272 Rain 1 999 86 10000 1.5 290 13:43 13.10.2019
273 Clouds 1 999 86 10000 1.5 270 13:24 13.10.2019
274 Clouds 1 999 86 10000 2.1 300 12:59 13.10.2019
275 Clouds 1 999 86 10000 2.1 300 12:59 13.10.2019
276 Clouds 1 999 86 10000 2.1 300 12:40 13.10.2019
277 Clouds 1 998 86 10000 1.5 290 12:21 13.10.2019
278 Clouds 1 998 86 10000 1.5 290 11:59 13.10.2019
279 Rain 0 998 90 10000 1.5 300 11:40 13.10.2019
280 Snow 0 998 90 10000 1.5 300 11:21 13.10.2019
281 Clouds 0 998 90 10000 1.5 310 10:59 13.10.2019
282 Clouds 0 998 90 10000 1.5 310 10:40 13.10.2019
283 Snow 0 997 90 8000 2.1 310 10:22 13.10.2019
284 Clouds 0 997 90 10000 2.1 290 09:40 13.10.2019
285 Clouds 0 997 94 10000 2.1 300 09:21 13.10.2019
286 Clouds 0 997 96 10000 1.5 320 08:55 13.10.2019
287 Clouds 0 997 96 10000 1.5 330 08:27 13.10.2019
288 -273 0 0 0 0 0 08:27 13.10.2019
289 Clouds 0 997 96 10000 1.5 330 07:56 13.10.2019
290 Clouds -1 996 100 10000 2.6 340 07:38 13.10.2019
291 Clouds -1 996 100 10000 2.6 340 06:54 13.10.2019
292 Clouds -1 996 100 10000 2.6 340 06:54 13.10.2019
293 Clouds -1 996 100 10000 2.6 320 06:26 13.10.2019
294 Clouds -1 996 100 10000 2.1 320 05:29 13.10.2019
295 Clouds -1 995 100 10000 2.6 320 04:35 13.10.2019
296 Clouds -1 995 100 10000 2.1 340 03:35 13.10.2019
297 Clouds -1 995 100 10000 2.1 350 02:32 13.10.2019
298 Snow -1 995 100 6000 1.5 340 01:47 13.10.2019
299 Snow -1 995 92 10000 2.1 350 01:21 13.10.2019
300 Snow -1 995 100 9000 2.1 350 00:42 13.10.2019
301 Snow -1 994 100 10000 2.1 360 00:19 13.10.2019
302 Clouds 0 994 93 10000 2.1 350 23:42 12.10.2019
303 Clouds 0 994 93 10000 2.1 350 23:23 12.10.2019
304 Clouds 0 994 93 10000 2.1 350 23:23 12.10.2019
305 Clouds 0 994 93 10000 2.1 10 22:59 12.10.2019
306 Clouds 0 994 93 10000 2.1 10 22:40 12.10.2019
307 Clouds 0 994 93 10000 2.1 10 22:40 12.10.2019
308 Clouds 0 994 93 10000 3.1 10 22:22 12.10.2019
309 Clouds 0 994 93 10000 3.1 10 21:59 12.10.2019
310 Clouds -1 994 92 10000 4.1 20 21:40 12.10.2019
311 Clouds 0 993 92 10000 3.6 10 21:22 12.10.2019
312 Clouds 0 993 92 10000 3.6 10 20:55 12.10.2019
313 Clouds 0 993 92 10000 3.6 10 20:36 12.10.2019
314 Clouds 0 993 92 10000 2.6 360 20:18 12.10.2019
315 Clouds 0 993 92 10000 2.6 360 19:36 12.10.2019
316 Clouds 0 993 92 10000 2.6 360 19:18 12.10.2019
317 Clouds 0 993 92 10000 3.6 30 18:43 12.10.2019
318 Clouds 0 993 92 10000 4.1 30 18:24 12.10.2019
319 Clouds 0 993 90 10000 4.6 30 17:46 12.10.2019
320 Clouds 0 993 90 10000 5.1 30 17:22 12.10.2019
321 Clouds 0 993 90 10000 5.1 30 16:59 12.10.2019
322 Clouds 0 993 90 10000 5.1 30 16:59 12.10.2019
323 Clouds 0 992 90 10000 5.1 40 16:40 12.10.2019
324 Clouds 0 992 90 10000 5.1 20 16:21 12.10.2019
325 Clouds 0 992 90 10000 4.6 40 15:56 12.10.2019
326 Clouds 0 992 90 10000 4.6 40 15:37 12.10.2019
327 Snow 0 992 86 10000 5.1 20 15:18 12.10.2019
328 Snow 0 992 86 8000 4.6 30 14:39 12.10.2019
329 Clouds 0 992 86 4200 4.1 30 14:20 12.10.2019
330 Clouds 0 992 86 10000 4.6 30 13:50 12.10.2019
331 Clouds 0 992 86 10000 4.6 30 13:32 12.10.2019
332 Clouds 0 992 86 10000 4.6 30 12:55 12.10.2019
333 Clouds 0 992 86 10000 4.6 30 12:37 12.10.2019
334 Snow 0 992 88 10000 4.1 20 12:18 12.10.2019
335 Snow 0 991 88 3200 4.1 20 11:41 12.10.2019
336 Clouds 0 992 88 10000 3.6 30 11:22 12.10.2019
337 Clouds 0 991 88 10000 4.6 40 10:57 12.10.2019
338 Clouds 0 991 88 10000 4.6 40 10:38 12.10.2019
339 Clouds -1 991 100 10000 4.6 40 10:19 12.10.2019
340 Clouds -1 991 100 10000 4.6 40 09:56 12.10.2019
341 Clouds -1 991 100 10000 5.1 30 09:37 12.10.2019
342 Clouds -1 991 100 10000 4.6 40 09:19 12.10.2019
343 Clouds -1 991 100 10000 4.6 30 08:43 12.10.2019
344 Clouds -1 991 100 10000 4.1 30 08:23 12.10.2019
345 Clouds -1 991 92 10000 4.1 30 07:49 12.10.2019
346 Clouds -1 991 92 10000 4.1 30 07:30 12.10.2019
347 Snow -1 991 92 10000 4.1 30 05:54 12.10.2019
348 Snow -1 991 92 10000 3.6 30 05:26 12.10.2019
349 Snow -1 992 92 6000 3.6 30 04:31 12.10.2019
350 Snow -1 992 92 10000 4.6 20 03:53 12.10.2019
351 Snow -1 992 100 10000 3.6 10 02:37 12.10.2019
352 Clouds -1 992 100 10000 3.6 10 01:31 12.10.2019
353 Clouds -1 992 100 10000 3.6 10 00:54 12.10.2019
354 Clouds -1 992 100 10000 3.6 10 00:35 12.10.2019
355 Clouds -1 992 100 10000 4.1 10 23:54 11.10.2019
356 Clouds -1 992 100 10000 4.1 10 23:36 11.10.2019
357 Clouds -1 992 100 10000 4.6 10 23:18 11.10.2019
358 Clouds -1 992 92 10000 4.6 20 22:37 11.10.2019
359 Snow -1 992 92 10000 4.6 30 22:18 11.10.2019
360 Snow -1 992 100 10000 4.6 30 21:40 11.10.2019
361 Snow -1 992 100 10000 4.6 30 21:21 11.10.2019
362 Snow -1 992 100 10000 5.1 30 20:55 11.10.2019
363 Snow -1 992 100 10000 5.1 30 20:37 11.10.2019
364 Snow -1 992 100 10000 4.6 20 20:18 11.10.2019
365 Snow 0 992 92 6000 4.1 30 19:55 11.10.2019
366 Snow 0 992 92 6000 4.1 30 19:36 11.10.2019
367 Snow 0 992 92 6000 4.6 30 19:18 11.10.2019
368 Snow 0 993 92 6000 5.1 30 18:39 11.10.2019
369 Snow 0 993 90 4500 4.6 30 18:19 11.10.2019
370 Snow 0 993 90 5000 4.6 30 17:59 11.10.2019
371 Snow 0 993 90 5000 4.6 30 17:38 11.10.2019
372 Snow 0 993 90 10000 4.6 40 17:20 11.10.2019
373 Snow 0 993 90 10000 4.6 40 16:59 11.10.2019
374 Snow 0 993 90 10000 4.6 40 16:39 11.10.2019
375 Snow 0 993 90 4300 5.1 30 16:19 11.10.2019
376 Snow 1 993 90 10000 4.6 40 15:57 11.10.2019
377 Snow 1 993 90 10000 4.6 40 15:37 11.10.2019
378 Snow 1 993 90 5000 4.6 40 15:18 11.10.2019
379 Snow 1 993 90 5000 4.6 40 15:18 11.10.2019
380 Snow 1 993 90 10000 4.6 40 14:42 11.10.2019
381 Snow 1 993 90 10000 5.1 40 14:23 11.10.2019
382 Snow 0 993 90 10000 5.1 50 13:47 11.10.2019
383 Snow 0 993 85 10000 5.1 50 13:26 11.10.2019
384 Snow 0 993 85 10000 5.7 40 12:58 11.10.2019
385 Snow 0 993 85 10000 4.6 50 12:40 11.10.2019
386 Clouds 0 993 95 10000 4.6 50 12:21 11.10.2019
387 Snow 0 993 95 3000 5.1 50 11:59 11.10.2019
388 Snow 0 993 95 3000 5.1 50 11:39 11.10.2019
389 Snow 0 993 95 2500 4.6 50 11:21 11.10.2019
390 Fog 0 993 95 600 5.1 50 10:56 11.10.2019
391 Fog 0 993 95 600 5.1 50 10:56 11.10.2019
392 Fog 0 993 95 600 5.1 50 10:37 11.10.2019
393 Fog 0 993 95 700 4.6 60 10:18 11.10.2019
394 Fog 0 993 95 700 4.6 60 10:18 11.10.2019
395 Fog 0 993 95 500 4.6 60 09:42 11.10.2019
396 Fog 0 994 97 400 4.1 50 09:21 11.10.2019
397 Fog 0 994 97 400 4.1 50 08:59 11.10.2019
398 Fog 0 994 97 400 3.6 60 08:39 11.10.2019
399 Fog 0 994 97 500 3.6 60 08:20 11.10.2019
400 Fog 0 994 97 600 3.1 60 07:54 11.10.2019
401 Fog 0 994 97 600 3.1 60 07:34 11.10.2019
402 Snow 0 994 97 700 3.1 60 06:50 11.10.2019
403 Clouds 0 995 98 750 2.6 70 06:25 11.10.2019
404 Clouds 0 995 98 700 2.6 0 05:48 11.10.2019
405 Clouds 0 995 98 900 2.1 70 05:30 11.10.2019
406 Clouds 0 995 98 1300 1.5 60 04:58 11.10.2019
407 Snow 0 995 98 3300 1.5 100 03:40 11.10.2019
408 Clouds 0 996 98 3400 0.5 210 01:26 11.10.2019
409 Clouds 0 996 98 2600 0.5 240 00:31 11.10.2019
410 Clouds 0 996 98 2600 0.5 240 00:31 11.10.2019
411 Snow 0 996 98 1700 1 230 23:58 10.10.2019
412 Snow 0 996 98 1100 1 240 23:40 10.10.2019
413 Snow 0 996 98 1200 1.5 220 23:19 10.10.2019
414 Snow 0 996 98 1300 1 230 22:56 10.10.2019
415 Snow 0 996 98 1300 1 230 22:36 10.10.2019
416 -273 0 0 0 0 0 22:18 10.10.2019
417 Rain 1 997 98 1300 2.1 230 21:42 10.10.2019
418 Rain 1 997 100 1800 1.5 230 21:22 10.10.2019
419 Rain 1 997 100 1800 1.5 230 20:58 10.10.2019
420 Rain 1 997 100 2200 2.1 220 20:39 10.10.2019
421 Rain 1 996 100 2200 1 230 20:19 10.10.2019
422 Rain 1 997 98 3900 1 230 19:56 10.10.2019
423 Rain 1 997 98 3900 1 230 19:38 10.10.2019
424 Rain 1 997 98 10000 1 240 19:19 10.10.2019
425 Rain 1 997 98 10000 1 0 18:42 10.10.2019
426 Clouds 1 997 98 10000 1 0 18:21 10.10.2019
427 Clouds 1 997 98 10000 1 0 17:58 10.10.2019
428 Clouds 1 997 100 10000 1 0 17:39 10.10.2019
429 Clouds 1 997 100 10000 1.5 280 17:18 10.10.2019
430 Clouds 1 997 100 10000 1.5 260 16:55 10.10.2019
431 Clouds 1 997 100 10000 1.5 260 16:37 10.10.2019
432 Clouds 1 997 100 10000 1.5 270 16:18 10.10.2019
433 Clouds 2 997 93 10000 2.6 260 15:39 10.10.2019
434 Clouds 2 997 93 6000 2.1 240 15:21 10.10.2019
435 Clouds 2 997 93 6000 2.1 240 14:56 10.10.2019
436 Mist 2 997 93 4000 1.5 230 14:37 10.10.2019
437 Rain 2 997 96 10000 1 0 14:19 10.10.2019
438 Clouds 2 997 96 10000 1.5 300 13:55 10.10.2019
439 Clouds 2 997 96 10000 1.5 300 13:37 10.10.2019
440 Clouds 2 997 90 10000 2.6 260 13:18 10.10.2019
441 Rain 2 997 90 10000 2.1 280 12:41 10.10.2019
442 Rain 1 997 97 10000 2.6 280 12:20 10.10.2019
443 Rain 1 997 97 10000 2.6 280 11:58 10.10.2019
444 Rain 2 997 93 10000 2.1 280 11:58 10.10.2019
445 Rain 2 997 93 10000 2.1 280 11:39 10.10.2019
446 Fog 2 997 93 10000 2.6 270 11:19 10.10.2019
447 Mist 1 997 100 3000 2.6 270 10:45 10.10.2019
448 Fog 1 997 97 10000 2.6 240 10:27 10.10.2019
449 Fog 1 997 97 10000 2.6 240 09:58 10.10.2019
450 Rain 1 997 100 10000 2.1 250 09:40 10.10.2019
451 Snow 1 997 98 10000 2.1 260 09:21 10.10.2019
452 Snow 1 997 98 10000 1.5 290 08:58 10.10.2019
453 Snow 1 997 98 10000 1.5 290 08:38 10.10.2019
454 Snow 1 997 98 10000 1.5 260 08:19 10.10.2019
455 Snow 1 997 98 10000 2.1 270 07:45 10.10.2019
456 Clouds 1 997 98 10000 1 290 07:23 10.10.2019
457 Clouds 1 997 98 10000 2.1 300 06:49 10.10.2019
458 Clouds 1 997 98 10000 2.1 300 06:49 10.10.2019
459 Clouds 1 997 98 10000 2.1 300 06:29 10.10.2019
460 Clouds 1 996 97 10000 1.5 300 05:28 10.10.2019
461 Clouds 1 996 97 10000 2.1 320 04:54 10.10.2019
462 Clouds 1 996 97 10000 2.1 320 04:33 10.10.2019
463 Clouds 1 996 100 10000 2.1 300 01:46 10.10.2019
464 Clouds 1 996 100 10000 2.1 300 01:46 10.10.2019
465 Clouds 1 996 100 10000 2.1 310 01:26 10.10.2019
466 Clouds 1 996 100 10000 2.1 310 01:00 10.10.2019
467 Rain 1 996 100 10000 2.6 340 00:23 10.10.2019
468 Rain 1 996 100 10000 2.6 320 23:40 09.10.2019
469 Rain 1 996 100 10000 2.6 310 23:22 09.10.2019
470 Rain 1 996 100 10000 2.6 310 22:59 09.10.2019
471 Rain 1 996 100 10000 3.1 320 22:40 09.10.2019
472 Rain 1 996 100 10000 3.1 320 22:22 09.10.2019
473 Rain 2 996 93 10000 3.1 320 21:41 09.10.2019
474 Clouds 2 996 93 10000 3.1 330 21:21 09.10.2019
475 Clouds 2 996 93 10000 3.1 330 20:56 09.10.2019
476 Clouds 2 996 93 10000 3.1 320 20:38 09.10.2019
477 Clouds 2 996 93 10000 3.6 320 20:19 09.10.2019
478 Clouds 2 996 93 10000 3.6 320 20:19 09.10.2019
479 Clouds 2 996 93 10000 3.1 320 19:58 09.10.2019
480 Clouds 2 996 93 10000 3.1 320 19:40 09.10.2019
481 Clouds 2 996 93 10000 3.1 320 19:21 09.10.2019
482 Rain 2 996 93 10000 3.6 320 18:38 09.10.2019
483 Rain 1 996 100 10000 3.1 320 18:20 09.10.2019
484 Rain 1 996 100 10000 3.1 330 17:57 09.10.2019
485 Rain 1 996 100 10000 3.1 330 17:37 09.10.2019
486 Rain 2 996 93 10000 3.6 320 17:19 09.10.2019
487 Rain 2 996 93 10000 3.6 320 16:55 09.10.2019
488 -273 0 0 0 0 0 16:54 09.10.2019
489 Rain 2 996 93 10000 3.6 320 16:36 09.10.2019
490 Rain 2 996 93 10000 3.6 320 16:18 09.10.2019
491 Rain 2 996 93 10000 3.1 320 15:54 09.10.2019
492 Rain 2 996 93 10000 3.1 320 15:36 09.10.2019
493 Rain 2 996 93 10000 3.6 320 15:18 09.10.2019
494 Rain 2 996 93 10000 3.6 320 15:18 09.10.2019
495 Rain 2 996 93 10000 3.6 320 14:41 09.10.2019
496 Clouds 2 996 93 10000 4.1 320 14:18 09.10.2019
497 Rain 2 996 93 10000 3.6 320 13:40 09.10.2019
498 Drizzle 2 996 93 9000 4.1 330 13:22 09.10.2019
499 Drizzle 2 996 93 9000 4.1 330 12:59 09.10.2019
500 Drizzle 1 996 100 9000 4.1 330 12:41 09.10.2019
501 Drizzle 1 996 100 9000 4.1 340 12:22 09.10.2019
502 Drizzle 1 996 100 9000 4.1 340 12:22 09.10.2019
503 Clouds 1 996 100 10000 4.1 340 11:56 09.10.2019
504 Clouds 1 996 100 10000 4.1 340 11:37 09.10.2019
505 Clouds 1 996 100 10000 3.6 330 11:19 09.10.2019
506 Clouds 1 996 96 10000 4.6 330 10:44 09.10.2019
507 Snow 0 996 96 6000 4.6 330 10:22 09.10.2019
508 Snow 0 996 96 6000 4.6 330 09:59 09.10.2019
509 Snow 0 996 96 4500 4.1 330 09:40 09.10.2019
510 Snow 0 996 97 4000 4.1 330 09:19 09.10.2019
511 Snow 0 996 96 6000 4.1 330 08:41 09.10.2019
512 Snow 0 997 96 7000 4.1 330 08:23 09.10.2019
513 Snow 0 997 96 7000 4.1 330 07:58 09.10.2019
514 Snow 0 997 96 5000 4.1 330 07:37 09.10.2019
515 Snow 0 997 96 6000 4.1 340 07:19 09.10.2019
516 Snow 0 997 96 4000 4.1 330 06:51 09.10.2019
517 Snow 0 997 97 10000 3.6 340 05:56 09.10.2019
518 Snow 0 997 97 10000 3.6 340 05:28 09.10.2019
519 Snow 0 998 97 10000 4.1 340 04:24 09.10.2019
520 Snow 0 999 95 8000 3.6 340 02:50 09.10.2019
521 Snow 0 999 95 5000 4.1 340 01:43 09.10.2019
522 Clouds 0 999 94 10000 4.1 340 01:19 09.10.2019
523 Snow 0 1000 94 10000 3.6 340 00:56 09.10.2019
524 Snow 0 1000 94 10000 3.6 340 00:38 09.10.2019
525 Snow 0 1000 94 10000 3.6 340 00:38 09.10.2019
526 Snow 0 1000 95 10000 4.1 340 00:19 09.10.2019
527 Clouds 0 1000 95 10000 3.6 340 23:39 08.10.2019
528 Clouds 0 1001 95 10000 4.1 340 23:18 08.10.2019
529 Clouds 0 1001 95 10000 4.1 340 22:56 08.10.2019
530 Snow 0 1001 95 10000 3.6 340 22:38 08.10.2019
531 Clouds 0 1001 95 10000 4.1 350 22:19 08.10.2019
532 Snow 0 1001 95 10000 4.1 350 21:57 08.10.2019
533 Snow 0 1001 95 10000 4.1 350 21:38 08.10.2019
534 Snow 0 1002 92 4400 4.1 350 21:18 08.10.2019
535 Snow -1 1002 100 3700 3.6 360 20:55 08.10.2019
536 Snow -1 1002 100 3700 3.6 360 20:55 08.10.2019
537 Snow -1 1002 100 3700 3.6 360 20:37 08.10.2019
538 Snow -1 1002 100 3700 3.6 360 20:37 08.10.2019
539 Snow 0 1003 89 7000 3.6 360 20:18 08.10.2019
540 Snow 0 1003 89 10000 3.6 360 19:56 08.10.2019
541 Snow 0 1003 89 10000 3.6 360 19:36 08.10.2019
542 Snow 0 1003 89 10000 3.6 360 19:18 08.10.2019
543 Snow 0 1004 89 10000 3.1 360 18:42 08.10.2019
544 Clouds 0 1004 84 10000 3.6 10 18:24 08.10.2019
545 Clouds 0 1004 84 10000 3.6 10 17:57 08.10.2019
546 Clouds 0 1004 84 10000 3.6 10 17:57 08.10.2019
547 Snow 1 1004 80 10000 3.6 20 17:39 08.10.2019
548 Rain 1 1005 80 10000 3.6 20 17:20 08.10.2019
549 Clouds 1 1005 80 10000 2.6 360 16:56 08.10.2019
550 Clouds 1 1005 80 10000 2.6 360 16:56 08.10.2019
551 Clouds 1 1005 80 10000 2.6 360 16:37 08.10.2019
552 Clouds 1 1005 80 10000 4.1 30 16:18 08.10.2019
553 Clouds 1 1005 80 10000 3.6 20 15:39 08.10.2019
554 Clouds 1 1006 80 10000 3.6 30 15:20 08.10.2019
555 Clouds 1 1006 80 10000 3.6 30 15:20 08.10.2019
556 Clouds 1 1006 80 10000 3.6 30 14:56 08.10.2019
557 Clouds 1 1006 80 10000 3.6 20 14:37 08.10.2019
558 Rain 1 1007 86 10000 3.1 30 14:19 08.10.2019
559 Snow 1 1007 80 4000 4.1 40 13:55 08.10.2019
560 Snow 1 1007 80 4000 4.1 40 13:37 08.10.2019
561 Snow 1 1007 80 10000 4.1 20 13:18 08.10.2019
562 Snow 1 1007 80 10000 4.1 20 13:18 08.10.2019
563 Snow 1 1007 80 10000 4.1 20 13:18 08.10.2019
564 Snow 1 1008 86 10000 4.6 30 12:41 08.10.2019
565 Clouds 1 1008 80 10000 5.7 40 12:20 08.10.2019
566 Clouds 1 1008 80 10000 5.7 40 11:57 08.10.2019
567 Clouds 1 1008 80 10000 5.7 30 11:57 08.10.2019
568 Clouds 1 1008 80 10000 5.7 30 11:38 08.10.2019
569 Clouds 1 1009 86 10000 3.6 70 11:20 08.10.2019
570 Clouds 1 1009 86 10000 4.1 60 10:42 08.10.2019
571 Clouds 1 1009 83 10000 3.6 30 10:23 08.10.2019
572 Clouds 1 1009 83 10000 3.6 30 09:59 08.10.2019
573 Clouds 1 1010 86 10000 4.1 30 09:40 08.10.2019
574 Clouds 0 1010 95 10000 3.6 40 09:22 08.10.2019
575 Clouds 0 1010 95 10000 4.1 40 08:45 08.10.2019
576 Clouds 0 1010 96 10000 3.6 40 08:25 08.10.2019
577 Clouds 0 1011 96 10000 4.1 40 07:48 08.10.2019
578 Clouds 0 1011 96 10000 3.1 40 07:24 08.10.2019
579 Clouds 0 1011 96 10000 3.1 60 06:59 08.10.2019
580 Clouds 0 1011 96 10000 3.1 60 06:39 08.10.2019
581 Clouds 0 1012 97 10000 3.1 80 06:21 08.10.2019
582 Clouds 0 1012 97 10000 3.1 80 05:43 08.10.2019
583 Clouds 1 1012 97 10000 3.6 70 05:19 08.10.2019
584 Clouds 1 1012 100 10000 4.1 70 03:31 08.10.2019
585 Rain 1 1012 100 10000 4.6 70 02:42 08.10.2019
586 Rain 2 1012 93 8000 4.6 60 01:58 08.10.2019
587 Rain 2 1013 93 5000 4.6 70 01:40 08.10.2019
588 Clouds 2 1013 93 10000 4.1 60 00:55 08.10.2019
589 Clouds 2 1013 93 6000 4.1 70 00:23 08.10.2019
590 Clouds 2 1013 93 10000 4.6 60 23:46 07.10.2019
591 Clouds 2 1013 93 10000 4.1 60 23:21 07.10.2019
592 Clouds 2 1013 93 10000 4.1 60 23:21 07.10.2019
593 Clouds 2 1013 93 10000 4.1 60 23:21 07.10.2019
594 Clouds 2 1013 93 10000 4.1 60 22:59 07.10.2019
595 Clouds 2 1013 100 10000 4.6 50 22:41 07.10.2019
596 Clouds 2 1013 93 10000 3.6 40 22:23 07.10.2019
597 Clouds 2 1013 93 10000 3.6 40 21:59 07.10.2019
598 Clouds 2 1014 93 10000 4.1 30 21:40 07.10.2019
599 Clouds 2 1014 93 10000 4.6 40 21:21 07.10.2019
600 Clouds 2 1014 93 10000 4.6 40 20:59 07.10.2019
601 Clouds 2 1014 93 10000 4.6 40 20:40 07.10.2019
602 Clouds 2 1014 93 10000 4.6 40 20:40 07.10.2019
603 Rain 2 1014 93 10000 3.6 20 20:21 07.10.2019
604 Rain 2 1014 93 10000 3.6 20 19:59 07.10.2019
605 Clouds 2 1014 93 10000 3.6 20 19:41 07.10.2019
606 Clouds 2 1014 93 10000 4.6 30 19:20 07.10.2019
607 Clouds 2 1014 93 10000 4.6 30 18:59 07.10.2019
608 Clouds 2 1014 93 10000 3.6 40 18:39 07.10.2019
609 Clouds 3 1014 86 10000 4.1 40 18:19 07.10.2019
610 Clouds 3 1014 93 10000 3.1 30 17:43 07.10.2019
611 Clear 3 1014 93 10000 3.6 30 17:23 07.10.2019
612 Clear 3 1014 93 10000 3.6 30 16:59 07.10.2019
613 Clear 2 1014 93 10000 2.6 50 16:41 07.10.2019
614 Rain 2 1014 93 10000 2.6 60 16:22 07.10.2019
615 Rain 3 1014 93 6000 1.5 20 15:46 07.10.2019
616 Rain 3 1014 93 6000 1.5 20 15:26 07.10.2019
617 Clear 4 1014 86 10000 2.6 10 14:58 07.10.2019
618 Clear 3 1014 93 10000 2.1 20 14:40 07.10.2019
619 Rain 2 1014 93 10000 1.5 10 14:22 07.10.2019
620 Snow 2 1014 95 10000 3.6 40 13:43 07.10.2019
621 Snow 3 1014 86 4000 4.1 40 13:21 07.10.2019
622 Rain 4 1014 80 10000 3.1 30 12:57 07.10.2019
623 Rain 4 1014 80 10000 3.1 30 12:39 07.10.2019
624 Clouds 4 1014 86 10000 3.1 20 12:19 07.10.2019
625 Clouds 4 1014 86 10000 3.1 20 11:58 07.10.2019
626 Clouds 4 1014 86 10000 3.6 10 11:38 07.10.2019
627 Clouds 3 1014 93 10000 3.1 360 11:20 07.10.2019
628 Clouds 3 1014 93 10000 3.1 360 11:20 07.10.2019
629 Rain 3 1014 93 10000 3.1 360 10:42 07.10.2019
630 Clouds 3 1014 93 10000 3.6 350 10:21 07.10.2019
631 Clouds 2 1014 100 10000 3.1 340 09:43 07.10.2019
632 Clouds 2 1014 93 10000 3.6 350 09:25 07.10.2019
633 Clouds 2 1014 93 10000 3.6 350 08:58 07.10.2019
634 Rain 2 1014 93 10000 3.1 340 08:39 07.10.2019
635 Rain 2 1014 93 10000 3.6 340 08:20 07.10.2019
636 Rain 2 1014 93 10000 3.1 340 07:44 07.10.2019
637 Rain 2 1014 93 10000 3.1 340 07:25 07.10.2019
638 Rain 2 1014 93 10000 3.6 340 06:55 07.10.2019
639 Rain 2 1014 93 10000 3.6 340 06:37 07.10.2019
640 Clouds 2 1014 93 10000 3.6 340 05:50 07.10.2019
641 Clouds 2 1014 94 10000 3.6 340 05:24 07.10.2019
642 Rain 2 1014 94 10000 3.6 340 04:42 07.10.2019
643 Clear 2 1014 94 10000 3.6 340 03:45 07.10.2019
644 Clear 2 1014 94 10000 3.6 340 03:45 07.10.2019
645 Clear 2 1014 96 10000 3.1 340 03:23 07.10.2019
646 Clear 2 1014 96 10000 3.1 340 03:23 07.10.2019
647 Clear 2 1014 96 10000 3.6 330 02:23 07.10.2019
648 Clear 2 1014 96 10000 3.6 330 02:23 07.10.2019
649 Clouds 2 1014 96 10000 3.6 330 01:57 07.10.2019
650 Clouds 3 1014 95 10000 3.6 340 01:22 07.10.2019
651 Clear 3 1014 95 10000 2.6 340 00:44 07.10.2019
652 Clouds 3 1014 95 10000 3.1 340 00:22 07.10.2019
653 Clear 3 1014 95 10000 3.1 330 23:56 06.10.2019
654 Clear 3 1014 95 10000 3.1 330 23:38 06.10.2019
655 Clear 3 1014 95 10000 3.6 330 23:18 06.10.2019
656 Clear 3 1013 95 10000 3.1 330 22:42 06.10.2019
657 Clear 3 1013 95 10000 3.1 330 22:22 06.10.2019
658 Clear 3 1013 95 10000 2.6 340 21:58 06.10.2019
659 Clear 3 1013 95 10000 2.6 340 21:38 06.10.2019
660 Clear 4 1013 90 10000 3.6 330 21:19 06.10.2019
661 Clear 4 1013 90 10000 3.6 320 20:58 06.10.2019
662 Clear 4 1013 90 10000 3.6 320 20:40 06.10.2019
663 Clear 4 1013 80 10000 3.6 320 20:21 06.10.2019
664 Clear 4 1013 80 10000 3.6 320 19:58 06.10.2019
665 Clouds 5 1013 75 10000 3.6 320 19:38 06.10.2019
666 Rain 5 1014 75 10000 3.1 310 19:20 06.10.2019
667 Rain 5 1014 75 10000 3.1 310 19:20 06.10.2019
668 Rain 5 1014 75 10000 3.1 320 18:57 06.10.2019
669 Rain 5 1014 75 10000 3.1 320 18:39 06.10.2019
670 Rain 5 1014 75 10000 3.6 330 18:19 06.10.2019
671 Rain 5 1014 75 10000 3.6 330 17:58 06.10.2019
672 Clear 5 1014 80 10000 4.1 320 17:39 06.10.2019
673 Clear 6 1014 80 10000 4.1 310 17:19 06.10.2019
674 Clear 5 1014 75 10000 3.1 300 16:42 06.10.2019
675 Clear 6 1014 70 10000 3.1 300 16:24 06.10.2019
676 Clear 6 1014 70 10000 3.1 290 15:56 06.10.2019
677 Clear 6 1014 70 10000 3.1 290 15:38 06.10.2019
678 Clear 5 1015 75 10000 2.1 300 15:18 06.10.2019
679 Clear 5 1015 75 10000 2.6 280 14:42 06.10.2019
680 Clear 5 1015 75 10000 2.1 290 14:24 06.10.2019
681 Clear 5 1015 75 10000 2.6 270 13:56 06.10.2019
682 Clear 5 1015 75 10000 2.6 270 13:56 06.10.2019
683 Clear 5 1015 75 10000 2.6 270 13:38 06.10.2019
684 Clear 4 1015 93 10000 2.6 250 13:19 06.10.2019
685 Clear 4 1015 86 10000 2.1 240 12:56 06.10.2019
686 Clear 4 1015 86 10000 2.1 240 12:38 06.10.2019
687 Clear 3 1016 86 10000 2.6 240 12:20 06.10.2019
688 Clear 3 1016 86 10000 2.6 240 11:55 06.10.2019
689 Clear 3 1016 86 10000 2.6 240 11:36 06.10.2019
690 Clear 3 1016 86 10000 2.1 250 11:18 06.10.2019
691 Clear 2 1016 93 10000 1.5 250 10:42 06.10.2019
692 Clear 2 1016 93 10000 2.1 250 10:24 06.10.2019
693 Clear 2 1016 75 10000 2.1 250 09:42 06.10.2019
694 Clear 1 1017 91 10000 2.6 270 09:22 06.10.2019
695 Clear 1 1017 91 10000 2.6 270 09:22 06.10.2019
696 Clear 1 1016 91 10000 2.1 250 08:59 06.10.2019
697 Clear 1 1016 91 10000 2.1 250 08:40 06.10.2019
698 Clear 2 1016 90 10000 2.1 280 08:20 06.10.2019
699 Clear 2 1017 90 10000 2.1 310 07:44 06.10.2019
700 Clear 1 1017 90 10000 2.6 310 07:18 06.10.2019
701 Clear 1 1017 93 10000 2.1 320 06:19 06.10.2019
702 Clouds 1 1017 93 10000 3.1 320 05:28 06.10.2019
703 Clouds 2 1017 93 10000 3.1 330 03:35 06.10.2019
704 Rain 2 1017 93 10000 2.6 320 02:42 06.10.2019
705 Rain 2 1017 93 10000 2.1 320 02:19 06.10.2019
706 Rain 2 1017 93 10000 2.6 320 01:38 06.10.2019
707 Rain 2 1017 93 10000 2.6 320 01:20 06.10.2019
708 Rain 2 1017 93 10000 3.1 320 00:45 06.10.2019
709 Rain 2 1017 93 10000 3.1 320 00:24 06.10.2019
710 Rain 2 1017 93 10000 3.1 320 23:43 05.10.2019
711 Rain 2 1017 96 10000 3.1 330 23:22 05.10.2019
712 Clouds 2 1017 96 10000 2.6 330 22:58 05.10.2019
713 Clouds 2 1017 96 10000 2.6 330 22:39 05.10.2019
714 Clear 2 1017 96 10000 3.6 330 22:19 05.10.2019
715 Clear 2 1017 96 10000 3.6 320 21:43 05.10.2019
716 Clouds 2 1017 96 10000 3.1 330 21:24 05.10.2019
717 Clouds 2 1017 88 10000 3.1 330 20:59 05.10.2019
718 Clouds 2 1017 86 10000 2.6 320 20:40 05.10.2019
719 Clouds 2 1016 86 10000 3.1 320 20:20 05.10.2019
720 Clouds 2 1016 86 10000 3.1 320 19:58 05.10.2019
721 Clouds 2 1016 86 10000 3.1 320 19:37 05.10.2019
722 Clouds 2 1016 80 10000 2.6 320 19:18 05.10.2019
723 Clouds 2 1016 80 10000 3.1 310 18:55 05.10.2019
724 Clouds 2 1016 80 10000 3.1 310 18:36 05.10.2019
725 Clouds 2 1016 80 10000 3.1 310 18:18 05.10.2019
726 Clouds 2 1016 80 10000 2.6 310 17:42 05.10.2019
727 Clear 2 1016 80 10000 2.6 310 17:22 05.10.2019
728 Clear 2 1016 80 10000 2.6 310 16:56 05.10.2019
729 Clear 2 1016 80 10000 2.6 310 16:56 05.10.2019
730 Clear 2 1016 74 10000 2.1 300 16:37 05.10.2019
731 Clear 2 1016 74 10000 4.1 330 16:19 05.10.2019
732 Clear 2 1016 74 10000 3.6 320 15:56 05.10.2019
733 Clear 2 1016 74 10000 3.6 320 15:38 05.10.2019
734 Clear 2 1016 74 10000 3.6 310 15:19 05.10.2019
735 Clear 1 1016 80 10000 3.1 320 14:42 05.10.2019
736 Clear 1 1016 80 10000 3.6 320 14:23 05.10.2019
737 Clear 1 1016 80 10000 3.6 330 13:44 05.10.2019
738 Clear 1 1016 74 10000 4.6 320 13:26 05.10.2019
739 Clear 0 1016 64 10000 3.1 320 12:59 05.10.2019
740 Clear 0 1016 64 10000 3.1 320 12:41 05.10.2019
741 Clear 0 1016 61 10000 3.6 320 12:19 05.10.2019
742 Clear 0 1016 61 10000 3.6 320 11:41 05.10.2019
743 Clear 0 1016 61 10000 3.1 330 11:20 05.10.2019
744 Clear 0 1016 61 10000 3.1 330 10:57 05.10.2019
745 Clear 0 1016 61 10000 4.1 330 10:38 05.10.2019
746 Clear -1 1016 80 10000 4.1 330 10:19 05.10.2019
747 Clear -2 1016 86 10000 4.1 330 09:40 05.10.2019
748 Clear -2 1016 86 10000 4.1 340 09:22 05.10.2019
749 Clear -3 1016 86 10000 4.6 330 08:42 05.10.2019
750 Clear -3 1016 86 10000 4.1 330 08:23 05.10.2019
751 Clear -3 1016 86 10000 4.1 330 07:59 05.10.2019
752 Clear -3 1016 86 10000 4.1 330 07:59 05.10.2019
753 Clear -3 1016 86 10000 3.6 330 07:39 05.10.2019
754 Clear -3 1016 86 10000 3.6 330 07:39 05.10.2019
755 Clear -3 1015 92 10000 5.1 340 07:20 05.10.2019
756 Clear -3 1016 86 10000 4.6 340 06:50 05.10.2019
757 Clear -3 1015 92 10000 4.6 330 06:18 05.10.2019
758 Clear -3 1015 92 10000 4.1 330 04:46 05.10.2019
759 Clear -3 1016 92 10000 4.1 330 03:31 05.10.2019
760 Clear -2 1016 86 10000 4.1 330 02:25 05.10.2019
761 Clear -2 1016 86 10000 3.6 330 01:25 05.10.2019
762 Clear -2 1016 86 10000 3.6 340 00:46 05.10.2019
763 Clear -2 1016 86 10000 3.6 340 00:46 05.10.2019
764 Clear -2 1016 86 10000 3.6 340 00:27 05.10.2019
765 Clear -2 1016 86 10000 3.6 340 23:46 04.10.2019
766 Clear -2 1016 86 10000 3.6 340 23:28 04.10.2019
767 Clear -2 1016 86 10000 3.1 340 22:59 04.10.2019
768 Clear -1 1016 80 10000 3.1 340 22:41 04.10.2019
769 Clear -1 1016 86 10000 3.6 340 22:22 04.10.2019
770 Clear -1 1016 86 10000 3.6 340 21:58 04.10.2019
771 Clouds -1 1016 86 10000 3.1 330 21:39 04.10.2019
772 Clouds 0 1016 79 10000 2.6 340 21:21 04.10.2019
773 Clouds 0 1016 79 10000 2.6 340 20:57 04.10.2019
774 Clouds 0 1016 83 10000 3.1 340 20:39 04.10.2019
775 Clouds 0 1017 83 10000 3.6 350 20:20 04.10.2019
776 Clouds 0 1017 83 10000 3.6 350 20:20 04.10.2019
777 Clouds 0 1016 83 10000 3.6 360 19:49 04.10.2019
778 Clouds 0 1016 83 10000 3.6 360 19:30 04.10.2019
779 Clouds 0 1016 83 10000 3.6 360 19:30 04.10.2019
780 Clear 0 1017 83 10000 3.6 10 18:59 04.10.2019
781 Clear 0 1017 83 10000 3.6 10 18:39 04.10.2019
782 Clouds 1 1017 74 10000 2.6 360 18:19 04.10.2019
783 Clouds 1 1016 69 10000 3.6 360 17:57 04.10.2019
784 Clouds 1 1016 69 10000 3.6 360 17:38 04.10.2019
785 Clouds 2 1017 69 10000 4.6 20 17:19 04.10.2019
786 Clouds 2 1017 69 10000 4.1 10 16:42 04.10.2019
787 Clouds 3 1017 59 10000 4.6 20 16:19 04.10.2019
788 Clouds 3 1017 59 10000 4.6 20 15:59 04.10.2019
789 Clouds 3 1017 59 10000 4.6 20 15:40 04.10.2019
790 Clouds 3 1017 59 10000 4.6 30 15:21 04.10.2019
791 Clouds 3 1017 64 10000 4.1 30 14:59 04.10.2019
792 Clouds 3 1017 64 10000 4.1 30 14:41 04.10.2019
793 Clouds 3 1017 64 10000 5.1 20 14:22 04.10.2019
794 Clouds 3 1017 64 10000 6.7 30 13:54 04.10.2019
795 Clouds 3 1017 64 10000 6.7 30 13:36 04.10.2019
796 Clouds 3 1017 64 10000 6.2 40 13:18 04.10.2019
797 Clouds 2 1017 69 10000 5.7 20 12:42 04.10.2019
798 Clouds 2 1018 64 10000 6.7 30 12:24 04.10.2019
799 Clouds 2 1018 69 10000 5.1 10 11:44 04.10.2019
800 Clouds 2 1018 69 10000 5.1 10 11:44 04.10.2019
801 Clouds 2 1018 69 10000 5.1 10 11:44 04.10.2019
802 Clouds 2 1018 64 10000 5.7 20 11:22 04.10.2019
803 Clouds 2 1018 64 10000 5.7 20 10:58 04.10.2019
804 Clouds 2 1018 69 10000 5.1 20 10:38 04.10.2019
805 Clouds 2 1018 69 10000 4.6 20 10:19 04.10.2019
806 Clouds 1 1018 74 10000 4.1 20 09:44 04.10.2019
807 Clouds 1 1018 74 10000 4.1 20 09:44 04.10.2019
808 Clouds 1 1019 74 10000 3.1 360 09:25 04.10.2019
809 Rain 0 1019 86 10000 3.1 10 08:48 04.10.2019
810 Rain 0 1019 86 10000 3.1 10 08:29 04.10.2019
811 Clouds 0 1019 86 10000 3.1 20 07:56 04.10.2019
812 Clouds 0 1019 86 10000 3.1 20 07:38 04.10.2019
813 Clouds 0 1019 86 10000 3.1 10 07:19 04.10.2019
814 Clouds 0 1019 86 10000 2.6 20 06:40 04.10.2019
815 Clouds 0 1019 90 10000 3.1 10 06:21 04.10.2019
816 Clouds 1 1020 64 10000 4.1 30 05:22 04.10.2019
817 Clouds 0 1020 90 10000 3.1 10 04:53 04.10.2019
818 Clouds 0 1020 90 10000 3.6 20 03:32 04.10.2019
819 Clouds 0 1020 91 10000 3.1 30 02:45 04.10.2019
820 Clouds 0 1020 91 10000 2.1 10 01:54 04.10.2019
821 Clouds 0 1020 91 10000 2.1 10 01:54 04.10.2019
822 Clouds 0 1020 90 10000 2.1 10 01:27 04.10.2019
823 Clouds 0 1021 90 10000 2.1 20 00:36 04.10.2019
824 Clouds 1 1021 74 10000 3.1 10 23:41 03.10.2019
825 Clouds 1 1021 74 10000 2.6 10 23:22 03.10.2019
826 Clouds 1 1021 74 10000 2.6 10 22:58 03.10.2019
827 Clouds 1 1021 74 10000 3.1 20 22:39 03.10.2019
828 Clouds 1 1021 74 10000 3.1 20 22:39 03.10.2019
829 Clouds 1 1021 74 10000 3.1 10 22:21 03.10.2019
830 Clouds 1 1021 74 10000 3.1 10 21:59 03.10.2019
831 Clouds 1 1021 74 10000 3.6 10 21:40 03.10.2019
832 Clouds 1 1021 74 10000 2.6 10 21:20 03.10.2019
833 Clouds 1 1021 74 10000 2.6 10 21:20 03.10.2019
834 Clouds 1 1021 74 10000 2.6 10 20:58 03.10.2019
835 Clouds 1 1021 74 10000 2.6 360 20:40 03.10.2019
836 Clear 1 1021 80 10000 2.6 340 20:21 03.10.2019
837 Clear 1 1021 80 10000 2.6 350 19:57 03.10.2019
838 Clear 1 1021 80 10000 2.6 350 19:39 03.10.2019
839 Clear 1 1021 80 10000 2.1 360 19:20 03.10.2019
840 Clouds 1 1021 80 10000 2.1 20 18:56 03.10.2019
841 Clouds 1 1021 80 10000 2.1 20 18:37 03.10.2019
842 Snow 1 1021 80 10000 2.6 10 18:18 03.10.2019
843 Clear 2 1021 74 10000 2.1 350 17:42 03.10.2019
844 Clouds 2 1021 74 10000 2.1 350 17:21 03.10.2019
845 Clear 2 1021 74 10000 3.1 360 16:56 03.10.2019
846 Clear 2 1021 74 10000 3.1 360 16:56 03.10.2019
847 Clear 2 1021 74 10000 3.1 360 16:37 03.10.2019
848 Clear 2 1021 74 10000 3.1 350 16:19 03.10.2019
849 Clear 2 1021 74 10000 3.6 340 15:44 03.10.2019
850 Clear 2 1021 74 10000 3.6 330 15:24 03.10.2019
851 Clear 2 1021 74 10000 3.6 330 15:24 03.10.2019
852 Clear 2 1021 74 10000 3.6 330 14:58 03.10.2019
853 Clouds 2 1021 74 10000 3.1 330 14:36 03.10.2019
854 Clouds 2 1021 74 10000 3.1 330 14:36 03.10.2019
855 Clouds 2 1021 74 10000 3.1 330 14:36 03.10.2019
856 Clouds 2 1022 74 10000 3.1 330 14:18 03.10.2019
857 Clear 2 1022 80 10000 2.6 330 13:43 03.10.2019
858 Clear 2 1022 74 10000 2.6 350 13:24 03.10.2019
859 Clear 2 1022 74 10000 2.6 350 12:58 03.10.2019
860 Clear 1 1022 80 10000 2.6 360 12:39 03.10.2019
861 Clouds 1 1022 80 10000 3.1 340 12:20 03.10.2019
862 Clouds 0 1022 60 10000 2.6 350 11:58 03.10.2019
863 Clouds 0 1022 60 10000 2.6 350 11:39 03.10.2019
864 Clouds 0 1022 60 10000 3.1 340 11:21 03.10.2019
865 Clouds 0 1022 60 10000 3.1 340 10:57 03.10.2019
866 Clouds 0 1022 60 10000 2.6 340 10:38 03.10.2019
867 Clouds -1 1021 86 10000 2.6 350 10:18 03.10.2019
868 Clouds -1 1021 86 10000 3.1 350 09:56 03.10.2019
869 Clouds -1 1021 86 10000 3.1 350 09:37 03.10.2019
870 Clouds -1 1021 86 10000 3.6 350 09:19 03.10.2019
871 Clear -2 1020 92 10000 3.1 340 08:42 03.10.2019
872 Clear -2 1020 86 10000 3.1 350 08:23 03.10.2019
873 Clear -3 1020 92 10000 2.6 350 07:42 03.10.2019
874 Clear -3 1020 92 10000 2.6 350 07:20 03.10.2019
875 Clear -3 1020 92 10000 3.6 360 06:52 03.10.2019
876 Clear -3 1019 92 10000 3.6 360 06:26 03.10.2019
877 Clear -3 1019 92 10000 3.1 360 05:48 03.10.2019
878 Clear -2 1019 92 10000 3.6 360 05:25 03.10.2019
879 Clear -2 1019 92 10000 3.1 350 04:40 03.10.2019
880 Clear -2 1019 92 10000 3.6 360 03:36 03.10.2019
881 Clear -2 1018 92 10000 3.6 360 03:18 03.10.2019
882 Clear -2 1018 92 10000 3.6 360 03:18 03.10.2019
883 Clear -1 1018 86 10000 4.6 10 02:20 03.10.2019
884 Clear -2 1018 92 10000 4.1 10 01:37 03.10.2019
885 Clear -1 1017 86 10000 5.1 20 00:52 03.10.2019
886 Clear -1 1017 86 10000 5.1 20 00:31 03.10.2019
887 Clear -1 1016 86 10000 4.1 10 23:44 02.10.2019
888 Clear -1 1016 86 10000 4.1 10 23:24 02.10.2019
889 Clear -1 1015 86 10000 4.1 10 22:57 02.10.2019
890 Clear -1 1015 86 10000 4.1 10 22:38 02.10.2019
891 Clear -1 1015 86 10000 4.1 10 22:18 02.10.2019
892 Clear 0 1015 83 10000 4.1 10 21:55 02.10.2019
893 Clear 0 1015 83 10000 4.1 10 21:54 02.10.2019
894 Clear 0 1015 83 10000 4.1 10 21:54 02.10.2019
895 Clear 0 1015 83 10000 4.1 10 21:54 02.10.2019
896 Clear 0 1015 83 10000 4.1 10 21:54 02.10.2019
897 Clear 0 1015 83 10000 4.1 10 21:36 02.10.2019
898 Clear 0 1014 76 10000 4.6 10 21:18 02.10.2019
899 Clear 0 1014 75 10000 4.6 10 20:54 02.10.2019
900 Clear 0 1014 75 10000 4.6 10 20:36 02.10.2019
901 Clear 1 1013 69 10000 4.6 10 20:18 02.10.2019
902 Clear 1 1013 69 10000 4.6 10 19:42 02.10.2019
903 Clear 1 1012 69 10000 5.1 10 19:21 02.10.2019
904 Clear 1 1012 69 10000 3.6 10 18:57 02.10.2019
905 Clear 1 1012 69 10000 3.6 10 18:38 02.10.2019
906 Clear 2 1011 64 10000 4.1 10 18:20 02.10.2019
907 Clear 2 1011 59 10000 5.1 20 17:56 02.10.2019
908 Clear 2 1011 59 10000 5.1 20 17:37 02.10.2019
909 Clear 3 1011 59 10000 4.6 20 17:19 02.10.2019
910 Clouds 3 1010 59 10000 5.1 20 16:42 02.10.2019
911 Clouds 3 1010 59 10000 5.1 20 16:22 02.10.2019
912 Clouds 4 1009 55 10000 7.2 40 15:59 02.10.2019
913 Clouds 4 1009 51 10000 7.2 30 15:38 02.10.2019
914 Clouds 4 1009 51 10000 7.2 30 15:20 02.10.2019
915 Clouds 4 1008 55 10000 7.7 30 14:57 02.10.2019
916 Clouds 4 1008 55 10000 8.2 40 14:39 02.10.2019
917 Clouds 4 1008 55 10000 8.2 40 14:20 02.10.2019
918 Clouds 4 1008 55 10000 7.7 30 13:43 02.10.2019
919 Clouds 4 1007 55 10000 9.3 30 13:24 02.10.2019
920 Clouds 4 1006 51 10000 9.8 40 12:57 02.10.2019
921 Clouds 3 1006 59 10000 9.8 30 12:37 02.10.2019
922 Clouds 3 1006 59 10000 9.8 30 12:18 02.10.2019
923 Clouds 3 1005 59 10000 8.2 30 11:44 02.10.2019
924 Clouds 3 1005 59 10000 8.2 30 11:23 02.10.2019
925 Clouds 2 1005 64 10000 8.7 30 10:42 02.10.2019
926 Clouds 2 1004 64 10000 9.3 30 10:20 02.10.2019
927 Clouds 2 1004 64 10000 9.3 30 10:20 02.10.2019
928 Clouds 2 1004 64 10000 7.7 30 09:57 02.10.2019
929 Clouds 1 1003 69 10000 10.3 30 09:36 02.10.2019
930 Clouds 1 1003 69 10000 10.3 30 09:18 02.10.2019
931 Clouds 1 1003 69 10000 9.3 30 08:43 02.10.2019
932 Clouds 1 1002 69 10000 8.2 30 08:22 02.10.2019
933 Clouds 1 1002 69 10000 8.2 30 07:56 02.10.2019
934 Clouds 1 1002 69 10000 9.8 40 07:37 02.10.2019
935 Clouds 1 1002 69 10000 9.8 40 07:19 02.10.2019
936 Clouds 1 1002 69 10000 9.8 40 07:19 02.10.2019
937 Clear 1 1001 69 10000 10.3 30 06:31 02.10.2019
938 Clouds 1 1000 69 10000 10.3 40 05:52 02.10.2019
939 Clouds 1 1000 74 10000 10.3 40 05:23 02.10.2019
940 Clear 2 999 69 10000 9.8 40 04:41 02.10.2019
941 Clouds 2 999 69 10000 11.8 40 03:51 02.10.2019
942 Clouds 2 998 74 10000 11.3 40 02:39 02.10.2019
943 Clouds 2 998 74 10000 11.3 40 02:20 02.10.2019
944 Clouds 2 997 74 10000 11.8 40 01:18 02.10.2019
945 Clouds 3 997 74 10000 10.3 40 00:30 02.10.2019
946 Clouds 3 996 78 10000 11.3 40 23:59 01.10.2019
947 Clouds 4 996 78 10000 11.8 50 23:41 01.10.2019
948 Clouds 4 996 78 10000 11.8 50 23:41 01.10.2019
949 Clouds 4 996 78 10000 11.8 50 23:22 01.10.2019
950 Clouds 4 996 80 10000 11.8 50 22:58 01.10.2019
951 Clouds 4 995 80 10000 10.8 50 22:38 01.10.2019
952 Clouds 4 995 80 10000 10.8 50 22:18 01.10.2019
953 Clouds 4 995 80 10000 10.8 40 21:43 01.10.2019
954 Clouds 4 995 80 10000 10.8 40 21:43 01.10.2019
955 Clouds 5 995 80 10000 11.3 40 21:24 01.10.2019
956 Clouds 5 995 86 10000 10.3 50 20:59 01.10.2019
957 Clouds 5 995 86 10000 10.3 50 20:59 01.10.2019
958 Clouds 5 994 86 10000 9.8 40 20:39 01.10.2019
959 Clouds 5 994 86 10000 9.8 40 20:20 01.10.2019
960 Clouds 5 994 93 10000 10.3 40 19:58 01.10.2019
961 Clouds 6 994 87 10000 10.3 50 19:40 01.10.2019
962 Clouds 6 994 87 10000 10.3 50 19:21 01.10.2019
963 Clouds 7 994 81 10000 9.8 60 18:56 01.10.2019
964 Clouds 7 993 81 10000 10.3 60 18:38 01.10.2019
965 Clouds 7 993 81 10000 10.3 60 18:19 01.10.2019
966 Clouds 7 993 87 10000 8.7 50 17:43 01.10.2019
967 Clouds 7 993 87 10000 9.8 50 17:22 01.10.2019
968 Clouds 7 992 87 10000 10.3 50 16:59 01.10.2019
969 Clouds 7 992 93 10000 7.7 50 16:41 01.10.2019
970 Clouds 7 992 93 10000 7.7 50 16:22 01.10.2019
971 Clouds 7 992 93 10000 8.2 50 15:49 01.10.2019
972 Clouds 7 992 93 10000 8.7 50 15:25 01.10.2019
973 Clouds 7 992 93 10000 7.7 50 14:58 01.10.2019
974 Drizzle 7 992 93 10000 7.7 50 14:40 01.10.2019
975 Drizzle 7 992 93 10000 7.7 50 14:19 01.10.2019
976 Drizzle 8 992 87 10000 7.7 50 13:56 01.10.2019
977 Clouds 8 992 87 10000 7.2 50 13:37 01.10.2019
978 Clouds 8 992 87 10000 7.2 50 13:18 01.10.2019
979 Rain 8 991 87 10000 6.7 60 12:54 01.10.2019
980 Clouds 8 991 87 10000 7.7 50 12:36 01.10.2019
981 Clouds 8 991 87 10000 7.7 50 12:18 01.10.2019
982 Clouds 7 991 93 10000 8.2 60 11:54 01.10.2019
983 Clouds 7 991 93 10000 7.2 50 11:36 01.10.2019
984 Clouds 7 991 93 10000 7.2 50 11:18 01.10.2019
985 Clouds 7 991 93 10000 7.2 50 10:43 01.10.2019
986 Clouds 7 991 93 10000 7.7 60 10:24 01.10.2019
987 Clouds 7 991 93 10000 8.2 60 09:44 01.10.2019
988 Clouds 7 991 93 10000 7.7 50 09:25 01.10.2019
989 Clouds 7 991 93 10000 7.7 50 09:25 01.10.2019
990 Clouds 7 990 93 10000 7.2 60 08:44 01.10.2019
991 Clouds 7 990 93 10000 7.2 60 08:25 01.10.2019
992 Clouds 7 990 93 10000 7.7 60 07:49 01.10.2019
993 Clouds 7 990 93 10000 7.2 50 07:26 01.10.2019
994 Clouds 7 990 93 10000 7.7 60 06:51 01.10.2019
995 Clouds 7 990 93 10000 7.7 60 06:51 01.10.2019
996 Clouds 7 990 100 10000 6.7 50 06:25 01.10.2019
997 Rain 7 990 93 10000 6.2 60 05:50 01.10.2019
998 Clouds 7 990 93 10000 7.7 60 05:20 01.10.2019
999 Clouds 7 990 93 10000 7.2 70 04:40 01.10.2019
1000 Clouds 7 990 100 10000 5.7 70 03:32 01.10.2019
1001 Rain 7 989 100 10000 4.1 70 02:19 01.10.2019
1002 Clouds 7 989 100 10000 5.1 70 01:51 01.10.2019
1003 Clouds 8 989 93 5000 4.1 80 00:42 01.10.2019
1004 Clouds 8 989 93 5000 4.1 80 00:24 01.10.2019
1005 Rain 8 989 93 10000 3.6 90 23:42 30.09.2019
1006 Rain 8 989 93 10000 3.6 90 23:22 30.09.2019
1007 Rain 8 989 100 6000 3.1 90 22:46 30.09.2019
1008 Rain 8 989 100 4700 3.1 90 22:27 30.09.2019
1009 Clouds 8 989 100 7000 3.1 90 21:58 30.09.2019
1010 Rain 8 989 100 6000 3.1 100 21:40 30.09.2019
1011 Rain 8 989 100 6000 3.1 100 21:20 30.09.2019
1012 Rain 8 988 100 3200 3.1 100 20:58 30.09.2019
1013 Rain 8 988 100 4100 3.6 100 20:40 30.09.2019
1014 Rain 8 988 100 4100 3.6 100 20:21 30.09.2019
1015 Clouds 8 988 100 5000 3.6 90 19:58 30.09.2019
1016 Clouds 8 988 100 6000 3.1 100 19:40 30.09.2019
1017 Clouds 8 988 100 6000 3.1 100 19:20 30.09.2019
1018 Clouds 8 988 100 5000 2.6 100 18:58 30.09.2019
1019 Clouds 8 988 100 6000 3.6 110 18:40 30.09.2019
1020 Clouds 8 988 100 6000 3.6 110 18:20 30.09.2019
1021 Rain 8 988 100 4600 3.6 110 17:55 30.09.2019
1022 Rain 8 988 100 6000 3.1 120 17:36 30.09.2019
1023 Rain 8 988 100 6000 3.1 120 17:18 30.09.2019
1024 Clouds 8 988 100 7000 3.1 120 16:41 30.09.2019
1025 Clouds 8 988 100 7000 3.1 120 16:41 30.09.2019
1026 Clouds 8 988 100 7000 3.1 120 16:41 30.09.2019
1027 Clouds 8 988 100 10000 3.6 120 16:20 30.09.2019
1028 Clouds 8 988 100 10000 3.6 120 16:19 30.09.2019
1029 Rain 8 988 100 10000 3.6 110 15:59 30.09.2019
1030 Rain 8 988 100 9000 3.6 120 15:38 30.09.2019
1031 Rain 8 988 100 9000 3.6 120 15:19 30.09.2019
1032 Rain 8 987 100 4400 4.1 110 14:58 30.09.2019
1033 Rain 7 987 100 1500 3.6 110 14:38 30.09.2019
1034 Rain 7 987 100 1500 3.6 110 14:19 30.09.2019
1035 Rain 7 987 100 1200 4.1 100 13:58 30.09.2019
1036 Rain 7 987 100 2000 4.6 110 13:39 30.09.2019
1037 Rain 7 987 100 2000 4.6 110 13:20 30.09.2019
1038 Rain 7 987 100 2000 4.1 110 12:43 30.09.2019
1039 Mist 7 987 100 1500 4.1 100 12:22 30.09.2019
1040 Fog 7 987 100 1200 4.1 100 11:57 30.09.2019
1041 Fog 6 986 100 1500 4.6 100 11:39 30.09.2019
1042 Fog 6 986 100 1500 4.6 100 11:19 30.09.2019
1043 Fog 6 986 100 1400 4.1 100 10:54 30.09.2019
1044 Mist 6 986 100 1500 4.1 100 10:36 30.09.2019
1045 Mist 6 986 100 1500 4.1 100 10:18 30.09.2019
1046 Fog 6 986 93 500 4.1 100 09:40 30.09.2019
1047 Fog 6 986 93 500 4.1 100 09:21 30.09.2019
1048 Drizzle 5 986 100 250 4.1 90 08:51 30.09.2019
1049 Rain 5 986 100 200 3.6 90 08:33 30.09.2019
1050 Fog 5 986 100 100 3.6 90 07:46 30.09.2019
1051 Fog 5 986 100 100 3.6 90 07:28 30.09.2019
1052 Fog 5 986 100 100 3.6 90 06:59 30.09.2019
1053 Fog 5 986 100 350 3.1 90 06:41 30.09.2019
1054 Fog 5 986 100 450 3.1 90 05:51 30.09.2019
1055 Fog 5 986 100 600 3.1 100 05:33 30.09.2019
1056 Clouds 6 986 93 10000 2.1 130 02:49 30.09.2019
1057 Clouds 6 987 100 10000 2.6 140 01:41 30.09.2019
1058 Rain 6 987 100 2600 2.6 120 00:44 30.09.2019
1059 Rain 6 987 100 1300 2.6 120 00:24 30.09.2019
1060 Rain 6 987 100 10000 2.6 140 23:57 29.09.2019
1061 Rain 7 987 93 10000 3.1 140 23:39 29.09.2019
1062 Rain 7 987 93 10000 3.1 140 23:19 29.09.2019
1063 Rain 7 987 93 10000 3.1 140 22:43 29.09.2019
1064 Rain 7 987 93 9000 3.1 140 22:25 29.09.2019
1065 Rain 7 988 93 10000 3.6 150 21:58 29.09.2019
1066 Rain 7 988 93 10000 3.6 150 21:38 29.09.2019
1067 Rain 7 988 93 10000 3.6 150 21:19 29.09.2019
1068 Rain 7 988 100 9000 3.6 160 20:57 29.09.2019
1069 Rain 7 988 100 9000 3.6 160 20:57 29.09.2019
1070 Rain 7 988 100 7000 3.1 170 20:39 29.09.2019
1071 Rain 7 988 100 7000 3.1 170 20:19 29.09.2019
1072 Rain 7 988 100 7000 3.1 170 20:19 29.09.2019
1073 Rain 7 989 100 10000 3.1 160 19:39 29.09.2019
1074 Rain 7 989 100 10000 3.1 160 19:20 29.09.2019
1075 Rain 7 989 93 10000 2.1 180 18:57 29.09.2019
1076 Rain 7 989 93 10000 2.1 180 18:57 29.09.2019
1077 Rain 7 989 93 10000 3.6 200 18:39 29.09.2019
1078 Rain 7 989 93 10000 3.6 200 18:20 29.09.2019
1079 Rain 7 990 93 10000 4.1 190 17:59 29.09.2019
1080 Rain 7 990 93 10000 4.6 190 17:41 29.09.2019
1081 Rain 7 990 93 10000 4.6 190 17:20 29.09.2019
1082 Rain 7 990 93 10000 4.6 190 17:20 29.09.2019
1083 Rain 7 990 93 10000 4.6 190 17:00 29.09.2019
1084 Rain 7 990 93 10000 4.6 190 17:00 29.09.2019
1085 Rain 8 991 87 10000 6.2 190 16:41 29.09.2019
1086 Rain 8 991 87 10000 6.2 190 16:20 29.09.2019
1087 Drizzle 8 991 87 10000 5.1 190 15:58 29.09.2019
1088 Rain 8 991 87 10000 5.1 190 15:37 29.09.2019
1089 Rain 8 991 87 10000 5.1 190 15:18 29.09.2019
1090 Rain 8 991 87 10000 5.1 190 15:18 29.09.2019
1091 Rain 8 991 87 10000 6.2 200 14:57 29.09.2019
1092 Clouds 8 991 87 10000 6.7 200 14:37 29.09.2019
1093 Clouds 8 991 87 10000 6.7 200 14:18 29.09.2019
1094 Clouds 8 992 87 10000 6.2 200 13:55 29.09.2019
1095 Clouds 8 992 87 10000 6.2 200 13:55 29.09.2019
1096 Clouds 8 992 87 10000 6.2 200 13:36 29.09.2019
1097 Clouds 8 992 87 10000 6.2 200 13:18 29.09.2019
1098 Rain 8 992 87 10000 6.2 190 12:55 29.09.2019
1099 Rain 8 992 87 10000 6.2 190 12:55 29.09.2019
1100 Rain 8 993 87 10000 5.1 190 12:37 29.09.2019
1101 Rain 8 993 87 10000 5.1 190 12:19 29.09.2019
1102 Rain 7 993 93 10000 5.1 200 11:41 29.09.2019
1103 Rain 7 993 93 10000 5.1 200 11:19 29.09.2019
1104 Rain 7 994 93 10000 5.7 190 10:58 29.09.2019
1105 Rain 7 994 93 10000 5.7 190 10:58 29.09.2019
1106 Rain 7 994 93 10000 6.2 190 10:38 29.09.2019
1107 Rain 7 994 93 10000 6.2 190 10:20 29.09.2019
1108 Rain 7 994 93 10000 6.7 200 09:56 29.09.2019
1109 Rain 7 994 93 10000 6.7 200 09:56 29.09.2019
1110 Rain 7 995 100 10000 6.7 200 09:38 29.09.2019
1111 Rain 7 995 100 10000 6.7 200 09:18 29.09.2019
1112 Rain 8 995 87 10000 6.2 200 08:42 29.09.2019
1113 Rain 8 995 87 10000 6.2 200 08:21 29.09.2019
1114 Rain 8 996 87 10000 6.7 200 07:43 29.09.2019
1115 Rain 8 996 93 10000 5.7 190 07:25 29.09.2019
1116 Rain 8 997 93 10000 6.2 190 06:49 29.09.2019
1117 Rain 8 998 87 10000 5.1 200 05:55 29.09.2019
1118 Rain 8 998 87 10000 5.1 200 05:54 29.09.2019
1119 Clouds 8 999 87 10000 4.6 210 04:42 29.09.2019
1120 Clouds 7 999 93 10000 5.7 220 04:23 29.09.2019
1121 Clouds 7 1001 93 10000 7.2 220 02:55 29.09.2019
1122 Clouds 7 1001 93 10000 6.7 220 02:19 29.09.2019
1123 Clouds 8 1002 87 10000 6.7 220 01:38 29.09.2019
1124 Clouds 8 1002 87 10000 6.2 220 00:53 29.09.2019
1125 Clouds 8 1003 93 10000 5.1 220 00:21 29.09.2019
1126 Clouds 8 1003 93 10000 6.2 220 23:56 28.09.2019
1127 Clouds 8 1003 93 10000 6.2 220 23:36 28.09.2019
1128 Clouds 8 1003 93 10000 6.2 220 23:18 28.09.2019
1129 Clouds 8 1004 93 10000 4.6 220 22:39 28.09.2019
1130 Clouds 8 1004 93 10000 4.6 220 22:21 28.09.2019
1131 Clouds 8 1004 93 10000 5.1 220 21:57 28.09.2019
1132 Clouds 8 1004 93 10000 4.6 220 21:39 28.09.2019
1133 Clouds 8 1004 93 10000 4.6 220 21:21 28.09.2019
1134 Clouds 8 1005 87 10000 4.6 220 20:57 28.09.2019
1135 Clouds 8 1005 87 10000 5.1 220 20:38 28.09.2019
1136 Clouds 8 1005 87 10000 5.1 220 20:18 28.09.2019
1137 Clouds 8 1005 87 10000 5.1 220 20:18 28.09.2019
1138 Clouds 8 1005 87 10000 5.7 220 19:56 28.09.2019
1139 Clouds 8 1005 87 10000 5.7 220 19:56 28.09.2019
1140 Clouds 8 1006 81 10000 5.7 220 19:37 28.09.2019
1141 Clouds 8 1006 81 10000 5.7 220 19:19 28.09.2019
1142 Clouds 8 1006 75 10000 6.2 220 18:43 28.09.2019
1143 Clouds 8 1006 75 10000 6.2 220 18:22 28.09.2019
1144 Clouds 9 1006 70 10000 6.2 220 18:00 28.09.2019
1145 Clouds 9 1006 70 10000 6.2 220 18:00 28.09.2019
1146 Clouds 9 1006 70 10000 6.7 220 17:41 28.09.2019
1147 Clouds 9 1006 70 10000 6.7 220 17:22 28.09.2019
1148 Clouds 10 1007 66 10000 6.2 220 16:57 28.09.2019
1149 Clouds 10 1007 66 10000 6.2 220 16:57 28.09.2019
1150 Clouds 10 1007 66 10000 5.7 220 16:38 28.09.2019
1151 Clouds 10 1007 66 10000 5.7 220 16:20 28.09.2019
1152 Clouds 9 1008 76 10000 6.2 230 15:40 28.09.2019
1153 Clouds 9 1008 76 10000 6.2 230 15:22 28.09.2019
1154 Clouds 9 1008 76 10000 6.7 230 14:55 28.09.2019
1155 Clouds 10 1008 71 10000 7.7 220 14:37 28.09.2019
1156 Clouds 10 1008 71 10000 7.7 220 14:37 28.09.2019
1157 Clouds 10 1008 71 10000 7.7 220 14:19 28.09.2019
1158 Clouds 10 1008 71 10000 5.7 220 13:44 28.09.2019
1159 Clouds 10 1009 71 10000 7.2 220 13:20 28.09.2019
1160 Clouds 10 1009 76 10000 6.2 220 12:58 28.09.2019
1161 Clouds 10 1009 76 10000 8.2 210 12:39 28.09.2019
1162 Clouds 10 1009 76 10000 8.2 210 12:18 28.09.2019
1163 Clouds 10 1010 81 10000 6.7 200 11:41 28.09.2019
1164 Clouds 10 1010 81 10000 6.7 200 11:41 28.09.2019
1165 Clouds 10 1010 81 10000 6.7 200 11:20 28.09.2019
1166 Clouds 10 1010 81 10000 5.7 220 10:56 28.09.2019
1167 Clouds 8 1010 93 10000 5.1 220 10:38 28.09.2019
1168 Clouds 8 1010 93 10000 5.1 220 10:18 28.09.2019
1169 Clouds 8 1010 93 10000 5.7 210 09:41 28.09.2019
1170 Clouds 8 1011 93 10000 5.1 230 09:22 28.09.2019
1171 Mist 7 1011 100 2900 4.6 220 08:48 28.09.2019
1172 Fog 7 1011 100 900 5.1 210 08:29 28.09.2019
1173 Fog 7 1011 100 1100 4.6 220 07:59 28.09.2019
1174 Fog 7 1011 100 800 5.1 220 07:41 28.09.2019
1175 Fog 7 1011 100 800 5.1 220 07:19 28.09.2019
1176 Fog 7 1012 100 700 5.1 220 06:40 28.09.2019
1177 Fog 7 1012 100 700 5.1 220 06:21 28.09.2019
1178 Fog 7 1012 100 900 4.6 220 05:25 28.09.2019
1179 Clouds 7 1012 100 10000 4.6 220 04:56 28.09.2019
1180 Clouds 7 1012 100 10000 5.1 220 04:30 28.09.2019
1181 Clouds 7 1012 100 10000 4.6 220 03:42 28.09.2019
1182 Clear 7 1013 93 10000 4.1 220 02:59 28.09.2019
1183 Clear 7 1013 93 10000 4.1 210 02:40 28.09.2019
1184 Clear 7 1013 93 10000 4.1 210 02:22 28.09.2019
1185 Clear 7 1013 93 10000 3.6 220 01:43 28.09.2019
1186 Clear 7 1013 93 10000 3.6 220 01:19 28.09.2019
1187 Clear 7 1014 93 10000 4.1 210 00:46 28.09.2019
1188 Clear 8 1014 87 10000 3.6 200 00:28 28.09.2019
1189 Clear 8 1014 87 10000 2.6 200 23:39 27.09.2019
1190 Clear 8 1014 87 10000 2.6 200 23:21 27.09.2019
1191 Clouds 8 1014 87 10000 3.1 190 22:56 27.09.2019
1192 Clouds 8 1014 87 10000 2.6 190 22:37 27.09.2019
1193 Clouds 8 1014 87 10000 2.6 190 22:18 27.09.2019
1194 Clouds 8 1014 87 10000 2.6 210 21:41 27.09.2019
1195 Clouds 8 1014 87 10000 3.1 210 21:21 27.09.2019
1196 Clear 7 1014 93 10000 3.6 200 20:59 27.09.2019
1197 Clouds 8 1014 87 10000 3.1 190 20:40 27.09.2019
1198 Clouds 8 1014 87 10000 3.1 190 20:20 27.09.2019
1199 Clouds 8 1014 87 10000 2.6 200 19:58 27.09.2019
1200 Clouds 8 1014 87 10000 2.1 200 19:39 27.09.2019
1201 Clouds 8 1014 87 10000 2.1 200 19:39 27.09.2019
1202 Clouds 8 1014 87 10000 2.1 200 19:20 27.09.2019
1203 Clouds 9 1014 87 10000 1.5 210 18:43 27.09.2019
1204 Clouds 9 1014 87 10000 1.5 210 18:24 27.09.2019
1205 Clouds 10 1014 81 10000 1.5 210 17:57 27.09.2019
1206 Clouds 10 1015 81 10000 2.1 220 17:38 27.09.2019
1207 Clouds 10 1015 81 10000 2.1 220 17:20 27.09.2019
1208 Clouds 10 1015 81 10000 2.1 230 16:57 27.09.2019
1209 Clouds 10 1015 81 10000 2.1 200 16:38 27.09.2019
1210 Clouds 10 1015 81 10000 2.1 200 16:18 27.09.2019
1211 Clouds 10 1015 81 10000 2.1 220 15:47 27.09.2019
1212 Clouds 10 1015 81 10000 1.5 190 15:21 27.09.2019
1213 Clouds 10 1015 81 10000 1.5 220 14:59 27.09.2019
1214 Clouds 10 1015 81 10000 1.5 220 14:41 27.09.2019
1215 Clouds 9 1015 87 10000 2.1 220 14:22 27.09.2019
1216 Clouds 9 1015 87 10000 1.5 200 13:58 27.09.2019
1217 Clouds 9 1015 87 10000 1 0 13:40 27.09.2019
1218 Clouds 9 1015 87 10000 1 0 13:21 27.09.2019
1219 Clouds 9 1015 87 10000 1 0 13:21 27.09.2019
1220 Clouds 10 1015 81 10000 1 0 12:56 27.09.2019
1221 Clouds 10 1015 81 10000 0.5 20 12:37 27.09.2019
1222 Clouds 10 1015 81 10000 0.5 20 12:18 27.09.2019
1223 Clouds 9 1015 87 10000 1 0 11:39 27.09.2019
1224 Clouds 9 1015 87 10000 1 0 11:20 27.09.2019
1225 Clouds 9 1015 93 10000 1 0 10:54 27.09.2019
1226 Clouds 8 1015 93 10000 1 0 10:36 27.09.2019
1227 Clouds 8 1015 93 10000 1 0 10:18 27.09.2019
1228 Clouds 8 1015 93 10000 0.5 0 09:41 27.09.2019
1229 Clouds 8 1015 93 10000 1.5 80 09:20 27.09.2019
1230 Clouds 8 1015 93 10000 1 60 08:42 27.09.2019
1231 Clouds 8 1015 93 10000 0.5 0 08:22 27.09.2019
1232 Clouds 7 1015 100 10000 1 30 07:58 27.09.2019
1233 Clouds 7 1015 100 10000 1.5 20 07:39 27.09.2019
1234 Clouds 7 1015 100 10000 1.5 20 07:20 27.09.2019
1235 Clouds 7 1014 100 10000 1.5 360 06:40 27.09.2019
1236 Clouds 7 1014 100 10000 1.5 360 06:22 27.09.2019
1237 Clouds 7 1015 100 10000 1.5 360 05:49 27.09.2019
1238 Clouds 8 1015 93 10000 1.5 360 05:30 27.09.2019
1239 Clouds 8 1014 93 10000 2.1 10 03:52 27.09.2019
1240 Clouds 8 1014 93 10000 1.5 350 01:57 27.09.2019
1241 Clouds 8 1014 93 10000 1.5 350 01:57 27.09.2019
1242 Clouds 8 1014 100 10000 2.1 20 01:34 27.09.2019
1243 Clouds 8 1014 100 10000 2.1 350 00:44 27.09.2019
1244 Clouds 9 1014 93 10000 2.1 340 23:59 26.09.2019
1245 Clouds 9 1014 93 10000 1.5 330 23:41 26.09.2019
1246 Clouds 9 1014 93 10000 1.5 330 23:22 26.09.2019
1247 Clouds 9 1014 93 10000 1.5 310 22:59 26.09.2019
1248 Clouds 9 1014 93 10000 1.5 320 22:40 26.09.2019
1249 Clouds 9 1014 93 10000 1.5 320 22:19 26.09.2019
1250 Clouds 8 1013 100 10000 1 0 21:59 26.09.2019
1251 Clouds 8 1013 100 10000 1.5 320 21:38 26.09.2019
1252 Clouds 8 1013 100 10000 1.5 320 21:38 26.09.2019
1253 Clouds 8 1013 100 10000 1.5 320 21:20 26.09.2019
1254 Clouds 8 1013 100 10000 1 0 20:59 26.09.2019
1255 Clouds 8 1013 100 10000 1 0 20:59 26.09.2019
1256 Clouds 8 1013 100 10000 1 0 20:59 26.09.2019
1257 Clouds 8 1013 100 10000 1.5 290 20:40 26.09.2019
1258 Clouds 8 1013 100 10000 1.5 290 20:21 26.09.2019
1259 Clouds 8 1014 100 10000 1.5 270 19:59 26.09.2019
1260 Mist 8 1014 100 2400 1.5 290 19:40 26.09.2019
1261 Mist 8 1014 100 2400 1.5 290 19:18 26.09.2019
1262 Rain 8 1013 100 5000 1.5 270 18:56 26.09.2019
1263 Mist 8 1013 100 3200 1.5 270 18:37 26.09.2019
1264 Mist 8 1013 100 3200 1.5 270 18:18 26.09.2019
1265 Clouds 9 1013 87 10000 1.5 330 17:38 26.09.2019
1266 Clouds 9 1013 87 10000 1.5 330 17:38 26.09.2019
1267 Clouds 9 1013 87 10000 1.5 330 17:19 26.09.2019
1268 Clouds 9 1013 87 10000 2.1 310 16:57 26.09.2019
1269 Clouds 9 1013 87 10000 2.6 310 16:39 26.09.2019
1270 Clouds 9 1013 87 10000 2.6 310 16:20 26.09.2019
1271 Clouds 10 1013 81 10000 2.6 310 15:56 26.09.2019
1272 Clouds 9 1013 87 10000 3.1 300 15:36 26.09.2019
1273 Clouds 9 1013 87 10000 3.1 300 15:18 26.09.2019
1274 Clouds 9 1013 87 10000 1.5 0 14:41 26.09.2019
1275 Clouds 9 1013 87 10000 1.5 0 14:41 26.09.2019
1276 Clouds 9 1013 87 10000 1.5 0 14:22 26.09.2019
1277 Clouds 9 1013 81 10000 1.5 0 13:58 26.09.2019
1278 Clouds 9 1013 81 10000 0.5 0 13:39 26.09.2019
1279 Clouds 9 1013 81 10000 0.5 0 13:19 26.09.2019
1280 Clouds 9 1013 81 10000 2.1 10 12:55 26.09.2019
1281 Rain 9 1013 81 10000 2.1 310 12:36 26.09.2019
1282 Rain 9 1013 81 10000 2.1 310 12:18 26.09.2019
1283 Clouds 8 1012 87 10000 2.1 360 11:42 26.09.2019
1284 Clouds 8 1012 87 10000 2.1 360 11:20 26.09.2019
1285 Clouds 7 1012 93 10000 2.6 350 10:43 26.09.2019
1286 Clouds 7 1012 93 10000 2.6 350 10:25 26.09.2019
1287 Clouds 7 1012 93 10000 2.6 350 10:25 26.09.2019
1288 Clouds 7 1012 93 10000 2.6 350 10:25 26.09.2019
1289 Clouds 7 1012 93 10000 3.1 360 09:59 26.09.2019
1290 Clouds 7 1012 93 10000 3.1 360 09:59 26.09.2019
1291 Clouds 7 1012 93 10000 3.1 360 09:59 26.09.2019
1292 Clouds 7 1012 93 10000 2.6 350 09:41 26.09.2019
1293 Clouds 7 1012 93 10000 2.6 350 09:20 26.09.2019
1294 Clouds 6 1012 100 10000 3.1 350 08:53 26.09.2019
1295 Clouds 6 1011 93 10000 3.1 340 08:32 26.09.2019
1296 Fog 6 1011 93 10000 3.1 340 07:57 26.09.2019
1297 Clouds 5 1010 100 10000 3.1 340 07:38 26.09.2019
1298 Clouds 5 1010 100 10000 3.1 340 07:18 26.09.2019
1299 Clear 6 1010 93 10000 2.6 350 06:42 26.09.2019
1300 Clouds 6 1010 93 10000 3.1 340 06:23 26.09.2019
1301 Clouds 6 1010 100 10000 3.6 350 05:36 26.09.2019
1302 Clouds 6 1010 93 10000 4.1 350 04:56 26.09.2019
1303 Clouds 6 1009 93 10000 3.6 340 02:34 26.09.2019
1304 Clouds 6 1009 93 10000 3.6 340 01:49 26.09.2019
1305 Clouds 5 1009 100 10000 4.6 340 01:26 26.09.2019
1306 Clouds 6 1009 93 10000 4.1 340 00:46 26.09.2019
1307 Clouds 6 1008 93 10000 4.6 340 00:28 26.09.2019
1308 Clouds 5 1008 93 10000 4.1 340 23:44 25.09.2019
1309 Clouds 5 1008 93 10000 4.1 340 23:26 25.09.2019
1310 Clouds 5 1008 93 10000 4.1 340 23:26 25.09.2019
1311 Rain 5 1008 93 10000 4.1 310 22:56 25.09.2019
1312 Rain 5 1008 93 10000 3.6 300 22:37 25.09.2019
1313 Rain 5 1008 93 10000 3.6 300 22:37 25.09.2019
1314 Rain 5 1008 93 10000 3.6 300 22:19 25.09.2019
1315 Clouds 5 1008 86 10000 3.6 290 21:56 25.09.2019
1316 Clouds 5 1008 86 10000 3.6 290 21:56 25.09.2019
1317 Clouds 5 1008 86 10000 3.6 290 21:37 25.09.2019
1318 Clouds 5 1008 86 10000 3.6 290 21:18 25.09.2019
1319 Clouds 5 1008 86 10000 3.6 270 20:56 25.09.2019
1320 Clouds 5 1008 86 10000 3.6 270 20:37 25.09.2019
1321 Clouds 5 1008 86 10000 3.6 270 20:18 25.09.2019
1322 Clouds 5 1008 86 10000 3.6 270 20:18 25.09.2019
1323 Rain 4 1008 93 10000 2.1 240 19:40 25.09.2019
1324 Rain 4 1008 93 10000 2.1 240 19:21 25.09.2019
1325 Rain 5 1008 86 10000 3.6 240 18:56 25.09.2019
1326 Clouds 5 1009 86 10000 3.6 250 18:38 25.09.2019
1327 Clouds 5 1009 86 10000 3.6 250 18:20 25.09.2019
1328 Clouds 5 1009 86 10000 4.1 240 17:40 25.09.2019
1329 Clouds 5 1009 86 10000 4.1 240 17:22 25.09.2019
1330 Rain 5 1009 86 10000 4.1 240 16:58 25.09.2019
1331 Rain 5 1009 86 10000 4.1 240 16:58 25.09.2019
1332 Clouds 5 1009 80 10000 6.7 230 16:40 25.09.2019
1333 Clouds 5 1009 80 10000 6.7 230 16:22 25.09.2019
1334 Rain 5 1009 86 10000 7.2 220 15:56 25.09.2019
1335 Rain 5 1009 80 10000 7.7 220 15:38 25.09.2019
1336 Rain 5 1009 80 10000 7.7 220 15:19 25.09.2019
1337 Clouds 5 1010 80 10000 5.7 230 14:42 25.09.2019
1338 Rain 5 1010 75 10000 4.6 230 14:22 25.09.2019
1339 Clouds 5 1010 80 10000 5.7 230 13:57 25.09.2019
1340 Clouds 5 1010 80 10000 5.7 230 13:57 25.09.2019
1341 Clouds 5 1010 80 10000 5.7 230 13:39 25.09.2019
1342 Clouds 5 1010 80 10000 5.7 230 13:20 25.09.2019
1343 Clear 4 1011 86 10000 6.2 220 12:44 25.09.2019
1344 Clear 4 1011 86 10000 6.2 220 12:44 25.09.2019
1345 Clear 4 1011 86 10000 6.2 230 12:25 25.09.2019
1346 Clear 3 1011 93 10000 5.7 220 11:59 25.09.2019
1347 Clouds 3 1012 86 10000 6.2 220 11:40 25.09.2019
1348 Clouds 3 1012 86 10000 6.2 220 11:20 25.09.2019
1349 Clouds 2 1012 93 10000 4.6 230 10:46 25.09.2019
1350 Clouds 2 1012 74 10000 4.6 230 10:26 25.09.2019
1351 Clear 2 1012 74 10000 5.1 220 09:58 25.09.2019
1352 Clear 2 1012 74 10000 5.1 220 09:58 25.09.2019
1353 Clouds 1 1013 74 10000 5.1 220 09:38 25.09.2019
1354 Clouds 1 1013 88 10000 5.1 220 09:20 25.09.2019
1355 Clear 0 1013 88 10000 4.6 230 08:55 25.09.2019
1356 Clear 0 1013 88 10000 4.6 230 08:37 25.09.2019
1357 Clear 0 1013 88 10000 4.6 230 08:18 25.09.2019
1358 Clear -1 1013 92 10000 4.6 220 07:40 25.09.2019
1359 Clear -1 1013 92 10000 4.6 220 07:22 25.09.2019
1360 Clear -1 1013 92 10000 4.6 230 06:45 25.09.2019
1361 Clear -1 1013 92 10000 4.6 230 06:23 25.09.2019
1362 Clear 0 1014 95 10000 4.6 240 05:37 25.09.2019
1363 Clear 0 1014 95 10000 3.6 230 04:55 25.09.2019
1364 Clear -1 1015 86 10000 2.1 250 02:31 25.09.2019
1365 Clear 1 1015 74 10000 2.1 290 00:56 25.09.2019
1366 Clear 1 1015 74 10000 2.6 300 00:36 25.09.2019
1367 Clear 1 1015 74 10000 2.6 300 00:18 25.09.2019
1368 Clear 1 1015 74 10000 2.6 280 23:40 24.09.2019
1369 Clear 1 1015 74 10000 2.6 280 23:21 24.09.2019
1370 Clear 1 1015 80 10000 2.6 260 22:40 24.09.2019
1371 Clear 1 1015 80 10000 2.6 260 22:22 24.09.2019
1372 Clear 0 1015 81 10000 2.1 260 21:59 24.09.2019
1373 Clear 1 1015 80 10000 3.1 230 21:38 24.09.2019
1374 Clear 1 1015 80 10000 3.1 230 21:19 24.09.2019
1375 Clear 1 1015 80 10000 3.1 230 21:19 24.09.2019
1376 Clear 2 1015 74 10000 1.5 220 20:59 24.09.2019
1377 Clear 3 1015 69 10000 2.1 230 20:41 24.09.2019
1378 Clear 3 1015 69 10000 2.1 230 20:22 24.09.2019
1379 Clear 3 1016 69 10000 1.5 230 19:59 24.09.2019
1380 Clear 3 1016 69 10000 1.5 220 19:41 24.09.2019
1381 Clouds 3 1015 69 10000 1 0 19:18 24.09.2019
1382 Clouds 3 1015 69 10000 1 0 18:55 24.09.2019
1383 Clouds 3 1015 69 10000 1 0 18:55 24.09.2019
1384 Clear 4 1016 64 10000 1 0 18:36 24.09.2019
1385 Clear 4 1016 64 10000 1 0 18:18 24.09.2019
1386 Clouds 4 1016 64 10000 1 0 17:54 24.09.2019
1387 Clouds 4 1016 60 10000 2.1 340 17:36 24.09.2019
1388 Clouds 4 1016 60 10000 2.1 340 17:18 24.09.2019
1389 Clouds 4 1016 60 10000 3.1 340 16:41 24.09.2019
1390 Clouds 4 1016 60 10000 3.1 330 16:19 24.09.2019
1391 Clouds 4 1016 60 10000 3.1 340 15:43 24.09.2019
1392 Clouds 4 1017 60 10000 2.6 310 15:24 24.09.2019
1393 Clouds 4 1017 60 10000 2.6 310 14:58 24.09.2019
1394 Clouds 4 1017 60 10000 2.6 310 14:58 24.09.2019
1395 Clouds 4 1017 60 10000 2.6 290 14:37 24.09.2019
1396 Clouds 4 1017 60 10000 2.6 290 14:18 24.09.2019
1397 Clouds 3 1017 64 10000 3.6 350 13:40 24.09.2019
1398 Clouds 3 1017 64 10000 3.6 350 13:21 24.09.2019
1399 Clouds 3 1018 64 10000 3.1 350 12:42 24.09.2019
1400 Clouds 3 1018 64 10000 3.1 350 12:21 24.09.2019
1401 Clouds 3 1017 69 10000 2.6 320 11:57 24.09.2019
1402 Clouds 2 1018 74 10000 2.6 350 11:39 24.09.2019
1403 Clouds 2 1018 74 10000 2.6 350 11:19 24.09.2019
1404 Clouds 0 1018 55 10000 2.6 340 10:40 24.09.2019
1405 Clouds 0 1018 55 10000 2.6 340 10:21 24.09.2019
1406 Clouds 0 1018 55 10000 2.6 340 09:57 24.09.2019
1407 Clouds -1 1017 92 10000 3.1 340 09:39 24.09.2019
1408 Clouds -1 1017 92 10000 3.1 340 09:19 24.09.2019
1409 Clouds -2 1018 100 10000 2.6 340 08:41 24.09.2019
1410 Clouds -1 1017 86 10000 3.1 340 08:41 24.09.2019
1411 Clouds -2 1018 100 10000 2.6 340 08:23 24.09.2019
1412 Clouds -2 1018 92 10000 3.6 340 07:59 24.09.2019
1413 Fog -2 1018 92 10000 4.1 340 07:41 24.09.2019
1414 Fog -2 1018 92 10000 4.1 340 07:22 24.09.2019
1415 Fog -2 1018 92 10000 3.6 340 06:46 24.09.2019
1416 Clear -2 1018 92 10000 2.6 350 06:26 24.09.2019
1417 Clouds -2 1018 92 10000 3.6 300 05:23 24.09.2019
1418 Clear -2 1018 100 10000 3.6 350 03:46 24.09.2019
1419 Clear -2 1018 92 10000 4.1 340 03:25 24.09.2019
1420 Clear -1 1018 92 10000 3.6 350 02:44 24.09.2019
1421 Clear -1 1018 92 10000 4.1 340 01:41 24.09.2019
1422 Clear -1 1018 92 10000 4.1 340 00:42 24.09.2019
1423 Clear -1 1018 92 10000 4.1 340 00:22 24.09.2019
1424 Clear 0 1018 90 10000 4.1 340 23:43 23.09.2019
1425 Clear 0 1018 90 10000 4.1 340 23:23 23.09.2019
1426 Clear 0 1018 90 10000 3.6 330 22:41 23.09.2019
1427 Clear 0 1018 90 10000 3.6 330 22:41 23.09.2019
1428 Clear 0 1018 90 10000 3.6 340 22:22 23.09.2019
1429 Clear 1 1018 86 10000 4.1 340 21:59 23.09.2019
1430 Clear 1 1018 86 10000 4.1 340 21:41 23.09.2019
1431 Clear 1 1018 86 10000 4.1 340 21:41 23.09.2019
1432 Clear 1 1018 86 10000 4.1 340 21:22 23.09.2019
1433 Clear 1 1019 80 10000 3.1 350 20:59 23.09.2019
1434 Clear 1 1019 74 10000 3.1 350 20:40 23.09.2019
1435 Clear 1 1019 74 10000 3.1 350 20:19 23.09.2019
1436 Clouds 2 1018 74 10000 1.5 350 19:40 23.09.2019
1437 Clouds 2 1018 74 10000 1.5 350 19:40 23.09.2019
1438 Clouds 2 1018 74 10000 1.5 350 19:22 23.09.2019
1439 Clouds 3 1018 69 10000 2.1 340 18:59 23.09.2019
1440 Clouds 3 1018 69 10000 1.5 0 18:41 23.09.2019
1441 Clouds 3 1018 69 10000 1.5 0 18:41 23.09.2019
1442 Clouds 3 1018 69 10000 1.5 0 18:19 23.09.2019
1443 Clouds 4 1019 64 10000 2.6 300 17:57 23.09.2019
1444 Clouds 4 1019 64 10000 3.1 310 17:39 23.09.2019
1445 Clouds 4 1019 64 10000 3.1 310 17:39 23.09.2019
1446 Clouds 4 1019 64 10000 3.1 310 17:20 23.09.2019
1447 Clouds 4 1019 64 10000 3.1 320 16:57 23.09.2019
1448 Clouds 5 1019 56 10000 3.6 350 16:36 23.09.2019
1449 Clouds 5 1019 56 10000 3.6 350 16:18 23.09.2019
1450 Clouds 5 1019 60 10000 3.1 340 15:56 23.09.2019
1451 Clouds 5 1019 60 10000 3.1 340 15:56 23.09.2019
1452 Clouds 5 1019 56 10000 4.1 320 15:38 23.09.2019
1453 Clouds 5 1019 56 10000 4.1 320 15:18 23.09.2019
1454 Clouds 4 1020 60 10000 4.6 340 14:40 23.09.2019
1455 Clouds 4 1020 60 10000 4.6 340 14:20 23.09.2019
1456 Clouds 4 1020 60 10000 5.1 340 13:58 23.09.2019
1457 Clouds 4 1020 64 10000 4.1 330 13:38 23.09.2019
1458 Clouds 4 1020 64 10000 4.1 330 13:18 23.09.2019
1459 Clouds 4 1020 64 10000 4.1 330 13:18 23.09.2019
1460 Clouds 3 1020 69 10000 4.1 330 12:44 23.09.2019
1461 Clouds 3 1020 69 10000 4.1 330 12:23 23.09.2019
1462 Clouds 3 1020 69 10000 4.1 330 12:23 23.09.2019
1463 Clouds 3 1020 69 10000 4.1 340 11:58 23.09.2019
1464 Clouds 2 1021 74 10000 3.6 330 11:40 23.09.2019
1465 Clouds 2 1021 74 10000 3.6 330 11:21 23.09.2019
1466 Clouds 1 1021 86 10000 4.1 340 10:49 23.09.2019
1467 Clouds 1 1021 80 10000 4.1 310 10:22 23.09.2019
1468 Clouds 1 1021 80 10000 4.1 340 09:58 23.09.2019
1469 Clouds 1 1021 80 10000 4.6 330 09:38 23.09.2019
1470 Clouds 1 1021 80 10000 4.6 330 09:19 23.09.2019
1471 Clouds 0 1021 79 10000 3.6 330 08:45 23.09.2019
1472 Clouds 0 1021 80 10000 4.1 330 08:26 23.09.2019
1473 Clouds 0 1021 80 10000 4.1 340 07:56 23.09.2019
1474 Clouds 0 1021 80 10000 4.6 320 07:28 23.09.2019
1475 Clouds 0 1021 80 10000 4.6 340 06:31 23.09.2019
1476 Clouds 0 1021 96 10000 4.6 340 05:48 23.09.2019
1477 Clouds 0 1021 96 10000 4.6 340 05:20 23.09.2019
1478 Clouds 0 1021 96 10000 4.1 340 04:54 23.09.2019
1479 Clouds 1 1021 86 10000 4.1 340 02:36 23.09.2019
1480 Clear 0 1020 93 10000 4.6 340 00:43 23.09.2019
1481 Clear 0 1020 90 10000 4.6 340 00:22 23.09.2019
1482 Clouds 0 1020 90 10000 4.6 340 23:50 22.09.2019
1483 Clouds 1 1020 86 10000 4.6 340 23:32 22.09.2019
1484 Clear 1 1020 86 10000 4.6 340 22:57 22.09.2019
1485 Clear 1 1020 86 10000 4.1 350 22:38 22.09.2019
1486 Clear 1 1020 86 10000 4.1 350 22:20 22.09.2019
1487 Clear 1 1020 86 10000 4.1 350 21:43 22.09.2019
1488 Clear 1 1020 86 10000 3.6 340 21:22 22.09.2019
1489 Clear 1 1020 86 10000 3.6 340 20:55 22.09.2019
1490 Clear 2 1020 80 10000 3.1 340 20:36 22.09.2019
1491 Clear 2 1020 80 10000 3.1 340 20:18 22.09.2019
1492 Clear 3 1019 86 10000 2.6 340 19:41 22.09.2019
1493 Clear 3 1019 86 10000 2.6 340 19:22 22.09.2019
1494 Clear 3 1019 74 10000 2.6 340 18:59 22.09.2019
1495 Clear 4 1019 69 10000 3.6 330 18:38 22.09.2019
1496 Clouds 4 1019 69 10000 3.6 350 18:19 22.09.2019
1497 Clouds 4 1019 69 10000 3.6 350 17:56 22.09.2019
1498 Clouds 6 1019 56 10000 4.6 340 17:37 22.09.2019
1499 Clouds 6 1019 56 10000 4.6 340 17:18 22.09.2019
1500 Clouds 6 1019 56 10000 5.7 340 16:42 22.09.2019
1501 Clouds 6 1019 56 10000 5.7 340 16:23 22.09.2019
1502 Clouds 6 1019 56 10000 5.7 350 15:47 22.09.2019
1503 Clouds 5 1019 60 10000 5.7 340 15:28 22.09.2019
1504 Clouds 5 1018 60 10000 5.7 360 14:58 22.09.2019
1505 Clouds 5 1018 60 10000 6.2 350 14:40 22.09.2019
1506 Clouds 5 1018 60 10000 6.2 350 14:21 22.09.2019
1507 Clouds 6 1018 56 10000 5.7 340 13:55 22.09.2019
1508 Clouds 5 1018 65 10000 5.7 350 13:36 22.09.2019
1509 Clouds 5 1018 65 10000 5.7 350 13:36 22.09.2019
1510 Clouds 5 1018 65 10000 5.7 350 13:18 22.09.2019
1511 Clouds 5 1018 65 10000 5.7 350 12:42 22.09.2019
1512 Clouds 5 1018 65 10000 5.7 350 12:22 22.09.2019
1513 Clouds 5 1018 65 10000 5.7 350 11:56 22.09.2019
1514 Clouds 4 1018 59 10000 4.6 340 11:38 22.09.2019
1515 Clouds 4 1018 59 10000 4.6 340 11:19 22.09.2019
1516 Clouds 2 1017 59 10000 4.6 350 10:43 22.09.2019
1517 Clouds 2 1017 59 10000 4.6 350 10:20 22.09.2019
1518 Clouds 2 1017 59 10000 4.6 350 10:20 22.09.2019
1519 Clouds 2 1017 59 10000 4.6 350 10:20 22.09.2019
1520 Clouds 2 1017 59 10000 5.1 350 09:55 22.09.2019
1521 Clouds 2 1017 59 10000 4.1 330 09:36 22.09.2019
1522 Clouds 2 1017 85 10000 4.1 330 09:18 22.09.2019
1523 Clouds 1 1017 82 10000 3.6 360 08:42 22.09.2019
1524 Clouds 1 1017 82 10000 5.1 360 08:22 22.09.2019
1525 Clouds 0 1016 82 10000 5.1 360 07:46 22.09.2019
1526 Clouds 0 1016 82 10000 5.1 360 07:26 22.09.2019
1527 Clouds 0 1015 82 10000 6.2 10 06:58 22.09.2019
1528 Clouds 0 1015 82 10000 5.1 10 06:34 22.09.2019
1529 Clear -1 1013 100 10000 5.1 350 04:41 22.09.2019
1530 Clear 0 1012 96 10000 5.1 340 02:45 22.09.2019
1531 Clear 0 1012 96 10000 5.1 340 02:24 22.09.2019
1532 Clear 0 1012 96 10000 5.7 350 01:38 22.09.2019
1533 Clear 0 1011 96 10000 5.1 350 00:46 22.09.2019
1534 Clear 0 1011 96 10000 5.1 350 00:27 22.09.2019
1535 Clear 0 1011 90 10000 4.6 340 23:51 21.09.2019
1536 Clear 1 1010 90 10000 4.6 350 23:33 21.09.2019
1537 Clear 1 1010 90 10000 4.6 340 22:43 21.09.2019
1538 Clear 1 1010 90 10000 5.1 350 22:43 21.09.2019
1539 Clear 1 1010 90 10000 4.6 340 22:24 21.09.2019
1540 Clear 1 1010 90 10000 4.1 350 21:58 21.09.2019
1541 Clear 2 1009 90 10000 4.1 340 21:40 21.09.2019
1542 Clear 2 1009 85 10000 4.1 340 21:19 21.09.2019
1543 Clear 2 1009 84 10000 3.1 350 20:41 21.09.2019
1544 Clear 2 1009 84 10000 3.1 350 20:41 21.09.2019
1545 Clear 2 1009 84 10000 3.1 310 20:23 21.09.2019
1546 Clouds 2 1009 84 10000 2.6 340 19:58 21.09.2019
1547 Clouds 2 1008 93 10000 2.6 330 19:39 21.09.2019
1548 Clouds 2 1008 93 10000 2.6 330 19:18 21.09.2019
1549 Clouds 4 1008 80 10000 4.1 360 18:39 21.09.2019
1550 Clouds 4 1008 80 10000 4.1 360 18:21 21.09.2019
1551 Clear 5 1007 64 10000 1.5 330 17:42 21.09.2019
1552 Clear 5 1007 64 10000 1.5 330 17:42 21.09.2019
1553 Clear 5 1007 64 10000 1.5 330 17:23 21.09.2019
1554 Clear 5 1007 64 10000 1.5 330 17:23 21.09.2019
1555 Clear 5 1007 64 10000 1.5 330 17:23 21.09.2019
1556 Clouds 5 1007 64 10000 2.1 340 16:56 21.09.2019
1557 Clear 6 1007 60 10000 3.6 360 16:37 21.09.2019
1558 Clear 6 1007 60 10000 3.6 360 16:18 21.09.2019
1559 Clear 6 1007 60 10000 3.1 360 15:42 21.09.2019
1560 Clear 6 1007 60 10000 3.1 360 15:20 21.09.2019
1561 Clouds 6 1007 60 10000 3.1 350 14:47 21.09.2019
1562 Clouds 6 1007 52 10000 3.6 40 14:28 21.09.2019
1563 Clouds 6 1007 52 10000 3.6 360 13:45 21.09.2019
1564 Clear 6 1007 54 10000 2.6 350 13:26 21.09.2019
1565 Clear 5 1007 54 10000 2.6 350 12:59 21.09.2019
1566 Clear 4 1007 69 10000 3.1 360 12:41 21.09.2019
1567 Clear 4 1007 69 10000 3.1 360 12:21 21.09.2019
1568 Clear 4 1007 63 10000 3.1 360 11:58 21.09.2019
1569 Clouds 3 1007 63 10000 2.6 350 11:39 21.09.2019
1570 Clouds 3 1007 63 10000 2.6 350 11:19 21.09.2019
1571 Clear 2 1007 63 10000 1.5 350 10:40 21.09.2019
1572 Clear 2 1007 63 10000 1.5 350 10:21 21.09.2019
1573 Clear 1 1007 63 10000 2.1 350 09:57 21.09.2019
1574 Clear 1 1007 63 10000 1 0 09:37 21.09.2019
1575 Clear 1 1007 84 10000 1 0 09:19 21.09.2019
1576 Clouds 0 1007 84 10000 1 0 08:48 21.09.2019
1577 Fog 0 1007 82 900 3.1 300 08:20 21.09.2019
1578 Clouds -1 1007 100 10000 1.5 0 07:40 21.09.2019
1579 Clouds -1 1007 100 10000 1.5 0 07:20 21.09.2019
1580 Clear 0 1006 82 10000 2.6 340 06:36 21.09.2019
1581 Clear 0 1006 90 10000 2.1 320 05:51 21.09.2019
1582 Clear 0 1006 90 10000 2.1 320 05:51 21.09.2019
1583 Clear 1 1006 86 10000 3.1 330 04:40 21.09.2019
1584 Clear 1 1007 90 10000 3.1 310 03:39 21.09.2019
1585 Clear 0 1007 89 10000 1.5 270 02:25 21.09.2019
1586 Clear 1 1007 86 10000 2.6 260 01:49 21.09.2019
1587 Clear 1 1007 86 10000 2.6 260 01:25 21.09.2019
1588 Clear 0 1007 89 10000 4.1 220 00:25 21.09.2019
1589 Clear 0 1007 89 10000 2.1 270 23:57 20.09.2019
1590 Clear 2 1007 89 10000 3.6 230 23:30 20.09.2019
1591 Clear 2 1007 89 10000 3.6 230 23:30 20.09.2019
1592 Clear 2 1008 89 10000 2.6 250 22:56 20.09.2019
1593 Clear 2 1008 89 10000 3.1 240 22:37 20.09.2019
1594 Clear 2 1008 89 10000 3.1 240 22:19 20.09.2019
1595 Clear 2 1008 80 10000 2.6 210 21:55 20.09.2019
1596 Clear 3 1008 89 10000 1 0 21:36 20.09.2019
1597 Clear 3 1008 85 10000 1 0 21:18 20.09.2019
1598 Clear 3 1008 83 10000 1 0 20:41 20.09.2019
1599 Clear 3 1008 83 10000 1 0 20:21 20.09.2019
1600 Clear 3 1008 83 10000 1.5 270 19:57 20.09.2019
1601 Clear 4 1008 83 10000 2.6 280 19:38 20.09.2019
1602 Clear 4 1008 83 10000 2.6 280 19:19 20.09.2019
1603 Clear 5 1008 83 10000 2.6 260 18:39 20.09.2019
1604 Clear 5 1008 71 10000 2.6 260 18:20 20.09.2019
1605 Clear 6 1008 71 10000 2.6 290 17:57 20.09.2019
1606 Clear 7 1008 71 10000 3.1 280 17:39 20.09.2019
1607 Clear 7 1008 71 10000 3.1 280 17:20 20.09.2019
1608 Clear 7 1009 65 10000 3.6 270 16:41 20.09.2019
1609 Clear 7 1009 65 10000 3.6 270 16:19 20.09.2019
1610 Clouds 7 1009 71 10000 4.1 280 15:43 20.09.2019
1611 Clouds 7 1009 71 10000 4.6 280 15:43 20.09.2019
1612 Clouds 7 1009 53 10000 4.1 280 15:23 20.09.2019
1613 Clouds 7 1009 53 10000 4.1 280 14:57 20.09.2019
1614 Clouds 8 1009 53 10000 3.6 270 14:38 20.09.2019
1615 Clouds 8 1009 53 10000 5.1 310 14:18 20.09.2019
1616 Clouds 8 1009 53 10000 5.1 310 14:18 20.09.2019
1617 Clouds 6 1009 60 10000 3.6 310 13:47 20.09.2019
1618 Clouds 6 1009 60 10000 3.6 310 13:27 20.09.2019
1619 Clouds 6 1009 60 10000 3.6 310 12:56 20.09.2019
1620 Clouds 6 1009 52 10000 3.1 280 12:36 20.09.2019
1621 Clouds 6 1009 57 10000 3.1 280 12:18 20.09.2019
1622 Clouds 6 1009 57 10000 3.1 280 12:18 20.09.2019
1623 Clouds 6 1009 57 10000 3.1 280 12:18 20.09.2019
1624 Clouds 5 1009 65 10000 3.1 310 11:44 20.09.2019
1625 Clouds 5 1009 65 10000 4.1 310 11:19 20.09.2019
1626 Clouds 4 1009 57 10000 4.6 310 10:43 20.09.2019
1627 Clouds 4 1009 57 10000 3.6 330 10:43 20.09.2019
1628 Clouds 4 1009 57 10000 4.6 310 10:23 20.09.2019
1629 Clouds 3 1009 74 10000 3.6 330 09:39 20.09.2019
1630 Clouds 3 1009 74 10000 3.6 330 09:19 20.09.2019
1631 Clear 2 1009 80 10000 3.1 330 08:59 20.09.2019
1632 Clear 2 1009 80 10000 3.1 330 08:59 20.09.2019
1633 Clear 2 1009 80 10000 3.1 330 08:59 20.09.2019
1634 Clear 1 1009 86 10000 2.6 310 08:39 20.09.2019
1635 Clear 1 1009 86 10000 2.6 310 08:39 20.09.2019
1636 Clear 1 1009 86 10000 2.6 310 08:20 20.09.2019
1637 Clear 0 1009 69 10000 2.1 310 07:43 20.09.2019
1638 Clear 0 1009 71 10000 2.1 310 07:24 20.09.2019
1639 Clear -1 1009 92 10000 2.6 300 06:44 20.09.2019
1640 Clear -1 1009 92 10000 2.6 300 06:19 20.09.2019
1641 Clear 0 1009 85 10000 1.5 0 04:58 20.09.2019
1642 Clear 0 1009 85 10000 2.1 330 03:29 20.09.2019
1643 Clear 1 1010 86 10000 2.6 310 02:39 20.09.2019
1644 Clear 1 1010 86 10000 2.1 290 01:43 20.09.2019
1645 Clear 1 1010 86 10000 2.6 310 00:43 20.09.2019
1646 Clear 2 1010 80 10000 2.1 300 23:56 19.09.2019
1647 Clouds 2 1010 81 10000 2.1 290 23:38 19.09.2019
1648 Clouds 2 1010 81 10000 2.1 290 23:18 19.09.2019
1649 Clear 1 1010 81 10000 2.1 290 22:40 19.09.2019
1650 Clear 1 1010 81 10000 2.1 290 22:22 19.09.2019
1651 Clear 1 1010 81 10000 2.1 260 21:57 19.09.2019
1652 Clear 2 1010 81 10000 1.5 280 21:39 19.09.2019
1653 Clear 2 1010 81 10000 1.5 280 21:39 19.09.2019
1654 Clear 2 1010 83 10000 1.5 280 21:19 19.09.2019
1655 Clear 1 1011 83 10000 1.5 0 20:57 19.09.2019
1656 Clear 1 1011 83 10000 1.5 0 20:57 19.09.2019
1657 Clear 1 1011 73 10000 2.6 280 20:38 19.09.2019
1658 Clear 1 1011 73 10000 2.6 280 20:19 19.09.2019
1659 Clear 1 1011 73 10000 2.1 280 19:40 19.09.2019
1660 Clear 1 1011 73 10000 2.1 280 19:22 19.09.2019
1661 Clouds 2 1011 73 10000 1 0 18:59 19.09.2019
1662 Clear 2 1011 93 10000 1 0 18:41 19.09.2019
1663 Clear 2 1011 93 10000 1 0 18:21 19.09.2019
1664 Clouds 3 1011 86 10000 2.6 290 17:42 19.09.2019
1665 Clouds 3 1011 86 10000 2.6 290 17:24 19.09.2019
1666 Rain 4 1011 58 10000 6.7 310 16:59 19.09.2019
1667 Rain 4 1011 58 10000 6.7 310 16:59 19.09.2019
1668 Clear 6 1011 56 10000 3.1 280 16:40 19.09.2019
1669 Clear 6 1011 56 10000 3.1 280 16:19 19.09.2019
1670 Clouds 6 1011 56 10000 3.6 290 15:40 19.09.2019
1671 Clouds 6 1011 56 10000 3.6 290 15:40 19.09.2019
1672 Clouds 6 1011 56 10000 3.6 290 15:21 19.09.2019
1673 Clouds 5 1011 60 10000 3.6 290 14:57 19.09.2019
1674 Clouds 6 1011 56 10000 3.6 300 14:38 19.09.2019
1675 Clouds 6 1011 56 10000 3.6 300 14:18 19.09.2019
1676 Clouds 5 1011 60 10000 4.1 330 13:40 19.09.2019
1677 Clouds 5 1011 60 10000 4.1 330 13:20 19.09.2019
1678 Clouds 4 1011 54 10000 4.6 310 12:40 19.09.2019
1679 Clouds 4 1011 56 10000 4.6 310 12:20 19.09.2019
1680 Clouds 3 1011 56 10000 4.1 310 11:59 19.09.2019
1681 Clouds 3 1011 56 10000 3.1 330 11:40 19.09.2019
1682 Clouds 3 1011 56 10000 3.1 330 11:21 19.09.2019
1683 Clouds 2 1011 56 10000 3.6 350 10:57 19.09.2019
1684 Clouds 2 1011 80 10000 2.6 330 10:37 19.09.2019
1685 Clouds 2 1011 80 10000 2.6 330 10:18 19.09.2019
1686 Clouds 1 1011 86 10000 3.6 330 09:42 19.09.2019
1687 Clouds 1 1011 86 10000 3.1 340 09:22 19.09.2019
1688 Clouds 1 1010 86 10000 3.1 340 08:56 19.09.2019
1689 Clouds 0 1010 80 10000 2.6 340 08:36 19.09.2019
1690 Clouds 0 1010 80 10000 2.6 340 08:18 19.09.2019
1691 Clouds -1 1010 100 10000 4.1 300 07:42 19.09.2019
1692 Clouds -1 1010 100 10000 4.1 300 07:21 19.09.2019
1693 Fog -1 1010 100 10000 4.1 300 06:46 19.09.2019
1694 Clear -1 1010 100 10000 3.6 300 06:27 19.09.2019
1695 Clear -1 1010 100 10000 3.6 300 06:27 19.09.2019
1696 Clear 0 1010 95 10000 3.1 310 05:52 19.09.2019
1697 Mist 0 1010 95 1800 3.6 350 04:43 19.09.2019
1698 Clear 0 1010 95 10000 3.1 350 03:51 19.09.2019
1699 Clear 1 1010 100 10000 3.1 340 02:27 19.09.2019
1700 Clear 1 1010 100 10000 3.6 350 01:22 19.09.2019
1701 Clear 2 1010 93 10000 3.6 340 00:49 19.09.2019
1702 Clear 2 1010 93 10000 3.6 350 00:25 19.09.2019
1703 Clear 2 1010 93 10000 3.1 350 23:39 18.09.2019
1704 Clear 2 1010 93 10000 3.1 350 23:21 18.09.2019
1705 Clear 2 1010 93 10000 2.1 350 22:43 18.09.2019
1706 Clear 3 1009 86 10000 3.1 350 22:20 18.09.2019
1707 Clear 3 1009 89 10000 2.6 350 21:58 18.09.2019
1708 Clear 3 1009 89 10000 3.1 340 21:40 18.09.2019
1709 Clear 3 1009 83 10000 3.1 340 21:19 18.09.2019
1710 Clear 3 1009 86 10000 2.6 360 20:58 18.09.2019
1711 Clear 3 1009 86 10000 2.6 360 20:58 18.09.2019
1712 Clear 3 1009 86 10000 2.6 360 20:40 18.09.2019
1713 Clear 3 1009 86 10000 2.6 360 20:22 18.09.2019
1714 Clear 3 1009 86 10000 2.6 360 20:22 18.09.2019
1715 Clear 4 1009 80 10000 3.6 350 19:58 18.09.2019
1716 Clear 4 1009 80 10000 3.6 350 19:39 18.09.2019
1717 Clouds 4 1009 76 10000 3.1 340 19:19 18.09.2019
1718 Clouds 4 1009 76 10000 3.1 340 19:19 18.09.2019
1719 Clouds 4 1009 76 10000 3.1 340 18:56 18.09.2019
1720 Clear 5 1009 65 10000 1 0 18:37 18.09.2019
1721 Clear 5 1009 65 10000 1 0 18:19 18.09.2019
1722 Clear 5 1009 65 10000 1 0 17:57 18.09.2019
1723 Clear 5 1009 65 10000 1 0 17:57 18.09.2019
1724 Clear 5 1009 65 10000 1 0 17:57 18.09.2019
1725 Clear 5 1009 65 10000 1 0 17:57 18.09.2019
1726 Clouds 6 1009 60 10000 1.5 0 17:39 18.09.2019
1727 Clouds 6 1009 60 10000 1.5 0 17:18 18.09.2019
1728 Clouds 6 1009 60 10000 1.5 0 17:18 18.09.2019
1729 Clouds 6 1009 60 10000 2.1 320 16:55 18.09.2019
1730 Clouds 6 1009 60 10000 2.1 340 16:37 18.09.2019
1731 Clouds 6 1009 60 10000 2.1 340 16:18 18.09.2019
1732 Clouds 6 1009 56 10000 2.6 350 15:54 18.09.2019
1733 Clouds 6 1009 56 10000 3.1 360 15:36 18.09.2019
1734 Clouds 6 1009 56 10000 3.1 360 15:36 18.09.2019
1735 Clouds 6 1009 56 10000 3.1 360 15:18 18.09.2019
1736 Clouds 6 1009 60 10000 2.6 350 14:55 18.09.2019
1737 Clouds 6 1009 60 10000 2.1 350 14:36 18.09.2019
1738 Clouds 6 1009 60 10000 2.1 350 14:18 18.09.2019
1739 Clouds 6 1008 49 10000 2.6 10 13:40 18.09.2019
1740 Clouds 6 1008 49 10000 2.6 10 13:19 18.09.2019
1741 Clouds 6 1008 49 10000 2.6 340 12:53 18.09.2019
1742 Clouds 6 1008 70 10000 2.1 350 12:31 18.09.2019
1743 Clouds 5 1008 54 10000 2.1 40 11:57 18.09.2019
1744 Clouds 5 1008 54 10000 3.1 20 11:38 18.09.2019
1745 Clouds 5 1008 54 10000 3.1 20 11:19 18.09.2019
1746 Clouds 3 1008 86 10000 2.1 360 10:40 18.09.2019
1747 Clouds 3 1008 86 10000 2.1 360 10:21 18.09.2019
1748 Clouds 2 1008 54 10000 1.5 0 09:58 18.09.2019
1749 Clouds 2 1007 93 10000 2.1 30 09:38 18.09.2019
1750 Clouds 2 1007 93 10000 2.1 30 09:20 18.09.2019
1751 Fog 1 1007 80 10000 2.6 10 08:42 18.09.2019
1752 Fog 1 1007 80 10000 2.6 10 08:24 18.09.2019
1753 Fog 1 1007 80 10000 2.1 330 07:58 18.09.2019
1754 Clear 0 1006 80 10000 1.5 320 07:39 18.09.2019
1755 Clear 0 1006 80 10000 1.5 320 07:21 18.09.2019
1756 Clear 0 1006 80 10000 2.6 10 06:40 18.09.2019
1757 Clear 0 1006 95 10000 3.1 10 05:50 18.09.2019
1758 Clear 1 1006 86 10000 2.6 30 04:52 18.09.2019
1759 Clear 1 1005 86 10000 3.6 20 02:54 18.09.2019
1760 Clear 1 1005 94 10000 4.1 30 02:28 18.09.2019
1761 Clear 2 1005 93 10000 4.6 30 01:21 18.09.2019
1762 Clear 2 1005 93 10000 4.6 40 00:48 18.09.2019
1763 Clear 2 1004 87 10000 4.1 40 00:20 18.09.2019
1764 Clear 2 1004 87 10000 3.6 30 23:44 17.09.2019
1765 Clear 2 1004 87 10000 3.6 30 23:22 17.09.2019
1766 Clear 3 1004 74 10000 3.6 30 22:43 17.09.2019
1767 Clear 3 1003 74 10000 3.6 40 22:24 17.09.2019
1768 -273 0 0 0 0 0 21:55 17.09.2019
1769 Clear 3 1003 74 10000 3.6 30 21:55 17.09.2019
1770 Clear 3 1003 87 10000 3.1 20 21:37 17.09.2019
1771 Clear 3 1003 78 10000 3.1 20 21:19 17.09.2019
1772 Clear 3 1003 78 10000 3.1 20 21:19 17.09.2019
1773 Clear 3 1003 78 10000 4.1 10 20:57 17.09.2019
1774 Clear 4 1003 84 10000 3.6 20 20:39 17.09.2019
1775 Clear 4 1003 84 10000 3.6 20 20:39 17.09.2019
1776 Clear 4 1003 84 10000 3.6 20 20:39 17.09.2019
1777 Clear 4 1003 84 10000 3.6 20 20:21 17.09.2019
1778 Clear 4 1003 84 10000 4.1 20 19:58 17.09.2019
1779 Clear 4 1003 84 10000 4.1 20 19:39 17.09.2019
1780 Clear 4 1002 84 10000 4.1 10 19:19 17.09.2019
1781 Clear 4 1002 84 10000 4.1 10 19:19 17.09.2019
1782 Clear 4 1002 84 10000 4.1 10 18:56 17.09.2019
1783 Clouds 6 1002 84 10000 4.6 30 18:38 17.09.2019
1784 Clouds 6 1002 68 10000 4.6 30 18:19 17.09.2019
1785 Clouds 7 1002 56 10000 5.7 40 17:45 17.09.2019
1786 Clouds 7 1002 56 10000 5.7 40 17:19 17.09.2019
1787 Clouds 7 1001 65 10000 2.1 10 16:56 17.09.2019
1788 Clouds 6 1001 70 10000 3.6 40 16:37 17.09.2019
1789 Clouds 6 1001 70 10000 3.6 40 16:19 17.09.2019
1790 Clouds 7 1001 68 10000 5.7 40 15:39 17.09.2019
1791 Clouds 7 1001 69 10000 5.7 40 15:20 17.09.2019
1792 Clouds 7 1001 65 10000 4.6 20 14:56 17.09.2019
1793 Clouds 7 1001 65 10000 4.6 20 14:56 17.09.2019
1794 Clouds 6 1001 70 10000 5.7 30 14:37 17.09.2019
1795 Clouds 6 1001 70 10000 5.7 30 14:19 17.09.2019
1796 Clouds 6 1000 75 10000 5.7 40 13:44 17.09.2019
1797 Clouds 6 1000 75 10000 5.7 40 13:25 17.09.2019
1798 Clouds 7 1000 70 10000 5.1 50 12:59 17.09.2019
1799 Clouds 6 1000 81 10000 5.1 50 12:38 17.09.2019
1800 Clouds 6 1000 81 10000 5.1 50 12:19 17.09.2019
1801 Clouds 6 1000 81 10000 5.1 50 12:19 17.09.2019
1802 Clouds 6 999 87 10000 4.6 50 11:44 17.09.2019
1803 Clouds 6 999 87 10000 4.6 50 11:25 17.09.2019
1804 Clouds 6 999 93 10000 5.1 50 10:56 17.09.2019
1805 Rain 6 999 93 10000 4.6 50 10:38 17.09.2019
1806 Rain 6 999 93 10000 4.6 50 10:20 17.09.2019
1807 Clouds 6 998 93 10000 4.1 40 09:42 17.09.2019
1808 Clouds 6 998 93 10000 4.1 50 09:23 17.09.2019
1809 Clouds 6 998 93 10000 4.1 50 08:52 17.09.2019
1810 Clouds 6 997 93 10000 3.6 50 08:33 17.09.2019
1811 Clouds 6 997 93 10000 3.6 50 08:33 17.09.2019
1812 Clouds 6 997 93 10000 3.6 30 07:59 17.09.2019
1813 Clouds 6 997 93 10000 5.1 40 07:41 17.09.2019
1814 Clouds 6 997 93 10000 5.1 40 07:23 17.09.2019
1815 Clouds 5 997 100 10000 4.1 40 06:51 17.09.2019
1816 Clouds 5 997 100 10000 4.1 40 06:25 17.09.2019
1817 Clouds 5 997 100 10000 4.1 30 05:50 17.09.2019
1818 Clouds 5 996 93 10000 4.1 30 04:32 17.09.2019
1819 Clouds 5 996 100 10000 3.1 20 02:59 17.09.2019
1820 Clouds 5 996 93 10000 4.1 20 02:39 17.09.2019
1821 Clouds 5 996 93 10000 3.1 360 01:29 17.09.2019
1822 Rain 5 996 93 10000 3.6 10 00:40 17.09.2019
1823 Clouds 5 996 86 10000 4.1 10 23:40 16.09.2019
1824 Clouds 5 996 86 10000 4.1 10 23:19 16.09.2019
1825 Clouds 4 996 93 10000 3.1 360 22:56 16.09.2019
1826 Clear 4 996 93 10000 3.6 10 22:37 16.09.2019
1827 Clear 4 996 93 10000 3.6 10 22:19 16.09.2019
1828 Clouds 5 995 86 10000 4.6 360 21:42 16.09.2019
1829 Clouds 5 995 86 10000 4.6 360 21:22 16.09.2019
1830 Clouds 6 995 81 10000 4.6 360 20:59 16.09.2019
1831 Clouds 6 995 81 10000 4.1 10 20:40 16.09.2019
1832 Clouds 6 995 81 10000 4.1 10 20:40 16.09.2019
1833 Clouds 6 995 81 10000 4.1 10 20:20 16.09.2019
1834 Clouds 6 995 81 10000 4.6 360 19:57 16.09.2019
1835 Clouds 7 995 75 10000 3.6 10 19:38 16.09.2019
1836 Clouds 7 995 75 10000 3.6 10 19:19 16.09.2019
1837 Clouds 8 995 70 10000 4.6 30 18:46 16.09.2019
1838 Clouds 8 995 70 10000 4.6 30 18:27 16.09.2019
1839 Clouds 8 995 70 10000 4.6 10 17:57 16.09.2019
1840 Clouds 8 995 70 10000 4.6 10 17:57 16.09.2019
1841 Clouds 8 995 75 10000 4.6 20 17:38 16.09.2019
1842 Clouds 8 995 75 10000 4.6 20 17:19 16.09.2019
1843 Clouds 7 995 81 10000 5.1 30 16:44 16.09.2019
1844 Clouds 7 995 87 10000 4.1 350 16:22 16.09.2019
1845 Clouds 7 995 93 10000 3.1 340 15:58 16.09.2019
1846 Clouds 7 995 93 10000 3.1 340 15:58 16.09.2019
1847 Clouds 6 994 100 10000 3.1 340 15:39 16.09.2019
1848 Clouds 6 994 100 10000 3.1 340 15:21 16.09.2019
1849 Clouds 6 994 100 10000 3.1 340 14:58 16.09.2019
1850 Drizzle 6 994 93 8000 4.1 350 14:40 16.09.2019
1851 Drizzle 6 994 93 8000 4.1 350 14:21 16.09.2019
1852 Rain 5 994 100 10000 3.6 340 13:43 16.09.2019
1853 Rain 5 994 100 10000 3.6 340 13:22 16.09.2019
1854 Rain 5 994 93 10000 3.1 340 12:59 16.09.2019
1855 Rain 5 994 93 10000 3.1 340 12:59 16.09.2019
1856 Clouds 4 993 100 10000 4.1 350 12:39 16.09.2019
1857 Clouds 4 993 100 10000 4.1 350 12:21 16.09.2019
1858 Rain 5 993 86 10000 5.7 360 11:45 16.09.2019
1859 Rain 5 993 86 10000 5.7 360 11:23 16.09.2019
1860 -273 0 0 0 0 0 10:56 16.09.2019
1861 Rain 5 993 86 10000 5.1 350 10:37 16.09.2019
1862 Rain 5 993 86 10000 5.1 350 10:18 16.09.2019
1863 Clouds 3 993 93 10000 4.1 340 09:42 16.09.2019
1864 Clouds 3 993 93 10000 4.6 350 09:21 16.09.2019
1865 Clouds 2 993 100 10000 5.1 350 08:56 16.09.2019
1866 Clouds 2 993 93 10000 4.6 340 08:38 16.09.2019
1867 Clouds 2 993 93 10000 4.6 340 08:19 16.09.2019
1868 Clouds 2 993 93 10000 5.7 350 07:42 16.09.2019
1869 Clouds 2 993 93 10000 5.7 350 07:24 16.09.2019
1870 Clouds 2 993 93 10000 5.1 350 06:55 16.09.2019
1871 Clouds 2 993 93 10000 5.1 340 06:36 16.09.2019
1872 Clouds 1 993 100 10000 5.7 350 06:18 16.09.2019
1873 Clouds 1 993 100 10000 5.1 350 05:41 16.09.2019
1874 Clouds 1 993 100 10000 5.1 350 05:21 16.09.2019
1875 Clear 2 993 94 10000 5.1 10 03:37 16.09.2019
1876 Clear 2 993 87 10000 6.2 30 01:20 16.09.2019
1877 Clear 2 993 87 10000 5.7 40 00:38 16.09.2019
1878 Clear 2 993 82 10000 5.7 40 00:20 16.09.2019
1879 Clear 3 992 82 10000 5.7 50 23:39 15.09.2019
1880 Clear 3 992 82 10000 5.7 50 23:20 15.09.2019
1881 Clear 4 992 82 10000 5.1 50 22:39 15.09.2019
1882 Clear 4 992 82 10000 5.1 50 22:20 15.09.2019
1883 Clear 3 992 82 10000 4.1 50 21:57 15.09.2019
1884 Clear 5 992 82 10000 4.1 50 21:39 15.09.2019
1885 Clear 5 992 82 10000 4.1 50 21:39 15.09.2019
1886 Clear 5 992 78 10000 4.1 50 21:20 15.09.2019
1887 Clear 5 992 75 10000 4.6 50 20:46 15.09.2019
1888 Clear 5 992 75 10000 4.6 50 20:27 15.09.2019
1889 Clear 5 993 75 10000 4.1 50 19:58 15.09.2019
1890 Clear 6 993 70 10000 3.1 50 19:40 15.09.2019
1891 Clear 6 993 70 10000 3.1 50 19:22 15.09.2019
1892 Clear 8 993 65 10000 4.1 60 18:40 15.09.2019
1893 Clear 8 993 65 10000 4.1 60 18:22 15.09.2019
1894 Clouds 9 993 61 10000 4.6 80 17:43 15.09.2019
1895 Clouds 9 993 61 10000 4.6 80 17:23 15.09.2019
1896 Clouds 9 993 61 10000 4.1 80 16:59 15.09.2019
1897 Clouds 9 993 61 10000 5.1 80 16:41 15.09.2019
1898 Clouds 9 993 61 10000 5.1 80 16:22 15.09.2019
1899 Clouds 9 994 61 10000 4.6 80 15:56 15.09.2019
1900 Clouds 9 994 66 10000 5.1 80 15:38 15.09.2019
1901 Clouds 9 994 66 10000 5.1 80 15:19 15.09.2019
1902 Clouds 9 994 66 10000 4.6 80 14:55 15.09.2019
1903 Clouds 9 995 70 10000 4.1 110 14:37 15.09.2019
1904 Clouds 9 995 70 10000 4.1 110 14:18 15.09.2019
1905 Clouds 9 995 70 10000 4.6 100 13:43 15.09.2019
1906 Clouds 8 995 75 10000 5.1 110 13:21 15.09.2019
1907 Clouds 8 996 81 10000 4.6 110 12:42 15.09.2019
1908 Clouds 8 996 81 10000 4.6 110 12:23 15.09.2019
1909 Clouds 8 996 81 10000 3.6 110 11:56 15.09.2019
1910 Clouds 8 997 87 10000 4.6 120 11:38 15.09.2019
1911 Clouds 8 997 87 10000 4.6 120 11:38 15.09.2019
1912 Clouds 8 997 87 10000 4.6 120 11:20 15.09.2019
1913 Clouds 5 997 100 10000 4.1 110 10:42 15.09.2019
1914 Clouds 5 997 100 10000 4.1 110 10:22 15.09.2019
1915 Clouds 5 998 93 10000 3.6 110 09:57 15.09.2019
1916 Clouds 4 998 100 10000 2.6 90 09:37 15.09.2019
1917 Clouds 4 998 100 10000 2.6 90 09:18 15.09.2019
1918 Clouds 3 999 100 8000 3.1 110 08:44 15.09.2019
1919 Clouds 3 999 100 8000 3.1 110 08:25 15.09.2019
1920 Clouds 3 999 93 10000 3.1 90 07:48 15.09.2019
1921 Mist 1 1001 100 4800 3.1 80 06:59 15.09.2019
1922 Mist 1 1001 100 4800 3.1 80 06:59 15.09.2019
1923 Clouds 1 1001 100 6000 2.1 90 06:31 15.09.2019
1924 Clear 2 1004 93 10000 1 110 03:24 15.09.2019
1925 Clear 2 1005 100 10000 1.5 100 02:23 15.09.2019
1926 Clear 3 1006 93 10000 1.5 0 01:37 15.09.2019
1927 Clear 3 1006 93 10000 1.5 0 01:37 15.09.2019
1928 Clear 3 1006 93 10000 1.5 160 00:57 15.09.2019
1929 Clear 3 1006 93 10000 1 0 00:37 15.09.2019
1930 Clear 3 1006 93 10000 1 0 00:19 15.09.2019
1931 Clear 4 1006 93 10000 1.5 180 23:56 14.09.2019
1932 Clear 4 1007 86 10000 2.6 210 23:38 14.09.2019
1933 Clear 4 1007 86 10000 2.6 210 23:19 14.09.2019
1934 Clear 4 1007 86 10000 2.1 200 22:57 14.09.2019
1935 Clear 5 1007 75 10000 2.1 160 22:37 14.09.2019
1936 Clear 5 1007 75 10000 2.1 160 22:18 14.09.2019
1937 Clear 5 1007 80 10000 2.1 130 21:40 14.09.2019
1938 Clear 5 1007 80 10000 2.1 130 21:21 14.09.2019
1939 Clear 6 1007 75 10000 0.5 0 20:58 14.09.2019
1940 Clear 6 1008 75 10000 1.7 181.384 20:39 14.09.2019
1941 Clear 6 1008 75 10000 1.7 181.384 20:21 14.09.2019
1942 Clear 7 1008 70 10000 1.7 181.384 19:47 14.09.2019
1943 Clear 7 1008 70 10000 0.5 0 19:22 14.09.2019
1944 Clear 8 1008 65 10000 1.5 260 18:58 14.09.2019
1945 Clear 9 1008 61 10000 2.6 250 18:38 14.09.2019
1946 Clear 9 1008 61 10000 2.6 250 18:20 14.09.2019
1947 Clear 10 1008 57 10000 2.1 260 17:44 14.09.2019
1948 Clear 10 1008 57 10000 3.1 280 17:24 14.09.2019
1949 Clouds 10 1008 53 10000 3.1 270 16:54 14.09.2019
1950 Clouds 10 1008 57 10000 2.6 250 16:36 14.09.2019
1951 Clouds 10 1008 57 10000 2.6 250 16:18 14.09.2019
1952 Clouds 10 1008 57 10000 3.1 300 15:41 14.09.2019
1953 Clouds 10 1008 57 10000 3.1 300 15:22 14.09.2019
1954 Clouds 10 1008 57 10000 2.1 280 14:45 14.09.2019
1955 Clear 10 1008 61 10000 2.1 320 14:20 14.09.2019
1956 Clouds 9 1008 66 10000 2.6 290 13:56 14.09.2019
1957 Clear 8 1008 70 10000 1.5 0 13:38 14.09.2019
1958 Clear 8 1008 70 10000 1.5 0 13:20 14.09.2019
1959 Clouds 9 1008 66 10000 2.1 340 12:45 14.09.2019
1960 Clear 8 1008 75 10000 2.6 310 12:22 14.09.2019
1961 Clear 7 1008 81 10000 3.6 330 11:41 14.09.2019
1962 Clear 7 1008 81 10000 3.6 330 11:20 14.09.2019
1963 Clear 6 1007 87 10000 3.1 320 10:40 14.09.2019
1964 Clear 6 1007 87 10000 3.1 320 10:21 14.09.2019
1965 Clear 6 1007 87 10000 3.1 330 09:58 14.09.2019
1966 Clear 5 1007 93 10000 3.1 320 09:40 14.09.2019
1967 Clear 5 1007 93 10000 3.1 320 09:20 14.09.2019
1968 Clear 4 1007 93 10000 4.6 340 08:48 14.09.2019
1969 Clear 3 1007 100 10000 4.1 330 08:26 14.09.2019
1970 Clear 3 1006 93 10000 4.1 330 07:49 14.09.2019
1971 Clear 3 1006 100 10000 3.1 320 07:29 14.09.2019
1972 Clear 3 1006 100 10000 4.1 330 06:54 14.09.2019
1973 Clear 3 1006 100 10000 4.1 330 06:31 14.09.2019
1974 Clear 4 1005 93 10000 4.6 340 05:27 14.09.2019
1975 Clear 5 1004 93 10000 4.1 330 03:47 14.09.2019
1976 Clear 6 1004 93 10000 3.6 330 02:55 14.09.2019
1977 Clear 6 1004 93 10000 3.6 330 02:55 14.09.2019
1978 Clouds 6 1003 100 10000 4.6 330 01:59 14.09.2019
1979 Clouds 6 1003 100 10000 3.6 320 01:39 14.09.2019
1980 Clouds 6 1003 100 10000 3.6 320 01:18 14.09.2019
1981 Rain 7 1002 93 10000 3.6 330 00:39 14.09.2019
1982 Rain 7 1002 93 10000 3.6 330 00:21 14.09.2019
1983 Rain 7 1002 93 10000 3.6 330 00:21 14.09.2019
1984 Rain 7 1002 93 10000 3.6 330 00:21 14.09.2019
1985 Rain 7 1002 93 10000 3.6 330 00:21 14.09.2019
1986 Clouds 7 1002 93 10000 3.1 320 23:38 13.09.2019
1987 Clouds 7 1002 93 10000 3.1 320 23:19 13.09.2019
1988 Rain 7 1002 93 10000 3.1 320 22:59 13.09.2019
1989 Rain 7 1001 100 10000 3.1 320 22:38 13.09.2019
1990 Rain 7 1001 100 10000 3.1 320 22:20 13.09.2019
1991 Rain 7 1001 93 10000 3.6 320 21:54 13.09.2019
1992 Rain 7 1001 100 10000 3.6 320 21:36 13.09.2019
1993 Rain 7 1001 100 10000 3.6 320 21:18 13.09.2019
1994 Rain 7 1001 93 10000 3.6 310 20:55 13.09.2019
1995 Rain 8 1001 87 10000 5.1 310 20:36 13.09.2019
1996 Rain 8 1001 87 10000 5.1 310 20:18 13.09.2019
1997 Rain 7 1001 95 0 0.14 247.973 19:42 13.09.2019
1998 Rain 7 1001 95 0 0.14 247.973 19:19 13.09.2019
1999 Clouds 8 1001 87 10000 3.1 310 18:57 13.09.2019
2000 Clouds 9 1000 81 10000 3.1 300 18:37 13.09.2019
2001 Clouds 9 1000 81 10000 3.1 300 18:18 13.09.2019
2002 Clouds 9 1000 81 10000 3.1 310 17:39 13.09.2019
2003 Clouds 9 1000 81 10000 3.1 310 17:19 13.09.2019
2004 Clouds 9 1000 76 10000 2.1 320 16:42 13.09.2019
2005 Rain 9 999 81 10000 2.6 320 16:21 13.09.2019
2006 Rain 9 999 87 10000 4.1 310 15:58 13.09.2019
2007 Rain 10 999 93 10000 3.6 300 15:39 13.09.2019
2008 Rain 10 999 93 10000 3.6 300 15:20 13.09.2019
2009 Rain 10 999 93 10000 3.6 240 14:43 13.09.2019
2010 Rain 10 999 93 10000 3.6 240 14:22 13.09.2019
2011 Rain 10 999 81 10000 4.1 240 13:54 13.09.2019
2012 Clouds 10 999 81 10000 4.6 230 13:36 13.09.2019
2013 Clouds 10 999 81 10000 4.6 230 13:18 13.09.2019
2014 Clouds 10 999 81 10000 4.6 230 13:18 13.09.2019
2015 Clouds 10 998 87 10000 4.1 240 12:41 13.09.2019
2016 Clouds 10 998 87 10000 4.1 240 12:22 13.09.2019
2017 Clouds 10 998 87 10000 4.6 240 11:55 13.09.2019
2018 Clouds 10 998 87 10000 4.6 240 11:55 13.09.2019
2019 Clouds 10 998 87 10000 4.1 230 11:19 13.09.2019
2020 Clouds 9 998 93 10000 4.1 200 10:39 13.09.2019
2021 Clouds 9 998 93 10000 4.1 200 10:19 13.09.2019
2022 Clouds 9 998 93 10000 4.1 210 09:46 13.09.2019
2023 Clouds 8 998 100 10000 4.6 210 09:25 13.09.2019
2024 Rain 8 998 100 10000 4.1 210 08:59 13.09.2019
2025 Clouds 8 998 93 10000 4.1 210 08:40 13.09.2019
2026 Clouds 8 998 93 10000 4.1 210 08:20 13.09.2019
2027 Clouds 8 998 93 10000 3.1 220 07:46 13.09.2019
2028 Clouds 7 998 100 10000 3.6 220 07:27 13.09.2019
2029 Clouds 7 998 100 10000 5.1 220 06:48 13.09.2019
2030 Clear 7 998 100 10000 4.6 220 05:49 13.09.2019
2031 Clear 7 998 100 10000 5.1 220 04:57 13.09.2019
2032 Clear 8 998 93 10000 4.1 230 03:40 13.09.2019
2033 Clear 8 998 100 10000 5.1 220 02:20 13.09.2019
2034 Clear 9 998 93 10000 5.1 220 01:52 13.09.2019
2035 Clear 9 998 93 10000 5.1 220 01:33 13.09.2019
2036 Clear 9 998 93 10000 5.1 220 01:33 13.09.2019
2037 Clear 11 998 93 10000 5.1 220 00:39 13.09.2019
2038 Clouds 11 998 93 10000 4.6 210 23:59 12.09.2019
2039 Clouds 11 998 100 10000 4.6 210 23:36 12.09.2019
2040 Clouds 11 998 100 10000 5.1 210 22:59 12.09.2019
2041 Fog 11 998 100 900 5.1 210 22:41 12.09.2019
2042 Fog 11 998 100 900 5.1 210 22:41 12.09.2019
2043 Fog 11 998 100 900 5.1 210 22:23 12.09.2019
2044 Mist 12 998 100 1000 5.1 220 21:57 12.09.2019
2045 Mist 12 998 100 2200 6.2 220 21:38 12.09.2019
2046 Mist 12 998 100 2200 6.2 220 21:19 12.09.2019
2047 Clouds 12 998 100 10000 6.2 220 20:55 12.09.2019
2048 Clouds 12 998 100 10000 5.7 220 20:37 12.09.2019
2049 Clouds 12 998 100 10000 5.7 220 20:19 12.09.2019
2050 Rain 12 998 100 9000 5.1 210 19:41 12.09.2019
2051 Rain 12 998 100 9000 5.1 210 19:20 12.09.2019
2052 Clouds 12 998 93 10000 5.1 210 18:58 12.09.2019
2053 Clouds 12 998 93 10000 5.1 210 18:37 12.09.2019
2054 Clouds 12 998 100 10000 7.2 210 18:18 12.09.2019
2055 Clouds 13 998 93 10000 6.2 210 17:41 12.09.2019
2056 Clouds 13 998 93 10000 6.2 210 17:22 12.09.2019
2057 Clouds 13 998 93 10000 6.2 200 16:58 12.09.2019
2058 Clouds 13 998 93 10000 7.2 200 16:40 12.09.2019
2059 Clouds 13 998 93 10000 7.2 200 16:20 12.09.2019
2060 Rain 13 999 93 6000 5.7 180 15:42 12.09.2019
2061 Rain 13 999 93 6000 5.7 180 15:24 12.09.2019
2062 Rain 13 999 93 5000 5.1 160 14:48 12.09.2019
2063 Rain 13 999 93 2500 4.6 150 14:23 12.09.2019
2064 Rain 13 1000 93 10000 4.1 150 13:59 12.09.2019
2065 Rain 13 1000 93 10000 4.1 160 13:39 12.09.2019
2066 Rain 13 1000 93 10000 4.1 160 13:20 12.09.2019
2067 Rain 13 1000 93 10000 4.1 160 12:48 12.09.2019
2068 Rain 13 1001 93 10000 4.1 170 12:19 12.09.2019
2069 Rain 13 1001 93 10000 4.1 180 11:57 12.09.2019
2070 Clouds 13 1001 93 10000 4.6 180 11:39 12.09.2019
2071 Clouds 13 1001 93 10000 4.6 180 11:21 12.09.2019
2072 Rain 13 1001 93 10000 5.1 190 10:48 12.09.2019
2073 Clouds 13 1001 93 10000 5.7 180 10:26 12.09.2019
2074 Rain 13 1001 89 0 5.35 191.398 09:56 12.09.2019
2075 Clouds 12 1001 100 8000 4.1 160 09:36 12.09.2019
2076 Clouds 12 1001 100 8000 4.1 160 09:18 12.09.2019
2077 Fog 12 1001 100 3800 3.6 150 08:41 12.09.2019
2078 Fog 12 1001 100 3800 3.6 150 08:22 12.09.2019
2079 Drizzle 12 1002 100 2800 3.6 150 07:45 12.09.2019
2080 Drizzle 12 1002 100 2000 3.1 150 07:20 12.09.2019
2081 Drizzle 12 1002 100 1600 2.1 150 06:51 12.09.2019
2082 Mist 12 1002 100 4200 2.1 140 06:29 12.09.2019
2083 Clouds 12 1003 93 10000 2.6 150 05:51 12.09.2019
2084 Clouds 12 1003 93 10000 2.6 150 05:33 12.09.2019
2085 Clouds 12 1003 93 10000 2.1 150 04:41 12.09.2019
2086 Clouds 12 1004 93 10000 2.6 150 02:59 12.09.2019
2087 Clouds 13 1005 93 10000 2.6 150 01:37 12.09.2019
2088 Clouds 13 1005 93 10000 2.6 150 01:19 12.09.2019
2089 Clouds 13 1005 93 10000 2.1 150 00:44 12.09.2019
2090 Clouds 13 1005 93 10000 2.1 140 00:24 12.09.2019
2091 Rain 13 1006 100 10000 2.6 170 23:42 11.09.2019
2092 Rain 13 1006 100 10000 2.6 170 23:24 11.09.2019
2093 Rain 13 1006 100 10000 2.6 170 23:24 11.09.2019
2094 Rain 13 1006 93 10000 2.6 170 22:57 11.09.2019
2095 Clouds 13 1006 93 10000 2.6 150 22:37 11.09.2019
2096 Clouds 13 1006 93 10000 2.6 150 22:19 11.09.2019
2097 Clear 14 1007 93 10000 2.6 170 21:43 11.09.2019
2098 Clouds 14 1007 93 10000 2.6 190 21:25 11.09.2019
2099 Clouds 14 1007 93 10000 4.1 180 20:58 11.09.2019
2100 Clouds 15 1007 87 10000 4.6 180 20:40 11.09.2019
2101 Clouds 15 1007 87 10000 4.6 180 20:20 11.09.2019
2102 Clouds 15 1007 87 10000 4.6 180 20:20 11.09.2019
2103 Rain 15 1007 87 10000 5.1 190 19:58 11.09.2019
2104 Rain 14 1007 93 10000 4.1 220 19:40 11.09.2019
2105 Rain 14 1007 93 10000 4.1 220 19:21 11.09.2019
2106 Rain 14 1007 87 6000 3.6 210 18:58 11.09.2019
2107 Clouds 17 1008 67 10000 3.1 150 18:40 11.09.2019
2108 Clouds 17 1008 67 10000 3.1 150 18:22 11.09.2019
2109 Clouds 19 1008 63 10000 4.1 140 17:56 11.09.2019
2110 Clear 19 1008 63 10000 3.6 140 17:38 11.09.2019
2111 Clear 19 1008 63 10000 3.6 140 17:19 11.09.2019
2112 Clear 20 1009 64 10000 3.6 150 16:48 11.09.2019
2113 Clear 20 1009 60 10000 3.6 140 16:25 11.09.2019
2114 Clear 20 1010 64 10000 3.6 140 15:54 11.09.2019
2115 Clear 20 1010 64 10000 4.1 140 15:36 11.09.2019
2116 Clear 20 1010 64 10000 4.1 140 15:18 11.09.2019
2117 Clouds 20 1011 64 10000 3.1 150 14:42 11.09.2019
2118 Clouds 20 1011 64 10000 3.1 150 14:21 11.09.2019
2119 Clouds 19 1012 68 10000 3.6 150 13:59 11.09.2019
2120 Clouds 19 1012 68 10000 3.6 140 13:38 11.09.2019
2121 Clouds 19 1012 68 10000 3.6 140 13:38 11.09.2019
2122 Clouds 19 1012 68 10000 3.6 140 13:20 11.09.2019
2123 Clouds 19 1012 68 10000 3.6 140 13:20 11.09.2019
2124 Clear 18 1013 77 10000 4.1 150 12:56 11.09.2019
2125 Clouds 17 1013 77 10000 4.1 120 12:37 11.09.2019
2126 Clouds 17 1013 77 10000 4.1 120 12:19 11.09.2019
2127 Clouds 16 1013 87 10000 3.6 130 11:39 11.09.2019
2128 Clouds 16 1013 87 10000 3.6 130 11:21 11.09.2019
2129 Clouds 16 1013 87 10000 3.6 130 11:21 11.09.2019
2130 Clouds 16 1013 87 10000 3.6 130 11:21 11.09.2019
2131 Clouds 15 1014 93 10000 3.1 140 10:56 11.09.2019
2132 Clouds 14 1014 100 10000 2.6 130 10:38 11.09.2019
2133 Clouds 14 1014 100 10000 2.6 130 10:19 11.09.2019
2134 Clouds 13 1014 100 6000 2.1 120 09:39 11.09.2019
2135 Clouds 13 1014 100 6000 2.1 120 09:19 11.09.2019
2136 Fog 13 1015 100 5000 2.1 120 08:55 11.09.2019
2137 Fog 13 1015 100 2000 1.5 0 08:36 11.09.2019
2138 Fog 13 1015 100 2000 1.5 0 08:18 11.09.2019
2139 Drizzle 13 1015 93 1500 2.1 130 07:39 11.09.2019
2140 Drizzle 13 1015 93 1500 2.1 130 07:21 11.09.2019
2141 Drizzle 13 1016 93 2000 2.1 130 06:44 11.09.2019
2142 Clouds 13 1016 93 10000 1.5 0 06:21 11.09.2019
2143 Clouds 13 1016 93 10000 2.1 130 05:35 11.09.2019
2144 Clouds 13 1016 93 10000 3.1 140 04:59 11.09.2019
2145 Clouds 13 1017 100 9000 2.1 150 04:21 11.09.2019
2146 Clouds 13 1017 100 10000 1.5 0 03:29 11.09.2019
2147 Clouds 13 1018 100 10000 3.6 190 02:32 11.09.2019
2148 Clouds 13 1018 100 10000 3.1 170 01:33 11.09.2019
2149 Clouds 13 1018 93 10000 2.6 160 00:37 11.09.2019
2150 Clouds 13 1018 93 10000 2.6 160 00:19 11.09.2019
2151 Clouds 13 1019 100 10000 3.1 160 23:40 10.09.2019
2152 Clouds 13 1019 100 10000 3.1 160 23:22 10.09.2019
2153 Rain 13 1019 93 5000 3.1 160 22:57 10.09.2019
2154 Clouds 13 1019 93 10000 2.6 160 22:37 10.09.2019
2155 Clouds 13 1019 93 10000 2.6 160 22:18 10.09.2019
2156 Drizzle 13 1019 93 10000 1.5 130 21:54 10.09.2019
2157 Clouds 13 1019 93 10000 1.5 0 21:36 10.09.2019
2158 Clouds 13 1019 93 10000 1.5 0 21:18 10.09.2019
2159 Clouds 13 1020 93 10000 2.1 160 20:55 10.09.2019
2160 Clouds 13 1020 93 10000 2.1 170 20:37 10.09.2019
2161 Clouds 13 1020 93 10000 2.1 170 20:18 10.09.2019
2162 Clouds 13 1020 87 10000 2.6 180 19:55 10.09.2019
2163 Clouds 13 1020 93 10000 2.6 180 19:36 10.09.2019
2164 Clouds 13 1020 93 10000 2.6 180 19:36 10.09.2019
2165 Clouds 13 1020 93 10000 2.6 180 19:18 10.09.2019
2166 Clouds 14 1020 87 10000 4.1 210 18:43 10.09.2019
2167 Clouds 14 1020 87 10000 4.1 210 18:22 10.09.2019
2168 Clouds 16 1020 82 10000 2.1 150 17:57 10.09.2019
2169 Clouds 16 1020 82 10000 2.1 150 17:57 10.09.2019
2170 Clouds 16 1020 82 10000 2.1 150 17:39 10.09.2019
2171 Clouds 16 1020 82 10000 2.1 150 17:19 10.09.2019
2172 Clouds 16 1020 77 10000 1.5 0 16:57 10.09.2019
2173 Clouds 16 1021 77 10000 2.6 130 16:37 10.09.2019
2174 Clouds 16 1021 77 10000 2.6 130 16:19 10.09.2019
2175 Clouds 16 1021 77 10000 2.6 130 16:19 10.09.2019
2176 Clouds 16 1021 77 10000 2.6 150 15:43 10.09.2019
2177 Clouds 16 1021 77 10000 3.1 160 15:23 10.09.2019
2178 Clouds 15 1022 82 10000 3.1 180 14:57 10.09.2019
2179 Clouds 15 1022 82 10000 3.1 170 14:38 10.09.2019
2180 Clouds 15 1022 82 10000 3.1 170 14:19 10.09.2019
2181 Clouds 15 1022 82 10000 3.6 190 13:44 10.09.2019
2182 Clouds 14 1022 87 10000 2.6 150 13:23 10.09.2019
2183 Clouds 14 1022 87 10000 1.5 0 12:52 10.09.2019
2184 Clouds 14 1022 87 10000 1.5 0 12:28 10.09.2019
2185 Clouds 14 1022 87 10000 2.6 140 11:59 10.09.2019
2186 Clouds 13 1022 93 10000 2.1 140 11:40 10.09.2019
2187 Clouds 13 1022 93 10000 2.1 140 11:22 10.09.2019
2188 Fog 11 1023 100 10000 1 0 10:43 10.09.2019
2189 Fog 11 1023 100 10000 1 0 10:21 10.09.2019
2190 Clouds 16 1022 77 0 2.68 176.64 09:59 10.09.2019
2191 Mist 10 1023 100 4000 2.6 140 09:41 10.09.2019
2192 Mist 10 1023 100 2500 2.6 150 09:19 10.09.2019
2193 Fog 9 1023 100 550 2.6 140 08:47 10.09.2019
2194 Fog 9 1023 100 550 2.6 140 08:29 10.09.2019
2195 Fog 9 1023 100 300 2.6 150 07:56 10.09.2019
2196 Fog 8 1023 100 250 1 0 07:37 10.09.2019
2197 Fog 8 1023 100 250 1 0 07:19 10.09.2019
2198 Fog 7 1023 100 200 1 120 06:39 10.09.2019
2199 Fog 7 1023 100 200 1 120 06:39 10.09.2019
2200 Fog 7 1023 100 200 1 120 06:19 10.09.2019
2201 Fog 6 1024 100 250 1.5 80 04:18 10.09.2019
2202 Fog 6 1024 100 100 2.1 100 02:38 10.09.2019
2203 Fog 6 1024 100 100 2.1 100 02:19 10.09.2019
2204 Fog 7 1024 100 600 1.5 90 01:50 10.09.2019
2205 Fog 7 1024 100 600 1.5 90 01:50 10.09.2019
2206 Fog 7 1024 100 600 1.5 90 01:50 10.09.2019
2207 Clouds 8 1024 100 10000 0.5 0 01:22 10.09.2019
2208 Clouds 9 1024 100 10000 1 0 00:34 10.09.2019
2209 Clear 10 1024 93 10000 1 0 23:48 09.09.2019
2210 Clear 10 1024 93 10000 1 0 23:20 09.09.2019
2211 Clear 10 1024 93 10000 1.5 150 22:58 09.09.2019
2212 Clear 10 1024 93 10000 2.1 160 22:39 09.09.2019
2213 Clear 10 1024 93 10000 2.1 160 22:21 09.09.2019
2214 Clear 10 1024 87 10000 0.5 0 21:59 09.09.2019
2215 Clear 11 1024 81 10000 2.6 170 21:40 09.09.2019
2216 Clear 11 1024 81 10000 2.6 170 21:21 09.09.2019
2217 Clear 12 1024 71 10000 1.5 150 20:57 09.09.2019
2218 Clear 11 1024 76 10000 1 170 20:37 09.09.2019
2219 Clear 11 1024 76 10000 1 190 20:19 09.09.2019
2220 Clear 11 1024 76 10000 1 190 19:59 09.09.2019
2221 Clear 11 1024 76 10000 0.5 210 19:39 09.09.2019
2222 Clear 13 1024 71 10000 1 230 19:20 09.09.2019
2223 Clear 13 1024 71 10000 1 230 19:20 09.09.2019
2224 Clear 13 1024 71 10000 1 230 18:58 09.09.2019
2225 Clear 14 1024 62 10000 1 220 18:40 09.09.2019
2226 Clear 14 1024 62 10000 1 220 18:21 09.09.2019
2227 Clear 14 1024 62 10000 2.1 200 17:58 09.09.2019
2228 Clear 14 1024 62 10000 2.1 180 17:40 09.09.2019
2229 Clear 14 1024 62 10000 2.1 180 17:21 09.09.2019
2230 Clear 15 1024 54 10000 2.6 230 16:56 09.09.2019
2231 Clear 15 1024 58 10000 3.1 210 16:38 09.09.2019
2232 Clear 15 1024 58 10000 3.1 210 16:19 09.09.2019
2233 Clear 15 1024 54 10000 3.6 220 15:55 09.09.2019
2234 Clear 15 1024 54 10000 3.6 220 15:55 09.09.2019
2235 -273 0 0 0 0 0 15:55 09.09.2019
2236 Clear 14 1024 58 10000 4.1 200 15:36 09.09.2019
2237 Clear 14 1024 58 10000 4.1 200 15:18 09.09.2019
2238 Clear 14 1025 62 10000 3.6 210 14:41 09.09.2019
2239 Clear 14 1025 62 10000 3.6 210 14:23 09.09.2019
2240 Clouds 14 1025 62 10000 3.6 220 14:00 09.09.2019
2241 Clouds 13 1025 66 10000 4.1 200 13:41 09.09.2019
2242 Clouds 13 1025 66 10000 4.1 200 13:19 09.09.2019
2243 Clouds 13 1025 66 10000 4.6 210 12:57 09.09.2019
2244 Clouds 13 1025 62 10000 5.1 210 12:37 09.09.2019
2245 Clouds 12 1025 71 10000 4.6 210 12:18 09.09.2019
2246 Clouds 12 1025 71 10000 5.1 210 11:43 09.09.2019
2247 Clouds 12 1025 71 10000 5.1 210 11:20 09.09.2019
2248 Clouds 11 1025 76 10000 5.1 210 10:57 09.09.2019
2249 Clouds 11 1025 76 10000 4.6 220 10:38 09.09.2019
2250 Clouds 11 1025 76 10000 4.6 220 10:19 09.09.2019
2251 Clouds 11 1025 81 10000 4.1 200 09:48 09.09.2019
2252 Clouds 10 1025 87 10000 4.1 200 09:28 09.09.2019
2253 Clouds 10 1025 87 10000 3.1 200 08:56 09.09.2019
2254 Clouds 9 1025 93 10000 2.6 190 08:38 09.09.2019
2255 Clouds 8 1025 100 10000 2.1 180 08:19 09.09.2019
2256 Fog 8 1025 93 10000 1.5 0 07:41 09.09.2019
2257 Fog 8 1025 93 10000 1.5 0 07:20 09.09.2019
2258 Fog 7 1025 100 10000 2.1 190 06:54 09.09.2019
2259 Fog 7 1025 100 10000 2.1 200 06:27 09.09.2019
2260 Fog 7 1025 100 600 3.1 210 03:21 09.09.2019
2261 Clouds 6 1025 98 0 1.95 211.525 02:42 09.09.2019
2262 Clouds 8 1025 100 10000 2.1 220 01:25 09.09.2019
2263 Clouds 8 1025 93 10000 2.6 220 00:24 09.09.2019
2264 Clouds 9 1025 93 10000 3.6 210 23:56 08.09.2019
2265 Clouds 10 1025 87 10000 4.1 210 23:38 08.09.2019
2266 Clouds 10 1025 87 10000 4.1 210 23:19 08.09.2019
2267 Clouds 10 1025 93 10000 3.1 210 22:41 08.09.2019
2268 Clouds 10 1025 93 10000 3.1 210 22:22 08.09.2019
2269 Clouds 10 1025 93 10000 2.1 210 21:58 08.09.2019
2270 Clouds 10 1025 93 10000 3.6 210 21:40 08.09.2019
2271 Clouds 10 1025 93 10000 3.6 210 21:22 08.09.2019
2272 Clouds 10 1025 93 10000 3.6 220 20:55 08.09.2019
2273 Clouds 10 1025 93 10000 4.6 220 20:36 08.09.2019
2274 Clouds 11 1024 87 10000 4.6 220 20:18 08.09.2019
2275 Clouds 10 1025 93 10000 4.6 220 20:18 08.09.2019
2276 Clouds 11 1024 87 10000 4.6 220 20:18 08.09.2019
2277 Clouds 11 1024 81 10000 4.1 210 19:39 08.09.2019
2278 Clouds 12 1024 81 10000 6.7 200 19:21 08.09.2019
2279 Clouds 12 1024 81 10000 6.7 200 18:58 08.09.2019
2280 Clouds 12 1024 93 10000 4.1 210 18:39 08.09.2019
2281 Clouds 12 1023 93 10000 5.1 200 18:19 08.09.2019
2282 Clouds 12 1023 93 10000 5.1 200 17:58 08.09.2019
2283 Clouds 12 1023 93 10000 5.1 210 17:37 08.09.2019
2284 Clouds 12 1023 93 10000 5.1 210 17:37 08.09.2019
2285 Clouds 12 1023 93 10000 5.1 210 17:18 08.09.2019
2286 Rain 13 1023 87 10000 5.1 210 16:55 08.09.2019
2287 Rain 13 1023 93 10000 4.1 200 16:37 08.09.2019
2288 Rain 13 1023 93 10000 4.1 200 16:18 08.09.2019
2289 Clouds 13 1023 93 10000 5.7 220 15:41 08.09.2019
2290 Clouds 13 1023 93 10000 5.7 220 15:22 08.09.2019
2291 Clouds 13 1023 93 10000 5.7 220 15:22 08.09.2019
2292 Clouds 13 1023 93 10000 5.7 220 15:22 08.09.2019
2293 Rain 13 1023 93 10000 6.7 200 14:59 08.09.2019
2294 Rain 14 1023 87 0 4.53 196.747 14:39 08.09.2019
2295 Rain 14 1023 87 0 4.53 196.747 14:21 08.09.2019
2296 Clouds 13 1023 87 10000 3.6 180 13:57 08.09.2019
2297 Clouds 13 1023 87 10000 4.1 170 13:38 08.09.2019
2298 Clouds 13 1023 87 10000 4.1 170 13:20 08.09.2019
2299 Clouds 12 1022 93 10000 4.1 170 12:44 08.09.2019
2300 Clouds 12 1022 93 10000 4.1 170 12:24 08.09.2019
2301 Clouds 12 1022 93 10000 4.1 160 11:59 08.09.2019
2302 Clouds 12 1022 93 10000 4.1 160 11:41 08.09.2019
2303 Rain 12 1022 93 10000 4.1 150 11:20 08.09.2019
2304 Rain 12 1022 93 10000 4.1 150 10:59 08.09.2019
2305 Rain 11 1022 100 10000 3.1 150 10:41 08.09.2019
2306 Rain 11 1022 100 10000 3.1 150 10:22 08.09.2019
2307 Rain 11 1022 100 10000 3.1 150 10:22 08.09.2019
2308 Rain 11 1022 100 7000 3.6 160 09:55 08.09.2019
2309 Clouds 11 1022 100 10000 2.6 160 09:37 08.09.2019
2310 Clouds 11 1022 100 10000 2.6 160 09:18 08.09.2019
2311 Rain 11 1021 100 10000 3.6 160 08:39 08.09.2019
2312 Rain 11 1021 100 10000 3.6 160 08:39 08.09.2019
2313 Rain 11 1021 100 10000 3.6 170 08:18 08.09.2019
2314 Rain 11 1021 100 10000 4.1 160 07:40 08.09.2019
2315 Rain 11 1021 100 10000 4.1 160 07:21 08.09.2019
2316 Rain 11 1021 93 10000 3.6 150 06:54 08.09.2019
2317 Rain 11 1020 93 10000 3.1 140 06:34 08.09.2019
2318 Rain 10 1020 100 10000 2.6 140 05:39 08.09.2019
2319 Rain 10 1020 100 10000 3.1 130 04:27 08.09.2019
2320 Rain 10 1020 100 10000 2.1 110 03:19 08.09.2019
2321 Rain 10 1020 93 6000 3.1 90 02:29 08.09.2019
2322 Rain 9 1020 100 7000 2.6 80 01:52 08.09.2019
2323 Rain 9 1021 100 10000 2.6 90 01:23 08.09.2019
2324 Rain 9 1021 100 10000 2.1 130 00:46 08.09.2019
2325 Rain 9 1021 100 10000 2.1 130 00:27 08.09.2019
2326 Rain 9 1021 87 10000 2.6 110 23:39 07.09.2019
2327 Rain 9 1021 87 10000 2.6 110 23:21 07.09.2019
2328 Rain 10 1021 76 10000 2.6 100 22:59 07.09.2019
2329 Clouds 10 1021 76 10000 2.6 80 22:40 07.09.2019
2330 Clouds 10 1021 76 10000 2.6 80 22:22 07.09.2019
2331 Clouds 10 1021 81 10000 2.6 70 21:45 07.09.2019
2332 Clouds 10 1021 81 10000 2.6 70 21:26 07.09.2019
2333 -273 0 0 0 0 0 20:59 07.09.2019
2334 Clear 10 1021 71 10000 2.1 70 20:39 07.09.2019
2335 Clear 10 1021 71 10000 2.1 70 20:20 07.09.2019
2336 Clear 11 1021 66 10000 1.5 120 19:55 07.09.2019
2337 Clear 12 1021 62 10000 1.5 110 19:37 07.09.2019
2338 Clear 12 1021 62 10000 1.5 110 19:19 07.09.2019
2339 Clear 12 1021 62 10000 1.5 100 18:56 07.09.2019
2340 Clear 12 1020 62 10000 1.5 110 18:37 07.09.2019
2341 Clear 12 1020 62 10000 0.5 0 18:18 07.09.2019
2342 Clear 12 1020 62 10000 0.5 0 17:56 07.09.2019
2343 Clear 13 1020 58 10000 1.5 180 17:38 07.09.2019
2344 Clear 13 1020 58 10000 1.5 180 17:38 07.09.2019
2345 Clear 13 1020 54 10000 1.5 170 17:18 07.09.2019
2346 Clear 14 1020 50 10000 3.1 230 16:43 07.09.2019
2347 Clear 14 1020 50 10000 3.1 230 16:43 07.09.2019
2348 Clear 14 1020 50 10000 3.1 230 16:23 07.09.2019
2349 Clear 14 1019 47 10000 3.1 210 15:57 07.09.2019
2350 Clear 14 1019 50 10000 3.1 200 15:38 07.09.2019
2351 Clear 14 1019 50 10000 3.1 200 15:20 07.09.2019
2352 Clear 14 1019 44 10000 2.6 200 14:55 07.09.2019
2353 Clear 14 1019 45 0 2.18 220.944 14:36 07.09.2019
2354 Clear 13 1019 54 10000 3.6 220 14:18 07.09.2019
2355 Clear 13 1019 58 10000 3.6 210 13:43 07.09.2019
2356 Clear 13 1019 58 10000 3.6 210 13:25 07.09.2019
2357 Clear 13 1019 58 10000 3.6 210 13:25 07.09.2019
2358 Clear 13 1018 58 10000 3.6 210 12:46 07.09.2019
2359 Clear 13 1018 58 10000 3.6 210 12:26 07.09.2019
2360 Clear 12 1018 58 10000 3.6 200 11:59 07.09.2019
2361 Clear 11 1018 66 10000 3.6 220 11:40 07.09.2019
2362 Clear 11 1018 66 10000 3.6 220 11:21 07.09.2019
2363 Clear 10 1017 71 10000 2.6 210 10:41 07.09.2019
2364 Clear 10 1017 71 10000 2.6 210 10:41 07.09.2019
2365 Clear 10 1017 71 10000 2.6 210 10:22 07.09.2019
2366 Clear 9 1016 76 10000 2.1 200 09:57 07.09.2019
2367 Clear 8 1016 75 10000 2.1 220 09:39 07.09.2019
2368 Clear 8 1016 75 10000 2.1 220 09:20 07.09.2019
2369 Clear 8 1016 75 10000 2.1 220 09:20 07.09.2019
2370 Clear 6 1015 87 10000 3.1 210 08:44 07.09.2019
2371 Clear 6 1015 87 10000 3.1 210 08:26 07.09.2019
2372 Clear 6 1014 87 10000 3.1 220 07:48 07.09.2019
2373 Clear 5 1014 93 10000 3.1 230 07:28 07.09.2019
2374 Clear 5 1013 93 10000 3.1 230 06:53 07.09.2019
2375 Clear 4 1013 93 10000 2.1 210 06:21 07.09.2019
2376 Clear 4 1012 93 10000 4.1 230 05:31 07.09.2019
2377 Clear 3 1011 100 10000 4.1 220 04:23 07.09.2019
2378 Clear 4 1010 100 10000 5.7 220 02:50 07.09.2019
2379 Clear 5 1009 93 10000 6.2 220 02:20 07.09.2019
2380 Clear 5 1008 93 10000 4.6 220 01:26 07.09.2019
2381 Clear 6 1008 87 10000 4.6 210 00:41 07.09.2019
2382 Clear 6 1008 87 10000 4.6 210 00:19 07.09.2019
2383 Clear 7 1007 87 10000 5.7 220 23:41 06.09.2019
2384 Clear 7 1007 87 10000 5.7 220 23:22 06.09.2019
2385 Clear 8 1006 87 10000 5.1 220 22:58 06.09.2019
2386 Clear 8 1006 87 10000 5.7 220 22:38 06.09.2019
2387 Clear 9 1005 81 10000 6.7 220 22:19 06.09.2019
2388 Clear 8 1006 87 10000 5.7 220 22:19 06.09.2019
2389 Clear 9 1005 81 10000 6.7 220 21:57 06.09.2019
2390 Clear 9 1005 81 10000 5.7 210 21:39 06.09.2019
2391 Clear 9 1005 81 10000 5.7 210 21:20 06.09.2019
2392 Clear 10 1005 81 10000 6.7 220 20:57 06.09.2019
2393 Clouds 10 1005 81 10000 6.2 210 20:38 06.09.2019
2394 Clear 10 1004 81 10000 5.7 210 20:19 06.09.2019
2395 -273 0 0 0 0 0 19:55 06.09.2019
2396 Clouds 11 1004 76 10000 6.7 210 19:37 06.09.2019
2397 Clouds 11 1004 76 10000 7.2 210 19:18 06.09.2019
2398 Clouds 12 1003 71 10000 7.2 210 18:41 06.09.2019
2399 Clouds 12 1003 71 10000 7.2 210 18:23 06.09.2019
2400 Clouds 12 1003 71 10000 7.7 210 17:58 06.09.2019
2401 Clear 12 1003 71 10000 7.7 210 17:37 06.09.2019
2402 Clear 12 1003 71 10000 7.7 210 17:19 06.09.2019
2403 Rain 12 1002 76 10000 6.2 200 16:39 06.09.2019
2404 Rain 11 1002 87 10000 7.2 210 16:18 06.09.2019
2405 Clouds 12 1002 71 10000 7.7 210 15:42 06.09.2019
2406 Clouds 12 1002 71 10000 7.7 210 15:23 06.09.2019
2407 Clouds 12 1001 66 10000 7.7 210 14:48 06.09.2019
2408 Clouds 12 1001 66 10000 7.7 210 14:20 06.09.2019
2409 Clouds 12 1001 66 10000 8.2 220 13:59 06.09.2019
2410 Clouds 11 1000 71 10000 8.7 220 13:41 06.09.2019
2411 Clouds 11 1000 71 10000 9.8 220 13:19 06.09.2019
2412 Clouds 11 1000 76 10000 8.7 210 12:38 06.09.2019
2413 Clouds 11 1000 76 10000 8.7 210 12:18 06.09.2019
2414 Rain 11 999 79 0 5.98 209.486 11:43 06.09.2019
2415 Rain 11 999 79 0 5.98 209.486 11:24 06.09.2019
2416 Clouds 10 999 87 10000 8.7 200 10:59 06.09.2019
2417 Clouds 10 998 81 10000 7.7 190 10:40 06.09.2019
2418 Clouds 10 998 81 10000 7.7 190 10:21 06.09.2019
2419 Clouds 10 997 87 10000 8.7 190 09:41 06.09.2019
2420 Clouds 10 997 87 10000 8.7 190 09:21 06.09.2019
2421 Clouds 10 997 87 10000 8.2 190 08:58 06.09.2019
2422 Clouds 10 997 87 10000 8.2 190 08:58 06.09.2019
2423 Clouds 10 997 87 10000 7.7 190 08:39 06.09.2019
2424 Clouds 10 997 87 10000 7.7 190 08:39 06.09.2019
2425 Clouds 10 997 87 10000 7.7 190 08:21 06.09.2019
2426 Clouds 10 996 87 10000 10.3 200 07:45 06.09.2019
2427 Clouds 10 996 87 10000 10.3 200 07:27 06.09.2019
2428 Rain 11 996 93 10000 6.7 160 06:56 06.09.2019
2429 Clouds 11 996 93 10000 6.2 160 06:19 06.09.2019
2430 Clouds 11 996 93 10000 5.7 160 05:41 06.09.2019
2431 Clouds 11 997 93 10000 5.7 170 04:45 06.09.2019
2432 Clouds 11 997 100 10000 5.7 160 03:49 06.09.2019
2433 Clouds 11 997 100 10000 4.1 160 01:54 06.09.2019
2434 Clear 11 998 93 10000 4.1 170 00:41 06.09.2019
2435 Rain 12 998 93 10000 5.1 170 23:45 05.09.2019
2436 Rain 12 998 93 10000 5.1 170 23:45 05.09.2019
2437 Rain 12 998 93 10000 5.1 170 23:26 05.09.2019
2438 Clouds 12 998 100 10000 3.6 170 22:58 05.09.2019
2439 Clouds 12 998 100 10000 3.6 170 22:58 05.09.2019
2440 Clouds 12 998 100 10000 3.6 170 22:40 05.09.2019
2441 Clouds 12 998 100 10000 3.6 170 22:40 05.09.2019
2442 Clouds 12 998 100 10000 3.6 170 22:22 05.09.2019
2443 Clouds 12 998 100 10000 5.1 170 21:56 05.09.2019
2444 Rain 13 998 93 10000 4.6 180 21:37 05.09.2019
2445 Rain 13 998 93 10000 4.6 180 21:37 05.09.2019
2446 Clouds 12 998 100 10000 4.6 170 21:19 05.09.2019
2447 Clouds 12 998 100 10000 4.6 170 20:55 05.09.2019
2448 Drizzle 12 998 93 10000 5.7 160 20:37 05.09.2019
2449 Drizzle 12 998 93 10000 5.7 160 20:37 05.09.2019
2450 Drizzle 12 998 93 10000 5.7 150 20:18 05.09.2019
2451 Rain 11 998 100 5000 4.6 140 19:42 05.09.2019
2452 Rain 11 998 100 5000 4.6 140 19:23 05.09.2019
2453 Rain 11 998 93 6000 4.6 130 18:58 05.09.2019
2454 Rain 11 999 93 8000 4.1 130 18:39 05.09.2019
2455 Rain 11 999 93 10000 4.6 110 18:19 05.09.2019
2456 Rain 11 1000 93 10000 4.6 100 17:43 05.09.2019
2457 Rain 11 1000 93 10000 4.6 100 17:24 05.09.2019
2458 Rain 11 1001 87 10000 4.6 100 16:58 05.09.2019
2459 Rain 11 1002 87 10000 3.6 100 16:40 05.09.2019
2460 Rain 11 1002 87 10000 3.6 100 16:20 05.09.2019
2461 Rain 11 1002 87 10000 3.1 110 15:57 05.09.2019
2462 Rain 12 1003 76 10000 3.6 110 15:38 05.09.2019
2463 Rain 12 1003 76 10000 3.6 110 15:18 05.09.2019
2464 Rain 12 1004 76 10000 3.6 130 14:43 05.09.2019
2465 Rain 12 1004 76 10000 3.6 130 14:21 05.09.2019
2466 Clouds 12 1004 76 10000 4.6 150 13:44 05.09.2019
2467 Clouds 12 1004 76 10000 4.6 150 13:44 05.09.2019
2468 Clouds 12 1004 76 10000 4.6 150 13:23 05.09.2019
2469 Clouds 12 1005 87 10000 3.6 160 12:59 05.09.2019
2470 Clouds 11 1005 87 10000 3.1 160 12:40 05.09.2019
2471 Clouds 11 1005 87 10000 3.1 160 12:21 05.09.2019
2472 Clouds 11 1005 87 10000 3.1 160 12:21 05.09.2019
2473 Clouds 10 1005 100 10000 2.6 150 11:43 05.09.2019
2474 Clouds 10 1005 100 10000 2.6 150 11:20 05.09.2019
2475 Clouds 10 1006 100 10000 3.1 150 10:43 05.09.2019
2476 Clouds 10 1006 100 10000 3.1 150 10:23 05.09.2019
2477 Clouds 10 1006 100 10000 3.1 150 10:23 05.09.2019
2478 Clouds 10 1006 100 10000 3.1 150 10:23 05.09.2019
2479 Clouds 10 1006 100 10000 3.1 150 10:23 05.09.2019
2480 Clouds 10 1006 100 10000 2.6 130 09:59 05.09.2019
2481 Fog 9 1006 100 150 2.1 130 09:40 05.09.2019
2482 Fog 9 1006 100 150 2.1 130 09:40 05.09.2019
2483 Fog 9 1006 100 150 2.1 130 09:20 05.09.2019
2484 Fog 8 1006 100 150 2.6 130 08:46 05.09.2019
2485 Fog 8 1006 100 150 2.6 130 08:27 05.09.2019
2486 Fog 8 1006 100 200 1.5 0 07:48 05.09.2019
2487 Fog 7 1006 100 150 2.1 120 07:29 05.09.2019
2488 Fog 7 1006 100 150 2.1 140 06:58 05.09.2019
2489 Fog 7 1006 100 100 2.1 140 06:33 05.09.2019
2490 Fog 7 1006 100 100 2.1 140 06:33 05.09.2019
2491 Fog 7 1006 100 100 2.1 140 06:33 05.09.2019
2492 Fog 7 1006 100 100 2.1 130 05:59 05.09.2019
2493 Fog 6 1006 100 100 2.1 130 05:38 05.09.2019
2494 Fog 6 1006 100 150 2.6 140 05:19 05.09.2019
2495 Fog 6 1006 100 150 2.6 130 04:29 05.09.2019
2496 Fog 7 1006 100 100 1.5 120 03:41 05.09.2019
2497 Fog 7 1006 100 100 2.6 130 02:54 05.09.2019
2498 Fog 8 1006 100 100 2.6 150 02:27 05.09.2019
2499 Fog 8 1006 100 100 1.5 210 01:41 05.09.2019
2500 Fog 8 1006 100 350 3.1 220 00:48 05.09.2019
2501 Fog 8 1006 100 400 3.6 230 00:22 05.09.2019
2502 Fog 8 1006 100 400 3.6 230 23:56 04.09.2019
2503 Fog 9 1006 100 150 3.6 240 23:37 04.09.2019
2504 Fog 9 1006 100 150 3.6 240 23:18 04.09.2019
2505 Mist 9 1006 100 3300 3.6 220 22:46 04.09.2019
2506 Mist 9 1006 100 3300 3.6 220 22:19 04.09.2019
2507 Clouds 8 1006 100 10000 3.1 210 21:41 04.09.2019
2508 Clouds 8 1006 100 10000 3.1 210 21:20 04.09.2019
2509 Clear 9 1006 100 10000 3.1 210 20:58 04.09.2019
2510 Clear 9 1006 100 10000 3.1 210 20:58 04.09.2019
2511 Clear 9 1005 93 10000 2.1 190 20:40 04.09.2019
2512 Clear 9 1005 93 10000 2.1 190 20:19 04.09.2019
2513 Clear 10 1005 93 10000 2.6 190 19:57 04.09.2019
2514 Rain 10 1005 93 10000 3.6 200 19:39 04.09.2019
2515 Rain 10 1005 93 10000 3.1 190 19:19 04.09.2019
2516 Rain 10 1005 93 9000 2.6 190 18:39 04.09.2019
2517 Rain 11 1005 93 10000 2.6 180 18:20 04.09.2019
2518 Rain 11 1005 93 10000 2.6 180 17:54 04.09.2019
2519 Rain 11 1005 93 10000 2.6 180 17:54 04.09.2019
2520 Rain 11 1005 100 10000 2.6 190 17:36 04.09.2019
2521 Rain 11 1005 100 10000 2.6 190 17:18 04.09.2019
2522 Rain 11 1005 100 10000 2.6 190 17:18 04.09.2019
2523 Rain 13 1005 82 10000 3.1 230 16:46 04.09.2019
2524 Rain 13 1005 82 10000 3.1 230 16:46 04.09.2019
2525 Rain 13 1005 82 10000 3.1 230 16:27 04.09.2019
2526 Clear 13 1005 76 10000 3.6 230 15:56 04.09.2019
2527 Clear 13 1005 76 10000 4.1 220 15:38 04.09.2019
2528 Clear 13 1005 76 10000 4.1 220 15:20 04.09.2019
2529 Rain 13 1006 76 10000 5.1 220 15:20 04.09.2019
2530 Rain 13 1006 76 10000 5.1 220 14:55 04.09.2019
2531 Rain 13 1006 76 10000 5.1 220 14:55 04.09.2019
2532 Clouds 13 1006 76 10000 6.2 210 14:37 04.09.2019
2533 Clouds 13 1006 76 10000 5.1 200 14:18 04.09.2019
2534 Clouds 12 1006 81 10000 5.1 200 13:40 04.09.2019
2535 Clouds 12 1006 81 10000 5.1 200 13:22 04.09.2019
2536 Clouds 12 1006 81 10000 5.1 200 13:22 04.09.2019
2537 Clouds 11 1006 87 10000 7.2 220 12:58 04.09.2019
2538 Rain 12 1006 81 10000 7.7 220 12:38 04.09.2019
2539 Clouds 13 1006 76 10000 5.7 220 12:19 04.09.2019
2540 Clouds 13 1006 76 10000 5.7 220 11:55 04.09.2019
2541 Clouds 13 1006 76 10000 5.1 210 11:36 04.09.2019
2542 Clouds 13 1006 76 10000 5.1 210 11:18 04.09.2019
2543 Clouds 12 1006 81 10000 6.7 210 10:42 04.09.2019
2544 Clouds 12 1006 81 10000 6.7 210 10:23 04.09.2019
2545 Clouds 12 1006 81 10000 8.2 200 09:47 04.09.2019
2546 Clouds 14 1007 65 0 5.04 211.864 09:27 04.09.2019
2547 Clouds 11 1006 93 10000 5.1 200 08:59 04.09.2019
2548 Clouds 10 1006 93 10000 4.6 200 08:40 04.09.2019
2549 Clouds 10 1006 93 10000 4.6 200 08:21 04.09.2019
2550 Clouds 10 1006 93 10000 5.7 190 07:48 04.09.2019
2551 Clouds 10 1006 93 10000 5.7 190 07:29 04.09.2019
2552 Clouds 10 1006 87 10000 3.6 170 06:40 04.09.2019
2553 Clouds 8 1007 87 10000 3.6 160 05:19 04.09.2019
2554 Clouds 8 1007 87 10000 3.6 160 04:51 04.09.2019
2555 Clouds 8 1007 81 10000 4.1 160 03:45 04.09.2019
2556 Clouds 7 1008 93 10000 3.6 160 01:27 04.09.2019
2557 Clouds 7 1008 93 10000 3.6 160 01:27 04.09.2019
2558 Clear 8 1008 87 10000 4.1 160 00:50 04.09.2019
2559 Clear 8 1008 87 10000 4.1 160 00:32 04.09.2019
2560 Clear 7 1008 93 10000 4.1 160 23:54 03.09.2019
2561 Clear 7 1008 93 10000 4.1 160 23:54 03.09.2019
2562 Clear 8 1008 87 10000 3.6 160 23:28 03.09.2019
2563 Clear 8 1009 87 10000 3.1 150 22:58 03.09.2019
2564 Clear 8 1009 87 10000 2.6 150 22:39 03.09.2019
2565 Clear 8 1009 87 10000 2.6 150 22:21 03.09.2019
2566 Clear 8 1009 87 10000 2.6 160 21:56 03.09.2019
2567 Clear 9 1009 81 10000 2.6 160 21:36 03.09.2019
2568 Clear 9 1009 81 10000 3.1 160 21:18 03.09.2019
2569 Clear 9 1009 81 10000 3.1 180 20:42 03.09.2019
2570 Clear 9 1009 81 10000 3.1 180 20:24 03.09.2019
2571 Clear 9 1009 81 10000 3.1 180 20:24 03.09.2019
2572 Clear 9 1009 81 10000 3.1 180 20:24 03.09.2019
2573 Clear 9 1009 76 10000 3.6 200 19:55 03.09.2019
2574 Clear 10 1009 71 10000 3.6 190 19:37 03.09.2019
2575 Clear 11 1009 66 10000 6.2 200 19:18 03.09.2019
2576 Clear 12 1009 62 10000 7.2 210 18:44 03.09.2019
2577 Clear 12 1009 62 10000 7.2 210 18:25 03.09.2019
2578 -273 0 0 0 0 0 18:25 03.09.2019
2579 -273 0 0 0 0 0 18:25 03.09.2019
2580 Clear 13 1009 54 10000 6.7 200 17:57 03.09.2019
2581 Clear 13 1009 58 10000 6.7 200 17:39 03.09.2019
2582 Clear 14 1009 50 10000 6.7 190 17:19 03.09.2019
2583 Clear 15 1009 54 10000 7.7 210 16:43 03.09.2019
2584 Clear 15 1009 54 10000 7.7 210 16:23 03.09.2019
2585 Clear 15 1009 51 10000 6.7 210 15:59 03.09.2019
2586 Clouds 15 1009 58 10000 6.2 190 15:39 03.09.2019
2587 Clouds 15 1009 58 10000 6.2 190 15:20 03.09.2019
2588 Clouds 15 1009 58 10000 6.7 210 14:56 03.09.2019
2589 Clouds 15 1009 58 10000 5.7 200 14:37 03.09.2019
2590 Clouds 14 1008 67 10000 5.7 230 14:19 03.09.2019
2591 Clouds 14 1008 67 10000 5.7 230 13:56 03.09.2019
2592 Clouds 15 1008 67 10000 6.2 220 13:37 03.09.2019
2593 Clouds 13 1008 76 10000 6.2 220 13:18 03.09.2019
2594 Clouds 14 1008 71 10000 6.2 210 12:48 03.09.2019
2595 Clouds 14 1008 71 10000 6.2 210 12:29 03.09.2019
2596 Clouds 13 1007 71 10000 7.7 220 11:44 03.09.2019
2597 Clouds 13 1007 71 10000 7.7 220 11:25 03.09.2019
2598 Clouds 14 1007 76 10000 6.2 240 10:59 03.09.2019
2599 Clouds 14 1007 76 10000 6.2 240 10:59 03.09.2019
2600 Clouds 13 1007 82 10000 7.2 220 10:40 03.09.2019
2601 Clouds 13 1007 82 10000 7.2 220 10:21 03.09.2019
2602 Clouds 13 1006 82 10000 6.2 210 09:50 03.09.2019
2603 Clouds 13 1006 82 10000 6.2 210 09:50 03.09.2019
2604 Clouds 12 1006 93 10000 6.2 220 09:32 03.09.2019
2605 Clouds 12 1005 93 10000 6.7 220 08:57 03.09.2019
2606 Clouds 12 1005 93 10000 5.7 220 08:37 03.09.2019
2607 Clouds 12 1004 93 10000 6.2 210 08:19 03.09.2019
2608 Clouds 12 1004 93 10000 6.7 210 07:43 03.09.2019
2609 Clouds 12 1004 93 10000 6.7 210 07:24 03.09.2019
2610 Clouds 12 1004 93 10000 7.2 210 06:47 03.09.2019
2611 Clouds 12 1004 93 10000 7.2 210 06:28 03.09.2019
2612 Rain 11 1004 100 10000 5.1 200 03:44 03.09.2019
2613 Rain 13 1004 93 10000 5.7 190 02:48 03.09.2019
2614 Rain 13 1004 93 10000 5.7 190 02:27 03.09.2019
2615 Rain 13 1004 93 10000 5.7 190 01:53 03.09.2019
2616 Rain 12 1004 96 0 3.45 196.607 01:35 03.09.2019
2617 Clouds 13 1004 100 10000 4.6 190 00:57 03.09.2019
2618 Clouds 13 1004 100 10000 4.6 190 00:27 03.09.2019
2619 Rain 14 1004 93 10000 6.2 200 23:41 02.09.2019
2620 Rain 14 1004 93 10000 6.2 200 23:20 02.09.2019
2621 Clouds 14 1004 93 10000 4.1 190 22:57 02.09.2019
2622 Clouds 14 1004 93 10000 4.1 190 22:57 02.09.2019
2623 Clouds 14 1004 93 10000 4.6 190 22:39 02.09.2019
2624 Clouds 14 1004 93 10000 4.6 190 22:20 02.09.2019
2625 Rain 14 1004 93 10000 3.6 190 21:58 02.09.2019
2626 Rain 14 1004 93 8000 4.1 220 21:40 02.09.2019
2627 Rain 14 1004 93 8000 4.1 220 21:20 02.09.2019
2628 Rain 14 1004 93 6000 3.1 220 20:59 02.09.2019
2629 Rain 16 1004 77 10000 3.6 260 20:40 02.09.2019
2630 Clouds 17 1004 82 10000 6.7 220 20:18 02.09.2019
2631 Clouds 17 1004 82 10000 6.7 220 19:56 02.09.2019
2632 Clear 19 1004 63 10000 4.1 150 19:38 02.09.2019
2633 Clear 20 1004 64 10000 4.6 150 19:19 02.09.2019
2634 Clouds 20 1004 68 10000 3.1 130 18:40 02.09.2019
2635 Clouds 20 1004 68 10000 3.1 130 18:40 02.09.2019
2636 Clouds 21 1004 64 10000 3.6 150 18:22 02.09.2019
2637 Clouds 21 1004 64 10000 3.6 150 17:58 02.09.2019
2638 Clouds 21 1005 68 10000 5.1 150 17:39 02.09.2019
2639 Clouds 21 1005 68 10000 5.1 150 17:20 02.09.2019
2640 Clouds 21 1005 68 10000 4.6 170 16:42 02.09.2019
2641 Clouds 21 1005 68 10000 4.6 170 16:23 02.09.2019
2642 Clear 21 1006 68 10000 4.1 160 15:59 02.09.2019
2643 Clouds 21 1006 68 10000 4.1 150 15:41 02.09.2019
2644 Clouds 21 1006 68 10000 4.1 150 15:21 02.09.2019
2645 Clouds 22 1006 60 10000 4.6 170 14:56 02.09.2019
2646 Clouds 21 1006 64 10000 5.7 170 14:37 02.09.2019
2647 Clouds 21 1006 64 10000 5.7 170 14:19 02.09.2019
2648 Clouds 22 1007 56 10000 5.7 160 13:45 02.09.2019
2649 Clouds 22 1007 56 10000 5.7 160 13:25 02.09.2019
2650 -273 0 0 0 0 0 13:25 02.09.2019
2651 Clear 22 1007 56 10000 5.1 160 12:56 02.09.2019
2652 Clear 20 1007 68 10000 3.1 160 12:38 02.09.2019
2653 Clear 19 1007 72 10000 4.6 160 12:18 02.09.2019
2654 Clouds 19 1008 72 10000 3.6 140 11:41 02.09.2019
2655 Clouds 19 1008 72 10000 3.6 140 11:22 02.09.2019
2656 Clouds 17 1008 82 10000 4.1 140 10:59 02.09.2019
2657 Clouds 17 1008 82 10000 4.1 140 10:59 02.09.2019
2658 Clouds 16 1008 82 10000 3.6 150 10:41 02.09.2019
2659 Clouds 16 1008 82 10000 3.6 150 10:22 02.09.2019
2660 Clouds 16 1008 87 10000 4.1 140 09:58 02.09.2019
2661 Clear 16 1008 82 10000 4.1 140 09:38 02.09.2019
2662 Clear 16 1008 82 10000 4.1 140 09:19 02.09.2019
2663 Clear 16 1008 82 10000 4.1 140 09:19 02.09.2019
2664 Clouds 14 1008 93 10000 3.6 140 08:39 02.09.2019
2665 Clouds 14 1008 93 10000 3.6 140 08:21 02.09.2019
2666 Clouds 14 1008 87 10000 3.1 130 07:42 02.09.2019
2667 Clouds 14 1008 87 10000 3.1 130 07:22 02.09.2019
2668 Clouds 13 1008 93 10000 3.1 120 06:58 02.09.2019
2669 Clouds 13 1009 93 10000 2.6 130 06:39 02.09.2019
2670 Clouds 13 1009 93 10000 2.6 130 05:50 02.09.2019
2671 Clear 13 1009 93 10000 2.6 140 05:20 02.09.2019
2672 Clear 13 1009 93 10000 2.6 140 04:45 02.09.2019
2673 Clouds 14 1009 93 10000 3.1 150 01:50 02.09.2019
2674 Clear 15 1010 87 10000 3.1 150 00:55 02.09.2019
2675 Clear 15 1010 87 10000 4.1 160 00:32 02.09.2019
2676 Clear 16 1010 82 10000 3.6 150 23:48 01.09.2019
2677 Clear 16 1010 82 10000 3.6 150 23:24 01.09.2019
2678 Clear 16 1010 87 10000 3.1 150 22:59 01.09.2019
2679 Clear 16 1010 87 10000 2.6 150 22:40 01.09.2019
2680 Clear 16 1010 87 10000 2.6 150 22:20 01.09.2019
2681 Clear 16 1011 87 10000 2.1 150 21:59 01.09.2019
2682 Clear 16 1011 87 10000 2.6 120 21:40 01.09.2019
2683 Clear 16 1011 87 10000 2.6 120 21:22 01.09.2019
2684 Clear 16 1011 87 10000 1.5 140 20:57 01.09.2019
2685 Clear 16 1011 87 10000 2.1 160 20:38 01.09.2019
2686 Clear 16 1011 87 10000 2.1 160 20:19 01.09.2019
2687 Clear 16 1011 87 10000 2.1 160 19:58 01.09.2019
2688 Clear 16 1011 87 10000 2.1 180 19:38 01.09.2019
2689 Clear 17 1011 82 10000 3.1 190 19:19 01.09.2019
2690 Clear 17 1011 82 10000 2.6 180 18:43 01.09.2019
2691 Clear 17 1011 82 10000 2.6 180 18:25 01.09.2019
2692 Clear 17 1011 82 10000 3.6 200 17:57 01.09.2019
2693 Clouds 18 1011 77 10000 4.6 190 17:38 01.09.2019
2694 Clouds 18 1011 77 10000 4.6 190 17:19 01.09.2019
2695 Clouds 18 1011 77 10000 4.6 190 17:19 01.09.2019
2696 Clouds 18 1012 77 10000 5.1 220 16:41 01.09.2019
2697 Clouds 18 1012 77 10000 5.1 220 16:41 01.09.2019
2698 Clouds 18 1012 77 10000 6.2 210 16:20 01.09.2019
2699 Clouds 18 1012 77 10000 6.2 210 15:49 01.09.2019
2700 Clouds 18 1012 77 10000 4.1 190 15:31 01.09.2019
2701 Clouds 18 1012 77 10000 3.1 170 14:59 01.09.2019
2702 Clouds 18 1012 77 10000 3.6 190 14:40 01.09.2019
2703 Clouds 18 1012 77 10000 3.6 190 14:21 01.09.2019
2704 Clouds 18 1012 77 10000 3.6 180 13:54 01.09.2019
2705 Clouds 18 1012 77 10000 3.6 180 13:54 01.09.2019
2706 Clouds 17 1012 82 10000 3.6 180 13:36 01.09.2019
2707 Clouds 17 1013 82 10000 4.1 190 13:18 01.09.2019
2708 Clouds 17 1013 82 10000 4.1 200 12:41 01.09.2019
2709 Clouds 17 1013 82 10000 4.1 200 12:23 01.09.2019
2710 Clouds 17 1012 82 10000 4.1 180 11:41 01.09.2019
2711 Clouds 17 1012 82 10000 4.1 180 11:41 01.09.2019
2712 Clouds 17 1012 82 10000 4.1 180 11:20 01.09.2019
2713 Clouds 16 1012 87 10000 4.1 180 10:59 01.09.2019
2714 Clouds 16 1013 87 10000 5.1 180 10:41 01.09.2019
2715 Clouds 16 1013 87 10000 5.1 180 10:21 01.09.2019
2716 Clouds 16 1013 87 10000 3.6 170 09:43 01.09.2019
2717 Clouds 16 1013 87 10000 3.6 170 09:25 01.09.2019
2718 Clouds 14 1013 93 10000 5.1 180 08:44 01.09.2019
2719 Clouds 14 1013 93 10000 5.1 180 08:24 01.09.2019
2720 Clouds 14 1013 93 10000 5.1 180 07:51 01.09.2019
2721 Clouds 14 1013 93 10000 3.1 160 07:33 01.09.2019
2722 Clouds 14 1013 93 10000 2.6 140 06:47 01.09.2019
2723 Clouds 14 1013 93 10000 2.6 140 06:26 01.09.2019
2724 Clouds 14 1013 93 10000 3.1 150 05:56 01.09.2019
2725 Clouds 14 1013 93 10000 3.1 150 05:55 01.09.2019
2726 Clouds 14 1013 93 10000 3.6 180 04:31 01.09.2019
2727 Clouds 14 1013 93 10000 2.6 170 03:42 01.09.2019
2728 Clouds 14 1013 93 10000 2.1 170 02:57 01.09.2019
2729 Clouds 14 1013 87 10000 2.6 170 02:26 01.09.2019
2730 Clouds 14 1013 93 10000 2.6 160 01:50 01.09.2019
2731 Clouds 14 1013 93 10000 2.6 190 01:22 01.09.2019
2732 Clouds 14 1013 93 10000 2.6 180 00:45 01.09.2019
2733 Clouds 14 1013 93 10000 2.6 180 00:22 01.09.2019
2734 Clouds 14 1013 93 10000 3.1 170 23:49 31.08.2019
2735 Clouds 14 1013 93 10000 3.6 190 23:23 31.08.2019
2736 Clouds 14 1013 93 10000 3.1 180 22:58 31.08.2019
2737 Clouds 14 1013 93 10000 3.1 180 22:40 31.08.2019
2738 Clouds 14 1013 93 10000 3.1 180 22:22 31.08.2019
2739 Clouds 14 1013 87 10000 3.1 180 21:55 31.08.2019
2740 Clouds 14 1013 87 10000 3.1 180 21:55 31.08.2019
2741 Clouds 14 1013 93 10000 4.1 190 21:37 31.08.2019
2742 Clouds 14 1013 93 10000 4.1 190 21:19 31.08.2019
2743 Clouds 15 1013 87 10000 4.1 190 20:46 31.08.2019
2744 Clouds 15 1013 87 10000 4.1 190 20:28 31.08.2019
2745 Clouds 15 1013 82 10000 6.2 210 19:47 31.08.2019
2746 Clouds 15 1013 82 10000 6.2 210 19:47 31.08.2019
2747 Clouds 15 1013 82 10000 6.2 210 19:24 31.08.2019
2748 Clouds 15 1013 87 10000 4.1 200 18:59 31.08.2019
2749 Clouds 15 1012 87 10000 5.1 200 18:39 31.08.2019
2750 Clouds 15 1012 87 10000 6.2 200 18:20 31.08.2019
2751 Clouds 15 1012 87 10000 6.2 200 17:55 31.08.2019
2752 Clouds 15 1012 87 10000 6.2 200 17:37 31.08.2019
2753 Clouds 15 1012 82 10000 6.7 200 17:18 31.08.2019
2754 Clouds 15 1012 82 10000 6.7 200 16:55 31.08.2019
2755 Clouds 15 1012 87 10000 5.7 190 16:37 31.08.2019
2756 Clouds 16 1013 82 10000 4.1 190 16:18 31.08.2019
2757 Clouds 16 1013 82 10000 5.7 190 15:42 31.08.2019
2758 Clouds 16 1013 82 10000 5.7 190 15:19 31.08.2019
2759 Clouds 16 1013 82 10000 5.7 190 14:55 31.08.2019
2760 Clouds 16 1012 82 10000 6.2 190 14:36 31.08.2019
2761 Clouds 15 1012 87 10000 6.7 190 14:18 31.08.2019
2762 Clouds 15 1012 87 10000 6.7 190 14:18 31.08.2019
2763 Clouds 15 1012 87 10000 6.2 180 13:40 31.08.2019
2764 Clouds 15 1012 87 10000 6.2 180 13:21 31.08.2019
2765 Clouds 15 1012 87 10000 6.2 180 12:57 31.08.2019
2766 Clouds 15 1012 87 10000 6.2 180 12:57 31.08.2019
2767 Clouds 15 1012 87 10000 5.1 180 12:38 31.08.2019
2768 Clouds 15 1012 87 10000 5.1 180 12:19 31.08.2019
2769 Clouds 14 1012 93 10000 4.1 170 11:44 31.08.2019
2770 Clouds 14 1012 93 10000 4.1 170 11:26 31.08.2019
2771 Clouds 14 1012 87 10000 5.1 170 10:57 31.08.2019
2772 Clouds 14 1012 87 10000 5.1 170 10:57 31.08.2019
2773 Clouds 14 1012 87 10000 4.6 170 10:39 31.08.2019
2774 Clouds 14 1012 87 10000 4.6 180 10:18 31.08.2019
2775 Clouds 14 1012 87 10000 4.1 180 09:40 31.08.2019
2776 Clouds 14 1012 87 10000 4.1 180 09:22 31.08.2019
2777 Clouds 14 1011 93 10000 4.1 180 08:58 31.08.2019
2778 Clouds 14 1011 93 10000 4.1 180 08:58 31.08.2019
2779 Clouds 14 1012 93 10000 3.6 170 08:39 31.08.2019
2780 Clouds 14 1012 93 10000 3.6 170 08:20 31.08.2019
2781 Clouds 14 1011 93 10000 4.1 180 07:39 31.08.2019
2782 Clouds 13 1012 100 10000 4.1 180 07:18 31.08.2019
2783 Clouds 13 1011 100 10000 4.6 180 06:27 31.08.2019
2784 Clouds 13 1011 100 10000 5.1 180 05:55 31.08.2019
2785 Clouds 14 1011 93 10000 4.1 170 05:29 31.08.2019
2786 Clouds 14 1011 87 10000 4.1 180 04:29 31.08.2019
2787 Clouds 14 1011 87 10000 5.1 180 03:42 31.08.2019
2788 Clouds 14 1012 87 10000 4.6 180 02:23 31.08.2019
2789 Clouds 14 1012 93 10000 4.6 180 01:48 31.08.2019
2790 Clouds 14 1012 93 10000 4.6 180 01:29 31.08.2019
2791 Clouds 14 1012 93 10000 4.1 180 00:47 31.08.2019
2792 Clouds 14 1012 93 10000 4.1 180 00:27 31.08.2019
2793 Clouds 14 1012 93 10000 5.1 180 23:50 30.08.2019
2794 Clouds 14 1012 93 10000 5.1 180 23:19 30.08.2019
2795 Clouds 14 1012 100 10000 4.1 180 22:59 30.08.2019
2796 Clouds 15 1012 93 10000 5.1 190 22:38 30.08.2019
2797 Clouds 15 1012 93 10000 5.7 190 22:20 30.08.2019
2798 Clouds 15 1012 93 10000 5.7 190 21:57 30.08.2019
2799 Clouds 15 1012 93 10000 3.6 170 21:36 30.08.2019
2800 Clouds 15 1012 93 10000 3.6 170 21:18 30.08.2019
2801 Clouds 15 1012 93 10000 4.6 180 20:56 30.08.2019
2802 Clouds 15 1012 93 10000 5.1 180 20:37 30.08.2019
2803 Clouds 16 1012 87 10000 6.2 190 20:18 30.08.2019
2804 Clouds 16 1012 93 10000 6.7 190 19:41 30.08.2019
2805 Clouds 16 1012 93 10000 6.7 190 19:22 30.08.2019
2806 Clouds 16 1011 93 10000 5.7 180 18:59 30.08.2019
2807 Clouds 16 1011 93 10000 6.7 180 18:41 30.08.2019
2808 Clouds 16 1011 93 10000 6.7 180 18:23 30.08.2019
2809 Clouds 16 1011 100 10000 4.6 180 17:56 30.08.2019
2810 Mist 16 1011 100 4200 5.7 190 17:38 30.08.2019
2811 Rain 16 1011 100 7000 5.7 180 17:18 30.08.2019
2812 Clouds 16 1011 100 10000 4.6 170 16:46 30.08.2019
2813 Clouds 16 1011 100 10000 4.6 170 16:27 30.08.2019
2814 Mist 16 1011 100 4700 4.1 170 15:58 30.08.2019
2815 Mist 16 1011 100 4500 4.6 160 15:38 30.08.2019
2816 Rain 16 1011 93 6000 3.6 150 15:19 30.08.2019
2817 Rain 16 1012 93 10000 3.6 160 14:42 30.08.2019
2818 Rain 16 1012 93 10000 3.6 160 14:42 30.08.2019
2819 Rain 16 1012 93 10000 3.6 160 14:24 30.08.2019
2820 Rain 17 1012 88 10000 4.6 170 13:56 30.08.2019
2821 Rain 17 1012 88 10000 4.6 170 13:56 30.08.2019
2822 Rain 17 1012 88 10000 4.6 170 13:56 30.08.2019
2823 Clouds 18 1012 82 10000 3.6 170 13:36 30.08.2019
2824 Rain 17 1012 93 10000 3.1 170 13:18 30.08.2019
2825 Rain 17 1012 88 10000 2.6 210 12:42 30.08.2019
2826 Rain 17 1012 88 10000 2.6 210 12:22 30.08.2019
2827 Clouds 19 1012 72 10000 4.6 170 11:43 30.08.2019
2828 Clouds 19 1012 72 10000 4.6 170 11:25 30.08.2019
2829 Clouds 19 1012 72 10000 4.6 150 10:57 30.08.2019
2830 Clouds 19 1012 72 10000 4.6 150 10:36 30.08.2019
2831 Clear 19 1012 72 10000 5.7 140 10:18 30.08.2019
2832 Clear 18 1012 77 10000 4.6 140 09:42 30.08.2019
2833 Clouds 17 1012 77 10000 4.6 140 09:20 30.08.2019
2834 Clouds 17 1012 77 10000 4.6 140 08:57 30.08.2019
2835 Clouds 17 1012 77 10000 4.1 150 08:38 30.08.2019
2836 Clouds 17 1012 77 10000 4.1 150 08:20 30.08.2019
2837 Clear 15 1013 87 10000 2.6 130 07:42 30.08.2019
2838 Clear 15 1013 87 10000 2.6 130 07:23 30.08.2019
2839 Clear 14 1013 93 10000 2.6 140 06:47 30.08.2019
2840 Clear 14 1013 93 10000 2.6 140 06:29 30.08.2019
2841 Clear 14 1013 87 10000 3.1 130 05:46 30.08.2019
2842 Clear 14 1013 87 10000 3.6 110 04:20 30.08.2019
2843 Clear 14 1014 93 10000 2.6 120 03:38 30.08.2019
2844 Clear 14 1014 93 10000 2.6 120 03:38 30.08.2019
2845 Clear 14 1014 87 10000 2.6 120 03:18 30.08.2019
2846 Clouds 15 1014 87 10000 2.6 130 02:29 30.08.2019
2847 Clear 16 1014 82 10000 2.6 130 01:29 30.08.2019
2848 Clear 16 1014 82 10000 2.6 120 00:38 30.08.2019
2849 Clouds 16 1014 82 10000 3.1 120 00:18 30.08.2019
2850 Clouds 17 1014 77 10000 2.6 120 23:40 29.08.2019
2851 Clouds 17 1014 77 10000 2.6 120 23:20 29.08.2019
2852 Clouds 17 1014 77 10000 2.6 120 23:20 29.08.2019
2853 Clear 17 1015 77 10000 2.6 110 22:43 29.08.2019
2854 Clear 17 1015 77 10000 2.6 110 22:25 29.08.2019
2855 Clear 17 1015 77 10000 2.6 150 21:56 29.08.2019
2856 Clear 19 1015 68 10000 2.6 150 21:38 29.08.2019
2857 Clear 19 1015 68 10000 2.6 150 21:20 29.08.2019
2858 Clear 20 1015 64 10000 2.1 150 20:43 29.08.2019
2859 Clear 21 1015 60 10000 2.1 150 20:20 29.08.2019
2860 Clear 21 1016 56 10000 2.1 150 19:59 29.08.2019
2861 Clear 21 1016 56 10000 2.1 150 19:40 29.08.2019
2862 Clear 22 1016 53 10000 2.1 180 19:21 29.08.2019
2863 Clear 22 1016 53 10000 3.1 180 18:43 29.08.2019
2864 Clear 23 1016 49 10000 3.6 180 18:21 29.08.2019
2865 Clear 23 1016 46 10000 5.7 190 17:57 29.08.2019
2866 Clear 23 1016 46 10000 5.7 190 17:38 29.08.2019
2867 Clear 24 1016 44 10000 5.7 190 17:19 29.08.2019
2868 Clear 24 1016 44 10000 5.1 180 16:57 29.08.2019
2869 Clear 24 1016 44 10000 5.1 180 16:38 29.08.2019
2870 Clear 24 1017 47 10000 6.7 180 16:20 29.08.2019
2871 Clear 24 1017 47 10000 6.7 190 15:39 29.08.2019
2872 Clear 24 1017 47 10000 6.7 190 15:21 29.08.2019
2873 Clear 24 1017 47 10000 5.7 180 14:50 29.08.2019
2874 Clear 24 1017 47 10000 5.7 180 14:24 29.08.2019
2875 Clouds 24 1017 47 10000 6.7 180 13:59 29.08.2019
2876 Clouds 24 1017 53 10000 5.1 170 13:40 29.08.2019
2877 Clouds 24 1017 53 10000 5.1 170 13:20 29.08.2019
2878 Clouds 23 1017 56 10000 7.7 190 12:59 29.08.2019
2879 Clouds 23 1017 60 10000 5.7 180 12:39 29.08.2019
2880 Clouds 23 1017 60 10000 5.7 180 12:39 29.08.2019
2881 Clouds 23 1017 60 10000 5.7 180 12:21 29.08.2019
2882 Clouds 22 1018 60 10000 4.6 170 11:59 29.08.2019
2883 Clear 21 1018 68 10000 3.6 160 11:39 29.08.2019
2884 Clear 21 1018 68 10000 3.6 160 11:19 29.08.2019
2885 Clear 19 1018 77 10000 3.6 170 10:45 29.08.2019
2886 Clear 19 1018 77 10000 3.6 170 10:25 29.08.2019
2887 Clear 19 1018 77 10000 3.1 150 09:56 29.08.2019
2888 Clear 18 1018 82 10000 2.6 150 09:38 29.08.2019
2889 Clear 18 1018 82 10000 2.6 150 09:18 29.08.2019
2890 Clear 17 1019 88 10000 3.6 140 08:41 29.08.2019
2891 Clear 17 1019 88 10000 3.6 140 08:22 29.08.2019
2892 Clear 16 1019 87 10000 3.1 140 07:51 29.08.2019
2893 Clouds 15 1019 93 10000 2.6 150 07:29 29.08.2019
2894 Fog 14 1019 93 10000 2.6 140 06:53 29.08.2019
2895 Fog 13 1019 100 10000 2.6 150 06:33 29.08.2019
2896 Clear 13 1019 100 10000 2.6 170 05:43 29.08.2019
2897 Clear 13 1019 93 10000 3.1 150 04:51 29.08.2019
2898 Clear 13 1019 93 10000 3.6 140 04:30 29.08.2019
2899 Clouds 13 1019 100 9000 3.1 140 03:35 29.08.2019
2900 Clouds 14 1019 93 6000 3.6 140 01:52 29.08.2019
2901 Clouds 14 1019 100 8000 3.1 140 01:32 29.08.2019
2902 Clouds 14 1019 100 8000 2.6 140 00:45 29.08.2019
2903 Clear 15 1019 93 8000 3.6 150 00:21 29.08.2019
2904 Clear 14 1019 100 8000 2.6 140 00:21 29.08.2019
2905 Clear 15 1019 100 10000 3.1 140 23:44 28.08.2019
2906 Clear 15 1019 100 10000 3.1 140 23:26 28.08.2019
2907 Clear 16 1019 93 10000 3.1 140 22:59 28.08.2019
2908 Clear 16 1019 93 10000 3.6 150 22:39 28.08.2019
2909 Clear 16 1019 93 10000 3.6 150 22:19 28.08.2019
2910 Clear 16 1019 93 10000 3.6 150 21:59 28.08.2019
2911 Clear 16 1019 93 10000 2.6 180 21:39 28.08.2019
2912 Clear 16 1019 93 10000 2.6 180 21:39 28.08.2019
2913 Clear 16 1019 93 10000 2.6 180 21:20 28.08.2019
2914 Clear 16 1019 87 10000 4.1 210 20:42 28.08.2019
2915 Clear 16 1019 87 10000 4.1 210 20:24 28.08.2019
2916 Clear 17 1019 88 10000 4.6 200 19:57 28.08.2019
2917 Clear 18 1019 82 10000 4.6 210 19:39 28.08.2019
2918 Clear 19 1019 82 10000 4.1 210 19:20 28.08.2019
2919 Clear 20 1019 77 10000 4.6 210 18:42 28.08.2019
2920 Clear 21 1019 73 10000 3.6 210 18:21 28.08.2019
2921 Clear 21 1019 73 10000 3.6 210 17:55 28.08.2019
2922 Clear 21 1019 73 10000 4.1 220 17:37 28.08.2019
2923 Clear 22 1019 68 10000 5.1 210 17:19 28.08.2019
2924 Clear 22 1019 64 10000 5.1 220 16:42 28.08.2019
2925 Clear 22 1019 68 10000 5.1 200 16:19 28.08.2019
2926 Clear 22 1019 68 10000 5.1 200 15:57 28.08.2019
2927 Clear 21 1019 73 10000 4.6 210 15:36 28.08.2019
2928 Clear 21 1019 73 10000 4.1 200 15:18 28.08.2019
2929 Clear 21 1019 73 10000 4.1 200 14:55 28.08.2019
2930 Clear 21 1019 73 10000 3.6 200 14:37 28.08.2019
2931 Clear 21 1019 73 10000 3.6 200 14:37 28.08.2019
2932 Clear 20 1019 72 10000 3.6 220 14:18 28.08.2019
2933 Clear 20 1019 72 10000 3.6 220 13:56 28.08.2019
2934 Clear 19 1019 77 10000 4.1 220 13:36 28.08.2019
2935 Clear 19 1019 72 10000 4.6 210 13:18 28.08.2019
2936 Clear 19 1019 77 10000 2.6 200 12:40 28.08.2019
2937 Clouds 18 1019 82 10000 3.1 220 12:21 28.08.2019
2938 Clouds 18 1019 77 10000 4.1 220 11:41 28.08.2019
2939 Clouds 18 1019 77 10000 4.1 220 11:22 28.08.2019
2940 Clouds 16 1019 87 10000 3.1 210 10:58 28.08.2019
2941 Clouds 16 1020 87 10000 2.1 240 10:40 28.08.2019
2942 Clouds 16 1020 87 10000 2.1 240 10:20 28.08.2019
2943 Fog 14 1020 100 1300 4.1 200 09:42 28.08.2019
2944 Fog 14 1020 100 1300 4.1 200 09:22 28.08.2019
2945 Clear 15 1019 86 0 2.7 194.845 08:57 28.08.2019
2946 Fog 13 1020 100 500 4.1 190 08:38 28.08.2019
2947 Fog 13 1020 93 1200 4.1 210 08:19 28.08.2019
2948 Fog 14 1020 93 10000 3.6 190 07:38 28.08.2019
2949 Fog 13 1020 93 10000 3.6 200 07:20 28.08.2019
2950 Fog 13 1020 93 10000 3.6 200 07:20 28.08.2019
2951 Fog 13 1020 93 10000 2.6 180 06:49 28.08.2019
2952 Clear 12 1020 100 10000 2.6 180 05:59 28.08.2019
2953 Clear 12 1020 93 10000 3.1 180 04:49 28.08.2019
2954 Clear 13 1020 93 10000 2.1 150 01:58 28.08.2019
2955 Clear 13 1020 93 10000 2.6 160 01:30 28.08.2019
2956 Clear 13 1020 93 10000 3.6 170 00:50 28.08.2019
2957 Clear 13 1020 93 10000 4.6 180 00:32 28.08.2019
2958 Clear 14 1020 87 10000 4.6 180 23:45 27.08.2019
2959 Clear 14 1020 87 10000 4.6 180 23:22 27.08.2019
2960 Clear 15 1020 82 10000 4.6 190 22:59 27.08.2019
2961 Clear 15 1020 82 10000 4.6 190 22:59 27.08.2019
2962 Clear 15 1020 82 10000 5.1 190 22:41 27.08.2019
2963 Clear 15 1020 82 10000 5.1 200 22:21 27.08.2019
2964 Clear 15 1020 82 10000 5.1 200 21:56 27.08.2019
2965 Clear 15 1020 82 10000 5.1 200 21:38 27.08.2019
2966 Clear 15 1020 82 10000 5.1 200 21:19 27.08.2019
2967 Clear 16 1020 77 10000 6.7 200 20:56 27.08.2019
2968 Clear 16 1020 77 10000 6.7 200 20:56 27.08.2019
2969 Clear 17 1020 72 10000 8.2 210 20:37 27.08.2019
2970 Clear 17 1020 72 10000 8.2 210 20:19 27.08.2019
2971 Clear 18 1020 68 10000 8.7 210 19:43 27.08.2019
2972 Clear 18 1020 68 10000 8.7 210 19:24 27.08.2019
2973 Clear 19 1020 68 10000 7.2 210 18:55 27.08.2019
2974 Clear 19 1020 68 10000 5.7 200 18:36 27.08.2019
2975 Clear 19 1020 68 10000 5.7 200 18:36 27.08.2019
2976 Clear 19 1020 68 10000 6.2 200 18:18 27.08.2019
2977 Clear 20 1020 64 10000 4.6 210 17:43 27.08.2019
2978 Clear 20 1020 64 10000 4.6 210 17:24 27.08.2019
2979 Clear 20 1020 64 10000 4.6 200 16:49 27.08.2019
2980 Clear 20 1020 64 10000 5.1 220 16:28 27.08.2019
2981 Clear 20 1020 68 10000 6.7 210 15:59 27.08.2019
2982 Clear 20 1020 64 10000 8.2 210 15:40 27.08.2019
2983 Clear 20 1020 64 10000 8.2 210 15:22 27.08.2019
2984 Clear 20 1021 64 10000 5.7 200 14:59 27.08.2019
2985 Clear 20 1021 64 10000 6.2 210 14:41 27.08.2019
2986 Clear 20 1021 64 10000 6.2 210 14:22 27.08.2019
2987 Clear 19 1021 63 10000 6.7 210 13:43 27.08.2019
2988 Clear 19 1021 63 10000 6.7 210 13:43 27.08.2019
2989 Clear 19 1021 63 10000 6.7 210 13:24 27.08.2019
2990 Clear 18 1021 68 10000 6.2 210 12:55 27.08.2019
2991 Clear 18 1021 68 10000 5.7 210 12:37 27.08.2019
2992 Clear 17 1021 67 10000 5.1 210 12:18 27.08.2019
2993 Clear 16 1021 67 10000 4.1 200 11:43 27.08.2019
2994 Clear 16 1021 67 10000 4.1 200 11:24 27.08.2019
2995 Clear 16 1022 67 10000 4.6 200 10:42 27.08.2019
2996 Clear 16 1022 67 10000 4.6 200 10:21 27.08.2019
2997 Clear 14 1021 76 10000 3.1 210 09:58 27.08.2019
2998 Clear 14 1021 76 10000 3.1 210 09:38 27.08.2019
2999 Clear 14 1021 76 10000 3.1 210 09:20 27.08.2019
3000 Clear 12 1021 87 10000 2.6 160 08:46 27.08.2019
3001 Clear 12 1021 87 10000 2.6 160 08:27 27.08.2019
3002 Clear 12 1021 87 10000 2.6 160 08:27 27.08.2019
3003 Clouds 11 1021 93 10000 2.1 130 07:59 27.08.2019
3004 Clouds 11 1021 93 10000 1.5 0 07:38 27.08.2019
3005 Clouds 11 1021 93 10000 3.1 120 07:19 27.08.2019
3006 Clouds 11 1021 93 10000 2.6 120 06:50 27.08.2019
3007 Clouds 11 1021 93 10000 2.6 120 06:50 27.08.2019
3008 Clouds 11 1021 93 10000 2.6 120 06:20 27.08.2019
3009 Clear 11 1021 93 10000 3.1 130 05:29 27.08.2019
3010 Clear 10 1020 100 10000 3.1 110 04:20 27.08.2019
3011 Clear 10 1020 100 10000 1.5 80 03:31 27.08.2019
3012 Clear 11 1020 93 10000 1 0 01:55 27.08.2019
3013 Clear 11 1020 93 10000 1 0 01:30 27.08.2019
3014 Clear 13 1019 82 10000 0.8 154.106 00:50 27.08.2019
3015 Clear 13 1019 82 10000 0.8 154.106 00:28 27.08.2019
3016 Clear 12 1019 87 10000 0.5 210 23:44 26.08.2019
3017 Clear 12 1019 87 10000 0.5 210 23:26 26.08.2019
3018 Clear 13 1019 82 10000 0.24 356.938 22:59 26.08.2019
3019 Clear 14 1019 76 10000 1 320 22:37 26.08.2019
3020 Clear 14 1019 76 10000 1 320 22:19 26.08.2019
3021 Clear 14 1018 76 10000 0.5 0 21:40 26.08.2019
3022 Clear 14 1018 76 10000 1 0 21:22 26.08.2019
3023 Clear 14 1018 76 10000 1 330 20:59 26.08.2019
3024 Clear 14 1018 76 10000 1 330 20:40 26.08.2019
3025 Clear 14 1018 76 10000 1.5 290 20:20 26.08.2019
3026 Clear 15 1017 77 10000 1 0 19:58 26.08.2019
3027 Clear 15 1017 77 10000 1 0 19:39 26.08.2019
3028 Clear 16 1017 67 10000 1.5 280 19:18 26.08.2019
3029 Clear 17 1017 63 10000 2.1 290 18:39 26.08.2019
3030 Clear 17 1017 63 10000 3.1 290 18:20 26.08.2019
3031 Clear 17 1017 63 10000 3.6 290 17:59 26.08.2019
3032 Clear 17 1017 63 10000 3.6 290 17:40 26.08.2019
3033 Clear 17 1016 63 10000 3.1 290 17:19 26.08.2019
3034 Clear 17 1016 59 10000 4.1 300 16:56 26.08.2019
3035 Clear 17 1016 59 10000 4.1 300 16:38 26.08.2019
3036 Clear 17 1016 59 10000 4.1 300 16:38 26.08.2019
3037 Rain 16 1016 67 10000 3.1 300 16:18 26.08.2019
3038 Clear 16 1015 67 10000 2.1 330 15:42 26.08.2019
3039 Rain 15 1015 77 10000 3.6 330 15:21 26.08.2019
3040 Clouds 18 1015 59 10000 4.6 310 14:46 26.08.2019
3041 Clouds 18 1014 55 10000 4.6 340 14:23 26.08.2019
3042 Clouds 17 1014 59 10000 3.6 310 13:59 26.08.2019
3043 Clouds 17 1014 59 10000 3.6 310 13:40 26.08.2019
3044 Clouds 17 1014 63 10000 4.1 290 13:20 26.08.2019
3045 Clouds 17 1014 63 10000 5.1 270 12:43 26.08.2019
3046 Clouds 17 1014 63 10000 5.1 270 12:43 26.08.2019
3047 Clouds 16 1013 67 10000 3.6 290 12:25 26.08.2019
3048 Clouds 16 1013 72 10000 5.1 280 11:56 26.08.2019
3049 Clouds 16 1013 67 10000 4.1 300 11:36 26.08.2019
3050 Clouds 16 1013 67 10000 4.1 300 11:18 26.08.2019
3051 Clouds 15 1013 72 10000 4.6 280 10:44 26.08.2019
3052 Clouds 14 1013 76 10000 4.6 290 10:22 26.08.2019
3053 Clouds 14 1013 76 10000 4.6 290 10:22 26.08.2019
3054 Clouds 13 1012 82 10000 4.6 280 09:57 26.08.2019
3055 Clouds 13 1012 82 10000 4.6 280 09:39 26.08.2019
3056 Clouds 13 1012 82 10000 4.6 280 09:19 26.08.2019
3057 Clouds 12 1012 87 10000 4.6 270 08:42 26.08.2019
3058 Clouds 12 1012 93 10000 4.6 280 08:24 26.08.2019
3059 Clear 12 1011 87 10000 3.6 250 07:59 26.08.2019
3060 Clear 12 1011 87 10000 3.6 250 07:40 26.08.2019
3061 Clear 11 1011 93 10000 3.6 270 07:21 26.08.2019
3062 Clear 10 1011 100 10000 3.6 270 06:42 26.08.2019
3063 Clouds 10 1011 100 10000 2.6 250 06:22 26.08.2019
3064 Clouds 10 1011 100 10000 2.1 220 05:49 26.08.2019
3065 Mist 11 1010 100 3600 3.6 220 04:28 26.08.2019
3066 Clouds 11 1010 100 10000 5.1 230 02:53 26.08.2019
3067 Fog 11 1010 100 150 6.2 220 01:35 26.08.2019
3068 Fog 11 1010 100 100 5.1 220 00:53 26.08.2019
3069 Fog 12 1010 100 150 3.1 210 00:28 26.08.2019
3070 Fog 12 1011 100 100 3.6 220 23:59 25.08.2019
3071 Fog 12 1011 100 100 3.6 220 23:40 25.08.2019
3072 Fog 12 1011 100 150 3.1 250 23:18 25.08.2019
3073 Clouds 12 1010 100 10000 1.5 0 22:55 25.08.2019
3074 Clouds 12 1010 100 10000 1.5 0 22:36 25.08.2019
3075 Rain 12 1010 100 10000 1.5 0 22:18 25.08.2019
3076 Rain 12 1011 100 8000 1.5 0 21:54 25.08.2019
3077 Rain 12 1011 100 8000 1.5 0 21:54 25.08.2019
3078 Rain 12 1011 100 8000 1.5 0 21:36 25.08.2019
3079 Rain 12 1012 100 7000 2.1 160 21:18 25.08.2019
3080 Rain 12 1012 100 6000 2.6 180 20:39 25.08.2019
3081 Rain 12 1013 100 6000 3.6 180 20:19 25.08.2019
3082 Rain 12 1013 100 6000 4.6 200 19:56 25.08.2019
3083 Rain 12 1013 100 6000 4.6 200 19:37 25.08.2019
3084 Rain 12 1013 100 6000 4.6 200 19:37 25.08.2019
3085 Rain 12 1014 100 9000 5.7 190 19:18 25.08.2019
3086 Rain 12 1014 100 9000 5.7 190 18:55 25.08.2019
3087 Rain 12 1014 100 9000 5.7 190 18:55 25.08.2019
3088 Rain 12 1015 93 10000 4.6 180 18:37 25.08.2019
3089 Rain 12 1015 93 10000 4.6 180 18:18 25.08.2019
3090 Rain 12 1015 93 10000 5.7 190 17:40 25.08.2019
3091 Rain 12 1015 93 10000 5.7 190 17:40 25.08.2019
3092 Rain 12 1016 93 10000 5.1 180 17:21 25.08.2019
3093 Rain 12 1016 93 10000 5.7 190 16:41 25.08.2019
3094 Rain 11 1017 100 10000 7.2 190 16:23 25.08.2019
3095 Rain 11 1017 100 10000 6.7 190 15:57 25.08.2019
3096 Rain 11 1017 100 10000 6.7 190 15:38 25.08.2019
3097 Rain 11 1018 93 10000 6.2 180 15:20 25.08.2019
3098 Rain 11 1018 93 10000 6.2 180 14:40 25.08.2019
3099 Rain 11 1018 93 10000 5.1 170 14:22 25.08.2019
3100 Rain 11 1019 93 10000 5.7 180 13:46 25.08.2019
3101 Rain 12 1019 93 5000 5.7 180 13:22 25.08.2019
3102 Rain 12 1019 93 8000 4.1 160 12:56 25.08.2019
3103 Rain 12 1019 93 8000 4.1 160 12:38 25.08.2019
3104 Rain 12 1020 93 10000 3.6 150 12:20 25.08.2019
3105 Rain 12 1020 93 10000 3.6 160 11:55 25.08.2019
3106 Rain 12 1020 93 10000 3.6 160 11:36 25.08.2019
3107 Rain 12 1020 93 10000 3.6 160 11:36 25.08.2019
3108 Rain 12 1020 93 10000 3.1 150 11:18 25.08.2019
3109 Rain 12 1020 93 10000 3.1 150 11:18 25.08.2019
3110 Rain 11 1021 93 10000 3.6 140 10:40 25.08.2019
3111 Rain 11 1021 93 10000 3.1 150 10:21 25.08.2019
3112 Rain 10 1022 100 10000 3.1 150 09:57 25.08.2019
3113 Rain 10 1022 100 10000 3.1 150 09:39 25.08.2019
3114 Rain 10 1022 93 10000 3.1 150 09:20 25.08.2019
3115 Rain 9 1022 100 10000 3.1 120 08:42 25.08.2019
3116 Rain 9 1022 93 10000 3.1 110 08:22 25.08.2019
3117 Rain 9 1022 93 10000 2.1 120 07:43 25.08.2019
3118 Rain 8 1023 93 10000 2.6 140 07:22 25.08.2019
3119 Clear 8 1023 93 10000 2.6 140 06:23 25.08.2019
3120 Clear 8 1024 87 10000 3.1 130 04:45 25.08.2019
3121 Clear 8 1024 87 10000 3.1 120 03:36 25.08.2019
3122 Clear 7 1024 93 10000 2.6 90 02:40 25.08.2019
3123 Clear 9 1024 81 10000 3.1 100 01:35 25.08.2019
3124 Clear 9 1024 87 10000 2.6 110 00:40 25.08.2019
3125 Clear 9 1024 87 10000 3.1 100 00:21 25.08.2019
3126 Clear 10 1024 81 10000 3.1 90 23:52 24.08.2019
3127 Clouds 10 1024 81 10000 3.6 80 23:22 24.08.2019
3128 Clouds 10 1024 81 10000 3.1 70 22:56 24.08.2019
3129 Clouds 10 1024 81 10000 3.1 70 22:38 24.08.2019
3130 Clear 10 1024 81 10000 2.6 80 22:19 24.08.2019
3131 Clear 10 1024 81 10000 3.1 70 21:55 24.08.2019
3132 Clear 10 1024 81 10000 3.1 70 21:37 24.08.2019
3133 Clear 10 1024 81 10000 3.1 70 21:37 24.08.2019
3134 Clouds 11 1024 76 10000 2.6 80 21:18 24.08.2019
3135 Clear 12 1023 71 10000 2.6 70 20:54 24.08.2019
3136 Clear 12 1023 71 10000 2.6 70 20:36 24.08.2019
3137 Clear 13 1023 66 10000 2.1 70 20:18 24.08.2019
3138 Clear 13 1023 66 10000 2.6 60 19:41 24.08.2019
3139 Clear 14 1023 62 10000 3.1 40 19:22 24.08.2019
3140 Clear 15 1022 62 10000 3.1 350 18:59 24.08.2019
3141 Clear 15 1022 62 10000 3.1 350 18:39 24.08.2019
3142 Clear 15 1022 62 10000 2.1 330 18:20 24.08.2019
3143 Clear 15 1022 58 10000 4.1 350 17:43 24.08.2019
3144 Clear 16 1022 51 10000 3.1 360 17:24 24.08.2019
3145 Clear 17 1022 51 10000 4.1 340 16:48 24.08.2019
3146 Clouds 16 1021 51 10000 4.1 340 16:20 24.08.2019
3147 Clear 16 1021 51 10000 3.6 340 15:58 24.08.2019
3148 Clear 16 1021 51 10000 3.6 340 15:40 24.08.2019
3149 Clear 17 1021 48 10000 4.6 360 15:21 24.08.2019
3150 Clear 17 1020 51 10000 4.6 340 14:42 24.08.2019
3151 Clear 16 1020 63 10000 3.6 330 14:22 24.08.2019
3152 Clouds 16 1020 59 10000 4.6 330 13:56 24.08.2019
3153 Clouds 16 1020 59 10000 4.6 330 13:37 24.08.2019
3154 Clouds 16 1019 63 10000 3.1 330 13:18 24.08.2019
3155 Clouds 15 1019 67 10000 4.1 360 12:42 24.08.2019
3156 Clear 15 1019 72 10000 3.6 350 12:24 24.08.2019
3157 Clear 14 1019 82 10000 3.6 330 11:57 24.08.2019
3158 Clear 14 1019 82 10000 3.6 330 11:38 24.08.2019
3159 Clouds 13 1019 87 10000 3.6 350 11:19 24.08.2019
3160 Clouds 12 1018 87 10000 4.6 340 10:43 24.08.2019
3161 Clouds 12 1018 93 10000 4.1 340 10:23 24.08.2019
3162 Clouds 11 1017 93 10000 4.6 350 09:44 24.08.2019
3163 Clouds 11 1017 93 10000 3.6 360 09:20 24.08.2019
3164 Clouds 11 1016 87 10000 3.6 360 08:56 24.08.2019
3165 Clouds 11 1016 87 10000 3.6 360 08:36 24.08.2019
3166 Clouds 10 1016 100 10000 3.1 350 08:18 24.08.2019
3167 Clouds 10 1016 93 10000 4.1 10 07:41 24.08.2019
3168 Rain 10 1015 93 7000 4.1 350 07:22 24.08.2019
3169 Rain 10 1015 93 10000 5.1 10 06:24 24.08.2019
3170 Clouds 10 1014 93 10000 6.2 20 05:40 24.08.2019
3171 Clouds 10 1013 100 10000 3.1 20 03:54 24.08.2019
3172 Rain 10 1013 100 10000 2.6 20 03:34 24.08.2019
3173 Clouds 10 1013 100 10000 2.1 20 02:24 24.08.2019
3174 Clouds 10 1012 100 10000 3.6 40 01:30 24.08.2019
3175 Clouds 10 1012 100 10000 3.6 40 00:49 24.08.2019
3176 Clouds 10 1012 100 9000 3.1 40 00:24 24.08.2019
3177 Clouds 10 1012 100 9000 2.6 50 23:50 23.08.2019
3178 Clouds 11 1012 93 10000 2.6 60 23:24 23.08.2019
3179 Clouds 11 1012 100 10000 3.1 50 22:59 23.08.2019
3180 Clouds 11 1012 100 10000 3.1 50 22:41 23.08.2019
3181 Rain 11 1012 100 10000 3.6 60 22:20 23.08.2019
3182 Rain 11 1012 100 10000 3.1 60 21:38 23.08.2019
3183 Rain 11 1012 100 10000 4.1 50 21:20 23.08.2019
3184 Rain 11 1012 100 8000 2.6 60 20:54 23.08.2019
3185 Rain 11 1012 100 8000 2.6 60 20:36 23.08.2019
3186 Rain 11 1012 100 5000 4.1 60 19:58 23.08.2019
3187 Rain 11 1012 100 5000 4.1 60 19:40 23.08.2019
3188 Rain 11 1012 100 8000 3.6 50 19:18 23.08.2019
3189 Rain 11 1012 100 8000 3.6 50 19:18 23.08.2019
3190 Rain 11 1012 100 7000 3.6 60 18:43 23.08.2019
3191 Rain 11 1013 93 10000 4.1 60 18:24 23.08.2019
3192 Rain 12 1013 93 5000 4.1 70 17:46 23.08.2019
3193 Rain 12 1013 93 8000 3.1 80 17:28 23.08.2019
3194 Rain 12 1013 93 10000 2.6 90 16:59 23.08.2019
3195 Rain 12 1013 93 10000 2.6 90 16:40 23.08.2019
3196 Rain 13 1013 87 10000 3.1 100 16:22 23.08.2019
3197 Rain 14 1014 76 10000 3.6 100 15:41 23.08.2019
3198 Clear 14 1014 71 10000 3.1 110 15:22 23.08.2019
3199 Rain 14 1014 76 10000 2.6 110 14:58 23.08.2019
3200 Rain 14 1014 76 10000 2.6 110 14:40 23.08.2019
3201 Clouds 14 1014 76 10000 3.1 120 14:20 23.08.2019
3202 -273 0 0 0 0 0 13:56 23.08.2019
3203 Clouds 14 1014 71 10000 3.6 120 13:37 23.08.2019
3204 Clouds 14 1015 76 10000 2.6 130 13:19 23.08.2019
3205 Clouds 14 1015 76 10000 2.6 130 13:19 23.08.2019
3206 Clouds 13 1015 76 10000 2.6 130 12:42 23.08.2019
3207 Clouds 13 1015 82 10000 3.1 130 12:24 23.08.2019
3208 Clouds 12 1015 87 10000 3.1 130 11:59 23.08.2019
3209 Clouds 12 1015 87 10000 3.1 130 11:40 23.08.2019
3210 Clouds 12 1015 87 10000 3.1 130 11:20 23.08.2019
3211 Clouds 12 1016 87 10000 2.6 140 10:57 23.08.2019
3212 Clouds 12 1016 87 10000 2.6 140 10:39 23.08.2019
3213 Clouds 11 1016 93 10000 2.1 130 10:20 23.08.2019
3214 Clouds 10 1016 100 10000 2.6 150 09:44 23.08.2019
3215 Fog 9 1016 100 600 2.6 130 09:25 23.08.2019
3216 Fog 9 1016 100 250 2.1 130 08:56 23.08.2019
3217 Fog 9 1016 100 250 2.1 130 08:37 23.08.2019
3218 Fog 9 1016 100 150 2.1 130 08:18 23.08.2019
3219 Fog 9 1016 100 150 2.1 120 07:41 23.08.2019
3220 Fog 8 1016 100 150 3.1 110 07:23 23.08.2019
3221 Fog 9 1016 93 200 2.6 120 06:43 23.08.2019
3222 Mist 9 1016 100 1900 2.6 110 06:22 23.08.2019
3223 Clear 10 1016 93 10000 2.6 120 05:45 23.08.2019
3224 Clear 9 1016 93 10000 2.1 120 05:25 23.08.2019
3225 Clear 10 1016 93 10000 1 0 03:57 23.08.2019
3226 Clear 12 1016 76 10000 1 0 02:39 23.08.2019
3227 Clear 11 1016 81 10000 0.49 52.36 02:21 23.08.2019
3228 Clear 12 1016 76 10000 1.5 0 01:30 23.08.2019
3229 Clear 12 1016 76 10000 2.6 220 00:42 23.08.2019
3230 Clear 12 1016 76 10000 2.1 250 00:18 23.08.2019
3231 Clear 12 1016 76 10000 2.6 230 23:43 22.08.2019
3232 Clear 12 1016 76 10000 1.5 0 23:22 22.08.2019
3233 Clear 12 1016 76 10000 1 0 22:43 22.08.2019
3234 Clear 12 1016 76 10000 1 0 22:43 22.08.2019
3235 Clear 13 1016 71 10000 1.5 360 22:24 22.08.2019
3236 Clear 14 1016 67 10000 2.1 350 21:59 22.08.2019
3237 Clear 14 1016 67 10000 2.1 350 21:40 22.08.2019
3238 Clear 14 1016 67 10000 1.5 0 21:22 22.08.2019
3239 Clear 14 1015 67 10000 0.5 0 20:58 22.08.2019
3240 Clear 14 1015 67 10000 0.5 0 20:40 22.08.2019
3241 Clear 14 1015 67 10000 0.5 0 20:40 22.08.2019
3242 Clear 14 1015 67 10000 1.5 0 20:20 22.08.2019
3243 Clear 15 1015 62 10000 1.5 0 19:57 22.08.2019
3244 Clear 15 1015 62 10000 1.5 0 19:38 22.08.2019
3245 Clear 16 1015 59 10000 1.5 0 19:20 22.08.2019
3246 Clear 17 1015 51 10000 2.6 300 18:57 22.08.2019
3247 Clear 17 1015 51 10000 2.6 300 18:39 22.08.2019
3248 Clouds 17 1015 51 10000 3.1 300 18:19 22.08.2019
3249 Clouds 17 1014 51 10000 2.6 310 17:43 22.08.2019
3250 Clouds 17 1014 51 10000 2.6 310 17:24 22.08.2019
3251 Clear 18 1014 48 10000 2.6 300 16:59 22.08.2019
3252 Clear 18 1014 48 10000 2.6 300 16:40 22.08.2019
3253 Clouds 18 1014 52 10000 4.1 290 16:21 22.08.2019
3254 Clouds 18 1014 52 10000 4.1 290 16:21 22.08.2019
3255 Rain 16 1014 67 10000 4.1 300 15:59 22.08.2019
3256 Rain 16 1014 67 10000 4.1 300 15:40 22.08.2019
3257 Rain 16 1014 67 10000 4.1 300 15:40 22.08.2019
3258 Clouds 18 1014 48 10000 4.1 280 15:21 22.08.2019
3259 Clear 18 1014 55 10000 3.1 230 14:57 22.08.2019
3260 Clear 18 1014 55 10000 3.1 230 14:38 22.08.2019
3261 Clouds 17 1014 55 10000 3.6 270 14:18 22.08.2019
3262 Clouds 17 1014 59 10000 3.1 280 13:56 22.08.2019
3263 Clouds 17 1014 59 10000 3.1 280 13:37 22.08.2019
3264 Clouds 17 1014 59 10000 3.1 270 13:18 22.08.2019
3265 Clouds 16 1014 63 10000 2.6 280 12:40 22.08.2019
3266 Clouds 17 1014 63 10000 3.1 250 12:21 22.08.2019
3267 Clouds 16 1014 72 10000 2.1 190 11:56 22.08.2019
3268 Clouds 16 1014 72 10000 2.1 190 11:36 22.08.2019
3269 Clouds 15 1014 77 10000 2.1 240 11:18 22.08.2019
3270 Clouds 15 1014 77 10000 1.5 0 10:57 22.08.2019
3271 Clouds 14 1014 76 10000 1.5 0 10:36 22.08.2019
3272 Clouds 14 1014 76 10000 1.5 0 10:18 22.08.2019
3273 Clouds 13 1014 82 10000 2.6 270 09:40 22.08.2019
3274 Clouds 13 1014 87 10000 2.1 220 09:21 22.08.2019
3275 Clouds 13 1014 87 10000 2.1 220 08:59 22.08.2019
3276 Clouds 12 1014 87 10000 3.1 240 08:40 22.08.2019
3277 Clouds 12 1014 93 10000 3.1 240 08:21 22.08.2019
3278 Clouds 12 1014 93 10000 3.1 220 07:43 22.08.2019
3279 Clouds 12 1014 93 10000 3.1 220 07:24 22.08.2019
3280 Clouds 12 1014 93 10000 3.6 230 06:58 22.08.2019
3281 Clouds 12 1014 93 10000 3.6 230 06:40 22.08.2019
3282 Clouds 12 1014 93 10000 3.1 180 06:19 22.08.2019
3283 Clouds 12 1014 93 10000 2.6 180 04:42 22.08.2019
3284 Clouds 12 1014 100 10000 4.6 190 02:56 22.08.2019
3285 Clouds 12 1014 100 10000 4.6 190 02:34 22.08.2019
3286 Clouds 12 1014 93 10000 3.6 190 01:26 22.08.2019
3287 Clouds 12 1014 93 10000 2.6 170 00:47 22.08.2019
3288 Clouds 12 1014 93 10000 2.1 170 00:28 22.08.2019
3289 Clouds 12 1014 93 10000 4.1 190 23:58 21.08.2019
3290 Clouds 12 1014 93 10000 4.1 190 23:37 21.08.2019
3291 Clouds 12 1014 93 10000 4.1 200 23:19 21.08.2019
3292 Clouds 12 1014 93 10000 4.6 190 22:55 21.08.2019
3293 Clouds 12 1014 93 10000 4.6 190 22:37 21.08.2019
3294 Clouds 13 1014 93 10000 4.1 190 22:19 21.08.2019
3295 Clear 13 1014 93 10000 3.1 180 21:55 21.08.2019
3296 Clear 13 1014 93 10000 3.1 180 21:36 21.08.2019
3297 Clear 13 1014 87 10000 3.1 180 21:18 21.08.2019
3298 Clear 14 1014 82 10000 2.6 190 20:42 21.08.2019
3299 Clear 15 1014 72 10000 4.1 190 20:24 21.08.2019
3300 Clear 15 1014 72 10000 4.6 180 19:56 21.08.2019
3301 Clear 15 1014 72 10000 4.6 180 19:38 21.08.2019
3302 Clear 16 1014 72 10000 4.1 190 19:20 21.08.2019
3303 Clear 17 1014 72 10000 5.1 190 18:43 21.08.2019
3304 Clouds 17 1014 72 10000 5.7 190 18:23 21.08.2019
3305 Clouds 17 1014 67 10000 7.2 210 17:57 21.08.2019
3306 Clouds 17 1014 67 10000 7.2 210 17:38 21.08.2019
3307 Clouds 17 1014 72 10000 6.2 190 17:20 21.08.2019
3308 Clouds 18 1014 68 10000 5.7 200 16:45 21.08.2019
3309 Clouds 16 1014 82 10000 2.6 190 16:24 21.08.2019
3310 Rain 16 1014 77 10000 3.1 170 15:59 21.08.2019
3311 Rain 16 1014 77 10000 3.1 170 15:41 21.08.2019
3312 Clouds 16 1014 77 10000 3.6 180 15:21 21.08.2019
3313 Rain 16 1014 82 10000 4.1 190 14:57 21.08.2019
3314 Rain 16 1014 82 10000 4.1 190 14:39 21.08.2019
3315 Clouds 17 1014 72 10000 4.6 170 14:20 21.08.2019
3316 Clouds 16 1014 82 10000 4.6 180 13:55 21.08.2019
3317 Clouds 16 1014 82 10000 4.6 180 13:55 21.08.2019
3318 Clouds 16 1014 82 10000 4.6 180 13:37 21.08.2019
3319 Clouds 16 1014 82 10000 4.1 180 13:18 21.08.2019
3320 Clouds 16 1014 82 10000 4.1 180 13:18 21.08.2019
3321 Clouds 16 1014 82 10000 4.6 180 12:41 21.08.2019
3322 Clouds 16 1014 82 10000 4.6 180 12:41 21.08.2019
3323 Clouds 15 1014 87 10000 4.6 170 12:22 21.08.2019
3324 Rain 13 1014 100 10000 4.1 180 11:59 21.08.2019
3325 Rain 13 1014 100 10000 4.1 180 11:40 21.08.2019
3326 Rain 13 1014 93 10000 5.7 200 11:22 21.08.2019
3327 Clouds 13 1014 93 10000 4.6 190 10:56 21.08.2019
3328 Clouds 13 1014 93 10000 4.6 190 10:37 21.08.2019
3329 Clouds 13 1013 93 10000 4.6 180 10:19 21.08.2019
3330 Clouds 13 1013 93 10000 4.6 180 09:43 21.08.2019
3331 Clouds 13 1013 93 10000 4.1 180 09:24 21.08.2019
3332 Clouds 13 1013 93 10000 4.6 180 08:59 21.08.2019
3333 Clouds 13 1013 93 10000 4.6 180 08:41 21.08.2019
3334 Clouds 13 1013 93 10000 3.6 180 08:21 21.08.2019
3335 Clouds 13 1013 93 10000 3.1 170 07:40 21.08.2019
3336 Clouds 13 1013 93 10000 3.6 160 07:21 21.08.2019
3337 Clouds 12 1013 100 10000 3.1 160 06:49 21.08.2019
3338 Clouds 12 1013 100 9000 2.6 160 06:22 21.08.2019
3339 Clouds 12 1012 100 7000 2.6 160 05:42 21.08.2019
3340 Clouds 12 1012 100 6000 2.1 140 05:23 21.08.2019
3341 Clouds 13 1012 93 10000 5.1 190 03:38 21.08.2019
3342 Clouds 13 1012 87 10000 5.7 190 01:47 21.08.2019
3343 Clouds 13 1011 93 10000 5.7 190 00:46 21.08.2019
3344 Clouds 13 1011 87 10000 6.7 190 00:24 21.08.2019
3345 Clouds 13 1012 87 10000 6.2 190 23:57 20.08.2019
3346 Clouds 13 1012 87 10000 6.2 190 23:38 20.08.2019
3347 Clouds 13 1012 87 10000 5.7 190 23:18 20.08.2019
3348 Clouds 13 1011 87 10000 6.2 190 22:56 20.08.2019
3349 Clouds 13 1011 87 10000 6.2 190 22:37 20.08.2019
3350 Clouds 13 1011 87 10000 5.7 180 22:18 20.08.2019
3351 Clouds 13 1011 87 10000 6.2 190 21:57 20.08.2019
3352 Clouds 13 1011 87 10000 6.2 190 21:37 20.08.2019
3353 Clouds 13 1011 93 10000 4.6 180 21:19 20.08.2019
3354 Clouds 13 1011 87 10000 5.7 190 20:43 20.08.2019
3355 Clouds 14 1011 82 10000 5.1 190 20:24 20.08.2019
3356 Thunderstorm 14 1010 87 10000 5.1 190 19:56 20.08.2019
3357 Thunderstorm 14 1010 87 10000 5.1 190 19:38 20.08.2019
3358 Clouds 15 1010 82 10000 5.1 190 19:20 20.08.2019
3359 Clouds 15 1010 82 10000 5.7 190 18:55 20.08.2019
3360 Clouds 15 1010 82 10000 5.7 190 18:37 20.08.2019
3361 Clouds 15 1010 82 10000 6.7 200 18:18 20.08.2019
3362 Clouds 15 1010 82 10000 6.2 190 17:39 20.08.2019
3363 Clouds 15 1010 82 10000 6.2 190 17:20 20.08.2019
3364 Clouds 16 1009 77 10000 5.7 180 16:48 20.08.2019
3365 Clouds 15 1009 82 10000 6.2 190 16:28 20.08.2019
3366 Clouds 15 1009 77 10000 6.2 190 15:59 20.08.2019
3367 Clouds 15 1009 82 10000 7.2 190 15:41 20.08.2019
3368 Clouds 15 1009 82 10000 7.2 190 15:18 20.08.2019
3369 Clouds 15 1009 82 10000 6.7 190 14:55 20.08.2019
3370 Clouds 15 1009 82 10000 5.7 190 14:37 20.08.2019
3371 Clouds 15 1009 82 10000 5.7 180 14:18 20.08.2019
3372 Clouds 15 1009 82 10000 5.7 190 14:18 20.08.2019
3373 Clouds 15 1009 82 10000 6.7 180 13:40 20.08.2019
3374 Clouds 15 1009 82 10000 6.7 180 13:22 20.08.2019
3375 Clouds 15 1009 82 10000 6.7 180 13:22 20.08.2019
3376 Clouds 15 1009 82 10000 5.1 180 12:59 20.08.2019
3377 Clouds 15 1009 82 10000 5.1 180 12:59 20.08.2019
3378 Clouds 15 1008 82 10000 6.2 180 12:40 20.08.2019
3379 Clouds 15 1008 82 10000 6.2 180 12:22 20.08.2019
3380 Clouds 14 1008 87 10000 6.2 190 11:42 20.08.2019
3381 Clouds 14 1008 87 10000 6.2 190 11:22 20.08.2019
3382 Clouds 14 1008 82 10000 7.7 190 10:58 20.08.2019
3383 Clouds 14 1007 87 10000 7.2 190 10:40 20.08.2019
3384 Clouds 14 1007 87 10000 7.2 190 10:22 20.08.2019
3385 Clouds 14 1007 87 10000 5.7 180 09:59 20.08.2019
3386 Clouds 14 1007 87 10000 6.2 190 09:40 20.08.2019
3387 Clouds 14 1007 87 10000 6.2 190 09:21 20.08.2019
3388 Clouds 13 1006 93 10000 5.7 190 08:42 20.08.2019
3389 Clouds 13 1006 93 10000 5.7 190 08:24 20.08.2019
3390 Clouds 13 1006 93 10000 6.2 190 07:58 20.08.2019
3391 Clouds 13 1006 93 10000 5.7 190 07:39 20.08.2019
3392 Clouds 13 1006 93 10000 5.7 190 07:20 20.08.2019
3393 Clouds 13 1006 93 10000 6.2 190 06:44 20.08.2019
3394 Clouds 13 1006 93 10000 6.2 190 06:20 20.08.2019
3395 Clouds 13 1005 93 10000 6.7 190 05:42 20.08.2019
3396 Clouds 13 1005 93 10000 4.6 190 04:26 20.08.2019
3397 Clouds 13 1004 93 10000 4.6 180 02:50 20.08.2019
3398 Clouds 13 1004 93 10000 5.1 190 01:53 20.08.2019
3399 Clouds 13 1004 93 10000 5.1 180 01:21 20.08.2019
3400 Clouds 13 1004 93 10000 5.7 190 00:45 20.08.2019
3401 Clouds 13 1004 93 10000 5.7 190 00:24 20.08.2019
3402 Clouds 13 1004 93 10000 4.6 180 23:45 19.08.2019
3403 Clouds 13 1004 93 10000 4.6 180 23:19 19.08.2019
3404 Clouds 13 1004 93 10000 5.1 180 22:58 19.08.2019
3405 Clouds 14 1003 93 10000 4.1 180 22:40 19.08.2019
3406 Clouds 14 1003 87 10000 4.1 180 22:20 19.08.2019
3407 Clouds 14 1003 87 10000 4.1 180 21:57 19.08.2019
3408 Clouds 14 1003 87 10000 5.7 180 21:38 19.08.2019
3409 Clouds 14 1003 87 10000 5.7 180 21:19 19.08.2019
3410 Clouds 14 1002 93 10000 6.7 200 20:40 19.08.2019
3411 Clouds 14 1002 93 10000 6.7 200 20:21 19.08.2019
3412 Clouds 14 1002 93 10000 7.2 180 19:59 19.08.2019
3413 Clouds 15 1002 87 10000 6.7 180 19:41 19.08.2019
3414 Clouds 15 1001 93 10000 5.7 170 19:19 19.08.2019
3415 Clouds 15 1001 93 10000 5.7 170 19:19 19.08.2019
3416 Clouds 15 1001 93 10000 5.7 170 19:19 19.08.2019
3417 Clouds 15 1001 93 10000 5.7 170 19:19 19.08.2019
3418 Clouds 15 1001 93 10000 5.7 170 18:59 19.08.2019
3419 Clouds 15 1001 93 10000 5.7 170 18:59 19.08.2019
3420 Clouds 15 1001 93 10000 5.1 160 18:39 19.08.2019
3421 Clouds 15 1001 93 10000 5.1 160 18:21 19.08.2019
3422 Clouds 15 1001 93 10000 4.6 160 17:56 19.08.2019
3423 Clouds 15 1001 93 10000 4.6 160 17:56 19.08.2019
3424 Clouds 14 1001 100 10000 6.2 150 17:36 19.08.2019
3425 Clouds 14 1001 100 10000 6.2 150 17:18 19.08.2019
3426 Rain 14 1001 93 6000 5.7 140 16:39 19.08.2019
3427 Mist 13 1001 100 3600 6.2 140 16:21 19.08.2019
3428 Rain 14 1001 93 5000 6.2 140 15:56 19.08.2019
3429 Rain 14 1001 93 5000 6.2 140 15:56 19.08.2019
3430 Rain 14 1001 93 5000 6.2 140 15:38 19.08.2019
3431 Rain 14 1001 87 10000 5.1 130 15:19 19.08.2019
3432 Rain 14 1001 87 6000 5.1 130 14:44 19.08.2019
3433 Rain 14 1002 87 7000 5.1 120 14:23 19.08.2019
3434 Rain 15 1002 82 10000 5.1 120 13:58 19.08.2019
3435 Rain 15 1002 82 10000 5.1 120 13:39 19.08.2019
3436 Rain 15 1003 82 10000 4.1 120 13:20 19.08.2019
3437 Rain 15 1003 77 10000 4.6 120 12:58 19.08.2019
3438 Rain 15 1003 77 10000 4.6 120 12:39 19.08.2019
3439 Rain 15 1003 72 10000 4.6 130 12:19 19.08.2019
3440 Rain 16 1003 67 10000 3.6 130 11:40 19.08.2019
3441 Clear 16 1004 67 10000 3.6 130 11:21 19.08.2019
3442 Clear 16 1004 67 10000 3.6 130 10:58 19.08.2019
3443 Clear 16 1004 67 10000 3.6 130 10:37 19.08.2019
3444 Clouds 15 1005 72 10000 3.1 130 10:18 19.08.2019
3445 Clouds 15 1005 72 10000 3.6 130 09:45 19.08.2019
3446 Clouds 14 1005 76 10000 4.1 120 09:24 19.08.2019
3447 Clouds 14 1005 76 10000 4.1 120 09:24 19.08.2019
3448 Clouds 14 1006 76 10000 3.6 120 08:59 19.08.2019
3449 Clouds 14 1006 76 10000 3.6 120 08:41 19.08.2019
3450 Clouds 14 1006 76 10000 3.6 120 08:41 19.08.2019
3451 Clear 13 1006 82 10000 3.6 120 08:20 19.08.2019
3452 Clear 12 1006 81 10000 3.6 120 07:49 19.08.2019
3453 Clear 12 1006 81 10000 3.6 120 07:31 19.08.2019
3454 Clear 12 1007 81 10000 3.6 130 06:48 19.08.2019
3455 Clear 12 1007 87 10000 3.1 130 06:27 19.08.2019
3456 Clear 12 1007 93 10000 3.1 110 05:21 19.08.2019
3457 Clear 13 1008 87 10000 3.6 120 04:27 19.08.2019
3458 Clear 13 1008 87 10000 3.6 120 04:27 19.08.2019
3459 Clear 13 1008 87 10000 3.6 120 04:27 19.08.2019
3460 Clear 13 1008 93 10000 3.1 120 03:23 19.08.2019
3461 Clouds 13 1009 100 10000 2.6 120 02:24 19.08.2019
3462 Clear 14 1009 87 10000 4.1 140 01:35 19.08.2019
3463 Rain 14 1009 93 10000 3.1 130 00:44 19.08.2019
3464 Rain 14 1009 93 10000 2.6 140 00:23 19.08.2019
3465 Rain 14 1010 93 10000 2.6 140 23:43 18.08.2019
3466 Rain 14 1010 93 10000 2.6 150 23:21 18.08.2019
3467 Rain 14 1010 93 10000 3.1 160 22:57 18.08.2019
3468 Rain 14 1010 93 10000 3.1 160 22:38 18.08.2019
3469 Rain 14 1010 93 10000 4.1 180 22:20 18.08.2019
3470 Rain 14 1010 100 10000 4.1 160 21:55 18.08.2019
3471 Rain 14 1010 100 10000 4.1 160 21:37 18.08.2019
3472 Rain 14 1010 100 10000 3.1 140 21:19 18.08.2019
3473 Rain 14 1010 100 10000 2.6 140 20:43 18.08.2019
3474 Rain 14 1010 100 10000 2.1 130 20:25 18.08.2019
3475 Rain 14 1010 93 10000 2.6 160 19:55 18.08.2019
3476 Rain 14 1010 93 10000 2.6 160 19:37 18.08.2019
3477 Rain 14 1010 93 10000 5.7 210 19:19 18.08.2019
3478 Rain 15 1010 87 10000 3.6 200 18:41 18.08.2019
3479 Rain 15 1010 87 10000 3.6 200 18:41 18.08.2019
3480 Rain 14 1010 100 10000 2.6 190 18:23 18.08.2019
3481 Rain 15 1010 100 7000 3.1 190 17:57 18.08.2019
3482 Rain 15 1010 100 7000 3.1 190 17:39 18.08.2019
3483 Rain 16 1010 87 10000 4.1 150 17:19 18.08.2019
3484 Clouds 17 1010 82 10000 4.1 150 16:56 18.08.2019
3485 Clouds 17 1010 82 10000 4.1 150 16:38 18.08.2019
3486 Clouds 18 1010 72 10000 4.6 170 16:19 18.08.2019
3487 Clouds 17 1009 77 10000 4.1 180 15:55 18.08.2019
3488 Clouds 17 1009 77 10000 4.1 180 15:36 18.08.2019
3489 Clouds 17 1010 77 10000 5.1 170 15:18 18.08.2019
3490 Clouds 17 1010 82 10000 5.1 170 14:40 18.08.2019
3491 Clouds 16 1010 87 10000 6.2 160 14:20 18.08.2019
3492 Rain 17 1010 82 10000 4.6 160 13:59 18.08.2019
3493 Rain 17 1010 82 10000 4.6 160 13:40 18.08.2019
3494 Rain 18 1009 72 10000 6.2 170 13:21 18.08.2019
3495 Clouds 19 1009 63 10000 6.2 180 12:54 18.08.2019
3496 Clouds 19 1009 63 10000 6.2 180 12:36 18.08.2019
3497 Clouds 18 1009 68 10000 6.7 160 12:18 18.08.2019
3498 Clouds 18 1009 68 10000 6.7 160 12:18 18.08.2019
3499 Clouds 18 1009 63 10000 5.7 180 11:41 18.08.2019
3500 Clouds 19 1009 59 10000 6.2 160 11:22 18.08.2019
3501 Clouds 18 1010 68 10000 4.6 170 10:56 18.08.2019
3502 Clouds 18 1010 68 10000 4.6 170 10:38 18.08.2019
3503 Clouds 17 1010 72 10000 5.1 180 10:18 18.08.2019
3504 Clouds 17 1010 77 10000 4.6 160 09:42 18.08.2019
3505 Clouds 15 1010 87 10000 4.6 170 09:19 18.08.2019
3506 Clouds 15 1010 87 10000 4.6 170 08:43 18.08.2019
3507 Clouds 14 1010 93 10000 4.6 170 08:25 18.08.2019
3508 Clouds 14 1010 93 10000 4.1 170 07:53 18.08.2019
3509 Clouds 14 1009 93 10000 4.6 170 07:29 18.08.2019
3510 Clouds 14 1009 93 10000 3.6 170 06:19 18.08.2019
3511 Clouds 14 1009 93 10000 4.6 170 04:59 18.08.2019
3512 Clouds 14 1009 93 10000 3.1 150 03:46 18.08.2019
3513 Clear 14 1009 93 10000 3.1 160 02:50 18.08.2019
3514 Clear 14 1009 93 10000 3.6 170 02:26 18.08.2019
3515 Clear 15 1009 87 10000 4.6 180 01:48 18.08.2019
3516 Clouds 15 1009 93 10000 5.1 180 01:25 18.08.2019
3517 Clouds 15 1009 93 10000 5.1 180 01:25 18.08.2019
3518 Clouds 15 1009 93 10000 5.1 180 01:25 18.08.2019
3519 Rain 15 1009 93 10000 5.1 180 00:40 18.08.2019
3520 Clouds 15 1009 93 10000 4.1 160 00:19 18.08.2019
3521 Clear 15 1008 93 10000 3.1 150 23:57 17.08.2019
3522 Clear 15 1008 93 10000 3.1 150 23:37 17.08.2019
3523 Clouds 15 1008 93 10000 2.6 130 23:19 17.08.2019
3524 Clouds 15 1008 93 10000 2.6 130 23:19 17.08.2019
3525 Clouds 15 1009 93 9000 2.6 130 22:56 17.08.2019
3526 Clouds 15 1009 93 9000 2.6 130 22:56 17.08.2019
3527 Clouds 15 1009 93 9000 2.6 130 22:38 17.08.2019
3528 Rain 15 1009 93 10000 2.6 140 22:20 17.08.2019
3529 Clouds 15 1009 93 10000 2.6 140 21:43 17.08.2019
3530 Clouds 15 1009 93 10000 2.1 140 21:24 17.08.2019
3531 Clouds 15 1009 93 10000 1.5 0 20:57 17.08.2019
3532 Clouds 15 1009 93 10000 1.5 0 20:36 17.08.2019
3533 Clouds 15 1009 93 10000 2.1 140 20:18 17.08.2019
3534 Clouds 15 1009 93 10000 2.1 150 19:43 17.08.2019
3535 Clouds 15 1009 93 10000 2.1 150 19:43 17.08.2019
3536 Clear 16 1009 87 10000 3.1 170 19:24 17.08.2019
3537 Clouds 15 1009 93 10000 3.1 180 18:55 17.08.2019
3538 Clouds 15 1009 93 10000 3.1 180 18:37 17.08.2019
3539 Clouds 15 1009 93 10000 5.1 190 18:18 17.08.2019
3540 Clouds 15 1009 93 10000 4.1 180 17:42 17.08.2019
3541 Clouds 15 1009 93 10000 3.6 180 17:22 17.08.2019
3542 Clouds 14 1010 100 10000 3.6 180 16:56 17.08.2019
3543 Clouds 14 1010 100 10000 3.6 180 16:37 17.08.2019
3544 Rain 14 1010 100 7000 3.1 180 16:19 17.08.2019
3545 Rain 14 1010 93 7000 3.6 180 15:42 17.08.2019
3546 Rain 15 1010 87 10000 6.2 200 15:22 17.08.2019
3547 Clouds 15 1010 82 10000 4.6 190 14:58 17.08.2019
3548 Clouds 15 1010 82 10000 4.6 190 14:39 17.08.2019
3549 Clouds 16 1010 82 10000 4.6 180 14:21 17.08.2019
3550 Clouds 16 1010 82 10000 4.6 180 14:21 17.08.2019
3551 Clouds 16 1010 77 10000 4.6 190 13:44 17.08.2019
3552 Clouds 16 1010 77 10000 5.1 190 13:19 17.08.2019
3553 Clouds 15 1009 82 10000 3.1 180 12:44 17.08.2019
3554 Clouds 15 1009 82 10000 3.6 190 12:20 17.08.2019
3555 Clouds 14 1009 87 10000 4.1 190 11:58 17.08.2019
3556 Clouds 14 1009 87 10000 4.1 190 11:38 17.08.2019
3557 Clouds 15 1009 77 10000 4.1 180 11:20 17.08.2019
3558 Clouds 15 1009 72 10000 4.1 190 10:41 17.08.2019
3559 Clouds 15 1009 77 10000 3.1 180 10:21 17.08.2019
3560 Clear 15 1009 72 10000 3.6 170 09:57 17.08.2019
3561 Clear 15 1009 72 10000 3.6 170 09:37 17.08.2019
3562 Clouds 14 1009 76 10000 4.1 160 09:18 17.08.2019
3563 Clouds 13 1009 76 10000 4.1 170 08:46 17.08.2019
3564 Clouds 13 1009 76 10000 3.6 170 08:20 17.08.2019
3565 Clouds 12 1009 87 10000 4.1 160 07:42 17.08.2019
3566 Clouds 12 1009 81 10000 4.1 160 07:20 17.08.2019
3567 Clear 10 1009 100 10000 3.1 160 06:21 17.08.2019
3568 Clear 11 1010 93 10000 2.6 160 04:32 17.08.2019
3569 Clear 11 1010 93 10000 2.6 160 04:32 17.08.2019
3570 Clear 11 1009 93 10000 3.1 170 03:38 17.08.2019
3571 Clear 11 1009 87 10000 4.1 170 01:59 17.08.2019
3572 Clear 11 1009 87 10000 4.1 170 01:36 17.08.2019
3573 Clear 11 1009 93 10000 3.6 160 01:18 17.08.2019
3574 Clear 11 1009 93 10000 3.6 160 01:18 17.08.2019
3575 Clear 11 1009 93 10000 3.1 160 00:39 17.08.2019
3576 Clear 11 1009 100 10000 3.6 170 23:57 16.08.2019
3577 Clear 11 1009 100 10000 3.6 170 23:57 16.08.2019
3578 Clear 11 1009 100 10000 3.6 170 23:37 16.08.2019
3579 Clear 12 1010 93 10000 3.6 170 23:18 16.08.2019
3580 Clear 12 1009 93 10000 3.1 170 22:40 16.08.2019
3581 Clear 13 1009 87 10000 3.6 170 22:19 16.08.2019
3582 Clouds 13 1009 93 10000 3.1 190 21:42 16.08.2019
3583 Clouds 14 1009 87 10000 6.2 210 21:22 16.08.2019
3584 Clouds 14 1009 82 10000 2.6 180 20:58 16.08.2019
3585 Clouds 14 1009 82 10000 2.6 180 20:39 16.08.2019
3586 Clouds 15 1009 77 10000 2.1 160 20:19 16.08.2019
3587 Clouds 15 1009 77 10000 1.5 0 19:44 16.08.2019
3588 Clouds 15 1009 77 10000 2.1 110 19:23 16.08.2019
3589 Clear 15 1009 72 10000 2.6 90 18:59 16.08.2019
3590 Clear 15 1009 72 10000 2.6 90 18:41 16.08.2019
3591 Clear 15 1009 72 10000 2.1 80 18:22 16.08.2019
3592 Clear 15 1009 72 10000 2.1 120 17:44 16.08.2019
3593 Clouds 15 1009 72 10000 2.1 60 17:25 16.08.2019
3594 Clouds 15 1009 72 10000 3 207.947 16:56 16.08.2019
3595 Clouds 15 1009 72 10000 3 207.947 16:38 16.08.2019
3596 Clouds 15 1009 72 10000 2.1 60 16:18 16.08.2019
3597 Clouds 14 1009 71 10000 1 0 15:41 16.08.2019
3598 Clouds 14 1009 71 10000 1 0 15:22 16.08.2019
3599 Clouds 13 1009 76 10000 1.5 0 14:58 16.08.2019
3600 Clouds 13 1009 76 10000 1.5 0 14:40 16.08.2019
3601 Clouds 13 1009 76 10000 1.5 0 14:19 16.08.2019
3602 Clouds 13 1009 76 10000 1 0 13:57 16.08.2019
3603 Clouds 13 1009 76 10000 1 0 13:37 16.08.2019
3604 Clouds 13 1009 76 10000 2.1 50 13:19 16.08.2019
3605 Clouds 12 1009 81 10000 1.5 0 12:39 16.08.2019
3606 Clouds 12 1009 81 10000 1 0 12:20 16.08.2019
3607 Clouds 12 1008 81 10000 1 0 11:42 16.08.2019
3608 Clouds 12 1008 81 10000 1 0 11:24 16.08.2019
3609 Clouds 12 1008 81 10000 2.6 90 10:45 16.08.2019
3610 Clouds 12 1008 87 10000 3.1 50 10:27 16.08.2019
3611 Clouds 12 1007 87 10000 2.6 40 09:58 16.08.2019
3612 Clouds 12 1007 87 10000 2.6 40 09:37 16.08.2019
3613 Clouds 12 1007 93 10000 3.1 60 09:18 16.08.2019
3614 Clouds 11 1007 100 10000 3.1 60 08:42 16.08.2019
3615 Fog 11 1007 100 10000 2.6 40 08:21 16.08.2019
3616 Fog 10 1007 100 4000 2.1 350 07:59 16.08.2019
3617 Fog 10 1007 100 4000 2.1 350 07:41 16.08.2019
3618 Fog 10 1007 100 4000 2.6 20 07:21 16.08.2019
3619 Mist 9 1006 100 1100 3.1 10 06:32 16.08.2019
3620 Fog 9 1006 100 150 1.5 0 05:43 16.08.2019
3621 Fog 9 1005 100 300 1 0 04:32 16.08.2019
3622 Clouds 10 1004 100 8000 3.1 30 02:47 16.08.2019
3623 Clouds 11 1004 93 9000 2.1 350 01:42 16.08.2019
3624 Clear 11 1004 100 10000 3.1 10 01:19 16.08.2019
3625 Clear 11 1003 100 10000 3.1 10 00:41 16.08.2019
3626 Clear 12 1003 93 10000 3.6 20 00:21 16.08.2019
3627 Clear 12 1003 93 10000 3.6 10 23:45 15.08.2019
3628 Clear 12 1003 93 10000 3.1 10 23:22 15.08.2019
3629 Clouds 12 1003 100 10000 2.6 350 22:58 15.08.2019
3630 Clouds 12 1003 100 10000 2.6 350 22:39 15.08.2019
3631 Clear 13 1002 93 10000 3.1 10 22:20 15.08.2019
3632 Clear 13 1002 93 10000 3.6 350 21:55 15.08.2019
3633 Clear 13 1002 93 10000 3.6 350 21:37 15.08.2019
3634 Clear 13 1002 93 10000 3.1 350 21:18 15.08.2019
3635 Clear 13 1002 93 10000 3.1 360 20:43 15.08.2019
3636 Clear 13 1002 93 10000 2.6 360 20:22 15.08.2019
3637 Clear 14 1002 87 10000 2.6 350 19:57 15.08.2019
3638 Clear 14 1002 87 10000 2.6 350 19:39 15.08.2019
3639 Clear 14 1001 87 10000 2.1 360 19:20 15.08.2019
3640 Rain 14 1001 87 10000 4.1 50 18:47 15.08.2019
3641 Clear 15 1001 87 10000 3.1 350 18:23 15.08.2019
3642 Clear 14 1001 93 10000 1 300 17:58 15.08.2019
3643 Clear 14 1001 93 10000 1 300 17:38 15.08.2019
3644 Clear 14 1001 93 10000 1 300 17:38 15.08.2019
3645 Clear 14 1001 87 10000 1 0 17:19 15.08.2019
3646 Rain 14 1001 82 10000 1.5 0 16:56 15.08.2019
3647 Rain 14 1001 82 10000 1.5 0 16:38 15.08.2019
3648 Rain 14 1001 82 8000 2.1 70 16:20 15.08.2019
3649 Clear 15 1001 87 10000 3.1 50 15:38 15.08.2019
3650 Clear 15 1000 87 10000 1.5 0 15:19 15.08.2019
3651 Rain 14 1000 87 10000 1.5 60 14:55 15.08.2019
3652 Rain 14 1000 87 10000 1.5 60 14:36 15.08.2019
3653 Rain 14 1000 87 10000 2.6 320 14:18 15.08.2019
3654 Rain 14 1000 87 10000 1 0 13:54 15.08.2019
3655 Rain 14 1000 87 10000 1 0 13:36 15.08.2019
3656 Rain 14 1000 87 10000 3.1 50 13:18 15.08.2019
3657 Clouds 16 1000 77 10000 3.1 90 12:39 15.08.2019
3658 Clouds 15 1000 82 10000 3.1 60 12:20 15.08.2019
3659 Clouds 15 1000 82 10000 4.1 40 11:57 15.08.2019
3660 Clouds 15 1000 82 10000 4.1 40 11:37 15.08.2019
3661 Rain 14 1000 93 10000 2.6 70 11:18 15.08.2019
3662 Rain 14 1000 87 10000 3.1 20 10:57 15.08.2019
3663 Rain 14 1000 87 10000 3.1 20 10:36 15.08.2019
3664 Rain 14 1000 93 10000 2.6 30 10:18 15.08.2019
3665 Rain 14 1000 93 10000 2.6 30 10:18 15.08.2019
3666 Clouds 13 1000 100 10000 2.6 50 09:41 15.08.2019
3667 Clouds 13 1000 100 10000 3.1 50 09:22 15.08.2019
3668 Clouds 13 1000 100 10000 4.1 50 08:38 15.08.2019
3669 Clouds 13 1000 100 10000 3.1 50 08:20 15.08.2019
3670 Rain 13 1000 100 3000 2.6 40 07:54 15.08.2019
3671 Rain 13 1000 100 3000 2.6 40 07:36 15.08.2019
3672 Fog 13 1000 100 400 2.6 50 07:18 15.08.2019
3673 Fog 13 1000 100 400 3.1 40 06:40 15.08.2019
3674 Fog 13 1000 100 400 3.1 40 06:40 15.08.2019
3675 Fog 13 1000 100 250 2.6 60 06:21 15.08.2019
3676 Fog 13 1000 100 600 2.1 50 05:29 15.08.2019
3677 Fog 13 1000 100 450 2.6 70 04:56 15.08.2019
3678 Fog 13 1001 100 550 2.1 70 03:51 15.08.2019
3679 Rain 13 1001 100 6000 1.5 80 02:53 15.08.2019
3680 Rain 13 1001 100 6000 1 100 02:24 15.08.2019
3681 Fog 13 1001 100 550 1.5 110 01:39 15.08.2019
3682 Fog 13 1001 100 450 2.1 110 00:54 15.08.2019
3683 Fog 13 1001 100 450 2.1 110 00:36 15.08.2019
3684 Fog 13 1001 100 350 1.5 120 00:18 15.08.2019
3685 Clouds 13 1001 100 10000 1.5 120 23:41 14.08.2019
3686 Clouds 13 1001 100 10000 1.5 120 23:20 14.08.2019
3687 Fog 13 1001 100 4100 1.5 140 22:59 14.08.2019
3688 Fog 13 1001 100 4100 1.5 140 22:40 14.08.2019
3689 Fog 13 1001 100 650 1.5 130 22:22 14.08.2019
3690 Clouds 13 1001 100 6000 0.5 0 21:57 14.08.2019
3691 Clouds 13 1001 100 6000 0.5 0 21:38 14.08.2019
3692 Clear 14 1001 93 10000 1 120 21:20 14.08.2019
3693 Mist 14 1001 100 4000 1.5 170 20:54 14.08.2019
3694 Mist 14 1001 100 4000 1.5 170 20:54 14.08.2019
3695 Mist 14 1001 100 4000 1.5 170 20:36 14.08.2019
3696 Clear 14 1001 100 10000 1 0 20:18 14.08.2019
3697 Rain 15 1001 93 8000 0.5 0 19:40 14.08.2019
3698 Rain 15 1001 93 8000 0.5 0 19:22 14.08.2019
3699 Rain 15 1001 93 7000 1.5 340 18:57 14.08.2019
3700 Rain 15 1001 93 7000 1.5 340 18:57 14.08.2019
3701 Rain 15 1001 93 7000 1.5 340 18:39 14.08.2019
3702 Rain 15 1001 93 7000 1.5 340 18:39 14.08.2019
3703 Rain 16 1001 82 10000 2.1 270 18:20 14.08.2019
3704 Rain 16 1001 82 10000 2.1 270 18:20 14.08.2019
3705 Clouds 16 1001 82 10000 2.6 240 17:58 14.08.2019
3706 Clouds 16 1001 82 10000 2.6 240 17:37 14.08.2019
3707 Clouds 16 1001 82 10000 2.1 260 17:19 14.08.2019
3708 Clear 17 1001 82 10000 3.1 230 16:55 14.08.2019
3709 Clouds 16 1001 82 10000 2.6 210 16:36 14.08.2019
3710 Clouds 16 1001 82 10000 2.6 210 16:18 14.08.2019
3711 Clouds 16 1001 87 10000 1.5 0 15:42 14.08.2019
3712 Clouds 15 1001 87 10000 1 0 15:18 14.08.2019
3713 Rain 16 1001 82 10000 2.1 80 14:54 14.08.2019
3714 Rain 16 1001 82 10000 2.1 80 14:36 14.08.2019
3715 Rain 16 1001 77 10000 1 0 14:18 14.08.2019
3716 Rain 15 1001 87 10000 2.1 150 13:43 14.08.2019
3717 Clouds 15 1001 87 10000 1.5 0 13:23 14.08.2019
3718 Rain 15 1001 87 10000 1.5 80 12:56 14.08.2019
3719 Rain 15 1001 87 10000 1.5 80 12:38 14.08.2019
3720 Clouds 16 1001 82 10000 2.1 110 12:20 14.08.2019
3721 Clouds 15 1002 93 10000 1 0 11:47 14.08.2019
3722 Clouds 15 1001 93 10000 1.5 0 11:23 14.08.2019
3723 Clouds 15 1002 93 10000 1.5 0 10:59 14.08.2019
3724 Clouds 15 1002 93 10000 1.5 0 10:39 14.08.2019
3725 Clouds 15 1002 93 10000 1.5 0 10:39 14.08.2019
3726 Clouds 14 1002 100 10000 2.1 90 10:21 14.08.2019
3727 Clouds 14 1002 93 10000 2.1 80 09:45 14.08.2019
3728 Clouds 13 1002 100 10000 2.6 60 09:22 14.08.2019
3729 Clouds 13 1002 100 6000 2.6 70 08:49 14.08.2019
3730 Fog 13 1002 100 2000 2.6 70 08:30 14.08.2019
3731 Fog 13 1002 100 100 2.1 50 07:57 14.08.2019
3732 Fog 13 1002 100 100 2.1 50 07:39 14.08.2019
3733 Fog 13 1002 100 100 2.1 80 07:20 14.08.2019
3734 Fog 13 1002 100 100 2.1 60 06:43 14.08.2019
3735 Fog 13 1002 100 100 1 80 05:47 14.08.2019
3736 Fog 13 1002 100 100 1.5 80 04:45 14.08.2019
3737 Fog 13 1002 100 800 1.5 130 02:52 14.08.2019
3738 Clouds 13 1002 100 7000 2.1 130 02:25 14.08.2019
3739 Clouds 13 1002 100 8000 2.1 120 01:34 14.08.2019
3740 Clear 13 1003 100 10000 2.6 110 00:48 14.08.2019
3741 Clouds 13 1003 100 6000 2.1 110 23:47 13.08.2019
3742 Fog 14 1003 93 250 1.5 110 23:21 13.08.2019
3743 Fog 14 1003 100 1800 1.5 110 22:57 13.08.2019
3744 Fog 14 1003 100 1800 1.5 110 22:39 13.08.2019
3745 Mist 14 1003 100 3000 1.5 110 22:20 13.08.2019
3746 Clear 15 1003 93 10000 1 110 21:56 13.08.2019
3747 Clear 15 1003 93 10000 1 110 21:36 13.08.2019
3748 Clear 15 1003 100 10000 1.5 90 21:18 13.08.2019
3749 Clouds 15 1003 93 10000 1 0 20:44 13.08.2019
3750 Clouds 16 1003 87 10000 1 140 20:20 13.08.2019
3751 Clear 16 1003 87 10000 1.5 130 19:57 13.08.2019
3752 Clear 16 1003 87 10000 1.5 130 19:39 13.08.2019
3753 Clear 16 1003 87 10000 1.5 110 19:20 13.08.2019
3754 Clear 16 1003 87 10000 1.5 0 18:42 13.08.2019
3755 Clouds 16 1003 93 10000 1.5 0 18:22 13.08.2019
3756 Clear 16 1003 87 10000 1 70 17:57 13.08.2019
3757 Clear 16 1003 87 10000 1 70 17:39 13.08.2019
3758 Clear 16 1003 82 10000 2.1 70 17:19 13.08.2019
3759 -273 0 0 0 0 0 16:55 13.08.2019
3760 Rain 15 1003 87 10000 2.1 80 16:55 13.08.2019
3761 Rain 15 1003 87 10000 2.1 80 16:37 13.08.2019
3762 Rain 16 1003 87 10000 2.1 70 16:18 13.08.2019
3763 Clouds 17 1003 77 10000 2.1 80 15:38 13.08.2019
3764 Clouds 17 1004 77 10000 2.6 170 15:20 13.08.2019
3765 Clouds 17 1004 82 10000 1 0 14:55 13.08.2019
3766 Clouds 17 1004 82 10000 1 0 14:37 13.08.2019
3767 Clouds 16 1004 87 10000 1.5 0 14:18 13.08.2019
3768 Clouds 16 1004 87 10000 2.6 100 13:41 13.08.2019
3769 Clouds 16 1004 87 10000 2.6 80 13:21 13.08.2019
3770 Clouds 16 1004 93 10000 2.1 160 12:57 13.08.2019
3771 Clouds 16 1004 93 10000 2.1 160 12:39 13.08.2019
3772 Clouds 15 1004 100 10000 2.6 120 12:21 13.08.2019
3773 Clouds 15 1005 93 10000 2.1 120 11:43 13.08.2019
3774 Clouds 14 1005 100 10000 1.5 0 11:23 13.08.2019
3775 Clouds 14 1005 100 10000 1 0 10:58 13.08.2019
3776 Clouds 14 1005 100 10000 1 0 10:38 13.08.2019
3777 Clouds 14 1005 100 10000 1.5 0 10:20 13.08.2019
3778 Rain 14 1005 100 1500 2.6 110 09:56 13.08.2019
3779 Rain 14 1005 100 1500 2.6 110 09:38 13.08.2019
3780 Rain 14 1005 100 6000 1.5 90 09:20 13.08.2019
3781 Rain 14 1005 100 2500 1.5 0 08:41 13.08.2019
3782 Rain 14 1005 100 2000 1.5 0 08:21 13.08.2019
3783 Drizzle 13 1005 100 400 1 0 07:47 13.08.2019
3784 Fog 13 1005 100 200 1 0 07:28 13.08.2019
3785 Fog 13 1005 100 150 1.5 0 06:44 13.08.2019
3786 Fog 13 1005 100 100 2.6 110 05:59 13.08.2019
3787 Fog 13 1005 100 100 2.6 110 05:32 13.08.2019
3788 Fog 13 1005 100 500 2.1 140 02:22 13.08.2019
3789 Fog 13 1006 100 450 2.1 150 01:41 13.08.2019
3790 Fog 13 1006 100 500 2.6 160 00:52 13.08.2019
3791 Fog 13 1006 100 600 2.6 150 00:22 13.08.2019
3792 Rain 13 1006 100 5000 3.1 150 23:44 12.08.2019
3793 Rain 13 1006 100 7000 3.1 150 23:21 12.08.2019
3794 Mist 13 1006 100 3700 2.6 150 22:55 12.08.2019
3795 Mist 13 1006 100 3700 2.6 150 22:37 12.08.2019
3796 Mist 13 1006 100 4700 2.6 150 22:18 12.08.2019
3797 Mist 13 1006 100 3200 3.1 140 21:54 12.08.2019
3798 Mist 13 1006 100 3200 3.1 140 21:54 12.08.2019
3799 Mist 13 1006 100 3200 3.1 140 21:36 12.08.2019
3800 Drizzle 13 1006 100 9000 3.1 140 21:18 12.08.2019
3801 Rain 13 1006 100 7000 2.6 130 20:41 12.08.2019
3802 Rain 13 1006 100 4500 3.1 130 20:21 12.08.2019
3803 Mist 13 1006 100 4900 3.1 130 19:58 12.08.2019
3804 Mist 13 1006 100 4900 3.1 130 19:39 12.08.2019
3805 Rain 13 1006 100 4200 2.6 110 19:21 12.08.2019
3806 Rain 13 1006 100 4400 2.1 100 18:59 12.08.2019
3807 Rain 13 1006 100 4400 2.1 100 18:39 12.08.2019
3808 Rain 13 1006 93 6000 2.1 100 18:20 12.08.2019
3809 Rain 13 1006 93 6000 2.1 110 17:56 12.08.2019
3810 Rain 13 1006 93 6000 2.1 110 17:38 12.08.2019
3811 Rain 13 1006 93 6000 2.1 140 17:20 12.08.2019
3812 Mist 13 1007 93 2400 3.1 140 16:41 12.08.2019
3813 Mist 13 1007 93 3300 2.6 140 16:20 12.08.2019
3814 Mist 12 1007 100 4800 3.1 140 15:59 12.08.2019
3815 Mist 12 1007 100 4800 3.1 140 15:41 12.08.2019
3816 Mist 12 1007 100 4800 3.1 140 15:40 12.08.2019
3817 Mist 12 1007 100 4800 3.1 140 15:40 12.08.2019
3818 Rain 12 1007 100 5000 3.1 130 15:21 12.08.2019
3819 Rain 12 1007 100 6000 3.6 140 14:55 12.08.2019
3820 Rain 12 1007 100 6000 3.6 140 14:37 12.08.2019
3821 Drizzle 12 1007 100 5000 3.1 130 14:18 12.08.2019
3822 Rain 12 1007 100 5000 3.1 130 13:42 12.08.2019
3823 Rain 12 1007 100 3000 4.1 130 13:23 12.08.2019
3824 Rain 12 1007 100 2500 2.6 120 12:44 12.08.2019
3825 Rain 12 1008 93 7000 3.6 130 12:23 12.08.2019
3826 Clouds 12 1008 87 10000 3.6 160 11:58 12.08.2019
3827 Clouds 12 1008 87 10000 3.6 160 11:39 12.08.2019
3828 Clouds 13 1008 82 10000 3.1 140 11:21 12.08.2019
3829 Clouds 13 1008 82 10000 4.1 140 10:42 12.08.2019
3830 Clouds 13 1008 82 10000 3.6 150 10:23 12.08.2019
3831 Clouds 14 1008 76 10000 4.6 130 09:56 12.08.2019
3832 Clouds 14 1008 76 10000 4.6 130 09:37 12.08.2019
3833 Clouds 14 1008 76 10000 4.6 140 09:19 12.08.2019
3834 Clouds 14 1007 71 10000 4.6 140 08:42 12.08.2019
3835 Clouds 14 1008 71 10000 3.1 140 08:24 12.08.2019
3836 Clouds 13 1008 76 10000 3.6 130 08:00 12.08.2019
3837 Clouds 13 1008 76 10000 3.6 130 07:41 12.08.2019
3838 Clear 13 1008 76 10000 3.1 130 07:20 12.08.2019
3839 Clear 12 1008 81 10000 3.1 120 06:44 12.08.2019
3840 Clouds 12 1009 81 10000 2.1 130 04:40 12.08.2019
3841 Clouds 13 1009 76 10000 2.6 150 02:44 12.08.2019
3842 Clear 14 1009 76 10000 3.1 150 01:52 12.08.2019
3843 Clear 14 1009 76 10000 3.1 150 01:20 12.08.2019
3844 Clear 14 1009 76 10000 3.1 140 00:56 12.08.2019
3845 Clear 14 1009 76 10000 3.1 140 00:38 12.08.2019
3846 Clear 14 1009 82 10000 2.6 140 00:18 12.08.2019
3847 Clear 14 1009 82 10000 2.6 140 00:18 12.08.2019
3848 Clouds 14 1009 82 10000 3.1 150 23:41 11.08.2019
3849 Rain 15 1009 82 10000 1.5 0 23:20 11.08.2019
3850 Rain 15 1009 82 10000 1.5 90 22:58 11.08.2019
3851 Rain 15 1009 82 10000 1.5 90 22:39 11.08.2019
3852 Rain 14 1009 93 10000 1.5 0 22:19 11.08.2019
3853 Rain 14 1009 93 5000 3.1 270 21:58 11.08.2019
3854 Rain 14 1009 93 5000 3.1 270 21:39 11.08.2019
3855 Rain 15 1010 87 10000 2.6 250 21:19 11.08.2019
3856 Rain 16 1009 82 10000 2.1 180 20:45 11.08.2019
3857 Clouds 18 1009 63 10000 3.1 160 20:23 11.08.2019
3858 Clear 18 1009 63 10000 3.1 150 19:57 11.08.2019
3859 Clear 18 1009 63 10000 3.1 150 19:39 11.08.2019
3860 Clouds 18 1009 68 10000 3.1 140 19:18 11.08.2019
3861 Clouds 18 1009 68 10000 3.1 140 19:18 11.08.2019
3862 Clear 19 1009 63 10000 3.1 160 18:40 11.08.2019
3863 Clear 19 1009 59 10000 5.1 160 18:20 11.08.2019
3864 Clouds 19 1009 59 10000 5.1 160 17:56 11.08.2019
3865 Clouds 19 1009 59 10000 5.1 160 17:38 11.08.2019
3866 Clouds 20 1009 56 10000 4.1 150 17:19 11.08.2019
3867 Clouds 20 1009 52 10000 3.6 160 16:55 11.08.2019
3868 Clouds 20 1009 52 10000 3.6 160 16:37 11.08.2019
3869 Clouds 20 1009 52 10000 4.1 140 16:18 11.08.2019
3870 Clouds 20 1009 52 10000 4.1 170 15:42 11.08.2019
3871 Clouds 20 1010 52 10000 4.1 150 15:22 11.08.2019
3872 Clouds 20 1010 52 10000 4.1 150 14:56 11.08.2019
3873 Clouds 20 1010 52 10000 4.1 150 14:37 11.08.2019
3874 Clear 20 1010 52 10000 4.1 160 14:19 11.08.2019
3875 Clear 19 1010 52 10000 4.6 120 13:43 11.08.2019
3876 Clouds 19 1010 52 10000 5.1 160 13:24 11.08.2019
3877 Clear 19 1010 52 10000 4.1 140 12:46 11.08.2019
3878 Clear 18 1011 52 10000 5.1 150 12:22 11.08.2019
3879 Clear 17 1011 55 10000 4.1 140 11:42 11.08.2019
3880 Clear 16 1011 59 10000 4.1 130 11:23 11.08.2019
3881 Clear 16 1011 59 10000 4.1 150 10:59 11.08.2019
3882 Clear 16 1011 59 10000 4.1 150 10:40 11.08.2019
3883 Clear 15 1011 62 10000 4.6 120 10:21 11.08.2019
3884 Clear 15 1011 62 10000 3.6 140 09:56 11.08.2019
3885 Clear 15 1011 62 10000 3.6 140 09:37 11.08.2019
3886 Clear 14 1011 67 10000 3.6 120 09:19 11.08.2019
3887 Clear 14 1011 67 10000 3.6 120 09:19 11.08.2019
3888 Clear 14 1012 67 10000 3.6 150 08:43 11.08.2019
3889 Clear 12 1012 71 10000 3.6 130 08:25 11.08.2019
3890 Clear 12 1012 71 10000 3.6 130 07:49 11.08.2019
3891 Clear 11 1012 76 10000 2.6 130 07:21 11.08.2019
3892 Clear 10 1012 76 10000 2.6 130 06:39 11.08.2019
3893 Clear 9 1012 81 10000 2.1 120 05:34 11.08.2019
3894 Clear 8 1013 87 10000 3.1 100 03:36 11.08.2019
3895 Clear 8 1013 87 10000 3.1 120 02:45 11.08.2019
3896 Clear 10 1014 76 10000 3.1 130 01:36 11.08.2019
3897 Clear 10 1014 76 10000 3.1 120 00:59 11.08.2019
3898 Clear 10 1014 76 10000 3.1 120 00:40 11.08.2019
3899 Clear 10 1014 76 10000 2.6 130 00:22 11.08.2019
3900 Clear 11 1014 76 10000 3.1 140 23:39 10.08.2019
3901 Clear 12 1014 66 10000 2.6 120 23:20 10.08.2019
3902 Clear 12 1014 66 10000 2.6 140 22:43 10.08.2019
3903 Clear 13 1014 62 10000 2.1 140 22:24 10.08.2019
3904 Clear 13 1014 62 10000 2.1 140 21:57 10.08.2019
3905 Clear 13 1014 62 10000 2.1 140 21:36 10.08.2019
3906 Clear 14 1014 58 10000 2.6 150 21:18 10.08.2019
3907 Clear 14 1014 58 10000 2.6 150 20:42 10.08.2019
3908 Clear 15 1013 54 10000 2.1 160 20:21 10.08.2019
3909 Clear 16 1014 48 10000 2.6 160 19:57 10.08.2019
3910 Clear 16 1014 48 10000 2.6 160 19:37 10.08.2019
3911 Clear 16 1014 48 10000 2.6 140 19:19 10.08.2019
3912 Clear 17 1013 45 10000 2.6 140 18:39 10.08.2019
3913 Clear 17 1013 45 10000 2.6 140 18:39 10.08.2019
3914 Clear 17 1013 42 10000 3.6 140 18:21 10.08.2019
3915 Clear 17 1014 42 10000 3.1 160 17:44 10.08.2019
3916 Clear 17 1014 45 10000 2.6 150 17:24 10.08.2019
3917 Clear 17 1014 45 10000 2.6 140 16:47 10.08.2019
3918 Clouds 17 1014 45 10000 3.6 150 16:28 10.08.2019
3919 Clear 17 1014 45 10000 3.1 160 15:54 10.08.2019
3920 Clear 17 1014 42 10000 4.1 140 15:25 10.08.2019
3921 Clouds 17 1014 42 10000 3.6 150 14:45 10.08.2019
3922 Clear 17 1014 42 10000 3.1 140 14:22 10.08.2019
3923 Clear 17 1014 42 10000 3.6 110 13:55 10.08.2019
3924 Clear 17 1014 42 10000 3.6 110 13:37 10.08.2019
3925 Clear 17 1014 45 10000 3.1 160 13:18 10.08.2019
3926 Clear 16 1014 44 10000 3.6 130 12:41 10.08.2019
3927 Clear 16 1014 44 10000 3.6 110 12:21 10.08.2019
3928 Clear 16 1015 44 10000 3.1 120 11:54 10.08.2019
3929 Clear 16 1015 44 10000 3.1 120 11:36 10.08.2019
3930 Clear 16 1015 44 10000 3.1 120 11:36 10.08.2019
3931 Clear 15 1015 41 10000 2.6 180 11:18 10.08.2019
3932 Clear 15 1015 47 10000 2.6 140 10:38 10.08.2019
3933 Clear 14 1015 50 10000 3.1 140 10:20 10.08.2019
3934 Clear 14 1015 54 10000 3.1 160 09:43 10.08.2019
3935 Clear 14 1015 58 10000 2.6 150 09:24 10.08.2019
3936 Clear 12 1015 66 10000 1 0 08:56 10.08.2019
3937 Clear 12 1015 66 10000 1 0 08:38 10.08.2019
3938 Clear 11 1014 71 10000 1.5 0 08:18 10.08.2019
3939 Clear 11 1014 71 10000 2.1 130 07:46 10.08.2019
3940 Clear 10 1014 71 10000 2.6 120 07:24 10.08.2019
3941 Clear 10 1014 66 10000 2.1 100 06:47 10.08.2019
3942 Clear 7 1014 81 10000 2.6 50 05:52 10.08.2019
3943 Clear 7 1014 81 10000 2.1 80 05:20 10.08.2019
3944 Clear 7 1014 81 10000 2.1 80 03:54 10.08.2019
3945 Clear 7 1014 81 10000 2.6 90 02:50 10.08.2019
3946 Clear 8 1014 75 10000 2.1 90 01:56 10.08.2019
3947 Clear 8 1014 75 10000 2.1 90 01:36 10.08.2019
3948 Clear 9 1014 70 10000 1 90 01:18 10.08.2019
3949 Clear 9 1013 76 10000 2.1 90 00:41 10.08.2019
3950 Clear 9 1013 76 10000 2.1 90 00:19 10.08.2019
3951 Clear 10 1013 71 10000 2.1 90 23:39 09.08.2019
3952 Clear 10 1013 71 10000 2.1 80 23:21 09.08.2019
3953 Clear 10 1013 71 10000 2.1 70 22:55 09.08.2019
3954 Clear 10 1013 71 10000 2.1 70 22:37 09.08.2019
3955 Clear 10 1012 71 10000 2.1 70 22:18 09.08.2019
3956 Clear 11 1012 66 10000 2.1 70 21:40 09.08.2019
3957 Clear 11 1012 66 10000 2.1 60 21:21 09.08.2019
3958 Clear 12 1012 62 10000 2.1 40 20:57 09.08.2019
3959 Clear 12 1012 62 10000 2.1 40 20:39 09.08.2019
3960 Clear 13 1012 58 10000 2.6 50 20:18 09.08.2019
3961 Clear 13 1012 58 10000 2.1 50 19:43 09.08.2019
3962 Clear 14 1012 54 10000 2.1 70 19:23 09.08.2019
3963 Clear 14 1012 54 10000 3.1 80 18:58 09.08.2019
3964 Clear 14 1012 54 10000 3.1 80 18:38 09.08.2019
3965 Clear 14 1011 54 10000 2.6 50 18:19 09.08.2019
3966 Clear 14 1011 54 10000 3.1 60 17:43 09.08.2019
3967 Clear 14 1011 54 10000 3.1 60 17:43 09.08.2019
3968 Clouds 14 1011 54 10000 3.1 40 17:24 09.08.2019
3969 -273 0 0 0 0 0 16:55 09.08.2019
3970 Clouds 14 1011 54 10000 2.1 110 16:36 09.08.2019
3971 Clouds 14 1011 54 10000 2.6 100 16:18 09.08.2019
3972 Clouds 14 1011 54 10000 2.6 100 16:18 09.08.2019
3973 Clear 14 1011 54 10000 2.1 50 15:41 09.08.2019
3974 Clear 13 1011 58 10000 3.1 30 15:21 09.08.2019
3975 Clouds 14 1011 58 10000 4.1 30 14:58 09.08.2019
3976 Clouds 14 1011 58 10000 4.1 30 14:38 09.08.2019
3977 Clouds 14 1011 54 10000 3.6 50 14:20 09.08.2019
3978 Clouds 14 1011 62 10000 3.6 30 13:45 09.08.2019
3979 Clouds 13 1011 58 10000 2.6 30 13:21 09.08.2019
3980 Clouds 13 1011 62 10000 3.6 10 12:56 09.08.2019
3981 Clouds 13 1011 62 10000 3.6 10 12:37 09.08.2019
3982 Clouds 13 1011 58 10000 3.1 60 12:18 09.08.2019
3983 Clouds 12 1011 62 10000 3.6 50 11:41 09.08.2019
3984 Clouds 12 1011 66 10000 3.1 60 11:20 09.08.2019
3985 Clouds 12 1010 66 10000 3.6 30 10:42 09.08.2019
3986 Clouds 12 1010 71 10000 3.6 10 10:22 09.08.2019
3987 Clouds 11 1010 76 10000 3.6 30 09:59 09.08.2019
3988 Clouds 11 1010 76 10000 3.6 30 09:38 09.08.2019
3989 Clear 10 1010 87 10000 3.1 40 09:19 09.08.2019
3990 Rain 9 1010 87 10000 4.1 30 08:44 09.08.2019
3991 Rain 9 1010 93 10000 3.6 50 08:25 09.08.2019
3992 Clouds 9 1010 81 10000 3.6 40 07:56 09.08.2019
3993 -273 0 0 0 0 0 07:56 09.08.2019
3994 Clouds 9 1010 81 10000 3.6 40 07:37 09.08.2019
3995 Clouds 8 1010 87 10000 3.6 40 07:19 09.08.2019
3996 Clouds 8 1010 87 10000 3.6 50 06:38 09.08.2019
3997 Clear 8 1010 87 10000 3.6 50 06:20 09.08.2019
3998 Clear 7 1009 93 10000 4.1 50 04:57 09.08.2019
3999 Clear 9 1009 87 10000 3.6 50 02:26 09.08.2019
4000 Clear 9 1008 87 10000 3.6 40 01:21 09.08.2019
4001 Clear 9 1008 87 10000 3.1 40 00:41 09.08.2019
4002 Clear 9 1008 81 10000 2.6 50 00:22 09.08.2019
4003 Clear 9 1008 81 10000 3.6 60 23:55 08.08.2019
4004 Clear 10 1008 76 10000 3.6 60 23:36 08.08.2019
4005 Clear 10 1008 76 10000 3.6 60 23:18 08.08.2019
4006 Clear 10 1008 76 10000 4.1 50 22:37 08.08.2019
4007 Clear 11 1008 71 10000 3.6 50 22:19 08.08.2019
4008 Clear 10 1008 71 10000 3.6 50 21:59 08.08.2019
4009 Clear 10 1008 71 10000 3.6 50 21:59 08.08.2019
4010 Clear 10 1008 71 10000 3.6 50 21:41 08.08.2019
4011 Clear 11 1008 66 10000 3.6 40 21:22 08.08.2019
4012 Clear 13 1007 58 10000 4.1 30 20:56 08.08.2019
4013 Clear 13 1007 58 10000 4.1 30 20:38 08.08.2019
4014 Clear 13 1007 54 10000 3.1 40 20:19 08.08.2019
4015 Clear 14 1007 54 10000 4.1 40 19:44 08.08.2019
4016 Clouds 14 1007 54 10000 4.6 30 19:24 08.08.2019
4017 Clouds 14 1007 54 10000 3.1 50 18:44 08.08.2019
4018 Clouds 14 1007 50 10000 2.6 60 18:24 08.08.2019
4019 Clouds 14 1007 50 10000 3.1 360 17:58 08.08.2019
4020 Clouds 14 1007 50 10000 3.1 360 17:40 08.08.2019
4021 Clouds 15 1007 47 10000 1.5 0 17:22 08.08.2019
4022 Clear 15 1007 47 10000 2.6 360 16:55 08.08.2019
4023 Clear 15 1007 47 10000 2.6 360 16:37 08.08.2019
4024 Clouds 15 1007 51 10000 3.6 360 16:18 08.08.2019
4025 Clear 15 1007 47 10000 1 0 15:41 08.08.2019
4026 Clear 15 1007 51 10000 2.1 320 15:23 08.08.2019
4027 Clouds 15 1007 51 10000 3.1 310 14:55 08.08.2019
4028 Clouds 15 1007 51 10000 3.1 310 14:36 08.08.2019
4029 Clouds 14 1007 54 10000 2.1 310 14:18 08.08.2019
4030 Clouds 14 1007 54 10000 2.1 220 13:39 08.08.2019
4031 Clouds 14 1007 54 10000 2.1 220 13:20 08.08.2019
4032 Clouds 13 1007 66 10000 1.5 0 12:40 08.08.2019
4033 Clouds 14 1007 54 10000 1 0 12:21 08.08.2019
4034 Clouds 13 1007 62 10000 1.5 0 11:58 08.08.2019
4035 Clouds 13 1007 62 10000 1.5 0 11:39 08.08.2019
4036 Clouds 13 1007 58 10000 1 0 11:20 08.08.2019
4037 Clouds 13 1007 66 10000 2.6 60 10:41 08.08.2019
4038 Clouds 13 1007 66 10000 2.1 80 10:21 08.08.2019
4039 Clouds 12 1007 71 10000 2.6 50 09:49 08.08.2019
4040 Clouds 11 1007 76 10000 2.1 50 09:30 08.08.2019
4041 Clouds 11 1007 76 10000 2.6 50 08:57 08.08.2019
4042 Clouds 11 1007 76 10000 2.6 50 08:38 08.08.2019
4043 Clouds 10 1007 81 10000 2.1 40 08:19 08.08.2019
4044 Clouds 10 1007 81 10000 2.6 40 07:40 08.08.2019
4045 Clouds 9 1007 87 10000 2.1 20 07:20 08.08.2019
4046 Clouds 9 1007 87 10000 2.1 50 06:47 08.08.2019
4047 Clouds 9 1007 87 10000 2.1 40 06:26 08.08.2019
4048 Clouds 9 1007 87 10000 1.5 30 05:52 08.08.2019
4049 Rain 9 1007 87 10000 2.6 40 04:54 08.08.2019
4050 Rain 9 1007 87 10000 2.6 50 03:52 08.08.2019
4051 Rain 9 1007 87 10000 2.1 50 02:21 08.08.2019
4052 Clouds 9 1007 87 10000 1 360 01:35 08.08.2019
4053 Clouds 10 1007 81 10000 2.6 60 00:26 08.08.2019
4054 Clouds 10 1007 81 10000 2.6 60 23:46 07.08.2019
4055 Clouds 10 1007 81 10000 2.1 60 23:19 07.08.2019
4056 Clouds 10 1007 81 10000 2.6 40 22:56 07.08.2019
4057 Clouds 10 1007 81 10000 2.6 40 22:38 07.08.2019
4058 Rain 10 1007 81 10000 2.1 20 22:19 07.08.2019
4059 Clouds 11 1007 76 10000 2.6 360 21:55 07.08.2019
4060 Clouds 11 1007 76 10000 2.6 360 21:36 07.08.2019
4061 Clear 11 1007 76 10000 1.5 360 21:18 07.08.2019
4062 Clear 11 1007 71 10000 2.6 10 20:42 07.08.2019
4063 Clear 11 1007 76 10000 1.5 340 20:23 07.08.2019
4064 Clear 11 1007 71 10000 1.5 300 19:57 07.08.2019
4065 Clear 11 1007 71 10000 1.5 300 19:38 07.08.2019
4066 Clear 12 1007 66 10000 2.1 300 19:20 07.08.2019
4067 Clear 12 1007 62 10000 1.5 320 18:43 07.08.2019
4068 Clear 12 1007 66 10000 1.5 300 18:21 07.08.2019
4069 Clear 12 1007 66 10000 1.5 0 17:58 07.08.2019
4070 Clear 12 1007 66 10000 1.5 0 17:39 07.08.2019
4071 Clouds 12 1007 66 10000 2.6 340 17:21 07.08.2019
4072 Clear 12 1007 66 10000 1.5 0 16:57 07.08.2019
4073 Clear 12 1007 66 10000 1.5 0 16:57 07.08.2019
4074 Clear 12 1007 66 10000 1.5 0 16:39 07.08.2019
4075 Clear 13 1007 58 10000 1.5 0 16:20 07.08.2019
4076 Clear 13 1007 58 10000 1.5 0 16:20 07.08.2019
4077 -273 0 0 0 0 0 15:56 07.08.2019
4078 Clouds 12 1007 62 10000 2.1 240 15:37 07.08.2019
4079 Clouds 12 1007 62 10000 1 0 15:19 07.08.2019
4080 Clouds 11 1007 66 10000 2.1 300 14:45 07.08.2019
4081 Clouds 12 1007 62 10000 1.5 0 14:26 07.08.2019
4082 Clouds 12 1007 62 10000 1.5 0 13:45 07.08.2019
4083 Clouds 12 1007 66 10000 1 0 13:19 07.08.2019
4084 Clouds 12 1007 66 10000 1 0 13:19 07.08.2019
4085 Clouds 11 1007 71 10000 2.1 290 12:58 07.08.2019
4086 Clouds 11 1007 71 10000 2.1 290 12:58 07.08.2019
4087 Clouds 11 1007 71 10000 2.1 290 12:39 07.08.2019
4088 Clouds 11 1007 71 10000 1.5 0 12:20 07.08.2019
4089 Clouds 11 1007 71 10000 1 0 11:59 07.08.2019
4090 Clouds 11 1007 71 10000 1 0 11:40 07.08.2019
4091 Clouds 11 1007 66 10000 2.1 360 11:19 07.08.2019
4092 Clouds 11 1006 71 10000 0.5 0 10:42 07.08.2019
4093 Clouds 10 1006 76 10000 1 0 10:20 07.08.2019
4094 Clouds 10 1006 71 10000 1 0 09:59 07.08.2019
4095 Clouds 10 1006 71 10000 1 0 09:41 07.08.2019
4096 Clouds 10 1006 76 10000 0.5 0 09:21 07.08.2019
4097 Clouds 9 1006 81 10000 1 0 08:45 07.08.2019
4098 Clouds 9 1006 81 10000 1 0 08:45 07.08.2019
4099 Clouds 9 1006 81 10000 1 0 08:26 07.08.2019
4100 Clouds 9 1006 87 10000 1 30 07:52 07.08.2019
4101 Clouds 9 1006 87 10000 1 30 07:33 07.08.2019
4102 Clouds 8 1006 87 10000 1.5 310 06:50 07.08.2019
4103 Clouds 8 1006 87 10000 1.5 300 06:27 07.08.2019
4104 Clouds 8 1006 87 10000 1 340 05:43 07.08.2019
4105 Clouds 8 1006 87 10000 1 340 04:46 07.08.2019
4106 Clouds 8 1006 87 10000 2.1 350 03:21 07.08.2019
4107 Clouds 8 1006 87 10000 1.5 340 02:43 07.08.2019
4108 Clouds 8 1006 87 10000 1 340 01:58 07.08.2019
4109 Clouds 8 1006 87 10000 1 0 01:24 07.08.2019
4110 Clouds 8 1006 87 10000 1 0 00:38 07.08.2019
4111 Clouds 8 1006 87 10000 0.5 0 00:19 07.08.2019
4112 Clouds 8 1006 81 10000 0.5 0 23:40 06.08.2019
4113 Clouds 8 1006 81 10000 1.5 0 23:20 06.08.2019
4114 Clouds 9 1006 76 10000 3.1 20 22:42 06.08.2019
4115 Clouds 9 1006 76 10000 2.6 20 22:22 06.08.2019
4116 Clouds 9 1006 76 10000 2.6 10 21:57 06.08.2019
4117 Clouds 9 1006 76 10000 2.6 10 21:39 06.08.2019
4118 Clouds 9 1006 76 10000 2.6 350 21:19 06.08.2019
4119 Clouds 9 1006 76 10000 2.6 350 21:19 06.08.2019
4120 Clouds 9 1006 76 10000 2.6 350 21:19 06.08.2019
4121 Clouds 9 1006 76 10000 2.6 350 21:19 06.08.2019
4122 Clouds 10 1006 71 10000 1 340 20:46 06.08.2019
4123 Clear 10 1006 71 10000 1 0 20:28 06.08.2019
4124 Clear 10 1006 71 10000 2.1 340 19:57 06.08.2019
4125 Clear 10 1006 71 10000 2.1 340 19:38 06.08.2019
4126 Clouds 10 1006 71 10000 2.6 350 19:19 06.08.2019
4127 Clouds 10 1006 71 10000 2.6 350 18:43 06.08.2019
4128 Clouds 10 1006 66 10000 3.6 350 18:25 06.08.2019
4129 Clouds 11 1006 66 10000 3.6 340 17:58 06.08.2019
4130 Clouds 11 1006 66 10000 3.6 340 17:38 06.08.2019
4131 Clouds 11 1007 62 10000 3.6 350 17:19 06.08.2019
4132 Clouds 11 1007 66 10000 2.6 340 16:48 06.08.2019
4133 Clouds 11 1007 66 10000 3.1 330 16:25 06.08.2019
4134 Clouds 11 1007 66 10000 3.1 340 15:59 06.08.2019
4135 Clouds 11 1007 66 10000 3.1 340 15:41 06.08.2019
4136 Clouds 11 1007 66 10000 2.6 360 15:22 06.08.2019
4137 Clouds 10 1007 71 10000 2.1 320 14:59 06.08.2019
4138 Clouds 10 1007 71 10000 2.1 320 14:38 06.08.2019
4139 Clouds 10 1007 66 10000 1.5 0 14:20 06.08.2019
4140 Clouds 10 1007 71 10000 2.1 20 13:55 06.08.2019
4141 Clouds 10 1007 71 10000 2.1 20 13:36 06.08.2019
4142 Clouds 9 1007 76 10000 2.1 300 13:18 06.08.2019
4143 Clouds 8 1007 75 10000 3.1 310 12:40 06.08.2019
4144 Clouds 9 1007 70 10000 3.1 310 12:22 06.08.2019
4145 Clouds 8 1007 81 10000 3.1 340 11:46 06.08.2019
4146 Clouds 8 1007 81 10000 2.1 340 11:21 06.08.2019
4147 Clouds 8 1007 75 10000 3.6 340 10:59 06.08.2019
4148 Clouds 8 1007 75 10000 3.6 340 10:39 06.08.2019
4149 Clouds 8 1007 75 10000 2.6 340 10:21 06.08.2019
4150 Clouds 8 1007 81 10000 3.1 360 09:43 06.08.2019
4151 Clouds 8 1007 81 10000 3.1 350 09:22 06.08.2019
4152 Clouds 8 1007 81 10000 3.1 20 08:51 06.08.2019
4153 Clouds 8 1007 81 10000 2.6 360 08:29 06.08.2019
4154 Clouds 8 1007 87 10000 3.6 360 07:59 06.08.2019
4155 Clouds 7 1007 93 10000 3.6 360 07:30 06.08.2019
4156 Clouds 7 1007 87 10000 2.6 320 06:45 06.08.2019
4157 Clouds 6 1007 93 10000 2.6 320 06:23 06.08.2019
4158 Clouds 6 1007 93 10000 3.6 360 05:31 06.08.2019
4159 Clouds 7 1007 87 10000 3.1 350 02:48 06.08.2019
4160 Clouds 7 1006 81 10000 2.6 10 01:25 06.08.2019
4161 Clouds 8 1006 75 10000 3.1 20 00:51 06.08.2019
4162 Clouds 8 1006 75 10000 3.1 30 23:59 05.08.2019
4163 Clouds 8 1006 75 10000 1.5 40 23:20 05.08.2019
4164 Clouds 8 1006 75 10000 1.5 60 22:42 05.08.2019
4165 Clear 9 1006 70 10000 2.6 70 22:23 05.08.2019
4166 Clear 9 1006 70 10000 1 60 21:59 05.08.2019
4167 Clear 9 1006 70 10000 1 60 21:41 05.08.2019
4168 Clear 9 1006 70 10000 1.5 0 21:20 05.08.2019
4169 Clear 10 1006 66 10000 2.6 60 20:57 05.08.2019
4170 Clear 10 1006 66 10000 2.6 60 20:38 05.08.2019
4171 Clouds 11 1006 62 10000 3.1 50 20:20 05.08.2019
4172 Clouds 12 1006 58 10000 4.1 50 19:43 05.08.2019
4173 Clouds 12 1006 58 10000 3.1 70 19:25 05.08.2019
4174 Clear 13 1006 54 10000 3.1 350 18:59 05.08.2019
4175 Clear 13 1006 54 10000 3.1 350 18:40 05.08.2019
4176 Clear 12 1006 58 10000 3.1 10 18:19 05.08.2019
4177 Clear 12 1006 58 10000 3.1 10 18:19 05.08.2019
4178 Clouds 12 1006 54 10000 3.1 30 17:46 05.08.2019
4179 Clouds 11 1006 62 10000 4.1 30 17:27 05.08.2019
4180 Clouds 11 1007 62 10000 5.7 30 16:47 05.08.2019
4181 Clouds 11 1006 57 10000 4.6 360 16:26 05.08.2019
4182 Clouds 11 1007 57 10000 6.2 10 15:56 05.08.2019
4183 Clouds 11 1007 57 10000 6.2 10 15:38 05.08.2019
4184 Clouds 10 1007 61 10000 5.7 360 15:19 05.08.2019
4185 Clouds 10 1007 61 10000 4.6 360 14:39 05.08.2019
4186 Clouds 9 1007 66 10000 5.1 360 14:19 05.08.2019
4187 Clouds 8 1007 65 10000 6.7 20 13:44 05.08.2019
4188 Clouds 9 1007 66 10000 6.2 20 13:22 05.08.2019
4189 Clouds 9 1007 66 10000 6.2 20 13:22 05.08.2019
4190 Clouds 8 1007 65 10000 6.2 10 12:48 05.08.2019
4191 Clouds 8 1007 65 10000 6.2 360 12:20 05.08.2019
4192 Clouds 8 1007 70 10000 5.1 350 11:47 05.08.2019
4193 Clouds 7 1007 70 10000 6.7 10 11:28 05.08.2019
4194 Clouds 7 1007 70 10000 6.2 10 10:59 05.08.2019
4195 Clouds 7 1007 70 10000 6.2 10 10:41 05.08.2019
4196 Clouds 6 1007 75 10000 6.2 10 10:21 05.08.2019
4197 Clouds 6 1007 75 10000 6.2 10 09:43 05.08.2019
4198 Clouds 5 1007 80 10000 6.2 360 09:24 05.08.2019
4199 Clouds 5 1007 86 10000 6.2 10 08:50 05.08.2019
4200 Clouds 5 1007 80 10000 5.1 360 08:28 05.08.2019
4201 Clouds 5 1007 80 10000 6.2 360 07:55 05.08.2019
4202 Clouds 5 1007 80 10000 6.2 20 07:32 05.08.2019
4203 Clouds 5 1007 80 10000 6.2 10 06:59 05.08.2019
4204 Clouds 5 1007 80 10000 6.7 10 06:29 05.08.2019
4205 Clouds 5 1007 80 10000 4.6 10 05:46 05.08.2019
4206 Clouds 4 1007 86 10000 4.6 360 05:18 05.08.2019
4207 Clear 4 1007 86 10000 4.6 360 03:58 05.08.2019
4208 Clear 4 1007 86 10000 4.6 360 03:20 05.08.2019
4209 Clear 5 1008 80 10000 4.6 10 02:34 05.08.2019
4210 Clear 5 1008 80 10000 4.6 10 01:32 05.08.2019
4211 Clear 6 1008 75 10000 4.1 20 00:41 05.08.2019
4212 Clear 7 1008 70 10000 4.1 10 00:21 05.08.2019
4213 Clear 7 1008 75 10000 3.6 360 23:55 04.08.2019
4214 Clear 7 1008 75 10000 3.6 360 23:36 04.08.2019
4215 Clear 8 1008 70 10000 4.1 20 23:18 04.08.2019
4216 Clear 8 1008 65 10000 4.1 10 22:54 04.08.2019
4217 Clear 8 1008 65 10000 4.1 10 22:36 04.08.2019
4218 Clear 9 1007 61 10000 4.1 10 22:18 04.08.2019
4219 Clear 10 1008 57 10000 5.7 30 21:41 04.08.2019
4220 Clear 10 1008 57 10000 5.7 30 21:41 04.08.2019
4221 Clear 11 1008 53 10000 6.7 20 21:20 04.08.2019
4222 Clear 11 1008 57 10000 6.2 20 20:43 04.08.2019
4223 Clear 12 1008 54 10000 5.1 30 20:19 04.08.2019
4224 Clear 12 1008 54 10000 6.2 30 19:56 04.08.2019
4225 Clear 12 1008 54 10000 6.2 30 19:37 04.08.2019
4226 Clear 13 1008 50 10000 6.7 40 19:18 04.08.2019
4227 Clear 15 1008 41 10000 5.1 40 18:42 04.08.2019
4228 Clear 15 1008 41 10000 5.7 30 18:20 04.08.2019
4229 Clear 16 1008 38 10000 6.2 360 17:44 04.08.2019
4230 Clear 16 1008 38 10000 6.7 10 17:24 04.08.2019
4231 Clear 17 1008 36 10000 6.2 10 16:46 04.08.2019
4232 Clear 17 1008 36 10000 5.7 330 16:28 04.08.2019
4233 Clear 17 1008 36 10000 7.2 350 15:58 04.08.2019
4234 Clear 17 1008 36 10000 7.2 350 15:38 04.08.2019
4235 Clear 17 1009 39 10000 6.7 350 15:19 04.08.2019
4236 Clear 17 1009 36 10000 6.2 340 14:43 04.08.2019
4237 Clear 16 1009 36 10000 7.2 340 14:25 04.08.2019
4238 Clear 15 1009 38 10000 6.2 350 13:46 04.08.2019
4239 Clear 15 1010 41 10000 8.2 360 13:27 04.08.2019
4240 Clouds 14 1010 44 10000 7.2 340 12:57 04.08.2019
4241 Clouds 14 1010 44 10000 7.2 340 12:39 04.08.2019
4242 Clouds 14 1010 44 10000 6.2 340 12:21 04.08.2019
4243 Clouds 13 1011 47 10000 7.2 30 11:46 04.08.2019
4244 Clear 13 1011 47 10000 7.2 340 11:23 04.08.2019
4245 Clear 12 1011 54 10000 5.7 340 10:48 04.08.2019
4246 Clear 11 1012 57 10000 5.7 350 10:22 04.08.2019
4247 Clear 11 1012 62 10000 5.1 340 09:46 04.08.2019
4248 Clear 10 1012 61 10000 5.7 350 09:26 04.08.2019
4249 Clear 10 1012 61 10000 5.7 350 09:26 04.08.2019
4250 Clear 9 1013 66 10000 4.6 350 08:58 04.08.2019
4251 Clear 8 1013 70 10000 4.1 10 08:34 04.08.2019
4252 Clear 7 1013 75 10000 3.6 340 07:55 04.08.2019
4253 Clear 6 1013 81 10000 3.1 360 07:28 04.08.2019
4254 Clear 5 1013 86 10000 3.6 360 06:42 04.08.2019
4255 Clear 5 1014 86 10000 3.6 350 06:19 04.08.2019
4256 Clear 4 1014 93 10000 0.5 0 03:37 04.08.2019
4257 Clouds 5 1014 86 10000 4.1 340 01:52 04.08.2019
4258 Clear 6 1014 81 10000 3.6 340 01:32 04.08.2019
4259 Clouds 6 1014 81 10000 3.1 340 00:42 04.08.2019
4260 Clouds 7 1014 75 10000 3.1 340 00:23 04.08.2019
4261 Clouds 7 1014 70 10000 3.1 10 23:42 03.08.2019
4262 Clouds 7 1014 70 10000 3.1 10 23:19 03.08.2019
4263 Clear 7 1015 70 10000 3.1 20 22:59 03.08.2019
4264 Clear 7 1015 70 10000 3.1 20 22:39 03.08.2019
4265 Clear 8 1015 65 10000 3.6 20 22:19 03.08.2019
4266 Clear 8 1015 65 10000 3.6 40 21:39 03.08.2019
4267 Clear 9 1015 66 10000 5.1 30 21:20 03.08.2019
4268 Clear 9 1015 66 10000 5.1 30 20:45 03.08.2019
4269 Clouds 10 1015 57 10000 4.6 20 20:24 03.08.2019
4270 Clouds 11 1015 53 10000 5.1 360 19:43 03.08.2019
4271 Clouds 11 1015 53 10000 4.1 10 19:25 03.08.2019
4272 Clouds 11 1015 53 10000 5.1 20 18:57 03.08.2019
4273 Clouds 12 1015 54 10000 4.6 360 18:28 03.08.2019
4274 Clouds 12 1015 50 10000 4.6 20 17:51 03.08.2019
4275 Clouds 11 1015 53 10000 4.6 30 17:23 03.08.2019
4276 Clouds 11 1015 53 10000 3.6 30 16:58 03.08.2019
4277 Clouds 11 1015 53 10000 3.6 30 16:38 03.08.2019
4278 Clouds 11 1015 53 10000 4.1 30 16:19 03.08.2019
4279 Clouds 11 1015 53 10000 3.6 20 15:45 03.08.2019
4280 Clouds 11 1015 53 10000 3.6 20 15:45 03.08.2019
4281 Clouds 10 1015 57 10000 5.1 30 15:24 03.08.2019
4282 Clouds 11 1015 53 10000 5.7 30 14:44 03.08.2019
4283 Clouds 10 1016 57 10000 4.6 20 14:23 03.08.2019
4284 Clouds 11 1016 53 10000 5.7 30 13:53 03.08.2019
4285 Clouds 10 1016 57 10000 5.1 10 13:26 03.08.2019
4286 Clouds 9 1016 61 10000 4.1 30 12:59 03.08.2019
4287 Clouds 9 1016 61 10000 4.1 30 12:40 03.08.2019
4288 Clouds 9 1016 61 10000 4.1 30 12:40 03.08.2019
4289 Clouds 10 1016 57 10000 4.6 10 12:21 03.08.2019
4290 Clouds 9 1016 57 10000 4.6 20 11:49 03.08.2019
4291 Clouds 9 1016 61 10000 4.6 20 11:28 03.08.2019
4292 Clouds 8 1016 65 10000 5.1 20 10:42 03.08.2019
4293 Clouds 8 1016 65 10000 5.1 10 10:24 03.08.2019
4294 Clouds 8 1016 65 10000 5.1 30 09:44 03.08.2019
4295 Clouds 8 1016 70 10000 4.6 360 09:23 03.08.2019
4296 Clouds 8 1016 70 10000 5.7 30 08:54 03.08.2019
4297 Clouds 8 1016 70 10000 5.1 30 07:56 03.08.2019
4298 Clouds 8 1016 70 10000 5.1 40 07:36 03.08.2019
4299 Clouds 8 1016 70 10000 5.1 40 07:36 03.08.2019
4300 Clouds 8 1016 75 10000 4.1 30 06:39 03.08.2019
4301 Clouds 7 1016 81 10000 3.6 20 04:56 03.08.2019
4302 Clouds 8 1016 75 10000 4.1 30 02:40 03.08.2019
4303 Clouds 8 1016 75 10000 4.1 20 01:50 03.08.2019
4304 Clouds 8 1016 75 10000 4.1 20 01:50 03.08.2019
4305 Clouds 8 1016 70 10000 3.1 360 00:49 03.08.2019
4306 Clouds 8 1016 70 10000 3.6 360 23:59 02.08.2019
4307 Clouds 8 1016 70 10000 3.6 360 23:40 02.08.2019
4308 Clouds 8 1016 70 10000 4.1 360 23:19 02.08.2019
4309 Clouds 7 1016 75 10000 3.6 360 22:57 02.08.2019
4310 Clouds 7 1016 75 10000 3.6 360 22:38 02.08.2019
4311 Clouds 7 1016 75 10000 3.6 360 22:19 02.08.2019
4312 Clouds 8 1017 65 10000 3.1 360 21:43 02.08.2019
4313 Clear 8 1017 70 10000 3.1 10 21:24 02.08.2019
4314 Clear 9 1016 61 10000 4.1 360 20:57 02.08.2019
4315 Clear 9 1016 61 10000 4.1 360 20:39 02.08.2019
4316 Clouds 9 1016 61 10000 5.7 20 20:20 02.08.2019
4317 Clouds 10 1016 57 10000 5.1 40 19:45 02.08.2019
4318 Clouds 10 1016 57 10000 5.7 20 19:25 02.08.2019
4319 Clouds 10 1017 57 10000 5.7 40 18:44 02.08.2019
4320 Clouds 11 1016 53 10000 5.1 30 18:25 02.08.2019
4321 Clouds 11 1017 53 10000 4.6 20 17:48 02.08.2019
4322 Clouds 11 1017 57 10000 5.7 10 17:25 02.08.2019
4323 Clouds 11 1017 53 10000 4.1 360 16:58 02.08.2019
4324 Clouds 11 1017 53 10000 4.1 360 16:38 02.08.2019
4325 Clouds 11 1017 57 10000 4.6 10 16:18 02.08.2019
4326 Clouds 11 1017 53 10000 3.6 50 15:39 02.08.2019
4327 Clouds 11 1017 57 10000 5.1 360 15:19 02.08.2019
4328 Clouds 10 1017 61 10000 5.7 20 14:45 02.08.2019
4329 Clouds 11 1017 57 10000 4.6 30 14:18 02.08.2019
4330 Clouds 10 1017 61 10000 6.2 40 13:48 02.08.2019
4331 Clouds 10 1017 61 10000 6.2 10 13:25 02.08.2019
4332 Clouds 10 1017 61 10000 6.2 30 12:45 02.08.2019
4333 Clouds 8 1017 75 10000 6.7 30 12:21 02.08.2019
4334 Clouds 8 1017 70 10000 6.2 10 11:51 02.08.2019
4335 Clouds 8 1017 70 10000 6.2 20 11:32 02.08.2019
4336 Clouds 8 1017 70 10000 6.7 360 10:55 02.08.2019
4337 Clouds 8 1017 70 10000 6.7 360 10:37 02.08.2019
4338 Clouds 8 1017 70 10000 6.7 40 10:19 02.08.2019
4339 Clouds 7 1017 75 10000 5.7 20 09:52 02.08.2019
4340 Clouds 7 1017 81 10000 5.7 30 09:25 02.08.2019
4341 Rain 7 1017 87 10000 5.1 20 08:47 02.08.2019
4342 Rain 7 1016 87 10000 5.7 20 08:21 02.08.2019
4343 Rain 8 1016 75 10000 7.2 30 07:49 02.08.2019
4344 Rain 8 1016 75 10000 7.2 20 07:31 02.08.2019
4345 Clouds 8 1016 75 10000 5.7 10 06:46 02.08.2019
4346 Clouds 8 1016 81 10000 5.7 20 05:52 02.08.2019
4347 Clouds 8 1016 81 10000 5.7 20 05:52 02.08.2019
4348 Clouds 8 1016 81 10000 5.7 10 05:21 02.08.2019
4349 Clouds 9 1016 70 10000 5.7 30 03:27 02.08.2019
4350 Clouds 9 1016 76 10000 6.7 20 02:33 02.08.2019
4351 Clouds 10 1015 76 10000 3.1 340 00:38 02.08.2019
4352 Clouds 11 1015 66 10000 6.7 30 23:46 01.08.2019
4353 Clouds 11 1015 66 10000 4.6 10 23:28 01.08.2019
4354 Clouds 11 1014 71 10000 4.6 10 22:58 01.08.2019
4355 Clouds 11 1014 71 10000 4.6 10 22:38 01.08.2019
4356 Clouds 12 1014 66 10000 3.1 10 22:19 01.08.2019
4357 Clouds 12 1014 66 10000 3.6 20 21:43 01.08.2019
4358 Clouds 12 1014 66 10000 3.6 40 21:23 01.08.2019
4359 Clouds 12 1014 66 10000 5.1 30 20:48 01.08.2019
4360 Clear 13 1014 62 10000 3.6 40 20:24 01.08.2019
4361 Clear 13 1014 62 10000 3.1 70 20:00 01.08.2019
4362 Clear 13 1014 62 10000 3.1 70 19:59 01.08.2019
4363 Clear 13 1014 62 10000 3.1 70 19:38 01.08.2019
4364 Clear 13 1014 62 10000 5.7 60 19:19 01.08.2019
4365 Clear 13 1014 62 10000 4.6 80 18:43 01.08.2019
4366 Clear 14 1014 62 10000 5.1 60 18:24 01.08.2019
4367 Clear 14 1014 58 10000 5.1 50 17:50 01.08.2019
4368 Clouds 15 1014 58 10000 5.7 60 17:31 01.08.2019
4369 Clouds 14 1014 58 10000 4.6 30 16:45 01.08.2019
4370 Clouds 13 1014 62 10000 6.2 50 16:23 01.08.2019
4371 Clouds 14 1014 58 10000 5.7 40 15:56 01.08.2019
4372 Clouds 14 1014 58 10000 5.7 40 15:38 01.08.2019
4373 Clouds 15 1014 58 10000 4.6 360 15:18 01.08.2019
4374 Clouds 14 1014 58 10000 5.1 20 14:42 01.08.2019
4375 Clouds 14 1014 62 10000 4.1 10 14:19 01.08.2019
4376 Clouds 13 1014 66 10000 4.1 350 13:57 01.08.2019
4377 Clouds 13 1014 66 10000 4.1 350 13:39 01.08.2019
4378 Clouds 13 1014 62 10000 4.1 330 13:20 01.08.2019
4379 Clouds 12 1014 71 10000 3.6 350 12:43 01.08.2019
4380 Rain 12 1014 66 10000 3.6 350 12:25 01.08.2019
4381 Clouds 12 1014 66 10000 4.1 350 11:43 01.08.2019
4382 Clouds 12 1014 71 10000 3.6 10 11:24 01.08.2019
4383 Rain 12 1015 66 10000 4.6 10 10:54 01.08.2019
4384 Rain 12 1015 66 10000 4.6 10 10:36 01.08.2019
4385 Rain 12 1015 66 10000 4.6 10 10:36 01.08.2019
4386 Clouds 12 1015 66 10000 4.1 350 10:18 01.08.2019
4387 Clouds 12 1015 71 10000 5.1 340 09:43 01.08.2019
4388 Clouds 12 1015 71 10000 4.1 330 09:23 01.08.2019
4389 Clear 11 1015 71 10000 4.1 330 08:46 01.08.2019
4390 Clear 10 1015 76 10000 3.6 340 08:20 01.08.2019
4391 Clear 10 1015 76 10000 3.6 340 07:50 01.08.2019
4392 Clear 10 1015 71 10000 3.1 330 07:26 01.08.2019
4393 Clear 10 1015 76 10000 4.1 300 06:49 01.08.2019
4394 Clear 10 1015 76 10000 3.1 310 06:27 01.08.2019
4395 Clear 7 1016 81 10000 2.1 240 04:53 01.08.2019
4396 Clear 9 1017 70 10000 2.6 260 02:35 01.08.2019
4397 Clouds 10 1017 71 10000 2.1 250 00:49 01.08.2019
4398 Clear 10 1018 71 10000 1.5 250 00:25 01.08.2019
4399 Clouds 10 1018 71 10000 0.5 210 23:43 31.07.2019
4400 Clouds 10 1018 71 10000 0.5 210 23:43 31.07.2019
4401 Clouds 10 1018 71 10000 0.62 160.653 23:21 31.07.2019
4402 Clear 10 1018 71 10000 1 200 22:58 31.07.2019
4403 Clear 10 1018 71 10000 1 200 22:40 31.07.2019
4404 Clear 10 1018 71 10000 0.62 160.653 22:21 31.07.2019
4405 Clear 11 1018 66 10000 1 80 21:39 31.07.2019
4406 Clear 11 1018 66 10000 1 80 21:39 31.07.2019
4407 Clear 12 1018 62 10000 1.5 0 21:20 31.07.2019
4408 Clear 13 1018 58 10000 2.6 30 20:48 31.07.2019
4409 Clear 13 1018 58 10000 2.1 10 20:22 31.07.2019
4410 Clear 13 1018 54 10000 4.6 30 19:43 31.07.2019
4411 Clear 14 1019 50 10000 5.1 30 19:24 31.07.2019
4412 Clear 14 1019 50 10000 5.1 10 18:55 31.07.2019
4413 Clear 14 1019 50 10000 5.1 10 18:55 31.07.2019
4414 Clear 14 1019 50 10000 5.1 10 18:37 31.07.2019
4415 Clouds 14 1019 50 10000 5.1 20 18:18 31.07.2019
4416 Clear 14 1019 50 10000 6.2 20 17:42 31.07.2019
4417 Clouds 14 1019 50 10000 5.7 10 17:20 31.07.2019
4418 Clouds 14 1019 50 10000 5.1 20 16:46 31.07.2019
4419 Clouds 14 1019 50 10000 4.6 20 16:20 31.07.2019
4420 Clouds 13 1019 54 10000 6.2 20 15:45 31.07.2019
4421 Clouds 13 1019 50 10000 5.7 10 15:26 31.07.2019
4422 Clouds 13 1020 54 10000 6.7 10 14:55 31.07.2019
4423 Clouds 13 1020 54 10000 6.7 10 14:36 31.07.2019
4424 Clouds 13 1020 54 10000 5.1 10 14:18 31.07.2019
4425 Clouds 12 1020 54 10000 7.2 10 13:44 31.07.2019
4426 Clouds 12 1020 54 10000 6.7 360 13:25 31.07.2019
4427 Clouds 11 1020 57 10000 6.7 10 12:56 31.07.2019
4428 Clouds 11 1020 57 10000 6.7 10 12:37 31.07.2019
4429 Clouds 11 1020 57 10000 7.2 20 12:18 31.07.2019
4430 Clouds 10 1020 61 10000 6.2 10 11:38 31.07.2019
4431 Clouds 8 1021 70 10000 7.7 10 11:19 31.07.2019
4432 Clouds 8 1021 65 10000 7.7 20 10:42 31.07.2019
4433 Clouds 8 1021 65 10000 7.2 30 10:20 31.07.2019
4434 Clouds 7 1021 70 10000 8.2 20 09:54 31.07.2019
4435 Clouds 7 1021 70 10000 8.2 20 09:36 31.07.2019
4436 Clouds 7 1021 70 10000 8.7 30 09:18 31.07.2019
4437 Clouds 7 1021 70 10000 9.3 30 08:40 31.07.2019
4438 Clouds 7 1021 70 10000 8.7 30 08:20 31.07.2019
4439 Clouds 7 1021 70 10000 8.7 20 07:35 31.07.2019
4440 Clouds 7 1020 70 10000 8.7 40 06:34 31.07.2019
4441 Clouds 7 1020 65 10000 9.8 30 04:52 31.07.2019
4442 Clouds 7 1020 70 10000 8.7 20 01:48 31.07.2019
4443 Clouds 7 1020 70 10000 5.1 20 23:58 30.07.2019
4444 Clouds 7 1020 70 10000 5.1 20 23:39 30.07.2019
4445 Clear 7 1020 70 10000 7.7 20 23:19 30.07.2019
4446 Clear 8 1020 70 10000 8.7 30 22:45 30.07.2019
4447 Clear 8 1021 65 10000 6.7 30 22:25 30.07.2019
4448 Clear 9 1020 61 10000 8.2 20 21:40 30.07.2019
4449 Clear 10 1020 57 10000 8.7 20 21:20 30.07.2019
4450 Clear 10 1020 57 10000 8.7 20 21:20 30.07.2019
4451 Clear 10 1020 57 10000 8.7 20 20:59 30.07.2019
4452 Clear 10 1020 57 10000 8.7 20 20:41 30.07.2019
4453 Clear 10 1020 57 10000 9.8 20 20:23 30.07.2019
4454 Clouds 11 1020 57 10000 9.8 20 19:56 30.07.2019
4455 Clouds 11 1020 57 10000 9.8 20 19:38 30.07.2019
4456 Clouds 12 1020 54 10000 10.3 20 18:55 30.07.2019
4457 Clouds 12 1020 54 10000 10.3 20 18:37 30.07.2019
4458 Clear 12 1020 58 10000 9.3 10 18:18 30.07.2019
4459 Clouds 12 1019 54 10000 10.8 10 17:41 30.07.2019
4460 Clear 13 1020 50 10000 9.8 20 17:19 30.07.2019
4461 Clear 11 1020 57 10000 9.3 10 16:46 30.07.2019
4462 Clouds 13 1020 50 10000 10.3 10 16:20 30.07.2019
4463 Clouds 13 1020 50 10000 10.3 20 15:44 30.07.2019
4464 Clouds 12 1020 54 10000 9.8 20 15:23 30.07.2019
4465 Clouds 12 1020 54 10000 9.3 360 14:59 30.07.2019
4466 Clouds 12 1020 54 10000 9.3 360 14:40 30.07.2019
4467 Clouds 12 1020 54 10000 10.3 10 14:18 30.07.2019
4468 Clouds 11 1020 57 10000 10.3 10 13:41 30.07.2019
4469 Clouds 10 1020 61 10000 8.7 360 13:23 30.07.2019
4470 Clouds 10 1020 61 10000 10.3 10 12:55 30.07.2019
4471 Clouds 10 1020 61 10000 10.3 10 12:37 30.07.2019
4472 Clouds 10 1020 61 10000 9.8 10 12:18 30.07.2019
4473 Clouds 9 1020 61 10000 10.8 20 11:38 30.07.2019
4474 Clouds 10 1021 61 10000 7.7 360 11:19 30.07.2019
4475 Clouds 8 1021 70 10000 9.8 10 10:42 30.07.2019
4476 Clouds 7 1021 75 10000 9.3 30 10:21 30.07.2019
4477 Clouds 8 1021 70 10000 7.7 360 09:48 30.07.2019
4478 Clouds 8 1021 65 10000 8.7 10 09:30 30.07.2019
4479 Clouds 7 1021 70 10000 9.8 20 08:44 30.07.2019
4480 Clouds 7 1021 70 10000 8.7 10 08:22 30.07.2019
4481 Clouds 7 1021 65 10000 9.8 10 07:46 30.07.2019
4482 Clouds 7 1022 70 10000 8.7 20 07:25 30.07.2019
4483 Clouds 7 1021 75 10000 7.7 20 06:46 30.07.2019
4484 Clouds 7 1021 75 10000 8.2 10 05:52 30.07.2019
4485 Clouds 7 1021 75 10000 7.2 10 05:32 30.07.2019
4486 Clouds 7 1022 75 10000 5.1 10 01:38 30.07.2019
4487 Clouds 8 1021 70 10000 6.2 20 00:40 30.07.2019
4488 Clouds 8 1021 70 10000 7.2 20 00:20 30.07.2019
4489 Clouds 8 1021 70 10000 7.7 20 23:44 29.07.2019
4490 Clouds 9 1021 66 10000 7.2 20 23:25 29.07.2019
4491 Clouds 9 1021 61 10000 7.2 20 22:57 29.07.2019
4492 Clouds 9 1021 61 10000 7.2 20 22:38 29.07.2019
4493 Clouds 9 1021 61 10000 7.2 20 22:38 29.07.2019
4494 Clouds 9 1021 61 10000 7.2 20 22:19 29.07.2019
4495 Clouds 9 1020 61 10000 7.7 20 21:46 29.07.2019
4496 Clouds 9 1020 61 10000 7.7 20 21:46 29.07.2019
4497 Clouds 9 1020 66 10000 7.7 20 21:28 29.07.2019
4498 Clouds 10 1020 61 10000 7.2 20 20:58 29.07.2019
4499 Clouds 10 1020 61 10000 7.2 20 20:40 29.07.2019
4500 Clouds 10 1020 61 10000 7.7 20 20:21 29.07.2019
4501 Clouds 10 1020 57 10000 8.2 20 19:50 29.07.2019
4502 Clouds 11 1020 57 10000 7.7 20 19:24 29.07.2019
4503 Clouds 11 1020 50 10000 7.7 20 18:59 29.07.2019
4504 Clouds 11 1020 50 10000 7.7 20 18:40 29.07.2019
4505 Clouds 11 1019 50 10000 9.3 20 18:20 29.07.2019
4506 Clouds 11 1019 49 10000 8.7 10 17:49 29.07.2019
4507 Clouds 11 1019 50 10000 8.7 30 17:31 29.07.2019
4508 Rain 10 1019 57 10000 8.2 30 16:57 29.07.2019
4509 Rain 10 1019 57 10000 8.2 30 16:37 29.07.2019
4510 Rain 11 1019 53 10000 7.7 20 16:19 29.07.2019
4511 Clouds 12 1019 50 10000 8.7 30 15:47 29.07.2019
4512 Rain 10 1019 57 10000 8.2 30 15:28 29.07.2019
4513 Clouds 11 1019 50 10000 9.3 20 14:43 29.07.2019
4514 Rain 10 1019 53 10000 8.2 30 14:21 29.07.2019
4515 Rain 10 1019 53 10000 8.2 30 14:21 29.07.2019
4516 Clouds 12 1019 46 10000 8.2 30 13:48 29.07.2019
4517 Clouds 11 1019 50 10000 7.2 30 13:24 29.07.2019
4518 Clouds 11 1019 50 10000 9.3 20 12:59 29.07.2019
4519 Clouds 11 1019 50 10000 9.3 20 12:40 29.07.2019
4520 Rain 8 1020 75 10000 8.7 20 12:21 29.07.2019
4521 Rain 10 1019 54 10000 7.7 20 11:42 29.07.2019
4522 Clouds 10 1019 53 10000 7.7 20 11:19 29.07.2019
4523 Rain 8 1020 65 10000 7.2 350 10:44 29.07.2019
4524 Clouds 9 1020 57 10000 8.2 30 10:22 29.07.2019
4525 Clouds 8 1020 65 10000 6.7 10 09:44 29.07.2019
4526 Rain 7 1020 81 10000 7.7 40 09:23 29.07.2019
4527 Clouds 7 1020 81 10000 5.7 20 08:49 29.07.2019
4528 Clouds 7 1020 75 10000 5.7 40 08:27 29.07.2019
4529 Clouds 8 1020 70 10000 6.2 40 07:50 29.07.2019
4530 Clouds 8 1021 65 10000 3.6 40 07:30 29.07.2019
4531 Clouds 8 1021 65 10000 3.6 40 07:30 29.07.2019
4532 Clouds 7 1021 70 10000 7.2 40 06:40 29.07.2019
4533 Clouds 8 1020 70 10000 6.7 30 05:37 29.07.2019
4534 Clouds 9 1020 66 10000 6.7 20 03:57 29.07.2019
4535 Clouds 10 1020 66 10000 6.7 20 01:52 29.07.2019
4536 Clouds 10 1020 66 10000 6.7 20 01:33 29.07.2019
4537 Clear 10 1020 71 10000 4.6 40 00:58 29.07.2019
4538 Clouds 10 1020 71 10000 4.6 40 00:29 29.07.2019
4539 Clouds 12 1019 62 10000 2.1 340 23:43 28.07.2019
4540 Clear 12 1019 58 10000 1.5 330 23:24 28.07.2019
4541 Clear 11 1019 66 10000 1 280 22:44 28.07.2019
4542 Clear 11 1019 66 10000 1 280 22:44 28.07.2019
4543 Clear 11 1020 66 10000 1.5 0 22:26 28.07.2019
4544 Clear 13 1020 58 10000 2.1 40 21:52 28.07.2019
4545 Clear 13 1020 58 10000 3.1 40 21:20 28.07.2019
4546 Clear 14 1020 54 10000 4.1 40 20:57 28.07.2019
4547 Clear 14 1020 54 10000 4.1 40 20:39 28.07.2019
4548 Clear 15 1021 51 10000 4.1 40 20:21 28.07.2019
4549 Clear 15 1021 47 10000 4.6 10 19:40 28.07.2019
4550 Clear 15 1021 47 10000 4.6 20 19:20 28.07.2019
4551 Clear 15 1021 47 10000 4.6 20 19:20 28.07.2019
4552 Clear 15 1021 47 10000 4.6 10 18:46 28.07.2019
4553 Clear 16 1021 48 10000 4.1 360 18:26 28.07.2019
4554 Clear 15 1021 47 10000 5.1 30 17:56 28.07.2019
4555 Clear 15 1021 47 10000 5.1 30 17:37 28.07.2019
4556 Clear 15 1022 47 10000 4.6 10 17:19 28.07.2019
4557 Clear 15 1022 47 10000 4.6 10 17:19 28.07.2019
4558 Clear 15 1022 47 10000 4.6 30 16:41 28.07.2019
4559 Clear 15 1022 47 10000 5.1 10 16:22 28.07.2019
4560 Clear 15 1022 47 10000 5.1 50 15:44 28.07.2019
4561 Clear 15 1023 47 10000 5.1 30 15:25 28.07.2019
4562 Clear 14 1023 50 10000 5.7 30 14:40 28.07.2019
4563 Clear 14 1023 47 10000 5.7 40 14:20 28.07.2019
4564 Clear 14 1023 50 10000 6.2 30 13:56 28.07.2019
4565 Clear 14 1023 50 10000 6.2 30 13:37 28.07.2019
4566 Clouds 13 1024 50 10000 5.7 30 13:19 28.07.2019
4567 Clouds 13 1024 54 10000 6.7 40 12:42 28.07.2019
4568 Clear 13 1024 54 10000 5.7 30 12:23 28.07.2019
4569 Clear 12 1024 54 10000 5.7 10 11:49 28.07.2019
4570 Clear 13 1024 54 10000 6.2 30 11:28 28.07.2019
4571 Clouds 12 1024 54 10000 7.2 30 10:43 28.07.2019
4572 Clear 12 1025 58 10000 5.7 40 10:23 28.07.2019
4573 Clear 11 1025 57 10000 6.2 40 10:00 28.07.2019
4574 Clear 11 1025 57 10000 6.2 40 09:39 28.07.2019
4575 Clear 11 1025 57 10000 7.7 40 09:20 28.07.2019
4576 Clear 11 1025 62 10000 7.7 30 08:41 28.07.2019
4577 Clear 11 1025 62 10000 7.7 30 08:21 28.07.2019
4578 Clear 11 1025 62 10000 7.2 50 07:39 28.07.2019
4579 Clouds 10 1025 71 10000 6.2 20 06:56 28.07.2019
4580 Clouds 10 1024 71 10000 7.2 30 06:28 28.07.2019
4581 Clouds 11 1024 76 10000 6.7 50 05:19 28.07.2019
4582 Clear 12 1023 66 10000 7.7 30 02:25 28.07.2019
4583 Clear 13 1022 71 10000 8.2 30 01:31 28.07.2019
4584 Clear 14 1022 67 10000 9.3 30 00:52 28.07.2019
4585 Clear 15 1022 67 10000 10.3 30 00:25 28.07.2019
4586 Clear 17 1021 59 10000 8.2 20 23:48 27.07.2019
4587 Clear 18 1021 59 10000 8.2 30 23:27 27.07.2019
4588 Clear 20 1020 49 10000 9.8 40 22:43 27.07.2019
4589 Clear 22 1020 49 10000 8.7 40 22:23 27.07.2019
4590 Clear 23 1019 46 10000 6.2 30 21:45 27.07.2019
4591 Clear 24 1019 44 10000 8.7 30 21:23 27.07.2019
4592 Clear 26 1019 41 10000 4.1 10 20:55 27.07.2019
4593 Clear 26 1019 41 10000 5.7 360 20:32 27.07.2019
4594 Clear 27 1019 42 10000 5.1 10 19:59 27.07.2019
4595 Clear 27 1019 42 10000 5.1 10 19:39 27.07.2019
4596 Clear 28 1018 39 10000 4.6 340 19:19 27.07.2019
4597 Clear 28 1019 39 10000 4.6 350 18:46 27.07.2019
4598 Clear 28 1019 39 10000 4.6 350 18:28 27.07.2019
4599 Clear 28 1019 39 10000 4.6 350 17:50 27.07.2019
4600 Clear 28 1019 39 10000 4.6 340 17:31 27.07.2019
4601 Clear 28 1019 39 10000 4.6 360 16:54 27.07.2019
4602 Clear 28 1019 39 10000 4.6 360 16:34 27.07.2019
4603 Clear 28 1020 39 10000 4.1 360 15:56 27.07.2019
4604 Clear 28 1020 39 10000 2.1 340 15:28 27.07.2019
4605 Clear 28 1020 39 10000 3.1 350 14:59 27.07.2019
4606 Clear 28 1020 39 10000 3.1 350 14:41 27.07.2019
4607 Clear 27 1021 47 10000 3.6 10 14:21 27.07.2019
4608 Clear 27 1021 42 10000 3.1 350 13:46 27.07.2019
4609 Clear 27 1021 44 10000 2.6 310 13:22 27.07.2019
4610 Clouds 26 1022 50 10000 2.6 50 12:49 27.07.2019
4611 Clouds 26 1022 50 10000 2.6 60 12:26 27.07.2019
4612 Clear 26 1022 54 10000 1.5 0 11:46 27.07.2019
4613 Clear 25 1022 53 10000 2.6 50 11:25 27.07.2019
4614 Clear 25 1022 53 10000 2.6 30 10:57 27.07.2019
4615 Clear 25 1022 53 10000 2.6 30 10:39 27.07.2019
4616 Clear 24 1023 57 10000 2.6 80 10:19 27.07.2019
4617 Clear 24 1023 60 10000 3.1 70 09:40 27.07.2019
4618 Clear 23 1023 64 10000 3.1 50 09:21 27.07.2019
4619 Clear 22 1023 68 10000 3.1 50 08:47 27.07.2019
4620 Clear 22 1023 68 10000 4.1 60 08:26 27.07.2019
4621 Clear 21 1023 73 10000 4.6 60 07:45 27.07.2019
4622 Clear 21 1023 68 10000 4.6 60 07:23 27.07.2019
4623 Clear 20 1023 72 10000 5.1 60 06:55 27.07.2019
4624 Clear 20 1022 72 10000 5.1 60 06:28 27.07.2019
4625 Clear 20 1022 72 10000 5.1 60 05:42 27.07.2019
4626 Clear 19 1022 72 10000 4.1 60 04:54 27.07.2019
4627 Clear 18 1022 77 10000 4.1 60 03:57 27.07.2019
4628 Clear 19 1022 72 10000 3.6 60 02:44 27.07.2019
4629 Clear 20 1022 68 10000 4.1 60 02:24 27.07.2019
4630 Clear 20 1022 68 10000 4.1 60 01:41 27.07.2019
4631 Clear 21 1022 64 10000 4.1 60 00:51 27.07.2019
4632 Clear 22 1022 56 10000 4.6 40 00:31 27.07.2019
4633 Clear 24 1022 53 10000 3.1 360 23:49 26.07.2019
4634 Clear 22 1021 73 10000 2.1 280 23:26 26.07.2019
4635 Clear 23 1021 69 10000 2.6 250 22:44 26.07.2019
4636 Clear 23 1021 69 10000 4.6 230 22:26 26.07.2019
4637 Clear 24 1021 64 10000 5.1 220 21:52 26.07.2019
4638 Clear 25 1021 61 10000 4.6 230 21:21 26.07.2019
4639 Clear 25 1020 61 10000 4.6 220 20:58 26.07.2019
4640 Clear 25 1020 61 10000 4.6 220 20:39 26.07.2019
4641 Clear 26 1020 57 10000 5.1 210 20:21 26.07.2019
4642 Clear 26 1020 57 10000 5.7 220 19:41 26.07.2019
4643 Clear 26 1020 61 10000 5.7 210 19:22 26.07.2019
4644 Clear 26 1020 65 10000 3.1 230 18:44 26.07.2019
4645 Rain 24 1020 78 10000 4.6 240 18:21 26.07.2019
4646 Clear 27 1020 54 10000 7.2 210 17:57 26.07.2019
4647 Clear 27 1020 54 10000 7.2 210 17:38 26.07.2019
4648 Clear 28 1020 51 10000 7.7 210 17:18 26.07.2019
4649 Clear 29 1020 51 10000 8.2 210 16:55 26.07.2019
4650 Clear 29 1020 51 10000 8.2 210 16:36 26.07.2019
4651 Clear 29 1020 48 10000 7.7 210 16:18 26.07.2019
4652 Clear 29 1020 48 10000 7.7 210 16:18 26.07.2019
4653 Clear 30 1020 45 10000 6.7 210 15:44 26.07.2019
4654 Clear 29 1020 48 10000 6.7 210 15:21 26.07.2019
4655 Clear 30 1021 45 10000 7.2 200 14:46 26.07.2019
4656 Clear 29 1021 48 10000 6.7 210 14:25 26.07.2019
4657 Clear 29 1021 48 10000 7.7 210 13:48 26.07.2019
4658 Clear 28 1021 48 10000 6.7 210 13:29 26.07.2019
4659 Clear 28 1021 51 10000 6.7 210 12:55 26.07.2019
4660 Clear 28 1021 51 10000 6.7 210 12:36 26.07.2019
4661 Clear 27 1021 54 10000 7.7 210 12:18 26.07.2019
4662 Clear 27 1021 54 10000 7.7 220 11:38 26.07.2019
4663 Clear 26 1021 57 10000 6.7 210 11:18 26.07.2019
4664 Clear 25 1021 57 10000 7.2 210 10:46 26.07.2019
4665 Clear 25 1021 57 10000 7.7 210 10:28 26.07.2019
4666 Clear 24 1021 57 10000 7.7 210 09:50 26.07.2019
4667 Clear 24 1021 57 10000 6.7 210 09:31 26.07.2019
4668 Clear 23 1021 64 10000 6.2 210 08:42 26.07.2019
4669 Clear 22 1022 68 10000 5.1 200 08:21 26.07.2019
4670 Clear 21 1022 77 10000 5.1 200 07:52 26.07.2019
4671 Clear 20 1022 77 10000 4.6 210 07:26 26.07.2019
4672 Clear 19 1022 82 10000 4.1 210 06:31 26.07.2019
4673 Clear 17 1022 93 10000 3.6 210 04:31 26.07.2019
4674 Clear 17 1022 93 10000 4.1 210 03:55 26.07.2019
4675 Clear 18 1021 88 10000 4.6 210 01:50 26.07.2019
4676 Clear 19 1021 82 10000 4.6 210 01:26 26.07.2019
4677 Clear 20 1021 77 10000 4.1 220 00:33 26.07.2019
4678 Clear 20 1021 77 10000 4.6 220 23:55 25.07.2019
4679 Clear 21 1021 73 10000 4.1 220 23:23 25.07.2019
4680 Clear 22 1020 73 10000 4.1 220 22:42 25.07.2019
4681 Clear 22 1020 73 10000 4.1 220 22:23 25.07.2019
4682 Clear 23 1020 69 10000 4.1 210 21:57 25.07.2019
4683 Clear 23 1020 69 10000 4.1 210 21:38 25.07.2019
4684 Clear 24 1020 57 10000 2.6 220 21:20 25.07.2019
4685 Clear 25 1020 57 10000 3.1 210 20:41 25.07.2019
4686 Clear 26 1020 50 10000 3.1 200 20:21 25.07.2019
4687 Clear 26 1020 50 10000 3.6 210 19:41 25.07.2019
4688 Clear 26 1020 50 10000 3.6 200 19:23 25.07.2019
4689 Clear 26 1020 50 10000 3.6 210 18:43 25.07.2019
4690 Clear 26 1019 50 10000 3.6 210 18:25 25.07.2019
4691 Clear 27 1019 47 10000 3.1 180 17:51 25.07.2019
4692 Clear 26 1019 50 10000 3.1 200 17:33 25.07.2019
4693 Clear 27 1019 47 10000 3.1 220 16:58 25.07.2019
4694 Clear 27 1019 47 10000 3.1 220 16:40 25.07.2019
4695 Clear 26 1019 50 10000 2.6 200 16:22 25.07.2019
4696 Clear 26 1019 54 10000 2.6 190 15:50 25.07.2019
4697 Clear 26 1019 54 10000 2.6 190 15:50 25.07.2019
4698 Clear 26 1019 54 10000 2.1 180 15:21 25.07.2019
4699 Clear 25 1020 57 10000 2.6 210 14:43 25.07.2019
4700 Clear 25 1019 61 10000 2.1 200 14:23 25.07.2019
4701 Clear 24 1020 60 10000 2.6 190 13:59 25.07.2019
4702 Clear 24 1020 60 10000 2.6 190 13:37 25.07.2019
4703 Clear 23 1020 69 10000 1.5 0 13:19 25.07.2019
4704 Clear 23 1020 69 10000 1.5 0 12:34 25.07.2019
4705 Clear 22 1020 73 10000 1.5 0 11:56 25.07.2019
4706 Clear 22 1020 73 10000 1.5 0 11:38 25.07.2019
4707 Clouds 20 1020 77 10000 2.1 190 11:19 25.07.2019
4708 Clouds 20 1020 82 10000 2.6 190 10:42 25.07.2019
4709 Clouds 18 1020 93 10000 2.6 220 10:23 25.07.2019
4710 Clouds 17 1019 93 10000 2.6 220 09:44 25.07.2019
4711 Clouds 17 1019 93 10000 3.1 220 09:26 25.07.2019
4712 Clouds 16 1019 100 10000 3.1 210 08:47 25.07.2019
4713 Clouds 16 1019 100 9000 3.1 210 08:20 25.07.2019
4714 Fog 16 1019 100 8000 3.1 220 07:37 25.07.2019
4715 Fog 15 1018 100 250 3.1 230 06:45 25.07.2019
4716 Fog 15 1018 100 100 3.6 220 05:53 25.07.2019
4717 Fog 15 1018 100 100 5.1 220 05:31 25.07.2019
4718 Fog 15 1017 100 100 4.1 210 04:39 25.07.2019
4719 Clear 16 1017 93 10000 4.1 220 02:24 25.07.2019
4720 Clear 17 1016 88 10000 5.1 220 01:21 25.07.2019
4721 Clear 18 1016 82 10000 5.7 220 00:23 25.07.2019
4722 Clear 18 1016 82 10000 6.2 220 23:53 24.07.2019
4723 Clear 19 1016 72 10000 5.7 220 23:32 24.07.2019
4724 Clear 20 1016 68 10000 5.1 220 22:58 24.07.2019
4725 Clear 20 1016 68 10000 5.1 220 22:40 24.07.2019
4726 Clear 20 1016 64 10000 4.6 220 22:21 24.07.2019
4727 Clear 21 1015 60 10000 5.1 220 21:43 24.07.2019
4728 Clear 22 1015 56 10000 4.6 220 21:22 24.07.2019
4729 Clear 23 1015 49 10000 4.6 210 20:59 24.07.2019
4730 Clear 23 1015 49 10000 4.6 210 20:39 24.07.2019
4731 Clear 24 1015 47 10000 5.1 220 20:20 24.07.2019
4732 Clear 24 1015 47 10000 4.1 220 19:55 24.07.2019
4733 Clear 24 1015 47 10000 4.1 220 19:36 24.07.2019
4734 Clear 25 1015 44 10000 5.1 220 19:18 24.07.2019
4735 Clear 25 1015 41 10000 5.1 230 18:41 24.07.2019
4736 Clear 25 1015 41 10000 4.6 210 18:23 24.07.2019
4737 Clear 26 1015 39 10000 5.7 220 17:43 24.07.2019
4738 Clear 26 1015 39 10000 5.7 220 17:20 24.07.2019
4739 Clear 26 1015 39 10000 7.2 210 16:42 24.07.2019
4740 Clear 26 1015 41 10000 6.2 210 16:22 24.07.2019
4741 Clear 26 1015 39 10000 6.2 200 15:40 24.07.2019
4742 Clear 26 1015 41 10000 4.6 200 15:21 24.07.2019
4743 Clear 26 1015 41 10000 5.7 200 14:56 24.07.2019
4744 Clear 26 1015 41 10000 5.7 200 14:56 24.07.2019
4745 Clear 26 1015 41 10000 5.7 200 14:38 24.07.2019
4746 Clear 26 1015 41 10000 4.1 230 14:18 24.07.2019
4747 Clear 26 1015 39 10000 3.6 230 13:37 24.07.2019
4748 Clear 26 1015 36 10000 5.7 210 13:18 24.07.2019
4749 Clear 26 1015 36 10000 3.6 200 12:49 24.07.2019
4750 Clear 25 1015 38 10000 4.1 230 12:26 24.07.2019
4751 Clear 25 1015 41 10000 2.6 200 11:39 24.07.2019
4752 Clear 24 1015 44 10000 2.6 200 11:20 24.07.2019
4753 Clear 24 1015 41 10000 2.6 210 10:44 24.07.2019
4754 Clear 24 1015 47 10000 3.1 220 10:25 24.07.2019
4755 Clear 24 1015 44 10000 2.6 220 09:45 24.07.2019
4756 Clear 24 1015 44 10000 2.1 240 09:25 24.07.2019
4757 Clear 23 1015 46 10000 1.5 0 08:57 24.07.2019
4758 Clear 22 1016 49 10000 1.5 0 08:30 24.07.2019
4759 Clear 21 1016 60 10000 1.5 0 07:51 24.07.2019
4760 Clear 21 1016 60 10000 1.5 320 07:24 24.07.2019
4761 Clear 18 1016 68 10000 1.5 300 06:29 24.07.2019
4762 Clear 19 1016 68 10000 2.6 300 05:40 24.07.2019
4763 Clear 18 1016 63 10000 2.1 250 02:45 24.07.2019
4764 Clear 20 1016 52 10000 1 290 01:29 24.07.2019
4765 Clear 20 1016 52 10000 1.5 0 00:57 24.07.2019
4766 Clear 20 1016 52 10000 1.5 0 00:57 24.07.2019
4767 Clear 20 1016 52 10000 1.5 0 00:57 24.07.2019
4768 Clear 20 1016 52 10000 1 0 00:22 24.07.2019
4769 Clear 20 1016 52 10000 1 0 23:42 23.07.2019
4770 Clear 21 1016 49 10000 1.5 0 23:23 23.07.2019
4771 Clear 21 1016 49 10000 1 270 22:40 23.07.2019
4772 Clear 22 1016 49 10000 1.5 250 22:20 23.07.2019
4773 Clear 23 1015 46 10000 2.6 250 21:58 23.07.2019
4774 Clear 23 1015 46 10000 2.6 250 21:40 23.07.2019
4775 Clear 23 1015 46 10000 3.1 250 21:21 23.07.2019
4776 Clear 24 1015 41 10000 2.6 260 20:47 23.07.2019
4777 Clear 25 1015 41 10000 2.6 260 20:21 23.07.2019
4778 Clear 26 1015 39 10000 3.6 240 19:42 23.07.2019
4779 Clear 26 1015 34 10000 3.6 240 19:19 23.07.2019
4780 Clear 26 1015 31 10000 3.1 260 18:48 23.07.2019
4781 Clear 27 1015 30 10000 2.1 230 18:24 23.07.2019
4782 Clear 27 1015 32 10000 3.1 230 17:45 23.07.2019
4783 Clear 27 1015 28 10000 2.6 210 17:25 23.07.2019
4784 Clear 27 1015 30 10000 2.6 180 16:57 23.07.2019
4785 Clear 27 1015 30 10000 2.6 180 16:39 23.07.2019
4786 Clear 27 1015 30 10000 2.6 230 16:18 23.07.2019
4787 Clear 26 1015 31 10000 3.1 180 15:43 23.07.2019
4788 Clear 27 1016 30 10000 1.5 0 15:23 23.07.2019
4789 Clear 26 1016 31 10000 2.1 160 14:39 23.07.2019
4790 Clear 26 1016 34 10000 3.1 200 14:20 23.07.2019
4791 Clear 26 1016 34 10000 1.5 0 13:57 23.07.2019
4792 Clear 26 1016 34 10000 1.5 0 13:38 23.07.2019
4793 Clear 26 1016 31 10000 3.1 120 13:20 23.07.2019
4794 Clear 26 1016 36 10000 3.1 170 12:45 23.07.2019
4795 Clear 26 1016 34 10000 3.1 160 12:25 23.07.2019
4796 Clear 26 1016 36 10000 1.5 0 11:46 23.07.2019
4797 Clear 25 1016 36 10000 2.6 130 11:27 23.07.2019
4798 Clear 25 1016 36 10000 2.6 160 10:54 23.07.2019
4799 Clear 25 1016 36 10000 2.6 160 10:36 23.07.2019
4800 Clear 25 1016 44 10000 2.6 170 10:18 23.07.2019
4801 Clear 24 1016 38 10000 1.5 0 09:40 23.07.2019
4802 Clear 23 1016 46 10000 2.1 150 09:18 23.07.2019
4803 Clear 22 1016 53 10000 2.1 100 08:40 23.07.2019
4804 Clear 21 1016 56 10000 1.5 0 08:19 23.07.2019
4805 Clear 20 1016 56 10000 1.5 0 07:51 23.07.2019
4806 Clear 20 1016 56 10000 1.5 0 07:33 23.07.2019
4807 Clear 18 1016 63 10000 1.5 130 06:38 23.07.2019
4808 Clear 17 1016 63 10000 3.1 120 05:34 23.07.2019
4809 Clear 19 1016 55 10000 2.6 120 01:57 23.07.2019
4810 Clear 19 1016 55 10000 2.1 120 01:20 23.07.2019
4811 Clear 20 1016 52 10000 2.1 150 00:28 23.07.2019
4812 Clear 21 1015 49 10000 2.1 150 23:41 22.07.2019
4813 Clear 22 1015 43 10000 2.1 140 23:21 22.07.2019
4814 Clear 22 1015 46 10000 2.1 100 22:48 22.07.2019
4815 Clear 22 1015 46 10000 2.1 100 22:30 22.07.2019
4816 Clear 23 1015 40 10000 1 90 21:59 22.07.2019
4817 Clear 23 1015 40 10000 1 90 21:41 22.07.2019
4818 Clear 23 1015 43 10000 1 50 21:20 22.07.2019
4819 Clear 24 1015 38 10000 1.5 20 20:47 22.07.2019
4820 Clear 24 1015 38 10000 2.1 350 20:29 22.07.2019
4821 Clear 24 1015 38 10000 2.1 350 20:29 22.07.2019
4822 Clear 24 1015 41 10000 1.5 0 19:44 22.07.2019
4823 Clear 26 1015 29 10000 2.1 130 19:26 22.07.2019
4824 Clear 25 1015 33 10000 2.6 140 18:58 22.07.2019
4825 Clear 25 1015 33 10000 2.6 140 18:39 22.07.2019
4826 Clear 26 1015 29 10000 2.1 190 18:21 22.07.2019
4827 Clear 26 1015 29 10000 3.1 190 17:41 22.07.2019
4828 Clear 27 1015 30 10000 3.1 200 17:23 22.07.2019
4829 Clear 26 1015 29 10000 1.5 0 16:41 22.07.2019
4830 Clear 26 1015 29 10000 2.1 190 16:21 22.07.2019
4831 Clear 26 1015 31 10000 2.6 150 15:58 22.07.2019
4832 Clear 26 1015 31 10000 2.6 150 15:37 22.07.2019
4833 Clear 26 1015 31 10000 2.6 210 15:18 22.07.2019
4834 Clear 26 1016 31 10000 2.6 150 14:42 22.07.2019
4835 Clear 26 1016 31 10000 2.6 180 14:20 22.07.2019
4836 Clear 26 1016 31 10000 2.6 180 14:20 22.07.2019
4837 Clear 26 1016 34 10000 1.5 0 13:45 22.07.2019
4838 Clear 26 1016 34 10000 1.5 0 13:45 22.07.2019
4839 Clear 26 1016 31 10000 3.6 150 13:26 22.07.2019
4840 Clear 25 1016 33 10000 2.1 170 12:44 22.07.2019
4841 Clear 25 1016 36 10000 3.1 160 12:24 22.07.2019
4842 Clear 25 1016 38 10000 2.6 190 11:44 22.07.2019
4843 Clear 24 1016 38 10000 3.1 200 11:20 22.07.2019
4844 Clear 24 1016 44 10000 2.1 180 10:48 22.07.2019
4845 Clear 23 1016 46 10000 2.6 150 10:27 22.07.2019
4846 Clear 22 1016 46 10000 2.6 190 09:44 22.07.2019
4847 Clear 22 1017 46 10000 2.6 190 09:24 22.07.2019
4848 Clear 21 1017 52 10000 2.1 210 08:45 22.07.2019
4849 Clear 20 1017 52 10000 2.1 190 08:25 22.07.2019
4850 Clear 19 1017 59 10000 1.5 0 07:55 22.07.2019
4851 Clear 19 1017 59 10000 1.5 0 07:33 22.07.2019
4852 Clear 17 1017 67 10000 2.1 140 06:51 22.07.2019
4853 Clear 14 1017 82 10000 0.5 0 03:57 22.07.2019
4854 Clear 16 1017 72 10000 1 0 02:24 22.07.2019
4855 Clear 17 1016 67 10000 1.5 140 00:56 22.07.2019
4856 Clear 17 1016 67 10000 1.5 210 00:25 22.07.2019
4857 Clear 17 1016 67 10000 2.6 220 23:55 21.07.2019
4858 Clear 17 1016 67 10000 2.6 220 23:55 21.07.2019
4859 Clear 17 1016 67 10000 2.6 220 23:28 21.07.2019
4860 Clear 18 1016 63 10000 3.6 210 22:42 21.07.2019
4861 Clear 18 1016 63 10000 3.1 220 22:22 21.07.2019
4862 Clear 19 1016 59 10000 3.6 210 21:57 21.07.2019
4863 Clear 19 1016 59 10000 3.6 210 21:37 21.07.2019
4864 Clear 20 1016 52 10000 3.6 230 21:19 21.07.2019
4865 Clear 21 1016 49 10000 5.1 210 20:44 21.07.2019
4866 Clear 21 1016 49 10000 5.1 220 20:25 21.07.2019
4867 Clear 21 1016 49 10000 5.1 220 20:25 21.07.2019
4868 Clear 22 1016 46 10000 4.6 230 19:55 21.07.2019
4869 Clear 22 1016 46 10000 4.6 230 19:36 21.07.2019
4870 Clear 23 1016 43 10000 5.1 220 19:18 21.07.2019
4871 Clear 23 1016 43 10000 5.7 210 18:44 21.07.2019
4872 Clear 23 1016 46 10000 4.6 220 18:24 21.07.2019
4873 Clear 23 1016 46 10000 4.1 230 17:42 21.07.2019
4874 Clear 23 1016 46 10000 5.1 220 17:20 21.07.2019
4875 Clear 23 1016 43 10000 4.6 220 16:45 21.07.2019
4876 Clear 23 1016 43 10000 4.6 190 16:25 21.07.2019
4877 Clear 23 1016 43 10000 4.1 190 15:54 21.07.2019
4878 Clear 23 1016 43 10000 4.1 190 15:36 21.07.2019
4879 Clear 23 1017 40 10000 5.1 190 15:18 21.07.2019
4880 Clear 23 1017 40 10000 5.1 200 14:41 21.07.2019
4881 Clear 22 1017 46 10000 4.6 210 14:20 21.07.2019
4882 Clear 22 1017 46 10000 4.6 190 13:44 21.07.2019
4883 Clear 22 1017 46 10000 4.6 190 13:44 21.07.2019
4884 Clear 22 1017 46 10000 4.1 210 13:25 21.07.2019
4885 Clear 22 1017 43 10000 4.6 210 12:42 21.07.2019
4886 Clear 21 1017 43 10000 4.1 220 12:24 21.07.2019
4887 Clear 21 1017 46 10000 3.1 200 11:47 21.07.2019
4888 Clear 20 1017 42 10000 4.6 220 11:28 21.07.2019
4889 Clear 19 1017 48 10000 4.1 200 10:55 21.07.2019
4890 Clear 19 1017 48 10000 4.1 200 10:37 21.07.2019
4891 Clear 19 1017 48 10000 5.1 220 10:18 21.07.2019
4892 Clear 19 1017 52 10000 5.7 200 09:36 21.07.2019
4893 Clear 18 1017 63 10000 4.6 210 08:52 21.07.2019
4894 Clear 17 1017 67 10000 4.1 190 08:34 21.07.2019
4895 Clear 15 1017 77 10000 3.6 210 07:59 21.07.2019
4896 Clear 14 1017 76 10000 3.6 210 07:32 21.07.2019
4897 Clear 15 1017 72 10000 2.6 200 06:38 21.07.2019
4898 Clear 13 1016 76 10000 3.6 210 04:21 21.07.2019
4899 Clear 14 1016 71 10000 4.6 230 01:57 21.07.2019
4900 Clear 15 1016 67 10000 4.1 230 00:48 21.07.2019
4901 Clear 15 1016 67 10000 4.6 240 00:21 21.07.2019
4902 Clear 15 1016 67 10000 4.6 240 23:48 20.07.2019
4903 Clear 16 1016 63 10000 4.1 230 23:27 20.07.2019
4904 Clear 17 1015 59 10000 4.1 230 22:55 20.07.2019
4905 Clear 17 1015 59 10000 4.1 230 22:37 20.07.2019
4906 Clear 17 1015 59 10000 4.1 230 22:18 20.07.2019
4907 Clear 18 1015 55 10000 3.6 220 21:42 20.07.2019
4908 Clear 19 1015 52 10000 3.1 230 21:24 20.07.2019
4909 Clear 20 1015 49 10000 3.6 230 20:43 20.07.2019
4910 Clear 21 1015 46 10000 3.6 230 20:23 20.07.2019
4911 Clear 21 1015 49 10000 2.6 220 19:49 20.07.2019
4912 Clear 20 1015 49 10000 3.1 230 19:27 20.07.2019
4913 Clear 22 1014 37 10000 2.1 210 18:46 20.07.2019
4914 Clear 22 1014 37 10000 2.1 100 18:26 20.07.2019
4915 Clear 22 1014 40 10000 3.1 70 17:58 20.07.2019
4916 Clear 22 1014 40 10000 3.1 70 17:37 20.07.2019
4917 Clear 22 1014 40 10000 3.1 70 17:37 20.07.2019
4918 Clear 22 1014 37 10000 3.1 60 17:19 20.07.2019
4919 Clear 21 1014 43 10000 3.1 70 16:39 20.07.2019
4920 Clear 21 1014 40 10000 2.6 60 16:21 20.07.2019
4921 Clear 21 1015 43 10000 2.6 40 15:41 20.07.2019
4922 Clear 21 1015 37 10000 1.5 0 15:21 20.07.2019
4923 Clear 22 1015 35 10000 2.1 330 14:49 20.07.2019
4924 Clear 21 1015 40 10000 2.1 50 14:29 20.07.2019
4925 Clear 22 1015 40 10000 2.6 80 13:57 20.07.2019
4926 Clear 22 1015 40 10000 2.6 80 13:37 20.07.2019
4927 Clouds 21 1015 46 10000 2.1 160 13:19 20.07.2019
4928 Clouds 20 1015 49 10000 1.5 0 12:49 20.07.2019
4929 Clear 19 1015 48 10000 2.6 40 12:19 20.07.2019
4930 Clouds 19 1015 52 10000 2.1 120 11:46 20.07.2019
4931 Clear 18 1015 59 10000 2.1 110 11:21 20.07.2019
4932 Clouds 18 1015 59 10000 1.5 0 10:42 20.07.2019
4933 Clear 18 1015 63 10000 2.1 50 10:23 20.07.2019
4934 Clear 17 1015 67 10000 2.1 50 09:51 20.07.2019
4935 Clear 17 1015 67 10000 1.5 0 09:25 20.07.2019
4936 Clear 15 1015 77 10000 3.6 180 08:51 20.07.2019
4937 Clear 15 1015 77 10000 3.1 180 08:24 20.07.2019
4938 Clear 14 1015 82 10000 2.1 130 07:39 20.07.2019
4939 Clear 12 1015 93 10000 1 90 06:46 20.07.2019
4940 Clear 10 1014 100 10000 1 80 05:25 20.07.2019
4941 Fog 10 1014 100 50 2.1 110 04:31 20.07.2019
4942 Clear 11 1014 93 10000 2.1 90 01:55 20.07.2019
4943 Clear 11 1014 93 10000 2.6 80 00:53 20.07.2019
4944 Clear 13 1014 87 10000 2.1 90 00:33 20.07.2019
4945 Clear 13 1014 87 10000 2.1 100 23:59 19.07.2019
4946 Clear 13 1014 87 10000 2.1 100 23:39 19.07.2019
4947 Clear 13 1014 87 10000 2.6 90 23:20 19.07.2019
4948 Clear 14 1014 82 10000 2.6 80 22:41 19.07.2019
4949 Clear 15 1014 82 10000 2.6 100 22:22 19.07.2019
4950 Clear 15 1014 77 10000 2.6 80 21:44 19.07.2019
4951 Clear 15 1013 77 10000 2.6 90 21:26 19.07.2019
4952 Clear 16 1013 72 10000 3.1 70 20:44 19.07.2019
4953 Clear 17 1013 67 10000 4.1 80 20:26 19.07.2019
4954 Clear 17 1013 67 10000 3.1 100 19:45 19.07.2019
4955 Clear 17 1013 67 10000 2.6 90 19:20 19.07.2019
4956 Clear 17 1013 67 10000 2.6 90 19:20 19.07.2019
4957 Clear 17 1013 63 10000 3.1 70 18:42 19.07.2019
4958 Clear 18 1013 55 10000 1.5 0 18:20 19.07.2019
4959 Clear 17 1013 55 10000 2.1 70 17:50 19.07.2019
4960 Clear 18 1013 55 10000 2.1 100 17:27 19.07.2019
4961 Clear 18 1013 55 10000 1.5 0 16:48 19.07.2019
4962 Clear 18 1013 55 10000 1.5 0 16:48 19.07.2019
4963 Clouds 17 1014 63 10000 2.6 60 16:26 19.07.2019
4964 Clouds 17 1014 59 10000 1.5 0 15:50 19.07.2019
4965 Clear 17 1014 59 10000 1.5 0 15:30 19.07.2019
4966 Clouds 17 1014 63 10000 1.5 0 14:56 19.07.2019
4967 Clouds 17 1014 63 10000 1.5 0 14:38 19.07.2019
4968 Clouds 16 1014 63 10000 2.6 40 14:20 19.07.2019
4969 Clouds 17 1014 63 10000 2.1 60 13:43 19.07.2019
4970 Clouds 17 1014 63 10000 2.1 60 13:43 19.07.2019
4971 Clouds 17 1014 63 10000 2.1 60 13:43 19.07.2019
4972 Clouds 17 1014 63 10000 2.1 60 13:43 19.07.2019
4973 Clouds 16 1014 67 10000 2.1 80 13:24 19.07.2019
4974 Clouds 15 1014 77 10000 3.1 40 12:54 19.07.2019
4975 Clouds 15 1014 72 10000 2.6 10 12:30 19.07.2019
4976 Clouds 14 1014 76 10000 3.1 10 11:58 19.07.2019
4977 Clouds 14 1014 76 10000 3.1 10 11:39 19.07.2019
4978 Clouds 14 1014 82 10000 3.1 10 11:18 19.07.2019
4979 Clouds 14 1014 76 10000 2.6 360 10:40 19.07.2019
4980 Clouds 14 1014 76 10000 2.1 300 10:21 19.07.2019
4981 Clouds 14 1014 76 10000 2.1 300 10:21 19.07.2019
4982 Clouds 13 1014 82 10000 2.6 350 09:44 19.07.2019
4983 Clouds 13 1014 87 10000 3.1 320 09:22 19.07.2019
4984 Clouds 13 1014 87 10000 3.1 340 08:57 19.07.2019
4985 Clouds 13 1014 87 10000 3.1 340 08:39 19.07.2019
4986 Clouds 13 1014 87 10000 2.6 20 07:48 19.07.2019
4987 Clouds 12 1014 93 10000 2.6 340 07:26 19.07.2019
4988 Clouds 11 1014 100 10000 2.6 360 05:55 19.07.2019
4989 Clouds 11 1014 100 10000 3.1 10 02:23 19.07.2019
4990 Clouds 11 1014 100 10000 2.6 10 00:59 19.07.2019
4991 Clouds 11 1014 93 10000 3.6 20 00:26 19.07.2019
4992 Clouds 11 1014 100 10000 3.1 350 23:43 18.07.2019
4993 Clouds 11 1015 100 10000 2.1 340 23:23 18.07.2019
4994 Clear 12 1014 93 10000 3.6 30 22:59 18.07.2019
4995 Clear 12 1014 93 10000 3.6 30 22:39 18.07.2019
4996 Clouds 12 1015 93 10000 3.6 20 22:18 18.07.2019
4997 Clouds 12 1015 93 10000 3.1 360 21:41 18.07.2019
4998 Clear 12 1015 93 10000 2.6 10 21:22 18.07.2019
4999 Clear 12 1015 93 10000 2.6 30 20:49 18.07.2019
5000 Clouds 12 1015 93 10000 3.1 60 20:28 18.07.2019
5001 Rain 12 1015 100 10000 4.1 70 19:53 18.07.2019
5002 Rain 13 1015 93 10000 3.1 80 19:31 18.07.2019
5003 Rain 13 1015 93 10000 3.1 70 18:57 18.07.2019
5004 Rain 13 1015 93 10000 3.1 70 18:37 18.07.2019
5005 Rain 13 1015 87 10000 3.1 80 18:19 18.07.2019
5006 Clear 14 1015 82 10000 4.1 90 17:42 18.07.2019
5007 Clouds 14 1015 82 10000 5.1 80 17:23 18.07.2019
5008 Clouds 15 1015 72 10000 4.1 110 16:53 18.07.2019
5009 Clouds 15 1015 72 10000 4.1 90 16:29 18.07.2019
5010 Clouds 16 1015 63 10000 3.6 90 15:58 18.07.2019
5011 Clouds 16 1015 63 10000 3.6 90 15:36 18.07.2019
5012 Clouds 18 1014 55 10000 4.6 100 14:57 18.07.2019
5013 Clouds 18 1014 55 10000 4.6 100 14:38 18.07.2019
5014 Clear 16 1015 59 10000 5.1 100 14:20 18.07.2019
5015 Clouds 17 1015 55 10000 5.7 90 13:43 18.07.2019
5016 Clouds 16 1015 59 10000 2.6 80 13:22 18.07.2019
5017 Clouds 16 1015 55 10000 3.6 40 12:48 18.07.2019
5018 Clouds 16 1015 51 10000 3.1 50 12:21 18.07.2019
5019 Clouds 16 1015 51 10000 3.6 70 11:52 18.07.2019
5020 Clear 16 1015 51 10000 4.1 70 11:33 18.07.2019
5021 Clear 16 1015 51 10000 4.1 70 11:33 18.07.2019
5022 Clouds 15 1015 51 10000 2.1 110 10:53 18.07.2019
5023 Clouds 15 1015 51 10000 2.1 110 10:35 18.07.2019
5024 Clear 14 1015 58 10000 3.1 50 09:47 18.07.2019
5025 Clear 14 1015 58 10000 2.6 50 09:24 18.07.2019
5026 Clear 14 1015 58 10000 2.1 60 08:49 18.07.2019
5027 Clear 13 1015 58 10000 2.1 50 08:20 18.07.2019
5028 Clear 12 1015 66 10000 2.6 60 07:43 18.07.2019
5029 Clear 12 1015 66 10000 2.6 50 07:24 18.07.2019
5030 Clear 10 1015 76 10000 4.1 50 06:37 18.07.2019
5031 Clear 9 1014 76 10000 3.6 70 05:33 18.07.2019
5032 Clear 7 1014 87 10000 4.1 60 03:22 18.07.2019
5033 Clear 8 1014 81 10000 3.6 60 01:52 18.07.2019
5034 Clear 9 1014 81 10000 3.6 70 00:36 18.07.2019
5035 Clear 9 1014 76 10000 3.1 70 23:49 17.07.2019
5036 Clear 10 1013 76 10000 3.1 80 23:20 17.07.2019
5037 Clear 11 1013 71 10000 3.1 70 22:56 17.07.2019
5038 Clear 11 1013 71 10000 3.1 70 22:38 17.07.2019
5039 Clear 11 1013 71 10000 3.1 70 22:18 17.07.2019
5040 Clear 12 1013 66 10000 3.1 70 21:43 17.07.2019
5041 Clear 12 1013 66 10000 3.1 70 21:25 17.07.2019
5042 Clear 13 1013 62 10000 3.1 60 20:58 17.07.2019
5043 Clear 13 1013 62 10000 3.1 60 20:39 17.07.2019
5044 Clear 14 1013 54 10000 3.1 60 20:20 17.07.2019
5045 Clear 14 1013 54 10000 3.1 60 20:20 17.07.2019
5046 Clear 14 1013 54 10000 3.1 60 19:43 17.07.2019
5047 Clear 14 1013 54 10000 3.1 70 19:22 17.07.2019
5048 Clouds 14 1013 54 10000 3.1 70 18:58 17.07.2019
5049 Clear 15 1013 51 10000 2.6 50 18:39 17.07.2019
5050 Clear 15 1013 51 10000 2.6 50 18:20 17.07.2019
5051 Clouds 14 1013 54 10000 3.6 60 17:45 17.07.2019
5052 Clouds 14 1013 54 10000 3.6 60 17:24 17.07.2019
5053 Clouds 15 1013 51 10000 3.6 40 16:43 17.07.2019
5054 Clouds 15 1013 51 10000 3.6 40 16:22 17.07.2019
5055 Clouds 14 1013 54 10000 4.1 50 15:52 17.07.2019
5056 Clouds 14 1013 54 10000 4.1 50 15:32 17.07.2019
5057 Clouds 14 1013 50 10000 2.6 60 14:58 17.07.2019
5058 Clouds 15 1013 51 10000 2.6 80 14:40 17.07.2019
5059 Clouds 15 1013 51 10000 2.6 80 14:21 17.07.2019
5060 Clouds 14 1013 50 10000 3.6 70 13:56 17.07.2019
5061 Clouds 14 1013 54 10000 2.6 60 13:36 17.07.2019
5062 Clouds 14 1013 54 10000 2.6 60 13:18 17.07.2019
5063 Clouds 14 1013 50 10000 2.6 60 12:39 17.07.2019
5064 Clouds 14 1013 50 10000 2.6 60 12:19 17.07.2019
5065 Clouds 13 1013 54 10000 1.5 0 11:41 17.07.2019
5066 Clouds 13 1013 54 10000 3.1 40 11:19 17.07.2019
5067 Clouds 13 1013 54 10000 2.6 80 10:48 17.07.2019
5068 Clouds 13 1013 54 10000 2.6 80 10:24 17.07.2019
5069 Clouds 11 1013 62 10000 2.6 50 09:45 17.07.2019
5070 Clouds 11 1013 62 10000 2.6 50 09:27 17.07.2019
5071 Clouds 11 1013 66 10000 3.1 40 08:45 17.07.2019
5072 Clouds 11 1013 66 10000 3.1 40 08:24 17.07.2019
5073 Clouds 11 1013 66 10000 3.6 40 07:59 17.07.2019
5074 Clear 11 1013 71 10000 3.1 50 07:41 17.07.2019
5075 Clear 11 1013 71 10000 3.1 50 07:21 17.07.2019
5076 Clear 10 1013 71 10000 3.6 50 06:45 17.07.2019
5077 Clear 10 1013 71 10000 3.6 50 06:24 17.07.2019
5078 Clear 9 1013 76 10000 3.1 20 05:38 17.07.2019
5079 Clear 9 1013 76 10000 3.1 30 04:58 17.07.2019
5080 Clear 9 1014 76 10000 2.1 10 03:55 17.07.2019
5081 Clear 10 1014 71 10000 3.6 30 02:43 17.07.2019
5082 Clear 10 1014 66 10000 3.1 30 01:42 17.07.2019
5083 Clear 10 1014 66 10000 3.1 30 01:22 17.07.2019
5084 Clear 10 1014 66 10000 3.6 40 00:42 17.07.2019
5085 Clear 10 1014 66 10000 3.6 40 00:22 17.07.2019
5086 Clear 10 1014 71 10000 2.6 50 23:45 16.07.2019
5087 Clear 10 1014 71 10000 2.6 50 23:24 16.07.2019
5088 Clear 10 1014 71 10000 2.6 50 23:24 16.07.2019
5089 Clear 12 1013 62 10000 3.1 40 22:44 16.07.2019
5090 Clear 12 1013 62 10000 3.1 40 22:26 16.07.2019
5091 Clear 13 1013 58 10000 2.6 30 21:59 16.07.2019
5092 Clear 13 1013 58 10000 2.6 40 21:41 16.07.2019
5093 Clear 13 1013 58 10000 2.6 40 21:20 16.07.2019
5094 Clear 14 1013 50 10000 2.6 40 20:41 16.07.2019
5095 Clear 14 1013 50 10000 2.6 40 20:41 16.07.2019
5096 Clear 14 1013 50 10000 2.6 40 20:41 16.07.2019
5097 Clear 14 1013 50 10000 2.6 40 20:23 16.07.2019
5098 Clear 14 1013 50 10000 2.6 40 19:55 16.07.2019
5099 Clear 14 1013 54 10000 2.6 60 19:33 16.07.2019
5100 Clear 14 1013 54 10000 3.1 60 18:59 16.07.2019
5101 Clear 14 1013 50 10000 4.1 40 18:41 16.07.2019
5102 Clear 14 1013 50 10000 4.1 40 18:21 16.07.2019
5103 Clear 15 1013 51 10000 5.7 30 17:49 16.07.2019
5104 Rain 14 1013 54 10000 5.7 30 17:28 16.07.2019
5105 Clear 15 1013 51 10000 2.1 320 16:51 16.07.2019
5106 Clear 15 1013 44 10000 1.5 0 16:27 16.07.2019
5107 Clear 14 1013 54 10000 2.6 60 15:58 16.07.2019
5108 Clouds 14 1013 58 10000 4.6 50 15:39 16.07.2019
5109 Clouds 15 1013 51 10000 4.1 70 15:20 16.07.2019
5110 Clouds 15 1013 51 10000 4.1 70 14:55 16.07.2019
5111 Clear 15 1013 51 10000 3.6 60 14:37 16.07.2019
5112 Clear 15 1013 51 10000 3.6 60 14:18 16.07.2019
5113 Clear 14 1013 62 10000 4.6 50 13:43 16.07.2019
5114 Clear 14 1013 62 10000 4.6 50 13:18 16.07.2019
5115 Rain 13 1013 71 10000 1.5 0 12:44 16.07.2019
5116 Rain 13 1013 71 10000 1.5 0 12:20 16.07.2019
5117 Rain 13 1013 71 10000 1.5 0 12:20 16.07.2019
5118 Rain 13 1013 71 10000 1.5 0 11:55 16.07.2019
5119 Clouds 12 1013 71 10000 4.1 350 11:36 16.07.2019
5120 Clouds 13 1013 66 10000 4.1 40 11:18 16.07.2019
5121 Clouds 13 1013 66 10000 4.1 40 11:18 16.07.2019
5122 Clear 13 1013 71 10000 2.6 20 10:44 16.07.2019
5123 Clear 13 1013 71 10000 2.6 20 10:20 16.07.2019
5124 Clear 11 1013 76 10000 3.1 60 09:44 16.07.2019
5125 Clear 11 1013 76 10000 3.1 60 09:21 16.07.2019
5126 Clear 12 1013 71 10000 3.1 50 08:49 16.07.2019
5127 Rain 11 1013 76 10000 1.5 60 08:28 16.07.2019
5128 Clouds 11 1014 76 10000 2.6 50 07:58 16.07.2019
5129 Clouds 11 1014 76 10000 2.6 50 07:39 16.07.2019
5130 Clear 11 1014 81 10000 3.1 40 06:59 16.07.2019
5131 Clear 10 1013 81 10000 3.1 40 06:38 16.07.2019
5132 Clear 10 1013 81 10000 3.1 40 05:52 16.07.2019
5133 Clear 10 1013 81 10000 3.6 50 05:30 16.07.2019
5134 Clear 10 1013 81 10000 3.1 50 04:45 16.07.2019
5135 Rain 10 1013 81 10000 3.6 40 03:44 16.07.2019
5136 Clear 10 1012 76 10000 3.1 40 02:46 16.07.2019
5137 Clear 10 1012 76 10000 3.1 40 02:28 16.07.2019
5138 Clear 10 1012 81 10000 3.6 30 01:36 16.07.2019
5139 Clear 10 1012 81 10000 3.6 30 00:27 16.07.2019
5140 Clear 11 1012 76 10000 3.1 60 23:59 15.07.2019
5141 Clear 11 1012 71 10000 3.1 60 23:39 15.07.2019
5142 Clear 11 1012 71 10000 3.1 60 23:39 15.07.2019
5143 Clouds 11 1012 71 10000 3.1 50 23:21 15.07.2019
5144 Clear 12 1012 66 10000 3.1 60 22:46 15.07.2019
5145 Clear 12 1012 66 10000 3.1 60 22:21 15.07.2019
5146 Rain 12 1012 66 10000 2.6 60 21:57 15.07.2019
5147 Clear 12 1012 66 10000 2.6 70 21:39 15.07.2019
5148 Clouds 13 1012 62 10000 3.1 60 21:19 15.07.2019
5149 Clouds 13 1012 58 10000 3.6 50 20:44 15.07.2019
5150 Clouds 13 1012 58 10000 3.6 50 20:24 15.07.2019
5151 Clear 13 1012 62 10000 3.6 40 19:58 15.07.2019
5152 Clear 13 1012 62 10000 3.6 40 19:38 15.07.2019
5153 Clear 13 1012 62 10000 3.6 40 19:38 15.07.2019
5154 Clouds 13 1012 62 10000 3.6 50 19:18 15.07.2019
5155 Rain 11 1012 71 0 2.22 28.092 18:45 15.07.2019
5156 Clouds 13 1012 52 0 2.36 50.9 18:21 15.07.2019
5157 Clear 14 1011 54 10000 3.6 40 17:57 15.07.2019
5158 Rain 12 1011 62 10000 4.1 50 17:38 15.07.2019
5159 Clouds 13 1011 54 10000 4.6 50 17:20 15.07.2019
5160 Clouds 13 1011 54 10000 4.6 50 16:57 15.07.2019
5161 Rain 13 1012 58 10000 4.1 30 16:36 15.07.2019
5162 Rain 13 1012 54 10000 3.1 50 16:18 15.07.2019
5163 Rain 13 1011 54 10000 3.6 80 15:39 15.07.2019
5164 Rain 13 1011 54 10000 3.6 80 15:39 15.07.2019
5165 Rain 13 1011 54 10000 3.6 80 15:21 15.07.2019
5166 Clear 13 1011 54 10000 3.6 20 14:57 15.07.2019
5167 Clouds 13 1011 58 10000 4.6 40 14:37 15.07.2019
5168 Clouds 13 1011 58 10000 4.6 40 14:19 15.07.2019
5169 Clouds 13 1011 54 10000 3.6 20 13:45 15.07.2019
5170 Rain 13 1013 52 0 2.97 53.227 13:18 15.07.2019
5171 Clear 12 1012 58 10000 3.6 40 12:43 15.07.2019
5172 Clear 12 1012 58 10000 3.6 40 12:24 15.07.2019
5173 Clouds 11 1012 66 10000 4.1 20 11:44 15.07.2019
5174 Clouds 11 1012 66 10000 4.1 20 11:26 15.07.2019
5175 Clouds 11 1012 66 10000 3.6 50 10:54 15.07.2019
5176 Clouds 11 1012 71 10000 4.1 40 10:36 15.07.2019
5177 Clouds 11 1012 71 10000 4.1 40 10:18 15.07.2019
5178 Clear 11 1012 66 10000 5.1 40 09:41 15.07.2019
5179 Clear 10 1012 71 10000 4.6 40 09:19 15.07.2019
5180 Clear 10 1012 71 10000 3.6 70 08:43 15.07.2019
5181 Clear 10 1012 71 10000 3.6 70 08:24 15.07.2019
5182 Clear 10 1012 71 10000 4.1 30 07:43 15.07.2019
5183 Clear 10 1012 71 10000 4.1 30 07:21 15.07.2019
5184 Clear 9 1012 81 10000 4.1 30 06:39 15.07.2019
5185 Clear 8 1012 81 10000 3.1 50 05:51 15.07.2019
5186 Clear 8 1012 81 10000 3.1 50 05:51 15.07.2019
5187 Clear 8 1012 81 10000 3.1 40 05:32 15.07.2019
5188 Clear 8 1012 81 10000 2.1 20 04:43 15.07.2019
5189 Clear 8 1012 81 10000 2.1 20 04:21 15.07.2019
5190 Clear 8 1012 81 10000 2.1 70 02:49 15.07.2019
5191 Clear 9 1012 76 10000 2.6 70 01:54 15.07.2019
5192 Clear 10 1012 76 10000 3.1 60 01:32 15.07.2019
5193 Clear 10 1012 76 10000 3.1 60 00:53 15.07.2019
5194 Clear 10 1012 71 10000 3.1 70 00:26 15.07.2019
5195 Clear 11 1012 71 10000 2.6 60 23:57 14.07.2019
5196 Clouds 11 1012 71 10000 3.1 70 23:39 14.07.2019
5197 Rain 11 1012 71 10000 3.1 70 23:18 14.07.2019
5198 Rain 11 1012 71 10000 3.1 70 22:55 14.07.2019
5199 Rain 12 1012 66 10000 2.6 70 22:37 14.07.2019
5200 Rain 12 1012 66 10000 3.1 60 22:18 14.07.2019
5201 Rain 12 1012 58 10000 3.1 40 21:42 14.07.2019
5202 Rain 12 1012 58 10000 3.1 40 21:19 14.07.2019
5203 Clear 13 1012 54 10000 3.6 40 20:57 14.07.2019
5204 Clear 13 1012 54 10000 3.6 40 20:57 14.07.2019
5205 Clear 13 1012 58 10000 4.6 40 20:37 14.07.2019
5206 Clear 13 1012 58 10000 4.6 40 20:19 14.07.2019
5207 Clouds 14 1012 50 10000 3.6 20 19:44 14.07.2019
5208 Clouds 14 1012 50 10000 3.6 20 19:25 14.07.2019
5209 Clouds 14 1012 50 10000 3.6 20 18:57 14.07.2019
5210 Clouds 14 1012 54 10000 3.1 20 18:38 14.07.2019
5211 Clouds 14 1012 50 10000 2.6 20 18:19 14.07.2019
5212 Clear 15 1012 51 10000 3.6 10 17:47 14.07.2019
5213 Clouds 14 1012 50 10000 3.1 10 17:21 14.07.2019
5214 Clouds 14 1012 54 10000 2.6 340 16:46 14.07.2019
5215 Clouds 14 1012 54 10000 2.6 340 16:24 14.07.2019
5216 Clouds 14 1012 50 10000 3.1 340 15:54 14.07.2019
5217 Clouds 14 1012 50 10000 2.6 360 15:29 14.07.2019
5218 Clear 14 1013 50 10000 2.6 340 14:50 14.07.2019
5219 Rain 14 1013 50 10000 3.1 10 14:22 14.07.2019
5220 Rain 14 1013 50 10000 3.6 20 13:49 14.07.2019
5221 Clouds 14 1013 50 10000 4.1 20 13:27 14.07.2019
5222 Rain 15 1013 57 0 2.03 29.413 12:59 14.07.2019
5223 Clouds 13 1013 54 10000 4.6 20 12:41 14.07.2019
5224 Clouds 13 1013 54 10000 4.6 20 12:21 14.07.2019
5225 Rain 15 1014 56 0 2.26 36.636 11:52 14.07.2019
5226 Clouds 14 1013 54 10000 3.6 40 11:24 14.07.2019
5227 Clouds 13 1013 62 10000 3.1 30 10:50 14.07.2019
5228 Clouds 12 1013 66 10000 2.6 10 10:26 14.07.2019
5229 Clouds 13 1013 66 10000 3.6 30 09:56 14.07.2019
5230 Clouds 12 1013 71 10000 3.1 40 09:37 14.07.2019
5231 Clouds 12 1013 71 10000 3.1 40 09:19 14.07.2019
5232 Clouds 11 1013 76 10000 3.1 30 08:41 14.07.2019
5233 Clear 10 1013 76 10000 3.1 30 07:56 14.07.2019
5234 Clear 10 1013 76 10000 3.1 30 07:35 14.07.2019
5235 Clear 8 1013 87 10000 3.6 40 06:29 14.07.2019
5236 Clear 8 1013 87 10000 4.1 30 05:43 14.07.2019
5237 Clear 7 1013 87 10000 2.6 20 03:45 14.07.2019
5238 Clear 7 1013 87 10000 2.6 20 03:27 14.07.2019
5239 Clear 8 1013 81 10000 3.1 30 02:38 14.07.2019
5240 Clear 8 1013 87 10000 2.6 20 02:20 14.07.2019
5241 Clear 8 1013 81 10000 3.6 20 01:30 14.07.2019
5242 Clear 8 1013 81 10000 3.1 20 00:55 14.07.2019
5243 Clear 8 1013 81 10000 3.1 20 00:36 14.07.2019
5244 Clear 8 1013 81 10000 2.6 30 00:18 14.07.2019
5245 Clouds 9 1013 81 10000 3.6 30 23:41 13.07.2019
5246 Clouds 9 1013 81 10000 3.6 30 23:22 13.07.2019
5247 Clouds 10 1013 76 10000 3.6 50 22:43 13.07.2019
5248 Clouds 10 1013 76 10000 3.6 50 22:22 13.07.2019
5249 Clouds 10 1013 76 10000 3.6 50 21:49 13.07.2019
5250 Clouds 10 1013 76 10000 3.6 50 21:22 13.07.2019
5251 Clouds 10 1013 76 10000 4.1 60 20:53 13.07.2019
5252 Clouds 11 1013 66 10000 5.1 40 20:34 13.07.2019
5253 Clouds 11 1013 66 10000 5.1 40 19:54 13.07.2019
5254 Clouds 11 1013 66 10000 3.6 30 19:31 13.07.2019
5255 Clouds 11 1013 66 10000 3.6 30 18:59 13.07.2019
5256 Clouds 11 1013 66 10000 4.6 30 18:39 13.07.2019
5257 Clouds 11 1013 66 10000 4.6 30 18:19 13.07.2019
5258 Clouds 11 1013 66 10000 4.6 50 17:37 13.07.2019
5259 Clouds 11 1013 66 10000 4.6 40 17:19 13.07.2019
5260 Clouds 11 1013 66 10000 4.6 40 17:19 13.07.2019
5261 Clouds 11 1013 66 10000 5.7 40 16:44 13.07.2019
5262 Clouds 11 1013 66 10000 5.7 40 16:25 13.07.2019
5263 Clouds 11 1012 66 10000 5.1 30 15:48 13.07.2019
5264 Clouds 10 1012 71 10000 4.6 10 15:24 13.07.2019
5265 Clouds 10 1013 71 10000 4.6 40 14:56 13.07.2019
5266 Clouds 10 1013 71 10000 4.6 20 14:37 13.07.2019
5267 Clouds 10 1013 71 10000 4.6 20 14:18 13.07.2019
5268 Clouds 9 1013 76 10000 4.6 360 13:42 13.07.2019
5269 Clouds 9 1013 76 10000 4.6 360 13:19 13.07.2019
5270 Rain 9 1013 76 10000 5.1 30 12:41 13.07.2019
5271 Rain 9 1013 76 10000 5.1 30 12:23 13.07.2019
5272 Rain 9 1013 76 10000 5.1 20 11:57 13.07.2019
5273 Rain 8 1013 81 10000 4.6 30 11:20 13.07.2019
5274 Rain 8 1013 81 10000 4.6 30 11:20 13.07.2019
5275 Clouds 9 1013 76 10000 4.1 20 10:57 13.07.2019
5276 Clouds 9 1013 76 10000 5.1 40 10:39 13.07.2019
5277 Clouds 9 1013 76 10000 5.1 40 10:20 13.07.2019
5278 Clouds 8 1013 81 10000 4.1 50 09:41 13.07.2019
5279 Clouds 8 1013 81 10000 4.1 50 09:22 13.07.2019
5280 Clouds 8 1012 81 10000 3.1 60 08:46 13.07.2019
5281 Clouds 8 1012 81 10000 3.1 60 08:26 13.07.2019
5282 Clouds 8 1012 75 10000 3.1 70 07:31 13.07.2019
5283 Clouds 8 1012 75 10000 3.1 70 06:54 13.07.2019
5284 Clouds 9 1012 70 10000 4.1 50 06:27 13.07.2019
5285 Rain 9 1012 70 10000 4.1 50 05:37 13.07.2019
5286 Clear 9 1011 66 10000 3.6 50 04:25 13.07.2019
5287 Clear 9 1011 66 10000 3.1 60 03:59 13.07.2019
5288 Clear 9 1011 61 10000 3.6 60 03:39 13.07.2019
5289 Clear 10 1011 53 10000 4.6 40 02:20 13.07.2019
5290 Clear 10 1010 53 10000 4.6 30 01:43 13.07.2019
5291 Clear 10 1010 53 10000 4.6 30 01:19 13.07.2019
5292 Clear 10 1010 53 10000 4.6 30 00:54 13.07.2019
5293 Clear 12 1010 58 10000 4.6 20 00:20 13.07.2019
5294 Clear 12 1010 58 10000 4.6 20 23:49 12.07.2019
5295 Clear 12 1010 58 10000 4.6 20 23:29 12.07.2019
5296 Clear 14 1010 58 10000 5.7 20 22:46 12.07.2019
5297 Clear 14 1010 58 10000 5.7 20 22:24 12.07.2019
5298 Clear 15 1009 33 10000 5.7 20 21:43 12.07.2019
5299 Clear 15 1009 33 10000 5.7 20 21:23 12.07.2019
5300 Clear 15 1009 33 10000 7.2 20 20:57 12.07.2019
5301 Clear 16 1009 31 10000 7.7 30 20:38 12.07.2019
5302 Clear 16 1009 31 10000 7.7 30 20:20 12.07.2019
5303 Clear 16 1009 31 10000 8.2 20 19:42 12.07.2019
5304 Clear 16 1009 31 10000 8.2 20 19:23 12.07.2019
5305 Clear 17 1009 29 10000 7.2 20 18:46 12.07.2019
5306 Clear 17 1009 29 10000 7.2 20 18:22 12.07.2019
5307 Clear 17 1009 29 10000 7.7 20 17:53 12.07.2019
5308 Clear 17 1009 33 10000 7.7 30 17:29 12.07.2019
5309 Clear 17 1009 33 10000 7.2 10 16:51 12.07.2019
5310 Clear 17 1009 33 10000 9.3 30 16:23 12.07.2019
5311 Clear 17 1009 33 10000 8.7 30 15:54 12.07.2019
5312 Clear 17 1009 33 10000 7.7 30 15:36 12.07.2019
5313 Clear 17 1009 30 10000 7.7 30 15:18 12.07.2019
5314 Clear 16 1009 31 10000 6.2 10 14:43 12.07.2019
5315 Clear 16 1009 31 10000 7.7 20 14:20 12.07.2019
5316 Clear 16 1009 31 10000 7.7 20 13:43 12.07.2019
5317 Clear 16 1009 31 10000 7.7 20 13:20 12.07.2019
5318 Clear 16 1009 31 10000 7.2 30 12:41 12.07.2019
5319 -273 0 0 0 0 0 12:21 12.07.2019
5320 Clear 15 1010 33 10000 7.2 20 11:45 12.07.2019
5321 Clear 15 1010 33 10000 7.2 20 11:24 12.07.2019
5322 Clear 14 1010 33 10000 7.2 30 10:55 12.07.2019
5323 Clear 13 1010 37 10000 6.7 30 10:37 12.07.2019
5324 Clear 13 1010 35 10000 7.2 20 10:18 12.07.2019
5325 Clear 13 1010 37 10000 6.2 20 09:46 12.07.2019
5326 Clear 13 1010 37 10000 6.2 20 09:23 12.07.2019
5327 Clear 12 1010 37 10000 6.2 10 08:42 12.07.2019
5328 Clear 12 1010 37 10000 6.2 10 08:21 12.07.2019
5329 Clear 11 1010 43 10000 6.2 10 07:47 12.07.2019
5330 Clear 11 1010 43 10000 6.2 10 07:28 12.07.2019
5331 Clear 10 1010 46 10000 5.1 10 06:29 12.07.2019
5332 Clear 8 1010 65 10000 3.1 330 05:50 12.07.2019
5333 Clear 8 1011 61 10000 3.6 30 03:46 12.07.2019
5334 Clear 9 1010 61 10000 4.1 40 01:50 12.07.2019
5335 Clear 9 1010 61 10000 4.1 40 01:29 12.07.2019
5336 Clear 10 1010 57 10000 4.1 30 00:34 12.07.2019
5337 Clear 11 1010 53 10000 4.1 20 23:54 11.07.2019
5338 Clear 11 1010 50 10000 4.1 30 23:36 11.07.2019
5339 Clear 11 1010 50 10000 4.1 30 23:36 11.07.2019
5340 Clear 12 1010 46 10000 3.6 20 23:18 11.07.2019
5341 Clear 12 1010 46 10000 3.6 20 22:41 11.07.2019
5342 Clear 12 1010 46 10000 3.6 20 22:22 11.07.2019
5343 Clear 14 1010 41 10000 4.6 30 21:43 11.07.2019
5344 Clear 14 1010 44 10000 4.6 30 21:20 11.07.2019
5345 Clear 14 1010 44 10000 4.6 30 21:20 11.07.2019
5346 Clear 14 1010 44 10000 4.6 30 21:20 11.07.2019
5347 Clear 14 1010 44 10000 4.6 30 20:56 11.07.2019
5348 Clear 14 1010 44 10000 4.6 30 20:38 11.07.2019
5349 Clear 14 1010 44 10000 4.6 30 20:38 11.07.2019
5350 Clear 14 1010 44 10000 4.6 30 20:19 11.07.2019
5351 Clear 15 1010 38 10000 6.2 30 19:47 11.07.2019
5352 Clear 15 1010 38 10000 6.2 30 19:25 11.07.2019
5353 Clear 15 1010 49 10000 5.7 40 18:54 11.07.2019
5354 Clear 15 1010 49 10000 6.2 30 18:36 11.07.2019
5355 Clear 16 1010 36 10000 6.2 30 18:18 11.07.2019
5356 Clear 16 1010 36 10000 5.1 30 17:42 11.07.2019
5357 Clear 16 1010 36 10000 5.1 30 17:23 11.07.2019
5358 Clear 16 1010 38 10000 6.2 30 16:51 11.07.2019
5359 Clear 16 1010 36 10000 5.7 30 16:24 11.07.2019
5360 Clear 16 1010 36 10000 5.1 20 15:54 11.07.2019
5361 Clear 16 1010 36 10000 5.1 20 15:54 11.07.2019
5362 Clear 16 1010 36 10000 5.1 20 15:54 11.07.2019
5363 Clear 15 1010 38 10000 5.1 30 15:36 11.07.2019
5364 Clear 15 1011 38 10000 5.1 40 15:18 11.07.2019
5365 Clear 14 1011 41 10000 5.1 30 14:43 11.07.2019
5366 Clear 14 1011 41 10000 5.1 30 14:21 11.07.2019
5367 Clear 13 1011 38 10000 4.1 20 13:47 11.07.2019
5368 Clear 13 1011 41 10000 4.1 20 13:28 11.07.2019
5369 Clear 13 1011 47 10000 4.6 30 12:45 11.07.2019
5370 Clear 13 1011 47 10000 4.6 30 12:27 11.07.2019
5371 Clear 12 1011 50 10000 4.6 40 11:55 11.07.2019
5372 Clouds 11 1011 53 10000 4.1 40 11:37 11.07.2019
5373 Clouds 11 1011 53 10000 4.1 40 11:18 11.07.2019
5374 Clear 10 1012 61 10000 3.6 30 10:45 11.07.2019
5375 Clear 10 1012 61 10000 3.6 30 10:19 11.07.2019
5376 Clear 10 1012 61 10000 4.1 20 09:44 11.07.2019
5377 Clear 10 1012 61 10000 4.1 20 09:24 11.07.2019
5378 Clear 10 1012 61 10000 4.6 20 08:51 11.07.2019
5379 Clear 9 1012 66 10000 4.6 30 08:24 11.07.2019
5380 Clear 9 1012 66 10000 4.1 20 07:52 11.07.2019
5381 Clear 9 1012 66 10000 3.6 30 07:32 11.07.2019
5382 Clear 7 1013 75 10000 2.1 10 06:30 11.07.2019
5383 Clear 6 1013 81 10000 2.1 330 05:48 11.07.2019
5384 Clear 6 1013 81 10000 2.1 330 05:28 11.07.2019
5385 Clear 6 1013 81 10000 3.1 40 04:53 11.07.2019
5386 Clear 7 1013 75 10000 3.6 40 02:38 11.07.2019
5387 Clouds 6 1013 81 10000 3.6 50 00:50 11.07.2019
5388 Clear 9 1013 70 10000 3.6 10 23:56 10.07.2019
5389 Clear 9 1013 70 10000 3.1 10 23:31 10.07.2019
5390 Clear 9 1013 70 10000 3.1 40 22:59 10.07.2019
5391 Clear 10 1013 66 10000 3.1 60 22:41 10.07.2019
5392 Clear 11 1013 62 10000 4.1 60 22:19 10.07.2019
5393 Clear 11 1013 62 10000 4.6 50 21:44 10.07.2019
5394 Clear 11 1013 62 10000 4.6 50 21:26 10.07.2019
5395 Clouds 11 1013 62 10000 5.1 60 20:54 10.07.2019
5396 Clouds 12 1013 58 10000 4.1 60 20:36 10.07.2019
5397 Clouds 12 1013 58 10000 4.1 60 20:18 10.07.2019
5398 Clouds 12 1013 58 10000 4.1 60 19:42 10.07.2019
5399 Clouds 13 1013 54 10000 4.6 40 19:21 10.07.2019
5400 Clouds 13 1013 54 10000 4.1 30 18:48 10.07.2019
5401 Clouds 13 1013 54 10000 4.1 30 18:25 10.07.2019
5402 Clouds 13 1014 54 10000 5.1 60 17:51 10.07.2019
5403 Clouds 13 1014 54 10000 5.1 60 17:30 10.07.2019
5404 Clouds 12 1014 58 10000 5.7 40 16:59 10.07.2019
5405 Clouds 12 1014 58 10000 5.1 30 16:22 10.07.2019
5406 Clouds 11 1014 57 10000 4.1 50 15:54 10.07.2019
5407 Clouds 11 1014 57 10000 5.1 30 15:36 10.07.2019
5408 Clouds 11 1014 57 10000 5.1 30 15:18 10.07.2019
5409 Clouds 12 1014 58 10000 5.1 50 14:39 10.07.2019
5410 Clouds 12 1014 58 10000 5.1 50 14:19 10.07.2019
5411 Clouds 10 1014 66 10000 5.1 40 13:41 10.07.2019
5412 Clouds 10 1014 66 10000 5.1 40 13:18 10.07.2019
5413 Clouds 10 1015 61 10000 6.2 40 12:41 10.07.2019
5414 Clouds 10 1015 61 10000 6.2 40 12:21 10.07.2019
5415 Clouds 9 1015 66 10000 6.7 40 11:50 10.07.2019
5416 Clouds 9 1015 66 10000 6.7 40 11:22 10.07.2019
5417 Clouds 9 1015 66 10000 7.2 30 10:58 10.07.2019
5418 Clouds 9 1015 66 10000 7.2 30 10:58 10.07.2019
5419 Clouds 9 1015 66 10000 6.2 30 10:25 10.07.2019
5420 Clouds 10 1014 66 10000 6.7 50 09:59 10.07.2019
5421 Clouds 10 1014 61 10000 6.7 40 09:41 10.07.2019
5422 Clouds 10 1014 61 10000 6.7 40 09:20 10.07.2019
5423 Clouds 10 1014 66 10000 7.2 50 08:49 10.07.2019
5424 Clouds 9 1014 76 10000 6.2 50 08:26 10.07.2019
5425 Clouds 9 1014 70 10000 7.7 40 07:51 10.07.2019
5426 Clouds 9 1014 70 10000 7.7 40 07:24 10.07.2019
5427 Clouds 9 1014 70 10000 6.2 50 06:40 10.07.2019
5428 Clouds 9 1014 70 10000 7.7 50 05:42 10.07.2019
5429 Clear 9 1014 70 10000 6.7 40 04:33 10.07.2019
5430 Clear 10 1013 71 10000 7.2 50 02:20 10.07.2019
5431 Clear 11 1013 66 10000 5.1 40 00:44 10.07.2019
5432 Clear 14 1012 50 10000 3.1 10 23:42 09.07.2019
5433 Clear 14 1012 50 10000 3.1 10 23:24 09.07.2019
5434 Clear 14 1012 47 10000 4.1 20 22:57 09.07.2019
5435 Clear 15 1012 44 10000 3.1 10 22:38 09.07.2019
5436 Clear 15 1012 44 10000 3.1 10 22:20 09.07.2019
5437 Clear 16 1012 41 10000 6.2 30 21:46 09.07.2019
5438 Clear 16 1012 41 10000 6.2 30 21:26 09.07.2019
5439 Clear 17 1012 39 10000 5.7 20 20:45 09.07.2019
5440 -273 0 0 0 0 0 20:26 09.07.2019
5441 Clear 18 1012 34 10000 6.7 20 19:56 09.07.2019
5442 Clear 18 1012 34 10000 6.7 20 19:36 09.07.2019
5443 Clear 18 1012 34 10000 6.7 20 19:18 09.07.2019
5444 Clear 20 1012 34 10000 6.7 30 18:39 09.07.2019
5445 Clear 20 1012 34 10000 5.7 30 18:19 09.07.2019
5446 Clear 19 1012 29 10000 5.7 20 17:43 09.07.2019
5447 Clear 19 1012 29 10000 5.7 20 17:21 09.07.2019
5448 Clear 19 1013 32 10000 5.1 20 16:55 09.07.2019
5449 Clear 19 1013 32 10000 6.2 30 16:36 09.07.2019
5450 Clear 19 1013 32 10000 6.2 30 16:18 09.07.2019
5451 Clear 20 1013 28 10000 5.7 40 15:41 09.07.2019
5452 Clear 20 1013 28 10000 5.7 40 15:22 09.07.2019
5453 Clear 19 1013 33 10000 5.7 30 14:43 09.07.2019
5454 Clear 19 1013 33 10000 5.7 30 14:22 09.07.2019
5455 Clear 18 1013 34 10000 5.1 30 13:47 09.07.2019
5456 Clear 18 1014 34 10000 5.1 30 13:28 09.07.2019
5457 Clear 17 1014 33 10000 5.1 20 12:59 09.07.2019
5458 Clear 16 1014 36 10000 5.7 10 12:38 09.07.2019
5459 Clear 16 1014 36 10000 5.7 10 12:18 09.07.2019
5460 Clear 16 1014 41 10000 4.6 20 11:41 09.07.2019
5461 Clear 16 1014 41 10000 4.6 20 11:22 09.07.2019
5462 Clear 14 1014 47 10000 5.1 40 10:58 09.07.2019
5463 Clear 14 1014 50 10000 5.1 30 10:35 09.07.2019
5464 Clear 14 1015 50 10000 4.6 30 09:59 09.07.2019
5465 Clear 13 1015 54 10000 4.6 40 09:38 09.07.2019
5466 Clear 13 1015 54 10000 4.6 40 09:19 09.07.2019
5467 Clear 12 1015 58 10000 5.1 20 08:44 09.07.2019
5468 Clear 11 1000 93 10000 2.6 30 04:19 05.07.2019
5469 Clouds 11 1000 93 10000 1 360 03:39 05.07.2019
5470 Clouds 11 1000 93 10000 1 360 03:21 05.07.2019
5471 Clouds 10 1000 100 10000 1.5 360 02:52 05.07.2019
5472 Clouds 11 1000 93 10000 1 350 01:56 05.07.2019
5473 Clouds 11 1000 93 10000 1 350 01:28 05.07.2019
5474 Clouds 11 1000 93 10000 0.5 0 00:51 05.07.2019
5475 Clouds 11 1000 93 10000 0.5 270 00:29 05.07.2019
5476 Clouds 11 999 93 10000 1 260 23:39 04.07.2019
5477 Clouds 11 999 93 10000 1 260 23:18 04.07.2019
5478 Clouds 11 999 93 10000 0.5 290 22:41 04.07.2019
5479 Clouds 11 999 93 10000 0.5 290 22:20 04.07.2019
5480 Clouds 11 999 87 10000 1 300 21:44 04.07.2019
5481 Clouds 11 999 87 10000 1 300 21:26 04.07.2019
5482 Clear 12 999 81 10000 1.5 0 20:59 04.07.2019
5483 Clear 12 999 81 10000 1.5 0 20:37 04.07.2019
5484 Clear 12 999 81 10000 1.5 0 20:19 04.07.2019
5485 Rain 12 999 81 10000 1.5 0 19:41 04.07.2019
5486 Rain 12 999 81 10000 1.5 0 19:21 04.07.2019
5487 Rain 12 999 87 10000 1.5 0 18:55 04.07.2019
5488 Rain 12 999 81 10000 2.1 290 18:36 04.07.2019
5489 Rain 12 999 81 10000 1.5 0 18:18 04.07.2019
5490 Rain 11 999 87 10000 2.1 350 17:41 04.07.2019
5491 Rain 11 999 87 10000 2.1 350 17:18 04.07.2019
5492 Rain 11 999 93 10000 3.1 300 15:45 04.07.2019
5493 Rain 11 999 93 10000 3.1 300 15:25 04.07.2019
5494 Rain 11 999 93 10000 2.6 330 14:59 04.07.2019
5495 Rain 11 999 93 10000 3.1 340 14:39 04.07.2019
5496 Rain 11 999 93 10000 3.1 340 14:20 04.07.2019
5497 Rain 11 999 93 10000 3.6 340 13:57 04.07.2019
5498 Rain 11 999 93 10000 3.6 340 13:38 04.07.2019
5499 Rain 11 998 93 10000 2.6 360 13:19 04.07.2019
5500 Rain 11 999 93 10000 3.6 340 13:19 04.07.2019
5501 Rain 11 998 87 10000 3.1 340 12:39 04.07.2019
5502 Rain 11 998 93 10000 3.6 360 12:19 04.07.2019
5503 Rain 11 998 93 10000 2.6 360 11:46 04.07.2019
5504 Rain 11 998 93 10000 2.6 360 11:20 04.07.2019
5505 Rain 11 998 93 10000 3.1 330 10:57 04.07.2019
5506 Rain 11 998 93 10000 3.1 330 10:56 04.07.2019
5507 Rain 11 998 93 10000 3.1 330 10:56 04.07.2019
5508 Clouds 10 998 93 10000 3.1 340 10:38 04.07.2019
5509 Rain 10 998 100 10000 3.6 350 10:18 04.07.2019
5510 Clouds 10 998 93 10000 3.1 340 10:18 04.07.2019
5511 Rain 10 998 93 5000 4.1 360 09:38 04.07.2019
5512 Rain 10 998 93 5000 4.1 360 09:19 04.07.2019
5513 Clouds 10 998 93 6000 4.1 20 08:52 04.07.2019
5514 Mist 10 998 100 4700 4.1 350 08:18 04.07.2019
5515 Clouds 11 998 93 10000 3.1 350 07:40 04.07.2019
5516 Clouds 11 998 93 10000 3.1 350 07:19 04.07.2019
5517 Clouds 11 998 93 10000 3.1 340 06:32 04.07.2019
5518 Clouds 10 998 100 9000 2.6 330 05:43 04.07.2019
5519 Clouds 10 998 100 9000 2.6 320 04:28 04.07.2019
5520 Clouds 9 999 100 8000 2.6 300 02:23 04.07.2019
5521 Clouds 10 999 93 10000 3.1 300 01:27 04.07.2019
5522 Clouds 10 1000 93 10000 2.6 320 00:51 04.07.2019
5523 Clouds 10 1000 93 10000 3.1 310 23:52 03.07.2019
5524 Clouds 10 1000 87 10000 3.6 330 23:21 03.07.2019
5525 Clouds 10 1000 87 10000 4.1 330 22:57 03.07.2019
5526 Clouds 10 1000 87 10000 4.1 330 22:38 03.07.2019
5527 Clouds 10 1000 87 10000 4.1 330 22:38 03.07.2019
5528 Clouds 10 1000 87 10000 4.1 330 22:20 03.07.2019
5529 Clouds 10 1000 87 10000 4.1 330 22:20 03.07.2019
5530 Clear 11 1001 81 10000 3.6 330 21:54 03.07.2019
5531 Clouds 11 1001 81 10000 4.1 330 21:36 03.07.2019
5532 Clouds 12 1001 76 10000 4.1 340 20:49 03.07.2019
5533 Clouds 12 1001 81 10000 4.6 340 20:31 03.07.2019
5534 Clouds 13 1001 76 10000 3.1 330 19:59 03.07.2019
5535 Clouds 13 1001 76 10000 3.1 330 19:41 03.07.2019
5536 Clouds 13 1001 76 10000 2.6 310 19:20 03.07.2019
5537 Rain 13 1000 87 0 2.72 324.629 18:44 03.07.2019
5538 Rain 17 1000 59 0 3.53 343.058 18:22 03.07.2019
5539 Clouds 12 1002 81 10000 3.6 320 17:49 03.07.2019
5540 Clouds 12 1001 76 10000 4.1 340 17:19 03.07.2019
5541 Clouds 12 1001 76 10000 4.1 340 16:57 03.07.2019
5542 Clouds 12 1001 76 10000 4.1 340 16:39 03.07.2019
5543 Clouds 13 1001 71 10000 4.6 320 16:18 03.07.2019
5544 Clouds 13 1001 71 10000 5.1 340 15:42 03.07.2019
5545 Clouds 13 1001 71 10000 5.1 340 15:24 03.07.2019
5546 Clear 14 1001 71 10000 6.7 350 14:43 03.07.2019
5547 Clear 14 1001 71 10000 6.7 350 14:22 03.07.2019
5548 Clouds 15 1001 58 10000 4.6 330 13:46 03.07.2019
5549 Clouds 15 1001 58 10000 4.6 330 13:27 03.07.2019
5550 Clouds 15 1001 58 10000 4.6 330 12:51 03.07.2019
5551 Clouds 14 1001 58 10000 4.1 330 12:19 03.07.2019
5552 Clouds 13 1001 66 10000 4.1 320 11:43 03.07.2019
5553 Clouds 13 1001 66 10000 4.1 320 11:24 03.07.2019
5554 Clouds 13 1001 66 10000 5.1 310 10:58 03.07.2019
5555 Clouds 12 1001 66 10000 4.6 320 10:37 03.07.2019
5556 Clouds 12 1001 66 10000 4.6 320 10:19 03.07.2019
5557 Clouds 12 1001 71 10000 3.6 320 09:40 03.07.2019
5558 Clouds 12 1001 71 10000 3.6 320 09:20 03.07.2019
5559 Clear 11 1001 71 10000 4.1 330 08:52 03.07.2019
5560 Clear 10 1001 76 10000 4.1 340 08:31 03.07.2019
5561 Clear 10 1001 76 10000 4.6 330 07:45 03.07.2019
5562 Clear 10 1001 76 10000 4.6 330 07:27 03.07.2019
5563 Clear 9 1001 87 10000 4.6 330 06:30 03.07.2019
5564 Clear 9 1001 87 10000 4.6 340 05:35 03.07.2019
5565 Clear 8 1001 93 10000 4.1 340 04:44 03.07.2019
5566 Clear 8 1001 93 10000 3.6 340 03:25 03.07.2019
5567 Clear 9 1001 87 10000 3.1 350 02:23 03.07.2019
5568 Clear 10 1001 81 10000 3.1 350 01:21 03.07.2019
5569 Clear 10 1001 81 10000 3.1 350 00:46 03.07.2019
5570 Clear 10 1001 81 10000 2.6 340 00:18 03.07.2019
5571 Clear 11 1000 76 10000 2.6 340 23:38 02.07.2019
5572 Clear 11 1000 76 10000 2.1 340 23:20 02.07.2019
5573 Clear 11 1000 76 10000 2.1 340 22:56 02.07.2019
5574 Clear 12 1000 71 10000 2.6 340 22:38 02.07.2019
5575 Clear 12 1000 71 10000 2.6 340 22:19 02.07.2019
5576 Clear 13 1000 66 10000 2.6 340 21:43 02.07.2019
5577 Clear 13 1000 66 10000 2.6 340 21:23 02.07.2019
5578 Clear 13 1000 66 10000 2.1 330 20:58 02.07.2019
5579 Clear 14 1000 62 10000 3.1 330 20:39 02.07.2019
5580 Clear 14 1000 62 10000 2.6 330 20:20 02.07.2019
5581 Clear 14 999 62 10000 3.6 330 19:42 02.07.2019
5582 Clear 14 999 62 10000 3.1 320 19:23 02.07.2019
5583 Clear 15 999 54 10000 4.1 310 18:50 02.07.2019
5584 Clouds 15 999 54 10000 3.6 310 18:19 02.07.2019
5585 Clouds 16 998 55 10000 3.1 340 17:45 02.07.2019
5586 Clouds 16 998 55 10000 3.1 340 17:24 02.07.2019
5587 Clouds 15 998 58 10000 3.6 350 16:54 02.07.2019
5588 Clouds 16 998 55 10000 3.6 320 16:35 02.07.2019
5589 Clouds 14 998 62 10000 3.1 330 15:59 02.07.2019
5590 Clouds 14 998 62 10000 3.6 330 15:38 02.07.2019
5591 Clouds 15 998 62 10000 4.1 260 15:18 02.07.2019
5592 Clouds 14 998 67 10000 4.1 320 14:40 02.07.2019
5593 Clouds 14 998 67 10000 4.1 320 14:21 02.07.2019
5594 Clouds 14 997 62 10000 5.7 330 13:42 02.07.2019
5595 Clouds 14 997 62 10000 4.1 290 13:19 02.07.2019
5596 Clear 14 997 67 10000 4.1 310 12:44 02.07.2019
5597 Clouds 14 997 62 10000 4.1 270 12:23 02.07.2019
5598 Clouds 14 996 67 10000 4.1 280 11:44 02.07.2019
5599 Clouds 14 996 67 10000 4.1 280 11:23 02.07.2019
5600 Clouds 14 996 62 10000 4.1 290 10:55 02.07.2019
5601 Clouds 14 996 62 10000 4.1 270 10:29 02.07.2019
5602 Clouds 14 996 67 10000 4.1 280 09:57 02.07.2019
5603 Clear 13 995 71 10000 4.6 260 09:22 02.07.2019
5604 Clear 13 995 71 10000 4.6 260 08:57 02.07.2019
5605 Clouds 13 995 71 10000 5.1 250 08:37 02.07.2019
5606 Clouds 12 995 81 10000 3.6 280 07:59 02.07.2019
5607 Clouds 12 994 81 10000 3.1 280 07:21 02.07.2019
5608 Clouds 12 994 81 10000 3.1 260 06:59 02.07.2019
5609 Clouds 12 994 81 10000 3.1 260 06:36 02.07.2019
5610 Clear 11 994 93 10000 2.6 250 05:26 02.07.2019
5611 Clear 10 993 100 10000 3.1 250 02:37 02.07.2019
5612 Clouds 11 992 100 10000 2.6 210 00:26 02.07.2019
5613 Clouds 11 992 100 10000 2.6 190 23:30 01.07.2019
5614 Clouds 11 992 100 10000 2.6 180 22:54 01.07.2019
5615 Clouds 11 991 100 10000 2.1 160 22:28 01.07.2019
5616 Clouds 11 991 100 10000 2.1 160 21:56 01.07.2019
5617 Rain 11 991 100 10000 1.5 150 21:37 01.07.2019
5618 Rain 11 991 100 9000 1.5 170 21:19 01.07.2019
5619 Rain 11 991 100 10000 2.1 180 20:45 01.07.2019
5620 Rain 11 991 100 6000 4.1 200 20:20 01.07.2019
5621 Rain 12 991 93 10000 4.6 200 19:44 01.07.2019
5622 Rain 12 991 93 10000 4.6 200 19:25 01.07.2019
5623 Rain 12 990 93 7000 3.1 210 18:56 01.07.2019
5624 Rain 12 990 93 6000 4.1 220 18:37 01.07.2019
5625 Rain 12 990 93 10000 2.1 130 18:19 01.07.2019
5626 Rain 12 990 93 10000 2.1 130 17:43 01.07.2019
5627 Rain 12 990 93 10000 2.1 130 17:23 01.07.2019
5628 Rain 11 990 100 9000 2.6 140 16:48 01.07.2019
5629 Rain 10 990 100 5000 3.1 120 16:27 01.07.2019
5630 Mist 10 990 100 2900 3.6 120 15:58 01.07.2019
5631 Mist 10 990 100 2900 3.6 120 15:40 01.07.2019
5632 Mist 10 989 93 3000 4.1 110 15:22 01.07.2019
5633 Mist 10 989 93 3500 3.6 110 14:44 01.07.2019
5634 Mist 9 989 100 2600 5.1 110 14:20 01.07.2019
5635 Mist 9 989 100 2600 4.1 110 13:45 01.07.2019
5636 Mist 9 990 100 3700 4.6 100 13:23 01.07.2019
5637 Rain 9 990 93 6000 3.6 110 12:56 01.07.2019
5638 Rain 9 990 93 6000 3.6 110 12:37 01.07.2019
5639 Rain 9 990 93 6000 4.1 110 12:18 01.07.2019
5640 Rain 9 990 93 8000 4.6 100 11:43 01.07.2019
5641 Rain 9 990 93 10000 4.1 100 11:21 01.07.2019
5642 Rain 9 990 93 10000 5.1 110 10:47 01.07.2019
5643 Clouds 9 990 87 10000 4.6 100 10:24 01.07.2019
5644 Rain 9 991 87 10000 5.7 110 09:58 01.07.2019
5645 Rain 9 991 87 10000 5.7 110 09:39 01.07.2019
5646 Rain 9 991 87 10000 5.7 110 09:20 01.07.2019
5647 Clouds 10 992 76 10000 4.6 120 08:37 01.07.2019
5648 Rain 9 992 87 10000 5.1 110 07:40 01.07.2019
5649 Rain 10 993 76 10000 4.1 120 07:20 01.07.2019
5650 Rain 9 994 87 10000 3.6 120 05:43 01.07.2019
5651 Clear 9 998 66 10000 1.5 110 01:29 01.07.2019
5652 Clear 9 998 70 10000 2.1 110 00:46 01.07.2019
5653 Clear 9 999 66 10000 2.1 120 00:24 01.07.2019
5654 Clear 9 999 70 10000 2.1 120 23:39 30.06.2019
5655 Clear 10 999 66 10000 1 0 23:19 30.06.2019
5656 Clear 11 1000 57 10000 2.1 150 22:43 30.06.2019
5657 Clear 11 1000 57 10000 2.1 160 22:20 30.06.2019
5658 Clear 12 1001 50 10000 2.1 150 21:41 30.06.2019
5659 Clear 12 1001 50 10000 3.6 180 21:19 30.06.2019
5660 Clear 13 1001 50 10000 3.1 190 20:55 30.06.2019
5661 Clouds 13 1001 50 10000 4.1 220 20:36 30.06.2019
5662 Clouds 13 1001 50 10000 4.1 220 20:18 30.06.2019
5663 Clouds 13 1001 50 10000 4.1 220 20:18 30.06.2019
5664 Clear 13 1002 37 10000 2.1 190 19:43 30.06.2019
5665 Clear 14 1002 44 10000 1 0 19:24 30.06.2019
5666 Clear 13 1002 29 10000 2.1 220 18:26 30.06.2019
5667 Clear 13 1002 37 10000 2.1 270 17:57 30.06.2019
5668 Clear 13 1002 37 10000 3.6 270 17:38 30.06.2019
5669 Clear 13 1002 37 10000 3.6 270 17:18 30.06.2019
5670 Clear 14 1002 35 10000 3.1 270 16:45 30.06.2019
5671 Clear 13 1003 37 10000 2.1 300 16:25 30.06.2019
5672 Clear 13 1003 37 10000 2.6 260 15:37 30.06.2019
5673 Clear 13 1003 37 10000 3.1 320 15:18 30.06.2019
5674 Clear 14 1003 29 10000 4.1 250 14:50 30.06.2019
5675 Clear 12 1003 29 10000 3.6 290 14:29 30.06.2019
5676 Clear 12 1003 29 10000 4.1 280 13:47 30.06.2019
5677 Clear 12 1003 30 10000 3.6 280 13:28 30.06.2019
5678 Clear 12 1003 46 10000 4.1 270 12:52 30.06.2019
5679 Clear 13 1003 30 10000 5.1 290 12:28 30.06.2019
5680 Clouds 12 1003 46 10000 4.6 260 11:57 30.06.2019
5681 Clouds 12 1003 46 10000 4.6 260 11:38 30.06.2019
5682 Clouds 11 1003 29 10000 4.1 250 11:18 30.06.2019
5683 Clouds 12 1003 46 10000 5.1 290 10:44 30.06.2019
5684 Clouds 11 1003 29 10000 4.6 280 10:19 30.06.2019
5685 Clouds 11 1003 50 10000 4.1 280 09:57 30.06.2019
5686 Clouds 11 1003 50 10000 4.1 280 09:37 30.06.2019
5687 Clear 11 1003 50 10000 3.6 280 09:18 30.06.2019
5688 Clear 10 1003 53 10000 4.6 280 08:38 30.06.2019
5689 Clear 10 1003 41 10000 4.1 290 08:19 30.06.2019
5690 Clear 9 1003 57 10000 5.1 330 07:38 30.06.2019
5691 Clear 9 1003 57 10000 5.1 330 07:19 30.06.2019
5692 Clear 8 1002 57 10000 5.1 310 06:23 30.06.2019
5693 Clear 5 1002 60 10000 2.6 350 03:26 30.06.2019
5694 Clear 6 1001 56 10000 2.6 330 01:31 30.06.2019
5695 Clear 7 1001 52 10000 2.6 320 00:38 30.06.2019
5696 Clear 7 1001 52 10000 2.6 320 00:38 30.06.2019
5697 Clear 7 1001 56 10000 2.6 320 00:18 30.06.2019
5698 Clear 8 1001 60 10000 3.6 330 23:36 29.06.2019
5699 Clear 8 1001 60 10000 3.6 330 23:18 29.06.2019
5700 Clear 9 1000 49 10000 4.6 340 22:42 29.06.2019
5701 Clear 10 1000 46 10000 3.1 330 22:21 29.06.2019
5702 Clear 11 1000 43 10000 4.1 330 21:52 29.06.2019
5703 Clear 11 999 43 10000 5.1 330 21:23 29.06.2019
5704 Clear 12 999 46 10000 4.6 330 20:45 29.06.2019
5705 Clear 14 999 41 10000 4.1 330 20:27 29.06.2019
5706 Clear 13 999 62 10000 2.1 320 19:48 29.06.2019
5707 Rain 14 999 62 10000 0.5 0 19:26 29.06.2019
5708 Clouds 13 998 62 10000 2.1 320 18:55 29.06.2019
5709 Clouds 13 998 66 10000 1 0 18:27 29.06.2019
5710 Clear 12 998 71 10000 1.5 0 17:57 29.06.2019
5711 Clear 12 998 71 10000 1.5 0 17:37 29.06.2019
5712 Rain 12 998 71 10000 2.1 10 17:19 29.06.2019
5713 Clear 12 998 71 10000 3.6 360 16:42 29.06.2019
5714 Clear 11 998 87 10000 4.6 360 15:56 29.06.2019
5715 Clear 11 997 87 10000 1.5 0 15:31 29.06.2019
5716 Rain 10 997 87 10000 3.6 300 14:45 29.06.2019
5717 Clear 13 997 87 10000 4.6 210 14:26 29.06.2019
5718 Clouds 13 997 87 10000 4.6 200 13:51 29.06.2019
5719 Rain 12 997 87 10000 5.7 220 13:27 29.06.2019
5720 Clouds 12 997 93 10000 6.7 210 12:57 29.06.2019
5721 Clouds 12 997 93 10000 6.7 210 12:38 29.06.2019
5722 Clouds 11 998 100 10000 5.7 210 12:20 29.06.2019
5723 Rain 10 998 100 3200 6.7 220 11:42 29.06.2019
5724 Rain 11 998 93 10000 6.2 210 11:21 29.06.2019
5725 Rain 11 998 93 5000 6.7 210 10:46 29.06.2019
5726 Rain 11 998 93 10000 7.7 210 10:21 29.06.2019
5727 Rain 11 999 87 10000 6.2 200 09:50 29.06.2019
5728 Clouds 12 999 81 10000 6.2 200 08:55 29.06.2019
5729 Clouds 12 999 81 10000 6.7 190 08:28 29.06.2019
5730 Clouds 11 1000 81 10000 5.1 190 07:45 29.06.2019
5731 Clouds 11 1001 71 10000 4.1 180 06:47 29.06.2019
5732 Clouds 10 1001 76 10000 3.6 190 06:24 29.06.2019
5733 Clear 8 1004 87 10000 2.6 170 02:52 29.06.2019
5734 Clear 8 1005 87 10000 2.1 160 01:32 29.06.2019
5735 Clear 9 1006 81 10000 2.1 150 00:31 29.06.2019
5736 Clear 9 1007 76 10000 1.5 0 23:37 28.06.2019
5737 Clear 9 1007 76 10000 1.5 0 23:37 28.06.2019
5738 Clear 9 1007 76 10000 1.5 0 23:37 28.06.2019
5739 Clear 10 1007 71 10000 2.1 100 23:19 28.06.2019
5740 Clear 10 1007 71 10000 2.1 60 22:45 28.06.2019
5741 Clear 11 1008 66 10000 5.7 220 21:58 28.06.2019
5742 Clear 12 1008 62 10000 5.1 200 21:27 28.06.2019
5743 Clear 12 1008 62 10000 5.1 200 21:26 28.06.2019
5744 Clear 12 1008 62 10000 4.1 190 20:49 28.06.2019
5745 Clear 13 1008 58 10000 4.1 180 20:30 28.06.2019
5746 Clear 13 1008 50 10000 2.6 190 19:57 28.06.2019
5747 Clear 13 1008 50 10000 2.6 190 19:37 28.06.2019
5748 Clear 13 1008 54 10000 3.6 200 19:18 28.06.2019
5749 Clouds 12 1009 62 10000 1.5 140 18:41 28.06.2019
5750 Clear 13 1009 54 10000 2.6 210 18:20 28.06.2019
5751 Clear 14 1008 41 10000 3.1 280 17:34 28.06.2019
5752 Clear 15 1009 38 10000 4.1 250 16:55 28.06.2019
5753 Clear 13 1009 43 10000 2.1 320 16:29 28.06.2019
5754 Clear 14 1009 42 10000 3.6 300 15:49 28.06.2019
5755 Clear 14 1009 41 10000 2.1 280 15:29 28.06.2019
5756 -273 0 0 0 0 0 14:59 28.06.2019
5757 Clear 13 1009 43 10000 4.1 280 14:39 28.06.2019
5758 Clear 13 1010 43 10000 5.7 260 14:20 28.06.2019
5759 Clear 13 1010 38 10000 3.6 300 13:45 28.06.2019
5760 Clear 12 1010 39 10000 4.1 290 13:22 28.06.2019
5761 Clear 13 1010 43 10000 3.6 290 12:50 28.06.2019
5762 Clouds 11 1010 41 10000 5.7 300 12:25 28.06.2019
5763 Rain 11 1010 50 10000 4.6 280 11:29 28.06.2019
5764 Clouds 11 1010 50 10000 5.1 260 10:47 28.06.2019
5765 Clouds 11 1010 50 10000 4.6 270 10:23 28.06.2019
5766 Clouds 11 1010 53 10000 3.6 320 09:59 28.06.2019
5767 Clouds 11 1010 53 10000 3.6 320 09:41 28.06.2019
5768 Clouds 11 1010 50 10000 3.1 320 09:22 28.06.2019
5769 Clouds 10 1010 46 10000 5.1 300 08:41 28.06.2019
5770 Clouds 10 1010 46 10000 3.6 350 08:23 28.06.2019
5771 Clouds 9 1011 57 10000 4.1 300 07:41 28.06.2019
5772 Clear 9 1011 57 10000 3.6 360 06:40 28.06.2019
5773 Clear 7 1011 70 10000 3.1 350 02:56 28.06.2019
5774 Clear 8 1010 65 10000 2.6 350 00:45 28.06.2019
5775 Rain 9 1010 61 10000 4.6 340 23:58 27.06.2019
5776 Rain 9 1010 61 10000 4.6 340 23:40 27.06.2019
5777 Clear 9 1010 57 10000 2.1 260 23:21 27.06.2019
5778 Clear 10 1010 46 10000 1 0 22:42 27.06.2019
5779 Clear 11 1010 43 10000 3.1 340 22:24 27.06.2019
5780 Clear 12 1009 37 10000 4.1 320 21:56 27.06.2019
5781 Clear 12 1009 37 10000 4.1 320 21:37 27.06.2019
5782 Clear 12 1009 37 10000 5.1 330 21:19 27.06.2019
5783 Clear 13 1009 56 10000 4.1 310 20:45 27.06.2019
5784 Clear 13 1009 56 10000 4.1 320 20:26 27.06.2019
5785 Clear 13 1009 56 10000 5.1 330 19:46 27.06.2019
5786 Clear 14 1009 56 10000 6.2 320 19:25 27.06.2019
5787 Clear 14 1009 56 10000 5.1 330 18:44 27.06.2019
5788 Clear 14 1009 47 10000 5.1 350 18:25 27.06.2019
5789 Clear 14 1008 44 10000 5.7 320 17:46 27.06.2019
5790 Clouds 13 1008 54 10000 6.7 350 17:23 27.06.2019
5791 Clear 14 1008 50 10000 6.7 360 16:41 27.06.2019
5792 Clear 15 1008 47 10000 3.1 330 16:20 27.06.2019
5793 Clear 15 1008 47 10000 5.1 340 15:59 27.06.2019
5794 Clear 15 1008 47 10000 5.1 340 15:40 27.06.2019
5795 Clear 14 1008 54 10000 6.7 350 15:18 27.06.2019
5796 Clear 13 1008 54 10000 7.7 340 14:40 27.06.2019
5797 Rain 14 1008 54 10000 5.7 330 14:22 27.06.2019
5798 Rain 11 1008 71 10000 6.2 320 13:44 27.06.2019
5799 Rain 14 1007 54 10000 5.7 350 13:26 27.06.2019
5800 Rain 15 1007 54 10000 5.1 350 12:49 27.06.2019
5801 Rain 13 1007 62 10000 4.1 340 12:31 27.06.2019
5802 Rain 12 1007 71 10000 4.1 310 11:49 27.06.2019
5803 Clouds 13 1007 62 10000 5.1 330 11:25 27.06.2019
5804 Rain 13 1007 66 10000 4.6 310 10:59 27.06.2019
5805 Rain 13 1007 66 10000 4.6 310 10:41 27.06.2019
5806 Clouds 12 1007 66 10000 4.1 330 10:20 27.06.2019
5807 Clouds 12 1007 66 10000 4.6 330 09:49 27.06.2019
5808 Clouds 12 1007 66 10000 5.1 330 09:21 27.06.2019
5809 Clouds 13 1007 62 10000 6.2 340 08:50 27.06.2019
5810 Clouds 12 1007 62 10000 4.6 330 08:29 27.06.2019
5811 Clouds 12 1007 71 10000 3.6 340 07:48 27.06.2019
5812 Clouds 12 1007 76 10000 3.6 320 07:24 27.06.2019
5813 Clouds 11 1007 93 10000 2.6 310 06:37 27.06.2019
5814 Clouds 11 1007 93 10000 2.6 230 03:52 27.06.2019
5815 Clouds 11 1008 93 10000 3.6 220 02:43 27.06.2019
5816 Clouds 11 1008 93 10000 5.7 210 01:45 27.06.2019
5817 Clouds 11 1009 93 10000 4.6 200 00:53 27.06.2019
5818 Clouds 11 1009 93 10000 3.1 180 00:27 27.06.2019
5819 Clouds 12 1009 87 10000 3.6 190 23:51 26.06.2019
5820 Clear 12 1009 87 10000 3.6 180 23:23 26.06.2019
5821 Clear 13 1010 82 10000 4.6 200 22:59 26.06.2019
5822 Clear 13 1010 82 10000 4.6 200 22:40 26.06.2019
5823 Clear 13 1010 82 10000 5.7 200 22:19 26.06.2019
5824 Clear 13 1010 82 10000 5.7 200 21:43 26.06.2019
5825 Clear 13 1010 82 10000 7.2 210 21:21 26.06.2019
5826 Clear 14 1010 71 10000 5.7 200 20:57 26.06.2019
5827 Clear 15 1011 67 10000 5.7 200 20:38 26.06.2019
5828 Clear 15 1011 67 10000 5.7 200 20:20 26.06.2019
5829 Clear 15 1011 67 10000 6.7 210 19:43 26.06.2019
5830 Clear 16 1011 59 10000 7.7 200 19:25 26.06.2019
5831 Clear 15 1012 67 10000 7.2 210 18:46 26.06.2019
5832 Clear 16 1012 59 10000 7.2 220 18:23 26.06.2019
5833 Clear 16 1012 51 10000 9.3 210 17:58 26.06.2019
5834 Clear 16 1012 51 10000 9.3 210 17:38 26.06.2019
5835 Clear 16 1012 51 10000 7.7 220 17:19 26.06.2019
5836 Clear 16 1013 51 10000 7.2 220 16:46 26.06.2019
5837 Clear 17 1013 45 10000 9.8 200 16:22 26.06.2019
5838 Clear 18 1013 48 10000 9.3 220 15:40 26.06.2019
5839 Clear 17 1013 55 10000 9.3 210 15:22 26.06.2019
5840 Clouds 17 1014 59 10000 8.7 200 14:38 26.06.2019
5841 Clouds 17 1014 59 10000 8.7 200 14:19 26.06.2019
5842 Clouds 18 1014 59 10000 8.7 200 13:43 26.06.2019
5843 Clouds 17 1015 63 10000 7.7 200 13:20 26.06.2019
5844 Clouds 17 1015 59 10000 7.7 210 12:42 26.06.2019
5845 Clouds 17 1015 59 10000 7.7 210 12:22 26.06.2019
5846 Clouds 17 1016 55 10000 6.7 190 11:47 26.06.2019
5847 Clouds 17 1016 55 10000 7.2 210 11:20 26.06.2019
5848 Clouds 16 1016 55 10000 5.7 210 10:45 26.06.2019
5849 Clouds 16 1016 59 10000 5.1 210 10:25 26.06.2019
5850 Clouds 15 1017 58 10000 5.1 210 09:44 26.06.2019
5851 Clear 15 1017 58 10000 4.1 220 09:19 26.06.2019
5852 Clear 14 1017 62 10000 4.1 200 08:44 26.06.2019
5853 Clear 13 1017 71 10000 4.1 210 08:20 26.06.2019
5854 Clear 12 1017 71 10000 3.1 210 07:46 26.06.2019
5855 Clear 11 1018 81 10000 4.1 210 06:40 26.06.2019
5856 Clear 11 1018 81 10000 4.6 210 06:21 26.06.2019
5857 Clear 9 1020 87 10000 3.1 200 01:24 26.06.2019
5858 Clear 10 1020 76 10000 2.6 200 00:24 26.06.2019
5859 Clear 11 1020 66 10000 3.1 190 23:45 25.06.2019
5860 Clear 12 1020 62 10000 2.1 180 23:27 25.06.2019
5861 Clear 13 1020 62 10000 2.1 180 22:56 25.06.2019
5862 Clear 13 1020 62 10000 2.1 180 22:37 25.06.2019
5863 Clear 13 1020 62 10000 2.6 210 22:19 25.06.2019
5864 Clear 14 1020 54 10000 2.6 220 21:41 25.06.2019
5865 Clear 15 1021 51 10000 2.6 220 21:21 25.06.2019
5866 Clear 15 1021 51 10000 2.6 230 20:45 25.06.2019
5867 Clear 15 1021 51 10000 2.6 230 20:44 25.06.2019
5868 Clear 16 1021 48 10000 3.1 230 20:21 25.06.2019
5869 Clear 16 1021 44 10000 3.1 240 19:45 25.06.2019
5870 Clear 16 1021 44 10000 3.1 240 19:45 25.06.2019
5871 Clear 15 1021 51 10000 3.1 270 19:23 25.06.2019
5872 Clear 16 1021 41 10000 3.6 260 18:45 25.06.2019
5873 Clear 16 1021 41 10000 3.6 260 18:45 25.06.2019
5874 Clear 16 1022 41 10000 2.1 270 18:26 25.06.2019
5875 -273 0 0 0 0 0 18:00 25.06.2019
5876 -273 0 0 0 0 0 18:00 25.06.2019
5877 -273 0 0 0 0 0 17:59 25.06.2019
5878 -273 0 0 0 0 0 17:59 25.06.2019
5879 Clear 16 1022 48 10000 2.6 290 17:30 25.06.2019
5880 -273 0 0 0 0 0 17:29 25.06.2019
5881 Clear 16 1022 48 10000 2.6 290 17:29 25.06.2019
5882 Clear 15 1022 44 10000 2.1 350 16:57 25.06.2019
5883 Clear 15 1022 44 10000 2.1 350 16:39 25.06.2019
5884 Rain 15 1022 47 10000 3.6 330 16:21 25.06.2019
5885 Clouds 14 1022 54 10000 5.1 310 15:41 25.06.2019
5886 Clouds 15 1022 51 10000 3.1 310 15:21 25.06.2019
5887 Clouds 15 1022 51 10000 3.1 10 14:54 25.06.2019
5888 Rain 14 1022 54 10000 4.6 330 14:35 25.06.2019
5889 Rain 14 1022 58 10000 4.1 350 13:47 25.06.2019
5890 Rain 13 1022 58 10000 3.6 320 13:28 25.06.2019
5891 Clouds 13 1022 66 10000 3.1 320 12:44 25.06.2019
5892 Clouds 12 1023 71 10000 4.1 360 12:25 25.06.2019
5893 Clouds 11 1023 76 10000 3.6 340 11:55 25.06.2019
5894 Clouds 11 1023 76 10000 3.6 340 11:37 25.06.2019
5895 Clouds 10 1023 87 10000 2.6 330 11:18 25.06.2019
5896 Rain 10 1023 93 10000 2.6 350 10:42 25.06.2019
5897 Clouds 10 1023 87 10000 3.6 350 10:22 25.06.2019
5898 Clouds 10 1023 87 10000 3.1 330 09:55 25.06.2019
5899 Clouds 10 1023 87 10000 3.1 330 09:37 25.06.2019
5900 Clouds 9 1023 93 10000 2.6 340 09:18 25.06.2019
5901 Rain 9 1023 93 10000 2.6 10 08:37 25.06.2019
5902 Rain 9 1023 100 10000 2.6 10 08:19 25.06.2019
5903 Rain 9 1023 100 10000 1.5 0 07:39 25.06.2019
5904 Rain 9 1023 100 10000 4.1 220 06:52 25.06.2019
5905 Clouds 10 1023 87 10000 4.1 210 06:28 25.06.2019
5906 Clear 9 1024 87 10000 0.5 0 02:45 25.06.2019
5907 Clear 9 1024 93 10000 3.1 240 01:38 25.06.2019
5908 Clear 10 1024 87 10000 3.1 230 00:35 25.06.2019
5909 Clear 10 1024 87 10000 2.6 210 23:53 24.06.2019
5910 Clear 10 1024 87 10000 3.1 210 23:34 24.06.2019
5911 Clear 11 1024 81 10000 3.1 210 22:59 24.06.2019
5912 Clear 11 1024 81 10000 3.1 210 22:39 24.06.2019
5913 Clear 11 1024 81 10000 2.6 210 22:18 24.06.2019
5914 Clear 11 1024 76 10000 2.6 210 21:39 24.06.2019
5915 Clear 13 1024 66 10000 2.1 250 21:19 24.06.2019
5916 Clear 14 1024 58 10000 2.6 230 20:55 24.06.2019
5917 Clear 14 1024 58 10000 2.6 230 20:37 24.06.2019
5918 Clouds 12 1024 71 10000 2.1 340 20:18 24.06.2019
5919 Clear 12 1024 76 10000 4.1 330 19:41 24.06.2019
5920 Clear 14 1024 54 10000 3.6 270 19:21 24.06.2019
5921 Clouds 15 1024 51 10000 4.6 250 18:43 24.06.2019
5922 Clouds 14 1024 58 10000 2.6 210 18:24 24.06.2019
5923 Clear 15 1024 62 10000 1 0 17:42 24.06.2019
5924 Rain 14 1024 71 10000 2.1 340 17:24 24.06.2019
5925 Clear 15 1024 51 10000 3.1 300 16:45 24.06.2019
5926 Clear 15 1024 51 10000 3.6 220 16:20 24.06.2019
5927 Clouds 15 1024 54 10000 3.1 240 15:46 24.06.2019
5928 Clear 14 1024 62 10000 2.6 260 15:27 24.06.2019
5929 Clear 14 1024 58 10000 3.1 280 14:42 24.06.2019
5930 Clear 13 1024 62 10000 3.6 270 14:24 24.06.2019
5931 Clouds 13 1024 58 10000 3.6 260 13:44 24.06.2019
5932 Clouds 13 1024 58 10000 3.6 300 13:23 24.06.2019
5933 Clouds 13 1023 58 10000 4.1 260 12:42 24.06.2019
5934 Clouds 14 1023 47 10000 1 0 12:21 24.06.2019
5935 Clouds 13 1023 50 10000 2.6 240 11:45 24.06.2019
5936 Clouds 13 1023 54 10000 2.6 310 11:27 24.06.2019
5937 Clouds 13 1023 54 10000 3.1 220 10:53 24.06.2019
5938 Clouds 12 1023 62 10000 3.6 290 10:34 24.06.2019
5939 Clouds 11 1023 71 10000 2.6 300 09:57 24.06.2019
5940 Clouds 11 1023 71 10000 2.6 300 09:38 24.06.2019
5941 Clouds 11 1022 71 10000 3.1 280 09:18 24.06.2019
5942 Clouds 11 1022 71 10000 2.6 10 08:36 24.06.2019
5943 Clouds 10 1022 71 10000 2.6 350 07:58 24.06.2019
5944 Clouds 10 1022 71 10000 2.6 350 07:40 24.06.2019
5945 Clouds 10 1022 81 10000 2.1 330 07:21 24.06.2019
5946 Clouds 9 1021 87 10000 2.1 300 06:23 24.06.2019
5947 Clear 8 1021 100 10000 2.1 320 05:32 24.06.2019
5948 Clouds 8 1021 93 10000 1 0 04:35 24.06.2019
5949 Clouds 8 1020 93 10000 3.1 350 03:44 24.06.2019
5950 Clouds 7 1020 100 10000 4.1 350 02:35 24.06.2019
5951 Clouds 7 1019 100 10000 3.6 320 01:54 24.06.2019
5952 Clouds 7 1019 100 10000 3.1 320 01:28 24.06.2019
5953 Clouds 7 1019 100 10000 3.1 320 00:46 24.06.2019
5954 Clouds 7 1018 100 10000 2.6 320 00:20 24.06.2019
5955 Clouds 7 1018 100 10000 2.6 310 23:47 23.06.2019
5956 Rain 7 1018 100 10000 3.1 310 23:28 23.06.2019
5957 Rain 7 1018 100 10000 2.6 310 22:56 23.06.2019
5958 Rain 7 1018 100 10000 2.6 310 22:38 23.06.2019
5959 Rain 7 1017 100 10000 2.6 300 22:19 23.06.2019
5960 Rain 7 1017 100 10000 2.1 310 21:40 23.06.2019
5961 Rain 8 1017 93 10000 2.6 330 21:21 23.06.2019
5962 Rain 8 1017 93 10000 2.6 320 20:49 23.06.2019
5963 Rain 7 1016 100 10000 2.1 340 20:29 23.06.2019
5964 Rain 7 1016 100 6000 3.1 350 19:46 23.06.2019
5965 Rain 8 1016 93 7000 2.6 300 19:23 23.06.2019
5966 Rain 8 1015 93 10000 4.1 330 18:55 23.06.2019
5967 Rain 8 1015 93 10000 4.1 280 18:27 23.06.2019
5968 Rain 8 1015 93 10000 4.1 300 17:59 23.06.2019
5969 Rain 8 1015 93 10000 4.1 300 17:38 23.06.2019
5970 Mist 8 1014 93 4800 4.6 300 17:19 23.06.2019
5971 Clouds 8 1014 93 9000 5.7 290 16:43 23.06.2019
5972 Rain 8 1014 93 8000 5.1 300 16:23 23.06.2019
5973 Clouds 8 1014 93 10000 4.6 300 15:41 23.06.2019
5974 Mist 8 1013 93 4100 4.6 290 15:22 23.06.2019
5975 Rain 8 1013 93 6000 4.1 290 14:42 23.06.2019
5976 Clouds 8 1012 93 10000 4.6 300 14:24 23.06.2019
5977 Clouds 8 1012 93 10000 5.1 280 13:59 23.06.2019
5978 Clouds 8 1012 93 10000 5.1 280 13:41 23.06.2019
5979 Rain 8 1011 93 6000 4.6 300 13:19 23.06.2019
5980 Rain 8 1010 93 10000 4.6 290 12:47 23.06.2019
5981 Rain 8 1010 93 3900 5.7 300 12:24 23.06.2019
5982 Rain 8 1010 93 8000 6.2 300 11:58 23.06.2019
5983 Rain 8 1010 93 8000 6.2 300 11:40 23.06.2019
5984 Rain 8 1009 93 10000 5.7 300 11:21 23.06.2019
5985 Mist 7 1009 100 3700 5.1 290 10:46 23.06.2019
5986 Rain 7 1008 100 10000 5.7 290 10:20 23.06.2019
5987 Rain 7 1008 100 10000 5.7 290 10:20 23.06.2019
5988 Mist 7 1008 100 2700 5.7 290 09:44 23.06.2019
5989 Mist 7 1007 93 2700 4.6 290 09:21 23.06.2019
5990 Clouds 7 1007 93 10000 5.1 280 08:45 23.06.2019
5991 Clouds 7 1007 93 10000 5.1 280 08:27 23.06.2019
5992 Clouds 7 1007 93 10000 5.1 280 08:27 23.06.2019
5993 Rain 7 1006 93 7000 5.7 300 07:55 23.06.2019
5994 Rain 7 1005 93 10000 5.1 290 07:24 23.06.2019
5995 Mist 7 1005 93 3800 5.7 300 06:54 23.06.2019
5996 Rain 7 1004 93 7000 6.7 300 05:55 23.06.2019
5997 Rain 7 1004 93 7000 6.7 300 05:55 23.06.2019
5998 Rain 8 1003 93 4300 6.2 290 04:38 23.06.2019
5999 Rain 10 1001 100 5000 6.2 310 02:19 23.06.2019
6000 Rain 10 1000 100 10000 4.1 220 01:37 23.06.2019
6001 Rain 10 1000 93 9000 4.6 210 00:37 23.06.2019
6002 Clouds 10 1000 93 10000 3.6 180 23:57 22.06.2019
6003 Clouds 11 1000 87 10000 4.6 200 23:38 22.06.2019
6004 Clouds 11 1000 87 10000 4.6 200 23:19 22.06.2019
6005 Clouds 11 1000 87 10000 4.6 190 22:44 22.06.2019
6006 Clouds 12 1000 87 10000 4.6 190 22:19 22.06.2019
6007 Clouds 13 1000 76 10000 5.1 200 21:38 22.06.2019
6008 Clouds 13 1000 76 10000 5.1 200 21:19 22.06.2019
6009 Clouds 13 1000 82 10000 5.7 200 20:50 22.06.2019
6010 Clouds 14 1000 76 10000 3.6 180 20:25 22.06.2019
6011 Clouds 14 1000 71 10000 5.1 190 19:48 22.06.2019
6012 Clouds 14 1000 76 10000 5.7 190 19:23 22.06.2019
6013 Clouds 14 1000 76 10000 5.1 180 18:50 22.06.2019
6014 Clouds 14 1000 76 10000 4.1 170 18:32 22.06.2019
6015 Clouds 15 1000 67 10000 5.7 170 17:57 22.06.2019
6016 Clouds 15 1000 67 10000 5.7 170 17:35 22.06.2019
6017 Rain 16 1000 63 10000 6.2 180 16:52 22.06.2019
6018 Rain 17 1000 63 10000 7.2 190 16:25 22.06.2019
6019 Clouds 17 999 63 10000 6.7 190 15:58 22.06.2019
6020 Clouds 17 999 63 10000 6.7 190 15:39 22.06.2019
6021 Clouds 18 999 59 10000 5.7 180 15:21 22.06.2019
6022 Clouds 18 1000 59 10000 7.2 190 14:37 22.06.2019
6023 Clouds 18 1000 59 10000 7.7 200 14:18 22.06.2019
6024 Clear 20 1000 42 10000 5.7 180 13:41 22.06.2019
6025 Clear 19 1000 48 10000 4.6 170 13:21 22.06.2019
6026 Clouds 19 1000 52 10000 5.7 180 12:50 22.06.2019
6027 Clouds 19 1000 48 10000 5.1 190 12:32 22.06.2019
6028 Clouds 19 1000 52 10000 5.1 190 11:58 22.06.2019
6029 Thunderstorm 19 1000 52 10000 5.1 180 11:33 22.06.2019
6030 Clouds 20 1000 52 10000 4.6 180 10:49 22.06.2019
6031 Clouds 19 1000 59 10000 4.6 170 10:21 22.06.2019
6032 Clear 19 1001 59 10000 4.1 160 09:46 22.06.2019
6033 Clear 18 1001 59 10000 4.1 150 09:22 22.06.2019
6034 Clear 17 1001 67 10000 3.6 160 08:42 22.06.2019
6035 Clear 16 1001 72 10000 4.1 150 08:20 22.06.2019
6036 Clear 15 1001 77 10000 2.6 170 07:30 22.06.2019
6037 Clear 14 1002 82 10000 2.1 150 06:47 22.06.2019
6038 Clouds 13 1003 93 10000 2.6 170 05:22 22.06.2019
6039 Clouds 13 1003 100 10000 2.6 180 02:33 22.06.2019
6040 Fog 13 1003 100 250 2.6 170 01:18 22.06.2019
6041 Mist 14 1003 93 1500 6.2 220 00:38 22.06.2019
6042 Mist 14 1003 100 2800 5.1 220 23:59 21.06.2019
6043 Mist 14 1003 100 2800 5.1 220 23:39 21.06.2019
6044 Mist 14 1003 100 2400 4.6 200 23:19 21.06.2019
6045 Mist 14 1003 100 2400 4.6 200 23:19 21.06.2019
6046 Clouds 15 1003 93 10000 4.1 200 22:43 21.06.2019
6047 Clouds 16 1003 87 10000 3.6 190 22:23 21.06.2019
6048 Rain 16 1003 93 10000 3.6 230 21:40 21.06.2019
6049 Clouds 16 1003 93 10000 2.1 220 21:22 21.06.2019
6050 Clouds 16 1003 93 10000 3.1 210 20:53 21.06.2019
6051 Clouds 16 1003 93 10000 3.1 210 20:53 21.06.2019
6052 Clouds 17 1003 88 10000 4.1 190 20:27 21.06.2019
6053 Clouds 17 1003 88 10000 3.1 190 19:55 21.06.2019
6054 Clouds 17 1003 88 10000 3.1 210 19:23 21.06.2019
6055 Clouds 17 1003 88 10000 4.6 210 18:43 21.06.2019
6056 Clouds 17 1003 88 10000 4.6 210 18:43 21.06.2019
6057 Clouds 18 1003 82 10000 4.1 210 18:25 21.06.2019
6058 Clouds 18 1003 82 10000 4.6 210 17:41 21.06.2019
6059 Clouds 18 1003 82 10000 5.1 190 17:23 21.06.2019
6060 Clouds 19 1003 77 10000 4.6 190 16:38 21.06.2019
6061 Clouds 19 1003 77 10000 4.1 190 16:19 21.06.2019
6062 Clouds 18 1003 88 10000 5.1 190 15:39 21.06.2019
6063 Rain 18 1003 88 10000 3.1 180 15:18 21.06.2019
6064 Clouds 18 1003 88 10000 3.1 170 14:44 21.06.2019
6065 Clouds 18 1003 82 10000 3.1 180 14:24 21.06.2019
6066 Clouds 18 1004 88 10000 2.1 160 13:42 21.06.2019
6067 Clouds 17 1004 93 10000 2.6 150 13:23 21.06.2019
6068 Clouds 16 1004 93 10000 3.1 160 12:54 21.06.2019
6069 Clouds 15 1004 100 10000 3.1 160 12:23 21.06.2019
6070 Clouds 15 1004 93 10000 2.6 150 11:56 21.06.2019
6071 Clouds 15 1004 93 10000 2.6 150 11:37 21.06.2019
6072 Clouds 14 1004 100 10000 2.1 130 11:19 21.06.2019
6073 Clouds 14 1004 100 10000 2.1 130 11:19 21.06.2019
6074 Clouds 14 1004 100 10000 2.1 130 11:19 21.06.2019
6075 Clouds 14 1004 100 10000 2.6 110 10:44 21.06.2019
6076 Clouds 14 1004 93 10000 2.6 90 10:21 21.06.2019
6077 Rain 13 1004 100 10000 3.6 90 09:43 21.06.2019
6078 Clouds 13 1005 100 10000 4.1 90 09:23 21.06.2019
6079 Rain 13 1005 100 10000 3.1 60 08:56 21.06.2019
6080 Rain 13 1005 100 10000 3.1 60 08:56 21.06.2019
6081 Rain 13 1005 100 10000 3.1 60 08:37 21.06.2019
6082 Rain 13 1005 93 9000 3.1 80 08:19 21.06.2019
6083 Rain 12 1006 100 5000 4.1 90 07:44 21.06.2019
6084 Rain 12 1006 100 7000 4.6 70 07:19 21.06.2019
6085 Rain 12 1007 100 10000 2.6 90 06:29 21.06.2019
6086 Rain 13 1006 93 10000 4.6 70 05:48 21.06.2019
6087 Rain 12 1007 100 10000 3.6 80 04:48 21.06.2019
6088 Clouds 12 1008 100 10000 4.1 70 03:47 21.06.2019
6089 Clear 12 1008 93 10000 4.6 60 03:24 21.06.2019
6090 Clear 12 1009 100 10000 5.7 60 02:26 21.06.2019
6091 Clouds 12 1009 100 10000 4.1 60 01:30 21.06.2019
6092 Rain 12 1010 100 10000 4.1 60 00:35 21.06.2019
6093 Rain 12 1011 100 10000 4.1 60 23:56 20.06.2019
6094 Rain 12 1011 93 10000 3.6 70 23:37 20.06.2019
6095 Rain 12 1011 93 10000 3.6 70 23:19 20.06.2019
6096 Rain 12 1011 93 10000 3.6 50 22:41 20.06.2019
6097 Rain 12 1011 93 10000 4.1 20 22:23 20.06.2019
6098 Rain 12 1011 93 10000 4.6 20 21:56 20.06.2019
6099 Rain 12 1011 87 10000 4.6 360 21:37 20.06.2019
6100 Rain 12 1011 87 10000 4.6 360 21:18 20.06.2019
6101 Rain 13 1011 82 10000 2.6 310 20:41 20.06.2019
6102 Rain 15 1011 72 10000 2.6 230 20:22 20.06.2019
6103 Rain 16 1011 72 10000 1.5 0 19:43 20.06.2019
6104 Rain 17 1011 63 10000 1 0 19:19 20.06.2019
6105 Clear 17 1011 59 10000 1 0 18:56 20.06.2019
6106 Clear 17 1011 59 10000 1 0 18:38 20.06.2019
6107 Clear 17 1011 59 10000 0.5 0 18:20 20.06.2019
6108 Clear 17 1011 63 10000 1.5 40 17:45 20.06.2019
6109 Rain 16 1011 67 10000 1.5 0 17:25 20.06.2019
6110 Rain 16 1011 67 10000 3.1 280 16:42 20.06.2019
6111 Clear 19 1011 45 10000 2.6 170 16:19 20.06.2019
6112 Clear 20 1011 45 10000 2.1 40 15:44 20.06.2019
6113 Rain 18 1012 55 10000 2.6 280 15:24 20.06.2019
6114 Clear 18 1012 48 10000 3.6 190 14:57 20.06.2019
6115 Clear 18 1012 48 10000 3.6 190 14:57 20.06.2019
6116 Clear 18 1012 48 10000 3.6 190 14:38 20.06.2019
6117 Clouds 19 1012 45 10000 3.1 190 14:19 20.06.2019
6118 Rain 19 1012 45 10000 3.1 160 13:39 20.06.2019
6119 Rain 19 1012 45 10000 2.1 180 13:19 20.06.2019
6120 Rain 17 1012 51 10000 1.5 0 12:42 20.06.2019
6121 Rain 15 1012 67 10000 1 0 12:21 20.06.2019
6122 Rain 16 1012 55 10000 3.1 220 11:41 20.06.2019
6123 Rain 17 1012 51 10000 1.5 0 11:23 20.06.2019
6124 Clouds 17 1012 51 10000 3.1 140 10:45 20.06.2019
6125 Clouds 17 1012 51 10000 2.1 140 10:24 20.06.2019
6126 Clouds 16 1012 55 10000 2.6 220 09:55 20.06.2019
6127 Clouds 15 1012 58 10000 1.5 0 09:37 20.06.2019
6128 Clouds 15 1012 58 10000 1.5 0 09:19 20.06.2019
6129 Clouds 15 1012 58 10000 2.1 160 08:44 20.06.2019
6130 Clouds 15 1012 62 10000 2.6 160 08:23 20.06.2019
6131 Clear 14 1012 67 10000 1.5 0 07:47 20.06.2019
6132 Clear 13 1012 76 10000 2.1 140 07:25 20.06.2019
6133 Clear 13 1012 76 10000 2.1 140 07:25 20.06.2019
6134 Clear 13 1012 76 10000 2.1 120 06:22 20.06.2019
6135 Clear 12 1012 76 10000 1.5 70 03:41 20.06.2019
6136 Clear 12 1011 71 10000 1.5 30 02:28 20.06.2019
6137 Clear 11 1010 76 10000 1.5 10 00:33 20.06.2019
6138 Clear 11 1010 81 10000 1.5 10 23:48 19.06.2019
6139 Clear 12 1010 71 10000 1.5 30 23:29 19.06.2019
6140 Clear 12 1010 76 10000 3.1 360 22:49 19.06.2019
6141 Clear 13 1010 71 10000 3.1 350 22:24 19.06.2019
6142 Clear 14 1009 67 10000 2.6 340 21:58 19.06.2019
6143 Clear 14 1009 67 10000 2.6 340 21:38 19.06.2019
6144 Clear 14 1009 67 10000 3.6 350 21:19 19.06.2019
6145 Clear 14 1009 67 10000 3.6 350 20:41 19.06.2019
6146 Rain 14 1009 71 10000 4.1 360 20:21 19.06.2019
6147 Clear 15 1009 54 10000 4.6 330 19:46 19.06.2019
6148 Clear 17 1008 48 10000 1.5 0 19:26 19.06.2019
6149 Clear 17 1008 48 10000 2.6 360 18:56 19.06.2019
6150 Clear 17 1008 45 10000 2.6 300 18:24 19.06.2019
6151 Clouds 17 1008 48 10000 3.1 360 17:47 19.06.2019
6152 Clear 17 1008 48 10000 2.1 190 17:25 19.06.2019
6153 Clear 16 1008 55 10000 3.1 10 16:56 19.06.2019
6154 Clear 16 1008 55 10000 3.1 10 16:36 19.06.2019
6155 Clear 16 1008 48 10000 3.1 360 16:18 19.06.2019
6156 Clouds 16 1008 51 10000 3.6 350 15:42 19.06.2019
6157 Clouds 16 1008 51 10000 2.6 350 15:22 19.06.2019
6158 Clouds 16 1008 51 10000 2.6 350 15:22 19.06.2019
6159 Clear 16 1007 51 10000 2.6 360 14:43 19.06.2019
6160 Clear 16 1007 51 10000 2.6 360 14:43 19.06.2019
6161 Clouds 16 1007 55 10000 4.6 350 14:24 19.06.2019
6162 Clouds 16 1007 51 10000 4.1 320 13:47 19.06.2019
6163 Clouds 15 1007 54 10000 4.1 330 13:28 19.06.2019
6164 Clouds 14 1007 58 10000 4.1 340 12:57 19.06.2019
6165 Clouds 14 1007 58 10000 4.1 340 12:39 19.06.2019
6166 Clouds 14 1007 62 10000 3.1 340 12:18 19.06.2019
6167 Clouds 14 1007 62 10000 4.1 340 11:40 19.06.2019
6168 Clouds 13 1007 66 10000 3.1 340 11:20 19.06.2019
6169 Clouds 13 1007 71 10000 2.6 320 10:47 19.06.2019
6170 Clouds 12 1006 76 10000 3.6 320 10:28 19.06.2019
6171 Clouds 12 1006 76 10000 3.6 300 09:56 19.06.2019
6172 Clouds 12 1006 76 10000 3.6 300 09:36 19.06.2019
6173 Clouds 11 1006 81 10000 4.1 290 09:18 19.06.2019
6174 Clouds 11 1006 81 10000 4.1 340 08:43 19.06.2019
6175 Clouds 11 1006 81 10000 3.1 290 08:24 19.06.2019
6176 Clouds 10 1006 93 10000 3.6 270 07:43 19.06.2019
6177 Clouds 10 1006 93 10000 3.1 260 07:22 19.06.2019
6178 Clouds 10 1005 93 10000 3.6 270 06:36 19.06.2019
6179 Clouds 10 1005 93 10000 3.6 270 06:18 19.06.2019
6180 Clouds 10 1005 93 10000 3.1 280 05:24 19.06.2019
6181 Clouds 11 1005 93 10000 4.1 250 03:53 19.06.2019
6182 Clouds 11 1005 100 10000 3.1 280 02:35 19.06.2019
6183 Clouds 11 1004 100 10000 3.6 260 01:37 19.06.2019
6184 Clouds 12 1004 93 10000 2.6 240 00:53 19.06.2019
6185 Clouds 13 1004 93 10000 4.1 240 00:35 19.06.2019
6186 Clouds 13 1004 93 10000 4.1 220 23:58 18.06.2019
6187 Clear 13 1004 93 10000 4.1 200 23:31 18.06.2019
6188 Clear 15 1004 87 10000 3.6 200 22:56 18.06.2019
6189 Clear 15 1004 87 10000 3.6 200 22:37 18.06.2019
6190 Clouds 15 1004 93 10000 1.5 130 22:19 18.06.2019
6191 Clear 15 1004 87 10000 2.6 360 21:44 18.06.2019
6192 Rain 16 1004 82 10000 1.5 0 21:22 18.06.2019
6193 Clouds 15 1004 87 10000 1.5 210 20:58 18.06.2019
6194 Clouds 15 1004 87 10000 1.5 210 20:38 18.06.2019
6195 Rain 16 1004 82 5000 2.6 220 20:18 18.06.2019
6196 Clear 16 1005 87 10000 1.5 0 19:39 18.06.2019
6197 Clear 16 1005 87 10000 1.5 0 19:20 18.06.2019
6198 Clear 17 1005 88 10000 2.6 360 18:48 18.06.2019
6199 Clouds 17 1005 82 10000 3.1 350 18:25 18.06.2019
6200 Clouds 17 1005 82 10000 2.1 90 17:46 18.06.2019
6201 Clear 16 1006 87 10000 3.1 90 17:21 18.06.2019
6202 Clouds 17 1005 72 10000 4.1 40 16:57 18.06.2019
6203 Clouds 17 1005 72 10000 4.1 40 16:38 18.06.2019
6204 Rain 15 1005 72 10000 5.1 340 16:20 18.06.2019
6205 Rain 17 1005 77 2700 1.5 0 15:38 18.06.2019
6206 Rain 20 1005 49 10000 3.1 150 15:20 18.06.2019
6207 Clear 21 1005 49 10000 3.1 160 14:55 18.06.2019
6208 Clouds 21 1006 49 10000 4.6 140 14:36 18.06.2019
6209 Clouds 21 1006 49 10000 4.6 140 14:18 18.06.2019
6210 Clear 21 1006 46 10000 4.1 130 13:41 18.06.2019
6211 Clear 20 1006 45 10000 3.6 130 13:22 18.06.2019
6212 Clear 20 1006 45 10000 4.1 90 12:44 18.06.2019
6213 Clear 20 1007 45 10000 4.1 70 12:25 18.06.2019
6214 Clear 19 1007 48 10000 4.1 80 11:47 18.06.2019
6215 Clear 19 1007 45 10000 4.1 80 11:23 18.06.2019
6216 Clear 19 1007 45 10000 4.1 80 11:23 18.06.2019
6217 Clear 18 1007 45 10000 4.1 70 10:57 18.06.2019
6218 Clear 18 1007 45 10000 4.1 70 10:37 18.06.2019
6219 Clear 17 1007 48 10000 4.6 50 10:18 18.06.2019
6220 Clear 17 1007 51 10000 4.1 40 09:48 18.06.2019
6221 Clear 17 1007 48 10000 4.6 50 09:24 18.06.2019
6222 Clear 17 1006 48 10000 5.1 60 08:46 18.06.2019
6223 Clear 16 1006 51 10000 4.6 60 08:21 18.06.2019
6224 Clear 16 1006 51 10000 3.1 50 07:41 18.06.2019
6225 Clear 14 1006 58 10000 4.1 40 07:21 18.06.2019
6226 Clear 14 1006 58 10000 4.1 40 06:43 18.06.2019
6227 Clear 14 1006 54 10000 4.6 50 05:21 18.06.2019
6228 Clouds 15 1006 77 10000 3.1 40 02:53 18.06.2019
6229 Clouds 15 1005 82 10000 2.6 70 01:55 18.06.2019
6230 Clear 14 1005 87 10000 3.1 60 01:25 18.06.2019
6231 Clear 14 1005 87 10000 3.1 60 00:55 18.06.2019
6232 Clear 14 1005 87 10000 3.6 60 00:27 18.06.2019
6233 Clear 14 1005 87 10000 3.6 70 23:41 17.06.2019
6234 Clear 14 1005 87 10000 3.1 70 23:20 17.06.2019
6235 Clear 15 1005 82 10000 3.1 80 22:56 17.06.2019
6236 Clear 15 1005 82 10000 3.6 70 22:37 17.06.2019
6237 Clear 15 1005 82 10000 3.6 70 22:19 17.06.2019
6238 Clouds 16 1005 77 10000 3.6 60 21:42 17.06.2019
6239 Clouds 18 1005 59 10000 4.1 40 21:21 17.06.2019
6240 Clouds 18 1005 68 10000 2.1 100 20:37 17.06.2019
6241 Clouds 18 1005 68 10000 2.1 100 20:37 17.06.2019
6242 Clear 19 1005 63 10000 2.6 50 20:19 17.06.2019
6243 Clear 20 1005 68 10000 3.6 210 19:43 17.06.2019
6244 Clear 20 1005 68 10000 4.1 200 19:24 17.06.2019
6245 Clear 20 1005 68 10000 3.1 210 18:58 17.06.2019
6246 Clear 20 1005 68 10000 4.6 230 18:38 17.06.2019
6247 Clear 20 1005 68 10000 4.6 230 18:18 17.06.2019
6248 Clear 20 1005 68 10000 4.6 240 17:47 17.06.2019
6249 Clear 20 1005 68 10000 4.6 240 17:28 17.06.2019
6250 Clear 19 1005 72 10000 4.6 230 16:49 17.06.2019
6251 Clear 19 1005 72 10000 5.1 230 16:31 17.06.2019
6252 Clouds 19 1005 72 10000 5.7 220 15:58 17.06.2019
6253 Rain 20 1006 68 10000 5.1 210 15:39 17.06.2019
6254 Clouds 21 1006 60 10000 4.1 240 15:19 17.06.2019
6255 Clouds 21 1006 60 10000 4.1 240 14:53 17.06.2019
6256 Clouds 21 1006 56 10000 4.6 240 14:34 17.06.2019
6257 Clouds 22 1006 49 10000 2.1 190 13:56 17.06.2019
6258 Clear 22 1006 46 10000 2.1 220 13:38 17.06.2019
6259 Clear 22 1006 46 10000 2.1 220 13:19 17.06.2019
6260 Clear 21 1006 43 10000 3.1 170 12:33 17.06.2019
6261 Clear 21 1006 43 10000 1.5 0 11:58 17.06.2019
6262 Clear 21 1006 43 10000 3.1 60 11:38 17.06.2019
6263 Clear 19 1007 45 10000 2.6 90 11:18 17.06.2019
6264 Clear 19 1007 45 10000 4.1 90 10:44 17.06.2019
6265 Clear 19 1007 45 10000 4.1 90 10:25 17.06.2019
6266 Clear 19 1007 45 10000 3.6 60 09:55 17.06.2019
6267 Clear 17 1007 51 10000 4.1 80 09:31 17.06.2019
6268 Clouds 15 1007 58 10000 4.1 70 08:44 17.06.2019
6269 Clouds 15 1007 58 10000 4.1 70 08:24 17.06.2019
6270 Rain 15 1008 51 10000 3.6 70 07:51 17.06.2019
6271 Rain 15 1008 51 10000 3.6 70 07:32 17.06.2019
6272 Rain 14 1008 54 10000 4.1 50 06:48 17.06.2019
6273 Clear 14 1008 54 10000 3.6 70 05:53 17.06.2019
6274 Clear 13 1008 54 10000 5.1 60 04:59 17.06.2019
6275 Clear 13 1009 50 10000 4.6 60 03:52 17.06.2019
6276 Clear 13 1009 50 10000 4.6 60 03:25 17.06.2019
6277 Clear 13 1009 50 10000 4.1 60 02:42 17.06.2019
6278 Clear 13 1009 47 10000 4.1 60 02:19 17.06.2019
6279 Clear 12 1009 50 10000 3.6 60 01:35 17.06.2019
6280 Clear 14 1010 41 10000 2.6 60 00:47 17.06.2019
6281 Clear 14 1010 41 10000 2.6 60 00:24 17.06.2019
6282 Clear 15 1010 38 10000 3.6 40 23:56 16.06.2019
6283 Clear 16 1010 36 10000 4.1 30 23:36 16.06.2019
6284 Clear 16 1010 36 10000 3.1 40 23:18 16.06.2019
6285 Clear 17 1010 36 10000 3.1 50 22:39 16.06.2019
6286 Clear 17 1010 36 10000 3.1 50 22:19 16.06.2019
6287 Clear 17 1010 36 10000 3.1 50 21:56 16.06.2019
6288 Clear 18 1010 34 10000 4.6 40 21:38 16.06.2019
6289 Clear 19 1010 32 10000 4.6 30 21:19 16.06.2019
6290 Clear 20 1010 30 10000 4.1 30 20:37 16.06.2019
6291 Clear 20 1010 30 10000 4.1 30 20:19 16.06.2019
6292 Clear 20 1010 30 10000 4.1 30 20:19 16.06.2019
6293 Clear 21 1010 26 10000 3.6 10 19:55 16.06.2019
6294 Clear 21 1009 26 10000 3.6 20 19:37 16.06.2019
6295 Clear 21 1009 26 10000 3.6 20 19:37 16.06.2019
6296 Clear 21 1010 28 10000 3.6 360 19:19 16.06.2019
6297 Clear 21 1010 28 10000 3.6 360 19:19 16.06.2019
6298 Clear 22 1010 26 10000 3.6 10 18:41 16.06.2019
6299 Clear 22 1010 26 10000 3.6 10 18:21 16.06.2019
6300 Clear 22 1010 26 10000 4.6 360 17:49 16.06.2019
6301 Clear 22 1010 26 10000 4.6 360 17:24 16.06.2019
6302 Clear 22 1010 24 10000 3.6 360 16:57 16.06.2019
6303 Clear 22 1010 24 10000 4.1 350 16:39 16.06.2019
6304 Clear 22 1010 24 10000 4.1 350 16:21 16.06.2019
6305 Clear 21 1010 28 10000 3.6 360 15:45 16.06.2019
6306 Clear 21 1010 28 10000 3.6 360 15:26 16.06.2019
6307 Clear 21 1010 28 10000 3.6 350 14:45 16.06.2019
6308 Clear 21 1010 28 10000 3.6 350 14:25 16.06.2019
6309 Clear 21 1010 30 10000 5.1 10 13:57 16.06.2019
6310 Clear 21 1011 28 10000 5.1 360 13:39 16.06.2019
6311 Clear 21 1011 28 10000 5.1 360 13:20 16.06.2019
6312 Clear 20 1011 28 10000 4.1 330 12:42 16.06.2019
6313 Clear 20 1011 28 10000 4.1 330 12:21 16.06.2019
6314 Clear 20 1011 30 10000 5.7 360 11:49 16.06.2019
6315 Clear 19 1011 32 10000 4.1 360 11:21 16.06.2019
6316 Clear 19 1011 32 10000 4.1 360 10:59 16.06.2019
6317 Clear 19 1011 29 10000 5.7 360 10:41 16.06.2019
6318 Clear 19 1011 34 10000 4.1 360 10:18 16.06.2019
6319 Clear 18 1011 34 10000 4.6 360 09:41 16.06.2019
6320 Clear 18 1011 34 10000 4.6 360 09:23 16.06.2019
6321 Clear 17 1011 36 10000 3.1 340 08:42 16.06.2019
6322 Clear 17 1011 36 10000 3.1 340 08:19 16.06.2019
6323 Clear 17 1011 36 10000 3.1 340 08:19 16.06.2019
6324 Clear 17 1011 36 10000 3.6 360 07:44 16.06.2019
6325 Clear 17 1011 36 10000 3.6 360 07:20 16.06.2019
6326 Clear 16 1011 38 10000 5.1 20 06:49 16.06.2019
6327 Clear 16 1011 38 10000 5.7 30 05:52 16.06.2019
6328 Clear 14 1011 54 10000 3.1 30 05:18 16.06.2019
6329 Clear 13 1011 66 10000 2.1 340 03:58 16.06.2019
6330 Clear 11 1011 76 10000 1.5 260 03:33 16.06.2019
6331 Clear 12 1011 71 10000 3.1 220 02:36 16.06.2019
6332 Clear 12 1012 62 10000 2.6 230 01:47 16.06.2019
6333 Clear 12 1012 62 10000 2.6 230 01:27 16.06.2019
6334 Clear 14 1012 50 10000 3.6 210 00:41 16.06.2019
6335 Clear 14 1012 50 10000 3.6 210 00:22 16.06.2019
6336 Clear 16 1012 41 10000 2.1 230 23:46 15.06.2019
6337 Clear 16 1012 41 10000 2.1 230 23:25 15.06.2019
6338 Clear 16 1012 44 10000 2.6 230 22:50 15.06.2019
6339 Clear 17 1012 42 10000 2.1 190 22:28 15.06.2019
6340 Clear 18 1012 36 10000 1 180 21:58 15.06.2019
6341 Clear 19 1012 34 10000 1 0 21:40 15.06.2019
6342 Clear 19 1012 34 10000 1 0 21:20 15.06.2019
6343 Clear 20 1013 30 10000 2.1 10 20:43 15.06.2019
6344 Clear 20 1013 30 10000 2.1 10 20:22 15.06.2019
6345 Clear 20 1013 30 10000 2.6 350 19:46 15.06.2019
6346 Clear 20 1013 30 10000 2.6 350 19:24 15.06.2019
6347 Clear 20 1013 30 10000 2.6 350 18:41 15.06.2019
6348 Clear 20 1013 30 10000 2.6 350 18:21 15.06.2019
6349 Clear 20 1014 30 10000 4.1 350 17:43 15.06.2019
6350 Clear 20 1014 30 10000 4.1 350 17:25 15.06.2019
6351 Clear 20 1014 29 10000 2.6 300 16:48 15.06.2019
6352 Clear 19 1014 34 10000 3.6 360 16:20 15.06.2019
6353 Clear 19 1014 32 10000 2.6 320 15:44 15.06.2019
6354 Clear 19 1014 32 10000 2.6 320 15:44 15.06.2019
6355 Clear 19 1014 32 10000 2.6 320 15:24 15.06.2019
6356 Clear 18 1015 34 10000 3.1 360 14:44 15.06.2019
6357 Clear 18 1015 34 10000 3.1 360 14:20 15.06.2019
6358 Clear 18 1015 34 10000 1.5 0 13:58 15.06.2019
6359 Clear 18 1015 36 10000 3.1 320 13:40 15.06.2019
6360 Clear 18 1015 36 10000 3.1 320 13:19 15.06.2019
6361 Clear 17 1015 36 10000 3.1 350 12:51 15.06.2019
6362 Clear 17 1015 36 10000 3.1 350 12:26 15.06.2019
6363 Clear 17 1015 36 10000 2.6 30 11:53 15.06.2019
6364 Clear 17 1015 36 10000 2.6 30 11:53 15.06.2019
6365 Clear 16 1015 38 10000 3.1 360 11:33 15.06.2019
6366 Clear 16 1015 44 10000 3.1 20 10:54 15.06.2019
6367 Clear 15 1015 44 10000 4.6 30 10:36 15.06.2019
6368 Clear 15 1016 44 10000 4.1 20 10:18 15.06.2019
6369 Clear 15 1016 44 10000 4.6 30 09:42 15.06.2019
6370 Clear 15 1016 44 10000 4.6 30 09:21 15.06.2019
6371 Clear 13 1015 47 10000 5.7 20 08:46 15.06.2019
6372 Clear 13 1015 47 10000 5.7 20 08:28 15.06.2019
6373 Clear 13 1015 47 10000 5.1 40 07:43 15.06.2019
6374 Clear 13 1015 47 10000 5.1 40 07:21 15.06.2019
6375 Clear 12 1015 50 10000 6.2 30 06:38 15.06.2019
6376 -273 0 0 0 0 0 05:56 15.06.2019
6377 Clear 12 1015 50 10000 7.2 40 05:23 15.06.2019
6378 Clear 11 1015 57 10000 6.2 30 04:37 15.06.2019
6379 Clear 11 1014 53 10000 4.6 40 03:38 15.06.2019
6380 Clear 12 1014 54 10000 4.1 40 02:48 15.06.2019
6381 Clear 13 1014 47 10000 4.6 20 01:59 15.06.2019
6382 Clear 13 1014 47 10000 4.1 30 01:40 15.06.2019
6383 Clear 14 1014 50 10000 4.1 30 00:44 15.06.2019
6384 Clear 14 1014 50 10000 4.1 30 00:44 15.06.2019
6385 Clear 14 1014 50 10000 4.1 30 00:26 15.06.2019
6386 Clear 16 1013 44 10000 3.6 20 23:52 14.06.2019
6387 Clear 17 1013 36 10000 2.1 290 23:25 14.06.2019
6388 Clear 18 1013 36 10000 1 290 22:43 14.06.2019
6389 Clear 18 1013 36 10000 1 290 22:22 14.06.2019
6390 Clear 18 1013 42 10000 1 310 21:49 14.06.2019
6391 Clear 20 1013 34 10000 1.5 360 21:31 14.06.2019
6392 Clear 20 1013 32 10000 2.1 350 20:58 14.06.2019
6393 Clear 20 1014 30 10000 2.1 340 20:39 14.06.2019
6394 Clear 19 1014 44 0 1.14 8.899 20:18 14.06.2019
6395 Clear 21 1014 30 10000 2.1 340 19:43 14.06.2019
6396 Clear 21 1014 30 10000 2.1 340 19:23 14.06.2019
6397 Clear 21 1014 28 10000 2.1 350 18:56 14.06.2019
6398 Clear 21 1014 30 10000 3.1 360 18:37 14.06.2019
6399 Clear 21 1014 28 10000 1.5 0 18:19 14.06.2019
6400 Clear 21 1015 30 10000 3.1 10 17:46 14.06.2019
6401 Clear 21 1015 30 10000 3.1 10 17:24 14.06.2019
6402 Clear 21 1015 28 10000 3.6 350 16:54 14.06.2019
6403 Clear 20 1015 30 10000 2.1 310 16:29 14.06.2019
6404 Clear 20 1016 30 10000 3.1 10 15:59 14.06.2019
6405 Clear 20 1016 30 10000 2.1 320 15:39 14.06.2019
6406 Clear 20 1016 30 10000 2.1 320 15:20 14.06.2019
6407 Clear 20 1016 30 10000 2.1 320 15:20 14.06.2019
6408 Clear 20 1016 30 10000 2.1 320 15:20 14.06.2019
6409 Clear 20 1016 30 10000 2.1 320 15:20 14.06.2019
6410 Clouds 21 1017 28 0 2.28 291.303 14:50 14.06.2019
6411 Clouds 21 1017 28 0 2.28 291.303 14:31 14.06.2019
6412 Clear 20 1017 28 10000 2.6 80 13:49 14.06.2019
6413 Clear 19 1018 32 10000 2.6 290 13:30 14.06.2019
6414 Clear 18 1018 34 10000 2.1 110 13:00 14.06.2019
6415 Clear 19 1018 34 10000 1.5 0 12:40 14.06.2019
6416 Clear 19 1018 34 10000 1.5 0 12:21 14.06.2019
6417 Clear 17 1019 36 10000 1.5 0 11:43 14.06.2019
6418 Clear 17 1019 36 10000 1.5 0 11:23 14.06.2019
6419 Clear 17 1019 36 10000 1 0 10:49 14.06.2019
6420 Clear 17 1019 36 10000 1.5 0 10:22 14.06.2019
6421 Clear 16 1019 36 10000 1.5 0 09:55 14.06.2019
6422 Clear 16 1019 38 10000 1.5 0 09:34 14.06.2019
6423 Clear 15 1019 44 10000 1.5 0 08:56 14.06.2019
6424 Clear 15 1020 44 10000 1 0 08:38 14.06.2019
6425 Clear 15 1020 41 10000 2.1 70 08:18 14.06.2019
6426 Clear 14 1020 47 10000 2.6 60 07:43 14.06.2019
6427 Clear 14 1020 47 10000 2.6 60 07:19 14.06.2019
6428 Clear 14 1020 47 10000 2.1 50 06:27 14.06.2019
6429 Clear 13 1020 50 10000 1.5 40 05:49 14.06.2019
6430 Clear 12 1021 58 10000 2.6 40 04:55 14.06.2019
6431 Clear 11 1021 62 10000 3.1 50 04:28 14.06.2019
6432 Clear 11 1021 57 10000 2.6 50 03:41 14.06.2019
6433 Clear 11 1021 57 10000 2.6 50 03:23 14.06.2019
6434 Clear 9 1022 70 10000 2.6 40 02:41 14.06.2019
6435 Clear 11 1022 57 10000 3.1 90 01:53 14.06.2019
6436 Clear 11 1022 62 10000 2.1 60 00:41 14.06.2019
6437 Clear 11 1022 62 10000 3.1 90 00:22 14.06.2019
6438 Clear 12 1022 58 10000 2.6 70 23:50 13.06.2019
6439 Clear 11 1022 62 10000 3.1 90 23:50 13.06.2019
6440 Clear 12 1022 58 10000 2.6 70 23:25 13.06.2019
6441 Clear 12 1022 58 10000 3.1 40 22:41 13.06.2019
6442 Clear 12 1022 58 10000 3.1 40 22:22 13.06.2019
6443 Clear 13 1022 54 10000 3.1 50 21:59 13.06.2019
6444 Clear 14 1022 47 10000 4.1 40 21:38 13.06.2019
6445 Clear 13 1022 50 10000 3.6 40 21:19 13.06.2019
6446 Clear 14 1022 47 10000 3.1 60 20:45 13.06.2019
6447 Clear 14 1023 47 10000 3.1 50 20:20 13.06.2019
6448 Clear 14 1023 47 10000 3.1 50 19:43 13.06.2019
6449 Clear 14 1023 47 10000 3.1 50 19:25 13.06.2019
6450 Clear 15 1023 41 10000 3.1 50 18:59 13.06.2019
6451 Clear 15 1023 41 10000 3.6 40 18:41 13.06.2019
6452 Clear 15 1023 41 10000 3.6 50 18:22 13.06.2019
6453 Clear 15 1023 44 10000 3.1 60 17:45 13.06.2019
6454 Clear 15 1023 44 10000 3.1 60 17:22 13.06.2019
6455 Clear 15 1024 41 10000 3.1 70 16:59 13.06.2019
6456 Clear 15 1024 38 10000 3.1 70 16:41 13.06.2019
6457 Clear 15 1024 41 10000 3.1 70 16:20 13.06.2019
6458 Clear 15 1024 38 10000 2.6 90 15:41 13.06.2019
6459 Clear 15 1024 38 10000 2.6 90 15:22 13.06.2019
6460 Clear 16 1025 36 10000 3.6 40 14:50 13.06.2019
6461 Clear 16 1025 36 10000 3.6 40 14:31 13.06.2019
6462 Clouds 18 1026 29 0 2.12 187.775 13:55 13.06.2019
6463 Clear 15 1025 38 10000 2.6 50 13:37 13.06.2019
6464 Clear 15 1025 29 10000 3.1 140 13:19 13.06.2019
6465 Clear 14 1026 29 10000 3.1 90 12:40 13.06.2019
6466 Clear 14 1026 32 10000 3.1 90 12:21 13.06.2019
6467 Clear 14 1026 41 10000 3.1 120 11:44 13.06.2019
6468 Clear 14 1026 41 10000 3.1 120 11:25 13.06.2019
6469 Clear 13 1027 32 10000 2.1 140 10:49 13.06.2019
6470 Clear 13 1027 32 10000 2.1 140 10:29 13.06.2019
6471 Clear 13 1027 43 10000 3.1 140 09:53 13.06.2019
6472 Clear 12 1027 46 10000 3.1 110 09:32 13.06.2019
6473 Clouds 12 1027 44 10000 1.5 0 08:57 13.06.2019
6474 Clouds 12 1027 44 10000 1.5 0 08:57 13.06.2019
6475 Clouds 13 1029 44 0 2.56 160.495 08:38 13.06.2019
6476 Clouds 13 1029 44 0 2.56 160.495 08:19 13.06.2019
6477 Clear 11 1027 50 10000 2.1 150 07:39 13.06.2019
6478 Clear 11 1027 50 10000 2.1 150 07:21 13.06.2019
6479 Clear 9 1028 66 10000 2.1 150 06:40 13.06.2019
6480 Clear 9 1028 66 10000 2.1 150 06:22 13.06.2019
6481 Clear 9 1028 61 10000 2.1 140 05:44 13.06.2019
6482 Clear 9 1028 61 10000 2.1 140 05:26 13.06.2019
6483 Clear 8 1028 70 10000 2.1 140 03:50 13.06.2019
6484 Clear 7 1028 70 10000 1 60 02:20 13.06.2019
6485 Clear 8 1028 65 10000 3.1 240 00:36 13.06.2019
6486 Clear 9 1028 61 10000 3.1 230 23:38 12.06.2019
6487 Clear 9 1028 61 10000 3.1 230 23:20 12.06.2019
6488 Clear 10 1028 57 10000 3.6 220 22:41 12.06.2019
6489 Clear 10 1028 57 10000 3.6 220 22:22 12.06.2019
6490 Clear 11 1028 57 10000 2.6 190 21:47 12.06.2019
6491 Clear 11 1028 57 10000 2.6 190 21:28 12.06.2019
6492 Clear 12 1028 50 10000 2.1 180 20:49 12.06.2019
6493 Clear 13 1027 47 10000 1 0 20:30 12.06.2019
6494 Clear 13 1027 43 10000 1 0 19:58 12.06.2019
6495 Clear 13 1027 43 10000 1 0 19:39 12.06.2019
6496 Clear 13 1027 43 10000 1 0 19:21 12.06.2019
6497 Clear 13 1028 47 10000 1 0 18:48 12.06.2019
6498 Clear 13 1028 47 10000 1 0 18:28 12.06.2019
6499 Clear 13 1028 37 10000 2.1 190 17:48 12.06.2019
6500 Clear 13 1028 37 10000 2.1 190 17:23 12.06.2019
6501 Clear 12 1028 37 10000 2.6 210 16:57 12.06.2019
6502 Clouds 15 1029 37 0 0.43 262.001 16:37 12.06.2019
6503 Clear 13 1029 43 10000 1.5 0 16:19 12.06.2019
6504 Clear 12 1029 37 10000 1 0 15:46 12.06.2019
6505 Clear 12 1029 36 10000 1 0 15:25 12.06.2019
6506 Clear 11 1029 43 10000 2.6 40 14:36 12.06.2019
6507 Clear 12 1029 40 10000 2.6 70 14:18 12.06.2019
6508 Clear 11 1030 36 10000 2.6 300 13:41 12.06.2019
6509 Clear 12 1030 36 10000 2.1 220 13:20 12.06.2019
6510 Clear 12 1030 36 10000 2.1 220 12:56 12.06.2019
6511 Clouds 10 1030 46 10000 2.6 310 12:37 12.06.2019
6512 Clouds 10 1030 46 10000 3.1 260 12:18 12.06.2019
6513 Clouds 10 1030 46 10000 1 0 11:43 12.06.2019
6514 -273 0 0 0 0 0 11:43 12.06.2019
6515 Clouds 10 1030 46 10000 1 0 11:25 12.06.2019
6516 Clouds 12 1031 40 0 1.58 314.309 10:46 12.06.2019
6517 Clouds 12 1031 40 0 1.58 314.309 10:23 12.06.2019
6518 Clouds 8 1030 52 10000 1.5 0 09:43 12.06.2019
6519 Clouds 8 1030 52 10000 1.5 0 09:23 12.06.2019
6520 Clouds 8 1030 49 10000 3.1 20 08:47 12.06.2019
6521 Clouds 8 1030 49 10000 3.1 20 08:20 12.06.2019
6522 Clouds 7 1030 45 10000 2.6 350 07:37 12.06.2019
6523 Clear 6 1030 70 10000 2.1 330 06:43 12.06.2019
6524 Clear 5 1030 75 10000 2.1 280 05:27 12.06.2019
6525 Clear 4 1030 80 10000 2.1 350 03:55 12.06.2019
6526 Clear 4 1030 74 10000 3.1 40 01:26 12.06.2019
6527 Clear 4 1029 73 10000 3.6 360 00:38 12.06.2019
6528 Clear 5 1029 67 10000 3.1 350 23:45 11.06.2019
6529 Clear 5 1029 67 10000 3.1 350 23:27 11.06.2019
6530 Clear 6 1029 68 10000 4.1 340 22:43 11.06.2019
6531 Clear 6 1029 68 10000 2.6 340 22:19 11.06.2019
6532 Clear 6 1029 68 10000 2.6 340 21:57 11.06.2019
6533 Clear 6 1028 68 10000 2.6 350 21:37 11.06.2019
6534 Clear 6 1028 60 10000 2.1 340 21:19 11.06.2019
6535 Clear 7 1028 52 10000 1 0 20:47 11.06.2019
6536 -273 0 0 0 0 0 20:24 11.06.2019
6537 Clear 7 1028 52 10000 1 0 19:53 11.06.2019
6538 Clear 7 1028 52 10000 2.1 10 19:31 11.06.2019
6539 Clouds 7 1028 52 10000 4.1 350 18:55 11.06.2019
6540 Clouds 7 1028 48 10000 5.1 10 18:21 11.06.2019
6541 Clouds 6 1028 52 10000 5.1 10 17:42 11.06.2019
6542 Clouds 6 1028 52 10000 5.1 10 17:22 11.06.2019
6543 Clear 7 1027 45 10000 5.7 340 16:56 11.06.2019
6544 Clouds 6 1027 56 10000 5.1 360 16:37 11.06.2019
6545 Clouds 6 1027 56 10000 6.2 10 16:19 11.06.2019
6546 Clear 7 1027 56 10000 4.6 340 15:41 11.06.2019
6547 Clear 7 1027 56 10000 4.6 340 15:20 11.06.2019
6548 Clouds 8 1028 45 0 3.9 1.044 14:44 11.06.2019
6549 Clouds 8 1028 45 0 3.9 1.044 14:21 11.06.2019
6550 Clouds 8 1028 45 0 3.9 1.044 13:50 11.06.2019
6551 Clouds 6 1026 60 10000 6.2 340 13:23 11.06.2019
6552 Clouds 6 1026 60 10000 5.7 340 12:43 11.06.2019
6553 Clouds 6 1026 60 10000 5.7 340 12:22 11.06.2019
6554 Clouds 5 1026 60 10000 6.7 340 11:58 11.06.2019
6555 Clouds 7 1026 47 0 4.65 356.6 11:36 11.06.2019
6556 Clouds 6 1025 60 10000 5.1 340 11:18 11.06.2019
6557 Rain 5 1025 65 10000 4.6 340 10:43 11.06.2019
6558 Rain 5 1025 65 10000 4.6 340 10:24 11.06.2019
6559 Rain 5 1024 65 10000 5.7 330 09:46 11.06.2019
6560 Rain 5 1024 65 10000 5.7 330 09:23 11.06.2019
6561 Clouds 4 1023 69 10000 6.2 330 08:42 11.06.2019
6562 Clouds 4 1023 69 10000 6.2 330 08:23 11.06.2019
6563 Clouds 3 1022 74 10000 5.1 340 07:37 11.06.2019
6564 Clouds 3 1022 74 10000 5.1 340 06:54 11.06.2019
6565 Clouds 3 1021 74 10000 6.2 330 06:24 11.06.2019
6566 Clouds 2 1020 80 10000 6.2 340 04:49 11.06.2019
6567 Clouds 2 1018 80 10000 5.1 340 02:44 11.06.2019
6568 Clouds 3 1017 69 10000 6.2 330 01:23 11.06.2019
6569 Clouds 3 1016 69 10000 6.2 320 00:44 11.06.2019
6570 Clouds 4 1015 80 10000 6.2 320 23:47 10.06.2019
6571 Clouds 4 1015 80 10000 6.2 320 23:21 10.06.2019
6572 Clouds 4 1013 80 10000 5.1 330 22:47 10.06.2019
6573 Clouds 4 1013 80 10000 5.1 330 22:29 10.06.2019
6574 Clear 5 1013 75 10000 5.7 330 21:59 10.06.2019
6575 Clouds 5 1012 75 10000 5.7 330 21:39 10.06.2019
6576 Clouds 5 1012 75 10000 5.7 330 21:21 10.06.2019
6577 Clouds 6 1011 75 10000 6.2 300 20:44 10.06.2019
6578 Clouds 6 1011 75 10000 6.2 300 20:44 10.06.2019
6579 Clouds 6 1011 75 10000 6.2 300 20:23 10.06.2019
6580 Clouds 6 1011 81 10000 6.7 310 19:51 10.06.2019
6581 Clouds 7 1010 81 10000 6.7 300 19:27 10.06.2019
6582 Clouds 7 1009 87 10000 6.2 310 18:59 10.06.2019
6583 Clouds 8 1009 87 10000 7.7 300 18:40 10.06.2019
6584 Clouds 8 1009 87 10000 7.7 300 18:20 10.06.2019
6585 Rain 9 1008 93 10000 5.1 310 17:44 10.06.2019
6586 Rain 9 1008 93 10000 5.1 310 17:24 10.06.2019
6587 Rain 9 1007 93 10000 4.1 300 16:56 10.06.2019
6588 Rain 10 1007 93 10000 5.1 300 16:38 10.06.2019
6589 Rain 11 1006 93 6000 6.7 260 16:18 10.06.2019
6590 Rain 12 1006 87 10000 5.7 240 15:41 10.06.2019
6591 Rain 12 1006 87 10000 5.7 240 15:23 10.06.2019
6592 Rain 12 1005 87 10000 6.2 260 14:49 10.06.2019
6593 Rain 14 1005 80 0 4.49 248.438 14:30 10.06.2019
6594 Rain 14 1005 71 10000 7.2 260 13:56 10.06.2019
6595 Rain 14 1004 76 10000 5.7 250 13:38 10.06.2019
6596 Rain 14 1004 76 10000 5.7 250 13:19 10.06.2019
6597 Thunderstorm 14 1004 82 10000 8.2 200 12:40 10.06.2019
6598 Thunderstorm 14 1004 82 10000 8.2 200 12:22 10.06.2019
6599 Rain 12 1004 93 10000 6.2 190 11:43 10.06.2019
6600 Rain 13 1004 87 10000 7.7 200 11:19 10.06.2019
6601 Rain 13 1004 87 10000 7.7 200 11:19 10.06.2019
6602 Rain 18 1004 53 0 6.54 220.971 10:42 10.06.2019
6603 Rain 18 1004 53 0 6.54 220.971 10:20 10.06.2019
6604 Clouds 14 1004 76 10000 7.2 200 09:55 10.06.2019
6605 Clouds 14 1004 76 10000 7.7 200 09:32 10.06.2019
6606 Clouds 14 1003 76 10000 7.7 200 08:50 10.06.2019
6607 Clouds 14 1003 76 10000 7.7 200 08:27 10.06.2019
6608 Rain 12 1004 81 10000 6.7 200 07:46 10.06.2019
6609 Rain 11 1004 87 10000 6.2 190 06:26 10.06.2019
6610 Clouds 10 1005 87 10000 9.3 200 03:46 10.06.2019
6611 Clear 11 1005 81 10000 8.7 200 01:56 10.06.2019
6612 Clear 11 1006 81 10000 8.2 200 01:23 10.06.2019
6613 Clear 11 1006 76 10000 9.8 200 00:47 10.06.2019
6614 Clear 11 1006 76 10000 9.8 200 23:49 09.06.2019
6615 Clear 12 1006 71 10000 9.3 200 23:25 09.06.2019
6616 Clear 12 1006 76 10000 8.7 200 22:59 09.06.2019
6617 Clear 12 1006 76 10000 8.7 190 22:39 09.06.2019
6618 Clear 12 1006 76 10000 8.7 190 22:21 09.06.2019
6619 Clear 12 1007 76 10000 8.2 190 21:39 09.06.2019
6620 Clear 12 1007 76 10000 8.2 190 21:21 09.06.2019
6621 Clear 13 1007 76 10000 9.8 190 20:42 09.06.2019
6622 Clear 13 1007 76 10000 9.8 190 20:22 09.06.2019
6623 Clear 13 1008 82 10000 6.7 190 19:46 09.06.2019
6624 Clear 13 1008 82 10000 8.2 200 19:19 09.06.2019
6625 Clear 13 1008 82 10000 8.2 200 18:56 09.06.2019
6626 Clear 13 1008 82 10000 7.7 210 18:36 09.06.2019
6627 Clouds 13 1008 87 10000 6.2 210 18:18 09.06.2019
6628 Clouds 14 1008 93 10000 7.2 220 17:42 09.06.2019
6629 Clouds 14 1008 93 10000 7.2 220 17:23 09.06.2019
6630 Rain 16 1007 100 10000 5.7 220 16:41 09.06.2019
6631 Rain 16 1007 100 10000 5.7 220 16:21 09.06.2019
6632 Rain 16 1007 100 8000 4.6 240 15:51 09.06.2019
6633 Rain 17 1007 93 6000 7.2 220 15:29 09.06.2019
6634 Rain 22 1009 66 0 4.76 203.221 14:58 09.06.2019
6635 Clouds 20 1008 82 10000 4.6 220 14:39 09.06.2019
6636 Clouds 20 1008 82 10000 4.6 210 14:19 09.06.2019
6637 Clouds 20 1008 82 10000 5.7 200 13:48 09.06.2019
6638 Clouds 20 1008 82 10000 3.6 190 12:58 09.06.2019
6639 Rain 19 1009 88 10000 4.6 190 12:38 09.06.2019
6640 Clouds 21 1009 73 10000 6.2 180 12:19 09.06.2019
6641 Clouds 22 1009 68 10000 3.6 200 11:38 09.06.2019
6642 Clear 22 1009 68 10000 4.1 200 11:19 09.06.2019
6643 Clear 23 1010 60 10000 4.6 210 10:43 09.06.2019
6644 Clear 23 1010 60 10000 4.6 210 10:22 09.06.2019
6645 Clear 22 1010 64 10000 4.6 220 09:40 09.06.2019
6646 Clear 21 1010 68 10000 6.2 210 09:21 09.06.2019
6647 Clear 21 1010 68 10000 5.7 200 08:45 09.06.2019
6648 Clear 21 1010 68 10000 5.7 200 08:19 09.06.2019
6649 Clear 18 1011 77 10000 4.1 190 06:48 09.06.2019
6650 Clear 18 1011 77 10000 4.1 190 06:29 09.06.2019
6651 Clear 15 1012 87 10000 2.1 170 03:25 09.06.2019
6652 Clear 15 1012 87 10000 4.1 200 01:38 09.06.2019
6653 Clear 16 1012 82 10000 5.7 210 01:19 09.06.2019
6654 Clear 17 1013 77 10000 6.2 210 00:42 09.06.2019
6655 Clear 18 1013 77 10000 6.2 200 23:42 08.06.2019
6656 Clear 18 1013 77 10000 6.2 200 23:23 08.06.2019
6657 Clear 18 1013 72 10000 5.7 200 22:56 08.06.2019
6658 Clear 19 1013 68 10000 5.7 190 22:37 08.06.2019
6659 Clear 20 1013 68 10000 4.6 180 22:18 08.06.2019
6660 Clear 20 1013 64 10000 7.7 210 21:49 08.06.2019
6661 Clear 20 1013 64 10000 7.7 210 21:24 08.06.2019
6662 Clear 21 1012 68 10000 7.2 210 20:46 08.06.2019
6663 Clear 21 1012 68 10000 7.2 210 20:25 08.06.2019
6664 Clear 22 1012 64 10000 7.2 210 19:58 08.06.2019
6665 Clear 23 1012 60 10000 7.2 210 19:38 08.06.2019
6666 Clear 23 1012 60 10000 8.2 210 19:19 08.06.2019
6667 Clear 24 1012 57 10000 8.2 210 18:41 08.06.2019
6668 Clear 24 1012 57 10000 8.2 210 18:23 08.06.2019
6669 Clear 24 1013 57 10000 8.2 200 17:45 08.06.2019
6670 Clear 24 1013 57 10000 8.2 200 17:22 08.06.2019
6671 Clear 25 1013 53 10000 9.8 210 16:53 08.06.2019
6672 Clear 25 1013 53 10000 8.2 200 16:34 08.06.2019
6673 Clear 25 1013 57 10000 8.2 210 15:52 08.06.2019
6674 Clear 24 1012 50 0 5.94 213.899 15:33 08.06.2019
6675 Clouds 24 1014 57 10000 9.3 210 14:48 08.06.2019
6676 Clouds 24 1014 57 10000 9.3 210 14:48 08.06.2019
6677 Clouds 24 1014 57 10000 9.3 210 14:29 08.06.2019
6678 Clouds 24 1014 57 10000 10.3 210 13:49 08.06.2019
6679 Clear 24 1014 57 10000 10.3 210 12:53 08.06.2019
6680 Clear 25 1014 57 10000 10.8 210 12:33 08.06.2019
6681 Clouds 24 1015 60 10000 9.3 220 11:44 08.06.2019
6682 Clouds 24 1015 60 10000 9.3 220 11:44 08.06.2019
6683 Clouds 24 1015 60 10000 9.3 220 11:26 08.06.2019
6684 Clear 24 1015 57 10000 8.7 210 10:47 08.06.2019
6685 Clear 24 1015 57 10000 8.7 210 10:24 08.06.2019
6686 Clear 23 1015 64 10000 8.2 210 09:54 08.06.2019
6687 Clear 23 1014 64 10000 6.2 200 09:29 08.06.2019
6688 Clear 22 1015 64 10000 8.2 210 08:40 08.06.2019
6689 Clear 22 1015 64 10000 6.7 200 08:19 08.06.2019
6690 Clear 19 1015 72 10000 3.6 190 06:51 08.06.2019
6691 Clear 19 1015 72 10000 3.6 190 06:32 08.06.2019
6692 Clear 18 1015 72 10000 2.6 180 03:35 08.06.2019
6693 Clear 19 1015 68 10000 2.6 180 02:20 08.06.2019
6694 Clear 20 1016 64 10000 3.1 200 00:30 08.06.2019
6695 Clear 20 1015 64 10000 2.6 220 23:56 07.06.2019
6696 Clear 22 1015 56 10000 3.1 210 23:21 07.06.2019
6697 Clear 22 1015 56 10000 3.1 210 22:50 07.06.2019
6698 Clear 22 1015 53 10000 3.1 190 22:32 07.06.2019
6699 Clear 23 1015 49 10000 4.1 200 21:54 07.06.2019
6700 Clear 23 1015 49 10000 4.1 200 21:31 07.06.2019
6701 Clear 25 1015 44 10000 4.6 210 20:58 07.06.2019
6702 Clear 25 1015 44 10000 4.6 210 20:38 07.06.2019
6703 Clear 26 1015 41 10000 7.2 200 19:52 07.06.2019
6704 Clear 27 1015 39 10000 7.7 210 19:30 07.06.2019
6705 Clear 27 1015 39 10000 8.2 210 18:59 07.06.2019
6706 Clear 27 1015 39 10000 8.2 220 18:37 07.06.2019
6707 Clear 28 1015 34 10000 7.7 220 18:19 07.06.2019
6708 Clear 28 1015 34 10000 8.2 220 17:41 07.06.2019